<?xml version="1.0" encoding="UTF-8" standalone="no" ?>
<gpx xmlns="http://www.topografix.com/GPX/1/1" xmlns:xsi="http://www.w3.org/2001/XMLSchema-instance" xsi:schemaLocation="http://www.topografix.com/GPX/1/1 http://www.topografix.com/GPX/1/1/gpx.xsd" version="1.1" creator="VisuGPX - https://www.visugpx.com">
  <metadata>
    <name>La Blonville 2011</name>
    <desc><![CDATA[Organisée par le Club UV Neubourg
Le Neubourg --> Blonville sur Mer
et retour ]]></desc>
  </metadata>
  <trk>
    <name><![CDATA[La Blonville 2011_1]]></name>
    <trkseg>
      <trkpt lat="49.14846" lon="0.90002">
        <ele>132.6</ele>
        <time>2011-07-02T05:54:06Z</time>
      </trkpt>
      <trkpt lat="49.14846" lon="0.90002">
        <ele>132.6</ele>
        <time>2011-07-02T05:54:17Z</time>
      </trkpt>
      <trkpt lat="49.14846" lon="0.90002">
        <ele>132.6</ele>
        <time>2011-07-02T05:54:50Z</time>
      </trkpt>
      <trkpt lat="49.14846" lon="0.90002">
        <ele>132.6</ele>
        <time>2011-07-02T05:55:01Z</time>
      </trkpt>
      <trkpt lat="49.14846" lon="0.90002">
        <ele>132.6</ele>
        <time>2011-07-02T05:55:16Z</time>
      </trkpt>
      <trkpt lat="49.14846" lon="0.90002">
        <ele>132.6</ele>
        <time>2011-07-02T05:55:27Z</time>
      </trkpt>
      <trkpt lat="49.14846" lon="0.90002">
        <ele>132.6</ele>
        <time>2011-07-02T05:55:57Z</time>
      </trkpt>
      <trkpt lat="49.14846" lon="0.90002">
        <ele>132.6</ele>
        <time>2011-07-02T05:56:09Z</time>
      </trkpt>
      <trkpt lat="49.14846" lon="0.90002">
        <ele>132.6</ele>
        <time>2011-07-02T05:57:23Z</time>
      </trkpt>
      <trkpt lat="49.14846" lon="0.90002">
        <ele>132.6</ele>
        <time>2011-07-02T05:57:35Z</time>
      </trkpt>
      <trkpt lat="49.14846" lon="0.90002">
        <ele>132.6</ele>
        <time>2011-07-02T05:58:15Z</time>
      </trkpt>
      <trkpt lat="49.14846" lon="0.90002">
        <ele>132.6</ele>
        <time>2011-07-02T05:58:27Z</time>
      </trkpt>
      <trkpt lat="49.14846" lon="0.90002">
        <ele>132.6</ele>
        <time>2011-07-02T05:58:47Z</time>
      </trkpt>
      <trkpt lat="49.14846" lon="0.90002">
        <ele>177.2</ele>
        <time>2011-07-02T05:58:54Z</time>
      </trkpt>
      <trkpt lat="49.14846" lon="0.90002">
        <ele>132.6</ele>
        <time>2011-07-02T05:59:06Z</time>
      </trkpt>
      <trkpt lat="49.14846" lon="0.90002">
        <ele>132.6</ele>
        <time>2011-07-02T06:00:35Z</time>
      </trkpt>
      <trkpt lat="49.14846" lon="0.90002">
        <ele>132.6</ele>
        <time>2011-07-02T06:00:47Z</time>
      </trkpt>
      <trkpt lat="49.14846" lon="0.90002">
        <ele>132.6</ele>
        <time>2011-07-02T06:03:50Z</time>
      </trkpt>
      <trkpt lat="49.14832" lon="0.90003">
        <ele>178.6</ele>
        <time>2011-07-02T06:03:56Z</time>
      </trkpt>
      <trkpt lat="49.14824" lon="0.90007">
        <ele>175.4</ele>
        <time>2011-07-02T06:04:01Z</time>
      </trkpt>
      <trkpt lat="49.14824" lon="0.90018">
        <ele>172.7</ele>
        <time>2011-07-02T06:04:05Z</time>
      </trkpt>
      <trkpt lat="49.14827" lon="0.90054">
        <ele>171.8</ele>
        <time>2011-07-02T06:04:14Z</time>
      </trkpt>
      <trkpt lat="49.14818" lon="0.9006">
        <ele>172</ele>
        <time>2011-07-02T06:04:16Z</time>
      </trkpt>
      <trkpt lat="49.14795" lon="0.90074">
        <ele>173.7</ele>
        <time>2011-07-02T06:04:23Z</time>
      </trkpt>
      <trkpt lat="49.14787" lon="0.90079">
        <ele>174.7</ele>
        <time>2011-07-02T06:04:26Z</time>
      </trkpt>
      <trkpt lat="49.14771" lon="0.90064">
        <ele>170.3</ele>
        <time>2011-07-02T06:04:31Z</time>
      </trkpt>
      <trkpt lat="49.14757" lon="0.90049">
        <ele>168.9</ele>
        <time>2011-07-02T06:04:35Z</time>
      </trkpt>
      <trkpt lat="49.14742" lon="0.90032">
        <ele>168.1</ele>
        <time>2011-07-02T06:04:39Z</time>
      </trkpt>
      <trkpt lat="49.14736" lon="0.90025">
        <ele>169.2</ele>
        <time>2011-07-02T06:04:41Z</time>
      </trkpt>
      <trkpt lat="49.14707" lon="0.90004">
        <ele>170.1</ele>
        <time>2011-07-02T06:04:47Z</time>
      </trkpt>
      <trkpt lat="49.14695" lon="0.89984">
        <ele>169.8</ele>
        <time>2011-07-02T06:04:50Z</time>
      </trkpt>
      <trkpt lat="49.14677" lon="0.89954">
        <ele>168.1</ele>
        <time>2011-07-02T06:04:54Z</time>
      </trkpt>
      <trkpt lat="49.14659" lon="0.89932">
        <ele>168.1</ele>
        <time>2011-07-02T06:04:58Z</time>
      </trkpt>
      <trkpt lat="49.14644" lon="0.8991">
        <ele>167.3</ele>
        <time>2011-07-02T06:05:02Z</time>
      </trkpt>
      <trkpt lat="49.14621" lon="0.89878">
        <ele>166.6</ele>
        <time>2011-07-02T06:05:07Z</time>
      </trkpt>
      <trkpt lat="49.14606" lon="0.89857">
        <ele>165.8</ele>
        <time>2011-07-02T06:05:10Z</time>
      </trkpt>
      <trkpt lat="49.14588" lon="0.89834">
        <ele>166.8</ele>
        <time>2011-07-02T06:05:14Z</time>
      </trkpt>
      <trkpt lat="49.14573" lon="0.89811">
        <ele>167.1</ele>
        <time>2011-07-02T06:05:18Z</time>
      </trkpt>
      <trkpt lat="49.14558" lon="0.89789">
        <ele>168</ele>
        <time>2011-07-02T06:05:22Z</time>
      </trkpt>
      <trkpt lat="49.14542" lon="0.89768">
        <ele>169.1</ele>
        <time>2011-07-02T06:05:26Z</time>
      </trkpt>
      <trkpt lat="49.14526" lon="0.8975">
        <ele>170.4</ele>
        <time>2011-07-02T06:05:30Z</time>
      </trkpt>
      <trkpt lat="49.1451" lon="0.8973">
        <ele>171</ele>
        <time>2011-07-02T06:05:34Z</time>
      </trkpt>
      <trkpt lat="49.14503" lon="0.89717">
        <ele>171.8</ele>
        <time>2011-07-02T06:05:36Z</time>
      </trkpt>
      <trkpt lat="49.14487" lon="0.89691">
        <ele>170.8</ele>
        <time>2011-07-02T06:05:40Z</time>
      </trkpt>
      <trkpt lat="49.14465" lon="0.8966">
        <ele>172.7</ele>
        <time>2011-07-02T06:05:46Z</time>
      </trkpt>
      <trkpt lat="49.1445" lon="0.89637">
        <ele>172.6</ele>
        <time>2011-07-02T06:05:50Z</time>
      </trkpt>
      <trkpt lat="49.14434" lon="0.89616">
        <ele>173.5</ele>
        <time>2011-07-02T06:05:54Z</time>
      </trkpt>
      <trkpt lat="49.1442" lon="0.89598">
        <ele>175.1</ele>
        <time>2011-07-02T06:05:58Z</time>
      </trkpt>
      <trkpt lat="49.14412" lon="0.89592">
        <ele>175.2</ele>
        <time>2011-07-02T06:06:00Z</time>
      </trkpt>
      <trkpt lat="49.1439" lon="0.89559">
        <ele>175.2</ele>
        <time>2011-07-02T06:06:06Z</time>
      </trkpt>
      <trkpt lat="49.14376" lon="0.89535">
        <ele>175.9</ele>
        <time>2011-07-02T06:06:10Z</time>
      </trkpt>
      <trkpt lat="49.14362" lon="0.89513">
        <ele>175.8</ele>
        <time>2011-07-02T06:06:14Z</time>
      </trkpt>
      <trkpt lat="49.14347" lon="0.89492">
        <ele>175.8</ele>
        <time>2011-07-02T06:06:18Z</time>
      </trkpt>
      <trkpt lat="49.14331" lon="0.89469">
        <ele>176.1</ele>
        <time>2011-07-02T06:06:22Z</time>
      </trkpt>
      <trkpt lat="49.14317" lon="0.8945">
        <ele>177.1</ele>
        <time>2011-07-02T06:06:26Z</time>
      </trkpt>
      <trkpt lat="49.14301" lon="0.8943">
        <ele>176</ele>
        <time>2011-07-02T06:06:30Z</time>
      </trkpt>
      <trkpt lat="49.14285" lon="0.89408">
        <ele>175.7</ele>
        <time>2011-07-02T06:06:34Z</time>
      </trkpt>
      <trkpt lat="49.14269" lon="0.89386">
        <ele>176.5</ele>
        <time>2011-07-02T06:06:38Z</time>
      </trkpt>
      <trkpt lat="49.14251" lon="0.8935">
        <ele>177.5</ele>
        <time>2011-07-02T06:06:43Z</time>
      </trkpt>
      <trkpt lat="49.14239" lon="0.89331">
        <ele>177.3</ele>
        <time>2011-07-02T06:06:46Z</time>
      </trkpt>
      <trkpt lat="49.14223" lon="0.89306">
        <ele>177.1</ele>
        <time>2011-07-02T06:06:50Z</time>
      </trkpt>
      <trkpt lat="49.14208" lon="0.89285">
        <ele>177</ele>
        <time>2011-07-02T06:06:54Z</time>
      </trkpt>
      <trkpt lat="49.14192" lon="0.89258">
        <ele>178</ele>
        <time>2011-07-02T06:06:58Z</time>
      </trkpt>
      <trkpt lat="49.14172" lon="0.89225">
        <ele>178.8</ele>
        <time>2011-07-02T06:07:03Z</time>
      </trkpt>
      <trkpt lat="49.14156" lon="0.89201">
        <ele>178.6</ele>
        <time>2011-07-02T06:07:07Z</time>
      </trkpt>
      <trkpt lat="49.14137" lon="0.89185">
        <ele>178.3</ele>
        <time>2011-07-02T06:07:11Z</time>
      </trkpt>
      <trkpt lat="49.14116" lon="0.89181">
        <ele>178.1</ele>
        <time>2011-07-02T06:07:15Z</time>
      </trkpt>
      <trkpt lat="49.14096" lon="0.89177">
        <ele>177.4</ele>
        <time>2011-07-02T06:07:19Z</time>
      </trkpt>
      <trkpt lat="49.14082" lon="0.89156">
        <ele>178.3</ele>
        <time>2011-07-02T06:07:23Z</time>
      </trkpt>
      <trkpt lat="49.14075" lon="0.89123">
        <ele>178.4</ele>
        <time>2011-07-02T06:07:27Z</time>
      </trkpt>
      <trkpt lat="49.14067" lon="0.89092">
        <ele>179.2</ele>
        <time>2011-07-02T06:07:31Z</time>
      </trkpt>
      <trkpt lat="49.14055" lon="0.89063">
        <ele>178.8</ele>
        <time>2011-07-02T06:07:35Z</time>
      </trkpt>
      <trkpt lat="49.14041" lon="0.89037">
        <ele>179.8</ele>
        <time>2011-07-02T06:07:39Z</time>
      </trkpt>
      <trkpt lat="49.14025" lon="0.89015">
        <ele>179.9</ele>
        <time>2011-07-02T06:07:43Z</time>
      </trkpt>
      <trkpt lat="49.1401" lon="0.88992">
        <ele>180.1</ele>
        <time>2011-07-02T06:07:47Z</time>
      </trkpt>
      <trkpt lat="49.13994" lon="0.8897">
        <ele>180.7</ele>
        <time>2011-07-02T06:07:51Z</time>
      </trkpt>
      <trkpt lat="49.13979" lon="0.88948">
        <ele>181.2</ele>
        <time>2011-07-02T06:07:55Z</time>
      </trkpt>
      <trkpt lat="49.13963" lon="0.88925">
        <ele>181.3</ele>
        <time>2011-07-02T06:07:59Z</time>
      </trkpt>
      <trkpt lat="49.13947" lon="0.88903">
        <ele>181.7</ele>
        <time>2011-07-02T06:08:03Z</time>
      </trkpt>
      <trkpt lat="49.1393" lon="0.8888">
        <ele>182.7</ele>
        <time>2011-07-02T06:08:07Z</time>
      </trkpt>
      <trkpt lat="49.13921" lon="0.88869">
        <ele>183.1</ele>
        <time>2011-07-02T06:08:09Z</time>
      </trkpt>
      <trkpt lat="49.13896" lon="0.88833">
        <ele>184</ele>
        <time>2011-07-02T06:08:15Z</time>
      </trkpt>
      <trkpt lat="49.13879" lon="0.88809">
        <ele>183.4</ele>
        <time>2011-07-02T06:08:19Z</time>
      </trkpt>
      <trkpt lat="49.13863" lon="0.88786">
        <ele>183.4</ele>
        <time>2011-07-02T06:08:23Z</time>
      </trkpt>
      <trkpt lat="49.13846" lon="0.88762">
        <ele>184</ele>
        <time>2011-07-02T06:08:27Z</time>
      </trkpt>
      <trkpt lat="49.13833" lon="0.88744">
        <ele>183.6</ele>
        <time>2011-07-02T06:08:30Z</time>
      </trkpt>
      <trkpt lat="49.13817" lon="0.88721">
        <ele>183.9</ele>
        <time>2011-07-02T06:08:34Z</time>
      </trkpt>
      <trkpt lat="49.13801" lon="0.88696">
        <ele>183.8</ele>
        <time>2011-07-02T06:08:38Z</time>
      </trkpt>
      <trkpt lat="49.13785" lon="0.88674">
        <ele>183.8</ele>
        <time>2011-07-02T06:08:42Z</time>
      </trkpt>
      <trkpt lat="49.13768" lon="0.8865">
        <ele>183.9</ele>
        <time>2011-07-02T06:08:46Z</time>
      </trkpt>
      <trkpt lat="49.13751" lon="0.88625">
        <ele>183.6</ele>
        <time>2011-07-02T06:08:50Z</time>
      </trkpt>
      <trkpt lat="49.13743" lon="0.88614">
        <ele>183.5</ele>
        <time>2011-07-02T06:08:52Z</time>
      </trkpt>
      <trkpt lat="49.13717" lon="0.88578">
        <ele>183.5</ele>
        <time>2011-07-02T06:08:58Z</time>
      </trkpt>
      <trkpt lat="49.13709" lon="0.88566">
        <ele>183.7</ele>
        <time>2011-07-02T06:09:00Z</time>
      </trkpt>
      <trkpt lat="49.13678" lon="0.88524">
        <ele>184.2</ele>
        <time>2011-07-02T06:09:07Z</time>
      </trkpt>
      <trkpt lat="49.13662" lon="0.88501">
        <ele>183.8</ele>
        <time>2011-07-02T06:09:11Z</time>
      </trkpt>
      <trkpt lat="49.13643" lon="0.88475">
        <ele>182.6</ele>
        <time>2011-07-02T06:09:15Z</time>
      </trkpt>
      <trkpt lat="49.1363" lon="0.88456">
        <ele>183.7</ele>
        <time>2011-07-02T06:09:18Z</time>
      </trkpt>
      <trkpt lat="49.13613" lon="0.88433">
        <ele>183.4</ele>
        <time>2011-07-02T06:09:22Z</time>
      </trkpt>
      <trkpt lat="49.13597" lon="0.88408">
        <ele>184.2</ele>
        <time>2011-07-02T06:09:26Z</time>
      </trkpt>
      <trkpt lat="49.13582" lon="0.88385">
        <ele>184.6</ele>
        <time>2011-07-02T06:09:30Z</time>
      </trkpt>
      <trkpt lat="49.13559" lon="0.8835">
        <ele>185.5</ele>
        <time>2011-07-02T06:09:35Z</time>
      </trkpt>
      <trkpt lat="49.13542" lon="0.88326">
        <ele>186.3</ele>
        <time>2011-07-02T06:09:39Z</time>
      </trkpt>
      <trkpt lat="49.13526" lon="0.88303">
        <ele>186</ele>
        <time>2011-07-02T06:09:43Z</time>
      </trkpt>
      <trkpt lat="49.13503" lon="0.88278">
        <ele>182.5</ele>
        <time>2011-07-02T06:09:47Z</time>
      </trkpt>
      <trkpt lat="49.13488" lon="0.88264">
        <ele>182.3</ele>
        <time>2011-07-02T06:09:50Z</time>
      </trkpt>
      <trkpt lat="49.13474" lon="0.88239">
        <ele>182.9</ele>
        <time>2011-07-02T06:09:54Z</time>
      </trkpt>
      <trkpt lat="49.13456" lon="0.88202">
        <ele>183.8</ele>
        <time>2011-07-02T06:09:59Z</time>
      </trkpt>
      <trkpt lat="49.13449" lon="0.88192">
        <ele>184.7</ele>
        <time>2011-07-02T06:10:01Z</time>
      </trkpt>
      <trkpt lat="49.13428" lon="0.88165">
        <ele>184.6</ele>
        <time>2011-07-02T06:10:07Z</time>
      </trkpt>
      <trkpt lat="49.13411" lon="0.88141">
        <ele>182.7</ele>
        <time>2011-07-02T06:10:11Z</time>
      </trkpt>
      <trkpt lat="49.13404" lon="0.88131">
        <ele>182.6</ele>
        <time>2011-07-02T06:10:13Z</time>
      </trkpt>
      <trkpt lat="49.13382" lon="0.88099">
        <ele>181.2</ele>
        <time>2011-07-02T06:10:19Z</time>
      </trkpt>
      <trkpt lat="49.13365" lon="0.88078">
        <ele>179.6</ele>
        <time>2011-07-02T06:10:23Z</time>
      </trkpt>
      <trkpt lat="49.13358" lon="0.88067">
        <ele>179.5</ele>
        <time>2011-07-02T06:10:25Z</time>
      </trkpt>
      <trkpt lat="49.1333" lon="0.88033">
        <ele>178.6</ele>
        <time>2011-07-02T06:10:31Z</time>
      </trkpt>
      <trkpt lat="49.13312" lon="0.88011">
        <ele>179.8</ele>
        <time>2011-07-02T06:10:35Z</time>
      </trkpt>
      <trkpt lat="49.13295" lon="0.87985">
        <ele>181.1</ele>
        <time>2011-07-02T06:10:39Z</time>
      </trkpt>
      <trkpt lat="49.13279" lon="0.87958">
        <ele>182.1</ele>
        <time>2011-07-02T06:10:43Z</time>
      </trkpt>
      <trkpt lat="49.1326" lon="0.87932">
        <ele>181.4</ele>
        <time>2011-07-02T06:10:47Z</time>
      </trkpt>
      <trkpt lat="49.13243" lon="0.87904">
        <ele>181.2</ele>
        <time>2011-07-02T06:10:51Z</time>
      </trkpt>
      <trkpt lat="49.13226" lon="0.8788">
        <ele>181.4</ele>
        <time>2011-07-02T06:10:55Z</time>
      </trkpt>
      <trkpt lat="49.13216" lon="0.87867">
        <ele>181</ele>
        <time>2011-07-02T06:10:57Z</time>
      </trkpt>
      <trkpt lat="49.13195" lon="0.87835">
        <ele>180.9</ele>
        <time>2011-07-02T06:11:02Z</time>
      </trkpt>
      <trkpt lat="49.13178" lon="0.8781">
        <ele>180</ele>
        <time>2011-07-02T06:11:06Z</time>
      </trkpt>
      <trkpt lat="49.1316" lon="0.87784">
        <ele>179.7</ele>
        <time>2011-07-02T06:11:10Z</time>
      </trkpt>
      <trkpt lat="49.13139" lon="0.8775">
        <ele>180.4</ele>
        <time>2011-07-02T06:11:15Z</time>
      </trkpt>
      <trkpt lat="49.1312" lon="0.87724">
        <ele>180.8</ele>
        <time>2011-07-02T06:11:19Z</time>
      </trkpt>
      <trkpt lat="49.13101" lon="0.87696">
        <ele>182.1</ele>
        <time>2011-07-02T06:11:23Z</time>
      </trkpt>
      <trkpt lat="49.13082" lon="0.87668">
        <ele>183.8</ele>
        <time>2011-07-02T06:11:27Z</time>
      </trkpt>
      <trkpt lat="49.13062" lon="0.87641">
        <ele>184.3</ele>
        <time>2011-07-02T06:11:31Z</time>
      </trkpt>
      <trkpt lat="49.13043" lon="0.87613">
        <ele>185</ele>
        <time>2011-07-02T06:11:35Z</time>
      </trkpt>
      <trkpt lat="49.13023" lon="0.87585">
        <ele>185.4</ele>
        <time>2011-07-02T06:11:39Z</time>
      </trkpt>
      <trkpt lat="49.13005" lon="0.87559">
        <ele>186.3</ele>
        <time>2011-07-02T06:11:43Z</time>
      </trkpt>
      <trkpt lat="49.12987" lon="0.87534">
        <ele>186.6</ele>
        <time>2011-07-02T06:11:47Z</time>
      </trkpt>
      <trkpt lat="49.1297" lon="0.87509">
        <ele>187.1</ele>
        <time>2011-07-02T06:11:51Z</time>
      </trkpt>
      <trkpt lat="49.12953" lon="0.87484">
        <ele>187.7</ele>
        <time>2011-07-02T06:11:55Z</time>
      </trkpt>
      <trkpt lat="49.12935" lon="0.8746">
        <ele>188</ele>
        <time>2011-07-02T06:11:59Z</time>
      </trkpt>
      <trkpt lat="49.12918" lon="0.87435">
        <ele>188.4</ele>
        <time>2011-07-02T06:12:03Z</time>
      </trkpt>
      <trkpt lat="49.12901" lon="0.8741">
        <ele>188.7</ele>
        <time>2011-07-02T06:12:07Z</time>
      </trkpt>
      <trkpt lat="49.12884" lon="0.87386">
        <ele>188.5</ele>
        <time>2011-07-02T06:12:11Z</time>
      </trkpt>
      <trkpt lat="49.12867" lon="0.87363">
        <ele>189.1</ele>
        <time>2011-07-02T06:12:15Z</time>
      </trkpt>
      <trkpt lat="49.1285" lon="0.87339">
        <ele>189.2</ele>
        <time>2011-07-02T06:12:19Z</time>
      </trkpt>
      <trkpt lat="49.12833" lon="0.87313">
        <ele>189.4</ele>
        <time>2011-07-02T06:12:23Z</time>
      </trkpt>
      <trkpt lat="49.12816" lon="0.87289">
        <ele>189</ele>
        <time>2011-07-02T06:12:27Z</time>
      </trkpt>
      <trkpt lat="49.12799" lon="0.87263">
        <ele>189.4</ele>
        <time>2011-07-02T06:12:31Z</time>
      </trkpt>
      <trkpt lat="49.12781" lon="0.87238">
        <ele>190.2</ele>
        <time>2011-07-02T06:12:35Z</time>
      </trkpt>
      <trkpt lat="49.12763" lon="0.87212">
        <ele>190.8</ele>
        <time>2011-07-02T06:12:39Z</time>
      </trkpt>
      <trkpt lat="49.12745" lon="0.87186">
        <ele>191.8</ele>
        <time>2011-07-02T06:12:43Z</time>
      </trkpt>
      <trkpt lat="49.1273" lon="0.87168">
        <ele>191.9</ele>
        <time>2011-07-02T06:12:46Z</time>
      </trkpt>
      <trkpt lat="49.12712" lon="0.87142">
        <ele>191.8</ele>
        <time>2011-07-02T06:12:50Z</time>
      </trkpt>
      <trkpt lat="49.12695" lon="0.87117">
        <ele>191.6</ele>
        <time>2011-07-02T06:12:54Z</time>
      </trkpt>
      <trkpt lat="49.1268" lon="0.87098">
        <ele>191.7</ele>
        <time>2011-07-02T06:12:57Z</time>
      </trkpt>
      <trkpt lat="49.12654" lon="0.87061">
        <ele>192.3</ele>
        <time>2011-07-02T06:13:03Z</time>
      </trkpt>
      <trkpt lat="49.1264" lon="0.87042">
        <ele>193</ele>
        <time>2011-07-02T06:13:06Z</time>
      </trkpt>
      <trkpt lat="49.12619" lon="0.87009">
        <ele>192.7</ele>
        <time>2011-07-02T06:13:11Z</time>
      </trkpt>
      <trkpt lat="49.12601" lon="0.86982">
        <ele>193</ele>
        <time>2011-07-02T06:13:15Z</time>
      </trkpt>
      <trkpt lat="49.12587" lon="0.86962">
        <ele>193</ele>
        <time>2011-07-02T06:13:18Z</time>
      </trkpt>
      <trkpt lat="49.12564" lon="0.8693">
        <ele>194</ele>
        <time>2011-07-02T06:13:23Z</time>
      </trkpt>
      <trkpt lat="49.12546" lon="0.86905">
        <ele>193.4</ele>
        <time>2011-07-02T06:13:27Z</time>
      </trkpt>
      <trkpt lat="49.12529" lon="0.86879">
        <ele>194.9</ele>
        <time>2011-07-02T06:13:31Z</time>
      </trkpt>
      <trkpt lat="49.12512" lon="0.86854">
        <ele>195.6</ele>
        <time>2011-07-02T06:13:35Z</time>
      </trkpt>
      <trkpt lat="49.12493" lon="0.86829">
        <ele>195.5</ele>
        <time>2011-07-02T06:13:39Z</time>
      </trkpt>
      <trkpt lat="49.12476" lon="0.86803">
        <ele>196.1</ele>
        <time>2011-07-02T06:13:43Z</time>
      </trkpt>
      <trkpt lat="49.12458" lon="0.86778">
        <ele>196.2</ele>
        <time>2011-07-02T06:13:47Z</time>
      </trkpt>
      <trkpt lat="49.1244" lon="0.86751">
        <ele>196.6</ele>
        <time>2011-07-02T06:13:51Z</time>
      </trkpt>
      <trkpt lat="49.12421" lon="0.86725">
        <ele>197</ele>
        <time>2011-07-02T06:13:55Z</time>
      </trkpt>
      <trkpt lat="49.12402" lon="0.86699">
        <ele>197.7</ele>
        <time>2011-07-02T06:13:59Z</time>
      </trkpt>
      <trkpt lat="49.12383" lon="0.86672">
        <ele>197.6</ele>
        <time>2011-07-02T06:14:03Z</time>
      </trkpt>
      <trkpt lat="49.12364" lon="0.86644">
        <ele>198.1</ele>
        <time>2011-07-02T06:14:07Z</time>
      </trkpt>
      <trkpt lat="49.12345" lon="0.86617">
        <ele>198.5</ele>
        <time>2011-07-02T06:14:11Z</time>
      </trkpt>
      <trkpt lat="49.12327" lon="0.86591">
        <ele>198.6</ele>
        <time>2011-07-02T06:14:15Z</time>
      </trkpt>
      <trkpt lat="49.12309" lon="0.86564">
        <ele>199.5</ele>
        <time>2011-07-02T06:14:19Z</time>
      </trkpt>
      <trkpt lat="49.1229" lon="0.86537">
        <ele>199.1</ele>
        <time>2011-07-02T06:14:23Z</time>
      </trkpt>
      <trkpt lat="49.12276" lon="0.86517">
        <ele>199.2</ele>
        <time>2011-07-02T06:14:26Z</time>
      </trkpt>
      <trkpt lat="49.12252" lon="0.86484">
        <ele>199.8</ele>
        <time>2011-07-02T06:14:31Z</time>
      </trkpt>
      <trkpt lat="49.12234" lon="0.86456">
        <ele>198.9</ele>
        <time>2011-07-02T06:14:35Z</time>
      </trkpt>
      <trkpt lat="49.12215" lon="0.8643">
        <ele>198.9</ele>
        <time>2011-07-02T06:14:39Z</time>
      </trkpt>
      <trkpt lat="49.12201" lon="0.8641">
        <ele>198.8</ele>
        <time>2011-07-02T06:14:42Z</time>
      </trkpt>
      <trkpt lat="49.12178" lon="0.86378">
        <ele>198.8</ele>
        <time>2011-07-02T06:14:47Z</time>
      </trkpt>
      <trkpt lat="49.12159" lon="0.86354">
        <ele>198.7</ele>
        <time>2011-07-02T06:14:51Z</time>
      </trkpt>
      <trkpt lat="49.1214" lon="0.86329">
        <ele>198.8</ele>
        <time>2011-07-02T06:14:55Z</time>
      </trkpt>
      <trkpt lat="49.1212" lon="0.86304">
        <ele>198.6</ele>
        <time>2011-07-02T06:14:59Z</time>
      </trkpt>
      <trkpt lat="49.12106" lon="0.86284">
        <ele>199.3</ele>
        <time>2011-07-02T06:15:02Z</time>
      </trkpt>
      <trkpt lat="49.12086" lon="0.86248">
        <ele>199.5</ele>
        <time>2011-07-02T06:15:07Z</time>
      </trkpt>
      <trkpt lat="49.12073" lon="0.86214">
        <ele>199.2</ele>
        <time>2011-07-02T06:15:11Z</time>
      </trkpt>
      <trkpt lat="49.12063" lon="0.86188">
        <ele>199.1</ele>
        <time>2011-07-02T06:15:14Z</time>
      </trkpt>
      <trkpt lat="49.12046" lon="0.86159">
        <ele>199.5</ele>
        <time>2011-07-02T06:15:18Z</time>
      </trkpt>
      <trkpt lat="49.12028" lon="0.86137">
        <ele>199.2</ele>
        <time>2011-07-02T06:15:22Z</time>
      </trkpt>
      <trkpt lat="49.12015" lon="0.86113">
        <ele>199.2</ele>
        <time>2011-07-02T06:15:26Z</time>
      </trkpt>
      <trkpt lat="49.12006" lon="0.86083">
        <ele>198.8</ele>
        <time>2011-07-02T06:15:30Z</time>
      </trkpt>
      <trkpt lat="49.11986" lon="0.86068">
        <ele>199.5</ele>
        <time>2011-07-02T06:15:34Z</time>
      </trkpt>
      <trkpt lat="49.11961" lon="0.86068">
        <ele>198.7</ele>
        <time>2011-07-02T06:15:38Z</time>
      </trkpt>
      <trkpt lat="49.11933" lon="0.8604">
        <ele>197.8</ele>
        <time>2011-07-02T06:15:43Z</time>
      </trkpt>
      <trkpt lat="49.11917" lon="0.86004">
        <ele>198.1</ele>
        <time>2011-07-02T06:15:47Z</time>
      </trkpt>
      <trkpt lat="49.11907" lon="0.85964">
        <ele>198.8</ele>
        <time>2011-07-02T06:15:51Z</time>
      </trkpt>
      <trkpt lat="49.11903" lon="0.85945">
        <ele>199.1</ele>
        <time>2011-07-02T06:15:53Z</time>
      </trkpt>
      <trkpt lat="49.11884" lon="0.85895">
        <ele>199.2</ele>
        <time>2011-07-02T06:15:59Z</time>
      </trkpt>
      <trkpt lat="49.11868" lon="0.85861">
        <ele>199.2</ele>
        <time>2011-07-02T06:16:03Z</time>
      </trkpt>
      <trkpt lat="49.11852" lon="0.85826">
        <ele>198.3</ele>
        <time>2011-07-02T06:16:07Z</time>
      </trkpt>
      <trkpt lat="49.11837" lon="0.85789">
        <ele>197.7</ele>
        <time>2011-07-02T06:16:11Z</time>
      </trkpt>
      <trkpt lat="49.11821" lon="0.85752">
        <ele>197.2</ele>
        <time>2011-07-02T06:16:15Z</time>
      </trkpt>
      <trkpt lat="49.11804" lon="0.85715">
        <ele>197.3</ele>
        <time>2011-07-02T06:16:19Z</time>
      </trkpt>
      <trkpt lat="49.11786" lon="0.85679">
        <ele>197.3</ele>
        <time>2011-07-02T06:16:23Z</time>
      </trkpt>
      <trkpt lat="49.11769" lon="0.85641">
        <ele>197.3</ele>
        <time>2011-07-02T06:16:27Z</time>
      </trkpt>
      <trkpt lat="49.11752" lon="0.85603">
        <ele>196.2</ele>
        <time>2011-07-02T06:16:31Z</time>
      </trkpt>
      <trkpt lat="49.11734" lon="0.85565">
        <ele>196.7</ele>
        <time>2011-07-02T06:16:35Z</time>
      </trkpt>
      <trkpt lat="49.11717" lon="0.85528">
        <ele>197.2</ele>
        <time>2011-07-02T06:16:39Z</time>
      </trkpt>
      <trkpt lat="49.117" lon="0.85492">
        <ele>197.5</ele>
        <time>2011-07-02T06:16:43Z</time>
      </trkpt>
      <trkpt lat="49.11684" lon="0.85457">
        <ele>197.5</ele>
        <time>2011-07-02T06:16:47Z</time>
      </trkpt>
      <trkpt lat="49.11666" lon="0.8542">
        <ele>198.1</ele>
        <time>2011-07-02T06:16:51Z</time>
      </trkpt>
      <trkpt lat="49.1165" lon="0.85383">
        <ele>198.3</ele>
        <time>2011-07-02T06:16:55Z</time>
      </trkpt>
      <trkpt lat="49.11634" lon="0.85348">
        <ele>198.2</ele>
        <time>2011-07-02T06:16:59Z</time>
      </trkpt>
      <trkpt lat="49.11617" lon="0.85314">
        <ele>198.5</ele>
        <time>2011-07-02T06:17:03Z</time>
      </trkpt>
      <trkpt lat="49.116" lon="0.85278">
        <ele>198.5</ele>
        <time>2011-07-02T06:17:07Z</time>
      </trkpt>
      <trkpt lat="49.11584" lon="0.85243">
        <ele>198.8</ele>
        <time>2011-07-02T06:17:11Z</time>
      </trkpt>
      <trkpt lat="49.11568" lon="0.85208">
        <ele>199.3</ele>
        <time>2011-07-02T06:17:15Z</time>
      </trkpt>
      <trkpt lat="49.11552" lon="0.85174">
        <ele>199.1</ele>
        <time>2011-07-02T06:17:19Z</time>
      </trkpt>
      <trkpt lat="49.11535" lon="0.85138">
        <ele>199.4</ele>
        <time>2011-07-02T06:17:23Z</time>
      </trkpt>
      <trkpt lat="49.11518" lon="0.85103">
        <ele>199.2</ele>
        <time>2011-07-02T06:17:27Z</time>
      </trkpt>
      <trkpt lat="49.11502" lon="0.85068">
        <ele>199.2</ele>
        <time>2011-07-02T06:17:31Z</time>
      </trkpt>
      <trkpt lat="49.11485" lon="0.85034">
        <ele>198.8</ele>
        <time>2011-07-02T06:17:35Z</time>
      </trkpt>
      <trkpt lat="49.1147" lon="0.85">
        <ele>199.3</ele>
        <time>2011-07-02T06:17:39Z</time>
      </trkpt>
      <trkpt lat="49.11452" lon="0.84964">
        <ele>198.8</ele>
        <time>2011-07-02T06:17:43Z</time>
      </trkpt>
      <trkpt lat="49.11435" lon="0.84927">
        <ele>198.6</ele>
        <time>2011-07-02T06:17:47Z</time>
      </trkpt>
      <trkpt lat="49.11418" lon="0.84891">
        <ele>198.6</ele>
        <time>2011-07-02T06:17:51Z</time>
      </trkpt>
      <trkpt lat="49.11401" lon="0.84855">
        <ele>198.1</ele>
        <time>2011-07-02T06:17:55Z</time>
      </trkpt>
      <trkpt lat="49.11385" lon="0.84818">
        <ele>197.6</ele>
        <time>2011-07-02T06:17:59Z</time>
      </trkpt>
      <trkpt lat="49.11367" lon="0.84782">
        <ele>197.4</ele>
        <time>2011-07-02T06:18:03Z</time>
      </trkpt>
      <trkpt lat="49.11349" lon="0.84745">
        <ele>196.1</ele>
        <time>2011-07-02T06:18:07Z</time>
      </trkpt>
      <trkpt lat="49.11331" lon="0.84707">
        <ele>195.9</ele>
        <time>2011-07-02T06:18:11Z</time>
      </trkpt>
      <trkpt lat="49.11313" lon="0.84669">
        <ele>195.4</ele>
        <time>2011-07-02T06:18:15Z</time>
      </trkpt>
      <trkpt lat="49.11294" lon="0.84633">
        <ele>195.2</ele>
        <time>2011-07-02T06:18:19Z</time>
      </trkpt>
      <trkpt lat="49.11279" lon="0.84595">
        <ele>195.5</ele>
        <time>2011-07-02T06:18:23Z</time>
      </trkpt>
      <trkpt lat="49.11262" lon="0.84558">
        <ele>194.9</ele>
        <time>2011-07-02T06:18:27Z</time>
      </trkpt>
      <trkpt lat="49.11245" lon="0.8452">
        <ele>194.3</ele>
        <time>2011-07-02T06:18:31Z</time>
      </trkpt>
      <trkpt lat="49.11229" lon="0.84484">
        <ele>195.1</ele>
        <time>2011-07-02T06:18:35Z</time>
      </trkpt>
      <trkpt lat="49.11211" lon="0.84448">
        <ele>194.4</ele>
        <time>2011-07-02T06:18:39Z</time>
      </trkpt>
      <trkpt lat="49.11194" lon="0.84412">
        <ele>194.3</ele>
        <time>2011-07-02T06:18:44Z</time>
      </trkpt>
      <trkpt lat="49.11176" lon="0.84374">
        <ele>193.6</ele>
        <time>2011-07-02T06:18:47Z</time>
      </trkpt>
      <trkpt lat="49.11157" lon="0.84339">
        <ele>193.6</ele>
        <time>2011-07-02T06:18:51Z</time>
      </trkpt>
      <trkpt lat="49.1114" lon="0.84302">
        <ele>194.1</ele>
        <time>2011-07-02T06:18:56Z</time>
      </trkpt>
      <trkpt lat="49.11123" lon="0.84266">
        <ele>194</ele>
        <time>2011-07-02T06:19:00Z</time>
      </trkpt>
      <trkpt lat="49.11106" lon="0.84229">
        <ele>193.4</ele>
        <time>2011-07-02T06:19:04Z</time>
      </trkpt>
      <trkpt lat="49.11088" lon="0.84193">
        <ele>192.7</ele>
        <time>2011-07-02T06:19:08Z</time>
      </trkpt>
      <trkpt lat="49.1107" lon="0.84157">
        <ele>193.1</ele>
        <time>2011-07-02T06:19:12Z</time>
      </trkpt>
      <trkpt lat="49.11054" lon="0.84118">
        <ele>193.4</ele>
        <time>2011-07-02T06:19:16Z</time>
      </trkpt>
      <trkpt lat="49.11038" lon="0.8408">
        <ele>193.4</ele>
        <time>2011-07-02T06:19:20Z</time>
      </trkpt>
      <trkpt lat="49.11021" lon="0.84042">
        <ele>193.7</ele>
        <time>2011-07-02T06:19:24Z</time>
      </trkpt>
      <trkpt lat="49.11004" lon="0.84006">
        <ele>193.4</ele>
        <time>2011-07-02T06:19:28Z</time>
      </trkpt>
      <trkpt lat="49.10986" lon="0.83968">
        <ele>193.1</ele>
        <time>2011-07-02T06:19:32Z</time>
      </trkpt>
      <trkpt lat="49.10969" lon="0.83933">
        <ele>192.7</ele>
        <time>2011-07-02T06:19:36Z</time>
      </trkpt>
      <trkpt lat="49.10953" lon="0.83897">
        <ele>192.5</ele>
        <time>2011-07-02T06:19:40Z</time>
      </trkpt>
      <trkpt lat="49.10936" lon="0.8386">
        <ele>192.4</ele>
        <time>2011-07-02T06:19:44Z</time>
      </trkpt>
      <trkpt lat="49.10919" lon="0.83822">
        <ele>192.3</ele>
        <time>2011-07-02T06:19:48Z</time>
      </trkpt>
      <trkpt lat="49.10902" lon="0.83785">
        <ele>193</ele>
        <time>2011-07-02T06:19:52Z</time>
      </trkpt>
      <trkpt lat="49.10885" lon="0.83749">
        <ele>192.5</ele>
        <time>2011-07-02T06:19:56Z</time>
      </trkpt>
      <trkpt lat="49.10867" lon="0.83714">
        <ele>192.3</ele>
        <time>2011-07-02T06:20:00Z</time>
      </trkpt>
      <trkpt lat="49.1085" lon="0.83677">
        <ele>192</ele>
        <time>2011-07-02T06:20:04Z</time>
      </trkpt>
      <trkpt lat="49.10833" lon="0.83641">
        <ele>192.2</ele>
        <time>2011-07-02T06:20:08Z</time>
      </trkpt>
      <trkpt lat="49.10815" lon="0.83603">
        <ele>193</ele>
        <time>2011-07-02T06:20:12Z</time>
      </trkpt>
      <trkpt lat="49.10798" lon="0.83567">
        <ele>192.9</ele>
        <time>2011-07-02T06:20:16Z</time>
      </trkpt>
      <trkpt lat="49.10781" lon="0.83531">
        <ele>192.6</ele>
        <time>2011-07-02T06:20:20Z</time>
      </trkpt>
      <trkpt lat="49.10763" lon="0.83494">
        <ele>193.1</ele>
        <time>2011-07-02T06:20:24Z</time>
      </trkpt>
      <trkpt lat="49.10746" lon="0.83456">
        <ele>193.3</ele>
        <time>2011-07-02T06:20:28Z</time>
      </trkpt>
      <trkpt lat="49.10729" lon="0.83419">
        <ele>193.8</ele>
        <time>2011-07-02T06:20:32Z</time>
      </trkpt>
      <trkpt lat="49.10713" lon="0.83383">
        <ele>194.4</ele>
        <time>2011-07-02T06:20:36Z</time>
      </trkpt>
      <trkpt lat="49.10696" lon="0.83347">
        <ele>194.5</ele>
        <time>2011-07-02T06:20:40Z</time>
      </trkpt>
      <trkpt lat="49.10679" lon="0.83312">
        <ele>194.5</ele>
        <time>2011-07-02T06:20:44Z</time>
      </trkpt>
      <trkpt lat="49.10663" lon="0.83276">
        <ele>194.6</ele>
        <time>2011-07-02T06:20:48Z</time>
      </trkpt>
      <trkpt lat="49.10646" lon="0.83241">
        <ele>194.7</ele>
        <time>2011-07-02T06:20:52Z</time>
      </trkpt>
      <trkpt lat="49.10629" lon="0.83205">
        <ele>195.4</ele>
        <time>2011-07-02T06:20:56Z</time>
      </trkpt>
      <trkpt lat="49.10612" lon="0.83169">
        <ele>195.8</ele>
        <time>2011-07-02T06:21:00Z</time>
      </trkpt>
      <trkpt lat="49.10595" lon="0.83134">
        <ele>196.1</ele>
        <time>2011-07-02T06:21:04Z</time>
      </trkpt>
      <trkpt lat="49.10579" lon="0.83098">
        <ele>196.4</ele>
        <time>2011-07-02T06:21:08Z</time>
      </trkpt>
      <trkpt lat="49.10563" lon="0.83063">
        <ele>197.3</ele>
        <time>2011-07-02T06:21:12Z</time>
      </trkpt>
      <trkpt lat="49.10546" lon="0.83027">
        <ele>197.8</ele>
        <time>2011-07-02T06:21:16Z</time>
      </trkpt>
      <trkpt lat="49.1053" lon="0.82992">
        <ele>198</ele>
        <time>2011-07-02T06:21:20Z</time>
      </trkpt>
      <trkpt lat="49.10514" lon="0.82957">
        <ele>198</ele>
        <time>2011-07-02T06:21:24Z</time>
      </trkpt>
      <trkpt lat="49.10498" lon="0.82921">
        <ele>198.4</ele>
        <time>2011-07-02T06:21:28Z</time>
      </trkpt>
      <trkpt lat="49.10481" lon="0.82886">
        <ele>198.7</ele>
        <time>2011-07-02T06:21:32Z</time>
      </trkpt>
      <trkpt lat="49.10464" lon="0.82849">
        <ele>198.6</ele>
        <time>2011-07-02T06:21:36Z</time>
      </trkpt>
      <trkpt lat="49.10447" lon="0.82814">
        <ele>199</ele>
        <time>2011-07-02T06:21:40Z</time>
      </trkpt>
      <trkpt lat="49.10431" lon="0.82779">
        <ele>199.4</ele>
        <time>2011-07-02T06:21:44Z</time>
      </trkpt>
      <trkpt lat="49.10414" lon="0.82744">
        <ele>200.2</ele>
        <time>2011-07-02T06:21:48Z</time>
      </trkpt>
      <trkpt lat="49.10398" lon="0.8271">
        <ele>200.7</ele>
        <time>2011-07-02T06:21:52Z</time>
      </trkpt>
      <trkpt lat="49.10382" lon="0.82677">
        <ele>201.1</ele>
        <time>2011-07-02T06:21:56Z</time>
      </trkpt>
      <trkpt lat="49.10366" lon="0.82643">
        <ele>201.2</ele>
        <time>2011-07-02T06:22:00Z</time>
      </trkpt>
      <trkpt lat="49.1035" lon="0.82609">
        <ele>201.4</ele>
        <time>2011-07-02T06:22:04Z</time>
      </trkpt>
      <trkpt lat="49.10335" lon="0.82576">
        <ele>201.9</ele>
        <time>2011-07-02T06:22:08Z</time>
      </trkpt>
      <trkpt lat="49.1032" lon="0.82541">
        <ele>203.2</ele>
        <time>2011-07-02T06:22:12Z</time>
      </trkpt>
      <trkpt lat="49.10303" lon="0.82507">
        <ele>203.6</ele>
        <time>2011-07-02T06:22:16Z</time>
      </trkpt>
      <trkpt lat="49.10287" lon="0.82473">
        <ele>203.9</ele>
        <time>2011-07-02T06:22:20Z</time>
      </trkpt>
      <trkpt lat="49.1027" lon="0.82436">
        <ele>204.9</ele>
        <time>2011-07-02T06:22:24Z</time>
      </trkpt>
      <trkpt lat="49.10254" lon="0.82401">
        <ele>205.6</ele>
        <time>2011-07-02T06:22:28Z</time>
      </trkpt>
      <trkpt lat="49.10238" lon="0.82366">
        <ele>205.6</ele>
        <time>2011-07-02T06:22:32Z</time>
      </trkpt>
      <trkpt lat="49.10222" lon="0.82332">
        <ele>206.2</ele>
        <time>2011-07-02T06:22:36Z</time>
      </trkpt>
      <trkpt lat="49.10205" lon="0.82296">
        <ele>207</ele>
        <time>2011-07-02T06:22:40Z</time>
      </trkpt>
      <trkpt lat="49.10188" lon="0.82261">
        <ele>207.9</ele>
        <time>2011-07-02T06:22:44Z</time>
      </trkpt>
      <trkpt lat="49.10171" lon="0.82225">
        <ele>207.9</ele>
        <time>2011-07-02T06:22:48Z</time>
      </trkpt>
      <trkpt lat="49.10154" lon="0.82189">
        <ele>207.8</ele>
        <time>2011-07-02T06:22:52Z</time>
      </trkpt>
      <trkpt lat="49.10138" lon="0.82153">
        <ele>207.8</ele>
        <time>2011-07-02T06:22:56Z</time>
      </trkpt>
      <trkpt lat="49.10121" lon="0.82117">
        <ele>207.6</ele>
        <time>2011-07-02T06:23:00Z</time>
      </trkpt>
      <trkpt lat="49.10105" lon="0.82082">
        <ele>207.8</ele>
        <time>2011-07-02T06:23:04Z</time>
      </trkpt>
      <trkpt lat="49.10089" lon="0.82047">
        <ele>207.9</ele>
        <time>2011-07-02T06:23:08Z</time>
      </trkpt>
      <trkpt lat="49.10072" lon="0.82011">
        <ele>207.9</ele>
        <time>2011-07-02T06:23:12Z</time>
      </trkpt>
      <trkpt lat="49.10054" lon="0.81975">
        <ele>206.5</ele>
        <time>2011-07-02T06:23:16Z</time>
      </trkpt>
      <trkpt lat="49.10036" lon="0.81937">
        <ele>206.1</ele>
        <time>2011-07-02T06:23:20Z</time>
      </trkpt>
      <trkpt lat="49.1002" lon="0.819">
        <ele>205.6</ele>
        <time>2011-07-02T06:23:24Z</time>
      </trkpt>
      <trkpt lat="49.10002" lon="0.81862">
        <ele>205.7</ele>
        <time>2011-07-02T06:23:28Z</time>
      </trkpt>
      <trkpt lat="49.09984" lon="0.81824">
        <ele>204.8</ele>
        <time>2011-07-02T06:23:32Z</time>
      </trkpt>
      <trkpt lat="49.09966" lon="0.81787">
        <ele>204.7</ele>
        <time>2011-07-02T06:23:36Z</time>
      </trkpt>
      <trkpt lat="49.09953" lon="0.81759">
        <ele>204.7</ele>
        <time>2011-07-02T06:23:39Z</time>
      </trkpt>
      <trkpt lat="49.09936" lon="0.81719">
        <ele>203.9</ele>
        <time>2011-07-02T06:23:43Z</time>
      </trkpt>
      <trkpt lat="49.09909" lon="0.81671">
        <ele>201.7</ele>
        <time>2011-07-02T06:23:48Z</time>
      </trkpt>
      <trkpt lat="49.09891" lon="0.81634">
        <ele>201.8</ele>
        <time>2011-07-02T06:23:52Z</time>
      </trkpt>
      <trkpt lat="49.09871" lon="0.81594">
        <ele>200.8</ele>
        <time>2011-07-02T06:23:56Z</time>
      </trkpt>
      <trkpt lat="49.09856" lon="0.81557">
        <ele>201.6</ele>
        <time>2011-07-02T06:24:00Z</time>
      </trkpt>
      <trkpt lat="49.09839" lon="0.81517">
        <ele>201.3</ele>
        <time>2011-07-02T06:24:04Z</time>
      </trkpt>
      <trkpt lat="49.09823" lon="0.81479">
        <ele>202.8</ele>
        <time>2011-07-02T06:24:08Z</time>
      </trkpt>
      <trkpt lat="49.09807" lon="0.81442">
        <ele>203</ele>
        <time>2011-07-02T06:24:12Z</time>
      </trkpt>
      <trkpt lat="49.09796" lon="0.81413">
        <ele>202.7</ele>
        <time>2011-07-02T06:24:15Z</time>
      </trkpt>
      <trkpt lat="49.09776" lon="0.81369">
        <ele>204</ele>
        <time>2011-07-02T06:24:20Z</time>
      </trkpt>
      <trkpt lat="49.09766" lon="0.8135">
        <ele>204.3</ele>
        <time>2011-07-02T06:24:22Z</time>
      </trkpt>
      <trkpt lat="49.09734" lon="0.81288">
        <ele>202.2</ele>
        <time>2011-07-02T06:24:28Z</time>
      </trkpt>
      <trkpt lat="49.09714" lon="0.81254">
        <ele>200.2</ele>
        <time>2011-07-02T06:24:32Z</time>
      </trkpt>
      <trkpt lat="49.09698" lon="0.81217">
        <ele>200.5</ele>
        <time>2011-07-02T06:24:36Z</time>
      </trkpt>
      <trkpt lat="49.09681" lon="0.8118">
        <ele>200.3</ele>
        <time>2011-07-02T06:24:40Z</time>
      </trkpt>
      <trkpt lat="49.09665" lon="0.81142">
        <ele>201.7</ele>
        <time>2011-07-02T06:24:44Z</time>
      </trkpt>
      <trkpt lat="49.09646" lon="0.81104">
        <ele>202.4</ele>
        <time>2011-07-02T06:24:48Z</time>
      </trkpt>
      <trkpt lat="49.09629" lon="0.81068">
        <ele>202</ele>
        <time>2011-07-02T06:24:52Z</time>
      </trkpt>
      <trkpt lat="49.09611" lon="0.81031">
        <ele>201.2</ele>
        <time>2011-07-02T06:24:56Z</time>
      </trkpt>
      <trkpt lat="49.09593" lon="0.80991">
        <ele>200.8</ele>
        <time>2011-07-02T06:25:00Z</time>
      </trkpt>
      <trkpt lat="49.0958" lon="0.80962">
        <ele>201.3</ele>
        <time>2011-07-02T06:25:03Z</time>
      </trkpt>
      <trkpt lat="49.09562" lon="0.80924">
        <ele>201.6</ele>
        <time>2011-07-02T06:25:07Z</time>
      </trkpt>
      <trkpt lat="49.0954" lon="0.80879">
        <ele>200.8</ele>
        <time>2011-07-02T06:25:12Z</time>
      </trkpt>
      <trkpt lat="49.09522" lon="0.80842">
        <ele>200.1</ele>
        <time>2011-07-02T06:25:16Z</time>
      </trkpt>
      <trkpt lat="49.09504" lon="0.80804">
        <ele>199.3</ele>
        <time>2011-07-02T06:25:20Z</time>
      </trkpt>
      <trkpt lat="49.09486" lon="0.80765">
        <ele>198.5</ele>
        <time>2011-07-02T06:25:24Z</time>
      </trkpt>
      <trkpt lat="49.09467" lon="0.80727">
        <ele>198</ele>
        <time>2011-07-02T06:25:28Z</time>
      </trkpt>
      <trkpt lat="49.0945" lon="0.80688">
        <ele>197.8</ele>
        <time>2011-07-02T06:25:32Z</time>
      </trkpt>
      <trkpt lat="49.09432" lon="0.80648">
        <ele>198</ele>
        <time>2011-07-02T06:25:36Z</time>
      </trkpt>
      <trkpt lat="49.09417" lon="0.80616">
        <ele>197.4</ele>
        <time>2011-07-02T06:25:39Z</time>
      </trkpt>
      <trkpt lat="49.094" lon="0.80584">
        <ele>197</ele>
        <time>2011-07-02T06:25:42Z</time>
      </trkpt>
      <trkpt lat="49.09377" lon="0.80529">
        <ele>196.3</ele>
        <time>2011-07-02T06:25:48Z</time>
      </trkpt>
      <trkpt lat="49.09359" lon="0.80494">
        <ele>196.2</ele>
        <time>2011-07-02T06:25:52Z</time>
      </trkpt>
      <trkpt lat="49.09342" lon="0.80457">
        <ele>195.4</ele>
        <time>2011-07-02T06:25:56Z</time>
      </trkpt>
      <trkpt lat="49.09325" lon="0.80419">
        <ele>195.4</ele>
        <time>2011-07-02T06:26:00Z</time>
      </trkpt>
      <trkpt lat="49.09308" lon="0.80384">
        <ele>195.5</ele>
        <time>2011-07-02T06:26:04Z</time>
      </trkpt>
      <trkpt lat="49.0929" lon="0.80347">
        <ele>196.5</ele>
        <time>2011-07-02T06:26:08Z</time>
      </trkpt>
      <trkpt lat="49.09273" lon="0.80313">
        <ele>196.4</ele>
        <time>2011-07-02T06:26:12Z</time>
      </trkpt>
      <trkpt lat="49.09256" lon="0.80277">
        <ele>196.6</ele>
        <time>2011-07-02T06:26:16Z</time>
      </trkpt>
      <trkpt lat="49.09238" lon="0.80242">
        <ele>196.5</ele>
        <time>2011-07-02T06:26:20Z</time>
      </trkpt>
      <trkpt lat="49.09222" lon="0.80203">
        <ele>196.6</ele>
        <time>2011-07-02T06:26:24Z</time>
      </trkpt>
      <trkpt lat="49.09205" lon="0.80165">
        <ele>196.5</ele>
        <time>2011-07-02T06:26:28Z</time>
      </trkpt>
      <trkpt lat="49.09187" lon="0.8013">
        <ele>196.6</ele>
        <time>2011-07-02T06:26:32Z</time>
      </trkpt>
      <trkpt lat="49.0917" lon="0.80094">
        <ele>196.5</ele>
        <time>2011-07-02T06:26:36Z</time>
      </trkpt>
      <trkpt lat="49.09153" lon="0.80057">
        <ele>196.9</ele>
        <time>2011-07-02T06:26:40Z</time>
      </trkpt>
      <trkpt lat="49.09136" lon="0.8002">
        <ele>196.4</ele>
        <time>2011-07-02T06:26:44Z</time>
      </trkpt>
      <trkpt lat="49.09119" lon="0.79983">
        <ele>198</ele>
        <time>2011-07-02T06:26:48Z</time>
      </trkpt>
      <trkpt lat="49.09102" lon="0.79947">
        <ele>198.1</ele>
        <time>2011-07-02T06:26:52Z</time>
      </trkpt>
      <trkpt lat="49.09084" lon="0.79909">
        <ele>198.2</ele>
        <time>2011-07-02T06:26:56Z</time>
      </trkpt>
      <trkpt lat="49.09068" lon="0.79873">
        <ele>197.7</ele>
        <time>2011-07-02T06:27:00Z</time>
      </trkpt>
      <trkpt lat="49.0905" lon="0.79837">
        <ele>198.3</ele>
        <time>2011-07-02T06:27:04Z</time>
      </trkpt>
      <trkpt lat="49.09034" lon="0.79798">
        <ele>197.7</ele>
        <time>2011-07-02T06:27:08Z</time>
      </trkpt>
      <trkpt lat="49.09016" lon="0.79759">
        <ele>197.7</ele>
        <time>2011-07-02T06:27:12Z</time>
      </trkpt>
      <trkpt lat="49.08997" lon="0.79718">
        <ele>197.8</ele>
        <time>2011-07-02T06:27:16Z</time>
      </trkpt>
      <trkpt lat="49.08978" lon="0.79678">
        <ele>197</ele>
        <time>2011-07-02T06:27:20Z</time>
      </trkpt>
      <trkpt lat="49.08958" lon="0.79638">
        <ele>196.2</ele>
        <time>2011-07-02T06:27:24Z</time>
      </trkpt>
      <trkpt lat="49.0894" lon="0.79598">
        <ele>196.1</ele>
        <time>2011-07-02T06:27:28Z</time>
      </trkpt>
      <trkpt lat="49.08921" lon="0.79557">
        <ele>195.7</ele>
        <time>2011-07-02T06:27:32Z</time>
      </trkpt>
      <trkpt lat="49.08904" lon="0.79516">
        <ele>196.3</ele>
        <time>2011-07-02T06:27:36Z</time>
      </trkpt>
      <trkpt lat="49.08894" lon="0.79494">
        <ele>196.3</ele>
        <time>2011-07-02T06:27:38Z</time>
      </trkpt>
      <trkpt lat="49.08864" lon="0.79429">
        <ele>195.6</ele>
        <time>2011-07-02T06:27:44Z</time>
      </trkpt>
      <trkpt lat="49.08845" lon="0.79391">
        <ele>196.1</ele>
        <time>2011-07-02T06:27:48Z</time>
      </trkpt>
      <trkpt lat="49.08827" lon="0.79354">
        <ele>197</ele>
        <time>2011-07-02T06:27:52Z</time>
      </trkpt>
      <trkpt lat="49.08808" lon="0.79313">
        <ele>197.3</ele>
        <time>2011-07-02T06:27:56Z</time>
      </trkpt>
      <trkpt lat="49.08787" lon="0.79274">
        <ele>197.5</ele>
        <time>2011-07-02T06:28:00Z</time>
      </trkpt>
      <trkpt lat="49.08765" lon="0.79238">
        <ele>196.1</ele>
        <time>2011-07-02T06:28:04Z</time>
      </trkpt>
      <trkpt lat="49.08741" lon="0.79203">
        <ele>195.2</ele>
        <time>2011-07-02T06:28:08Z</time>
      </trkpt>
      <trkpt lat="49.08713" lon="0.79171">
        <ele>194.9</ele>
        <time>2011-07-02T06:28:12Z</time>
      </trkpt>
      <trkpt lat="49.08681" lon="0.79142">
        <ele>192.7</ele>
        <time>2011-07-02T06:28:16Z</time>
      </trkpt>
      <trkpt lat="49.08647" lon="0.79119">
        <ele>192.6</ele>
        <time>2011-07-02T06:28:20Z</time>
      </trkpt>
      <trkpt lat="49.08613" lon="0.79099">
        <ele>192.5</ele>
        <time>2011-07-02T06:28:24Z</time>
      </trkpt>
      <trkpt lat="49.08581" lon="0.79077">
        <ele>191.3</ele>
        <time>2011-07-02T06:28:28Z</time>
      </trkpt>
      <trkpt lat="49.0855" lon="0.79051">
        <ele>190.8</ele>
        <time>2011-07-02T06:28:32Z</time>
      </trkpt>
      <trkpt lat="49.08526" lon="0.79017">
        <ele>189.8</ele>
        <time>2011-07-02T06:28:36Z</time>
      </trkpt>
      <trkpt lat="49.08508" lon="0.78986">
        <ele>188.7</ele>
        <time>2011-07-02T06:28:39Z</time>
      </trkpt>
      <trkpt lat="49.08493" lon="0.78956">
        <ele>188.1</ele>
        <time>2011-07-02T06:28:42Z</time>
      </trkpt>
      <trkpt lat="49.08459" lon="0.78908">
        <ele>187.9</ele>
        <time>2011-07-02T06:28:48Z</time>
      </trkpt>
      <trkpt lat="49.08432" lon="0.78884">
        <ele>188.4</ele>
        <time>2011-07-02T06:28:52Z</time>
      </trkpt>
      <trkpt lat="49.08395" lon="0.78867">
        <ele>188.1</ele>
        <time>2011-07-02T06:28:56Z</time>
      </trkpt>
      <trkpt lat="49.08357" lon="0.78846">
        <ele>188.1</ele>
        <time>2011-07-02T06:29:00Z</time>
      </trkpt>
      <trkpt lat="49.08317" lon="0.78825">
        <ele>187.4</ele>
        <time>2011-07-02T06:29:04Z</time>
      </trkpt>
      <trkpt lat="49.08275" lon="0.78809">
        <ele>187.1</ele>
        <time>2011-07-02T06:29:08Z</time>
      </trkpt>
      <trkpt lat="49.08236" lon="0.788">
        <ele>186.7</ele>
        <time>2011-07-02T06:29:12Z</time>
      </trkpt>
      <trkpt lat="49.08198" lon="0.78771">
        <ele>185.7</ele>
        <time>2011-07-02T06:29:16Z</time>
      </trkpt>
      <trkpt lat="49.0817" lon="0.78749">
        <ele>185.6</ele>
        <time>2011-07-02T06:29:19Z</time>
      </trkpt>
      <trkpt lat="49.08142" lon="0.78684">
        <ele>185.1</ele>
        <time>2011-07-02T06:29:24Z</time>
      </trkpt>
      <trkpt lat="49.08133" lon="0.78603">
        <ele>182</ele>
        <time>2011-07-02T06:29:28Z</time>
      </trkpt>
      <trkpt lat="49.08108" lon="0.78563">
        <ele>180.3</ele>
        <time>2011-07-02T06:29:32Z</time>
      </trkpt>
      <trkpt lat="49.08077" lon="0.78509">
        <ele>176</ele>
        <time>2011-07-02T06:29:36Z</time>
      </trkpt>
      <trkpt lat="49.08033" lon="0.7849">
        <ele>176</ele>
        <time>2011-07-02T06:29:40Z</time>
      </trkpt>
      <trkpt lat="49.07997" lon="0.78465">
        <ele>174.1</ele>
        <time>2011-07-02T06:29:44Z</time>
      </trkpt>
      <trkpt lat="49.0796" lon="0.78454">
        <ele>173.1</ele>
        <time>2011-07-02T06:29:48Z</time>
      </trkpt>
      <trkpt lat="49.07925" lon="0.78439">
        <ele>171.4</ele>
        <time>2011-07-02T06:29:52Z</time>
      </trkpt>
      <trkpt lat="49.07893" lon="0.78425">
        <ele>170</ele>
        <time>2011-07-02T06:29:56Z</time>
      </trkpt>
      <trkpt lat="49.07863" lon="0.78401">
        <ele>166.5</ele>
        <time>2011-07-02T06:30:00Z</time>
      </trkpt>
      <trkpt lat="49.0784" lon="0.78371">
        <ele>163.7</ele>
        <time>2011-07-02T06:30:04Z</time>
      </trkpt>
      <trkpt lat="49.07824" lon="0.78347">
        <ele>163</ele>
        <time>2011-07-02T06:30:07Z</time>
      </trkpt>
      <trkpt lat="49.07808" lon="0.78303">
        <ele>161</ele>
        <time>2011-07-02T06:30:11Z</time>
      </trkpt>
      <trkpt lat="49.07825" lon="0.78225">
        <ele>161</ele>
        <time>2011-07-02T06:30:16Z</time>
      </trkpt>
      <trkpt lat="49.07845" lon="0.78162">
        <ele>157.1</ele>
        <time>2011-07-02T06:30:20Z</time>
      </trkpt>
      <trkpt lat="49.07866" lon="0.78108">
        <ele>149.3</ele>
        <time>2011-07-02T06:30:24Z</time>
      </trkpt>
      <trkpt lat="49.07885" lon="0.78062">
        <ele>146.7</ele>
        <time>2011-07-02T06:30:28Z</time>
      </trkpt>
      <trkpt lat="49.07897" lon="0.78027">
        <ele>145.4</ele>
        <time>2011-07-02T06:30:31Z</time>
      </trkpt>
      <trkpt lat="49.07901" lon="0.78016">
        <ele>146.1</ele>
        <time>2011-07-02T06:30:32Z</time>
      </trkpt>
      <trkpt lat="49.07912" lon="0.77982">
        <ele>144.4</ele>
        <time>2011-07-02T06:30:35Z</time>
      </trkpt>
      <trkpt lat="49.07926" lon="0.77939">
        <ele>143.4</ele>
        <time>2011-07-02T06:30:39Z</time>
      </trkpt>
      <trkpt lat="49.0794" lon="0.77899">
        <ele>142.4</ele>
        <time>2011-07-02T06:30:43Z</time>
      </trkpt>
      <trkpt lat="49.07952" lon="0.77867">
        <ele>141.9</ele>
        <time>2011-07-02T06:30:46Z</time>
      </trkpt>
      <trkpt lat="49.07972" lon="0.7782">
        <ele>141.3</ele>
        <time>2011-07-02T06:30:51Z</time>
      </trkpt>
      <trkpt lat="49.07986" lon="0.77786">
        <ele>140.9</ele>
        <time>2011-07-02T06:30:55Z</time>
      </trkpt>
      <trkpt lat="49.07996" lon="0.77766">
        <ele>139.7</ele>
        <time>2011-07-02T06:30:59Z</time>
      </trkpt>
      <trkpt lat="49.08" lon="0.77757">
        <ele>138.4</ele>
        <time>2011-07-02T06:31:01Z</time>
      </trkpt>
      <trkpt lat="49.08003" lon="0.77746">
        <ele>137.3</ele>
        <time>2011-07-02T06:31:04Z</time>
      </trkpt>
      <trkpt lat="49.08006" lon="0.77737">
        <ele>136.9</ele>
        <time>2011-07-02T06:31:09Z</time>
      </trkpt>
      <trkpt lat="49.08006" lon="0.77737">
        <ele>89</ele>
        <time>2011-07-02T06:31:20Z</time>
      </trkpt>
      <trkpt lat="49.08006" lon="0.77737">
        <ele>89</ele>
        <time>2011-07-02T06:31:27Z</time>
      </trkpt>
      <trkpt lat="49.08014" lon="0.77715">
        <ele>134.8</ele>
        <time>2011-07-02T06:31:30Z</time>
      </trkpt>
      <trkpt lat="49.08023" lon="0.77692">
        <ele>135.2</ele>
        <time>2011-07-02T06:31:34Z</time>
      </trkpt>
      <trkpt lat="49.08035" lon="0.77663">
        <ele>134.8</ele>
        <time>2011-07-02T06:31:38Z</time>
      </trkpt>
      <trkpt lat="49.08045" lon="0.77625">
        <ele>134.1</ele>
        <time>2011-07-02T06:31:42Z</time>
      </trkpt>
      <trkpt lat="49.08057" lon="0.77583">
        <ele>133.9</ele>
        <time>2011-07-02T06:31:46Z</time>
      </trkpt>
      <trkpt lat="49.08064" lon="0.77548">
        <ele>133.1</ele>
        <time>2011-07-02T06:31:50Z</time>
      </trkpt>
      <trkpt lat="49.08069" lon="0.77521">
        <ele>131.9</ele>
        <time>2011-07-02T06:31:53Z</time>
      </trkpt>
      <trkpt lat="49.08073" lon="0.77474">
        <ele>132.4</ele>
        <time>2011-07-02T06:31:58Z</time>
      </trkpt>
      <trkpt lat="49.08074" lon="0.77436">
        <ele>133.3</ele>
        <time>2011-07-02T06:32:02Z</time>
      </trkpt>
      <trkpt lat="49.08074" lon="0.77397">
        <ele>133.2</ele>
        <time>2011-07-02T06:32:06Z</time>
      </trkpt>
      <trkpt lat="49.08067" lon="0.77356">
        <ele>132.6</ele>
        <time>2011-07-02T06:32:10Z</time>
      </trkpt>
      <trkpt lat="49.08062" lon="0.77312">
        <ele>132.6</ele>
        <time>2011-07-02T06:32:14Z</time>
      </trkpt>
      <trkpt lat="49.08059" lon="0.77283">
        <ele>132.4</ele>
        <time>2011-07-02T06:32:17Z</time>
      </trkpt>
      <trkpt lat="49.08053" lon="0.77246">
        <ele>131.1</ele>
        <time>2011-07-02T06:32:21Z</time>
      </trkpt>
      <trkpt lat="49.0805" lon="0.7719">
        <ele>131.4</ele>
        <time>2011-07-02T06:32:26Z</time>
      </trkpt>
      <trkpt lat="49.08042" lon="0.77146">
        <ele>132.8</ele>
        <time>2011-07-02T06:32:30Z</time>
      </trkpt>
      <trkpt lat="49.08031" lon="0.77106">
        <ele>133.4</ele>
        <time>2011-07-02T06:32:34Z</time>
      </trkpt>
      <trkpt lat="49.08021" lon="0.77066">
        <ele>133.4</ele>
        <time>2011-07-02T06:32:38Z</time>
      </trkpt>
      <trkpt lat="49.08012" lon="0.77024">
        <ele>133.9</ele>
        <time>2011-07-02T06:32:42Z</time>
      </trkpt>
      <trkpt lat="49.08001" lon="0.76984">
        <ele>134.3</ele>
        <time>2011-07-02T06:32:46Z</time>
      </trkpt>
      <trkpt lat="49.07992" lon="0.76942">
        <ele>133.3</ele>
        <time>2011-07-02T06:32:50Z</time>
      </trkpt>
      <trkpt lat="49.07982" lon="0.76901">
        <ele>131.2</ele>
        <time>2011-07-02T06:32:54Z</time>
      </trkpt>
      <trkpt lat="49.07972" lon="0.76862">
        <ele>132.1</ele>
        <time>2011-07-02T06:32:58Z</time>
      </trkpt>
      <trkpt lat="49.07968" lon="0.76842">
        <ele>132</ele>
        <time>2011-07-02T06:33:00Z</time>
      </trkpt>
      <trkpt lat="49.07955" lon="0.76781">
        <ele>132.2</ele>
        <time>2011-07-02T06:33:06Z</time>
      </trkpt>
      <trkpt lat="49.07947" lon="0.76754">
        <ele>132.6</ele>
        <time>2011-07-02T06:33:09Z</time>
      </trkpt>
      <trkpt lat="49.07943" lon="0.76718">
        <ele>133.7</ele>
        <time>2011-07-02T06:33:13Z</time>
      </trkpt>
      <trkpt lat="49.07949" lon="0.76688">
        <ele>133.6</ele>
        <time>2011-07-02T06:33:17Z</time>
      </trkpt>
      <trkpt lat="49.07948" lon="0.76638">
        <ele>134.1</ele>
        <time>2011-07-02T06:33:22Z</time>
      </trkpt>
      <trkpt lat="49.0795" lon="0.766">
        <ele>134</ele>
        <time>2011-07-02T06:33:26Z</time>
      </trkpt>
      <trkpt lat="49.07956" lon="0.76573">
        <ele>136</ele>
        <time>2011-07-02T06:33:29Z</time>
      </trkpt>
      <trkpt lat="49.07969" lon="0.76528">
        <ele>138.1</ele>
        <time>2011-07-02T06:33:34Z</time>
      </trkpt>
      <trkpt lat="49.07983" lon="0.76495">
        <ele>139</ele>
        <time>2011-07-02T06:33:38Z</time>
      </trkpt>
      <trkpt lat="49.08001" lon="0.76465">
        <ele>139.6</ele>
        <time>2011-07-02T06:33:42Z</time>
      </trkpt>
      <trkpt lat="49.08019" lon="0.76435">
        <ele>138.5</ele>
        <time>2011-07-02T06:33:46Z</time>
      </trkpt>
      <trkpt lat="49.08038" lon="0.76405">
        <ele>138.7</ele>
        <time>2011-07-02T06:33:50Z</time>
      </trkpt>
      <trkpt lat="49.08059" lon="0.76376">
        <ele>138.6</ele>
        <time>2011-07-02T06:33:54Z</time>
      </trkpt>
      <trkpt lat="49.0808" lon="0.76346">
        <ele>139</ele>
        <time>2011-07-02T06:33:58Z</time>
      </trkpt>
      <trkpt lat="49.08099" lon="0.76315">
        <ele>138.7</ele>
        <time>2011-07-02T06:34:02Z</time>
      </trkpt>
      <trkpt lat="49.0812" lon="0.76283">
        <ele>140.1</ele>
        <time>2011-07-02T06:34:06Z</time>
      </trkpt>
      <trkpt lat="49.08143" lon="0.76251">
        <ele>140.5</ele>
        <time>2011-07-02T06:34:10Z</time>
      </trkpt>
      <trkpt lat="49.08164" lon="0.76219">
        <ele>139.5</ele>
        <time>2011-07-02T06:34:14Z</time>
      </trkpt>
      <trkpt lat="49.08184" lon="0.76188">
        <ele>138.7</ele>
        <time>2011-07-02T06:34:18Z</time>
      </trkpt>
      <trkpt lat="49.08203" lon="0.76156">
        <ele>138.9</ele>
        <time>2011-07-02T06:34:22Z</time>
      </trkpt>
      <trkpt lat="49.08223" lon="0.76126">
        <ele>137.4</ele>
        <time>2011-07-02T06:34:26Z</time>
      </trkpt>
      <trkpt lat="49.08244" lon="0.76095">
        <ele>137</ele>
        <time>2011-07-02T06:34:30Z</time>
      </trkpt>
      <trkpt lat="49.08266" lon="0.76061">
        <ele>136.7</ele>
        <time>2011-07-02T06:34:34Z</time>
      </trkpt>
      <trkpt lat="49.08287" lon="0.76029">
        <ele>136.4</ele>
        <time>2011-07-02T06:34:38Z</time>
      </trkpt>
      <trkpt lat="49.08308" lon="0.75998">
        <ele>137.1</ele>
        <time>2011-07-02T06:34:42Z</time>
      </trkpt>
      <trkpt lat="49.08328" lon="0.75965">
        <ele>137.6</ele>
        <time>2011-07-02T06:34:46Z</time>
      </trkpt>
      <trkpt lat="49.08349" lon="0.75935">
        <ele>138.1</ele>
        <time>2011-07-02T06:34:50Z</time>
      </trkpt>
      <trkpt lat="49.0837" lon="0.75904">
        <ele>137.3</ele>
        <time>2011-07-02T06:34:54Z</time>
      </trkpt>
      <trkpt lat="49.08391" lon="0.75874">
        <ele>137.7</ele>
        <time>2011-07-02T06:34:58Z</time>
      </trkpt>
      <trkpt lat="49.08412" lon="0.75842">
        <ele>137.3</ele>
        <time>2011-07-02T06:35:02Z</time>
      </trkpt>
      <trkpt lat="49.08431" lon="0.75813">
        <ele>137.6</ele>
        <time>2011-07-02T06:35:06Z</time>
      </trkpt>
      <trkpt lat="49.08452" lon="0.75782">
        <ele>136.8</ele>
        <time>2011-07-02T06:35:10Z</time>
      </trkpt>
      <trkpt lat="49.08473" lon="0.75747">
        <ele>136.1</ele>
        <time>2011-07-02T06:35:14Z</time>
      </trkpt>
      <trkpt lat="49.08496" lon="0.75712">
        <ele>137.1</ele>
        <time>2011-07-02T06:35:18Z</time>
      </trkpt>
      <trkpt lat="49.08518" lon="0.75681">
        <ele>137.2</ele>
        <time>2011-07-02T06:35:22Z</time>
      </trkpt>
      <trkpt lat="49.08538" lon="0.75648">
        <ele>137.3</ele>
        <time>2011-07-02T06:35:26Z</time>
      </trkpt>
      <trkpt lat="49.0856" lon="0.75616">
        <ele>136.3</ele>
        <time>2011-07-02T06:35:30Z</time>
      </trkpt>
      <trkpt lat="49.08581" lon="0.75585">
        <ele>136.6</ele>
        <time>2011-07-02T06:35:34Z</time>
      </trkpt>
      <trkpt lat="49.08602" lon="0.75555">
        <ele>136.4</ele>
        <time>2011-07-02T06:35:38Z</time>
      </trkpt>
      <trkpt lat="49.08622" lon="0.75524">
        <ele>136.2</ele>
        <time>2011-07-02T06:35:42Z</time>
      </trkpt>
      <trkpt lat="49.08642" lon="0.75492">
        <ele>136.3</ele>
        <time>2011-07-02T06:35:46Z</time>
      </trkpt>
      <trkpt lat="49.08664" lon="0.75461">
        <ele>136.2</ele>
        <time>2011-07-02T06:35:50Z</time>
      </trkpt>
      <trkpt lat="49.08685" lon="0.75427">
        <ele>135.5</ele>
        <time>2011-07-02T06:35:54Z</time>
      </trkpt>
      <trkpt lat="49.08708" lon="0.75393">
        <ele>134.7</ele>
        <time>2011-07-02T06:35:58Z</time>
      </trkpt>
      <trkpt lat="49.0873" lon="0.7536">
        <ele>134.9</ele>
        <time>2011-07-02T06:36:02Z</time>
      </trkpt>
      <trkpt lat="49.08751" lon="0.75328">
        <ele>135.2</ele>
        <time>2011-07-02T06:36:06Z</time>
      </trkpt>
      <trkpt lat="49.08772" lon="0.75295">
        <ele>135.6</ele>
        <time>2011-07-02T06:36:10Z</time>
      </trkpt>
      <trkpt lat="49.08793" lon="0.75264">
        <ele>134</ele>
        <time>2011-07-02T06:36:14Z</time>
      </trkpt>
      <trkpt lat="49.08814" lon="0.75234">
        <ele>133</ele>
        <time>2011-07-02T06:36:18Z</time>
      </trkpt>
      <trkpt lat="49.08834" lon="0.75202">
        <ele>132.4</ele>
        <time>2011-07-02T06:36:22Z</time>
      </trkpt>
      <trkpt lat="49.08856" lon="0.75171">
        <ele>132.3</ele>
        <time>2011-07-02T06:36:26Z</time>
      </trkpt>
      <trkpt lat="49.08877" lon="0.75139">
        <ele>132.3</ele>
        <time>2011-07-02T06:36:30Z</time>
      </trkpt>
      <trkpt lat="49.08897" lon="0.75107">
        <ele>132.1</ele>
        <time>2011-07-02T06:36:34Z</time>
      </trkpt>
      <trkpt lat="49.08918" lon="0.75076">
        <ele>132.3</ele>
        <time>2011-07-02T06:36:38Z</time>
      </trkpt>
      <trkpt lat="49.08939" lon="0.75043">
        <ele>133.5</ele>
        <time>2011-07-02T06:36:42Z</time>
      </trkpt>
      <trkpt lat="49.08953" lon="0.7502">
        <ele>133.4</ele>
        <time>2011-07-02T06:36:45Z</time>
      </trkpt>
      <trkpt lat="49.08978" lon="0.74984">
        <ele>131.9</ele>
        <time>2011-07-02T06:36:50Z</time>
      </trkpt>
      <trkpt lat="49.08999" lon="0.74954">
        <ele>131.8</ele>
        <time>2011-07-02T06:36:54Z</time>
      </trkpt>
      <trkpt lat="49.09019" lon="0.74924">
        <ele>131.3</ele>
        <time>2011-07-02T06:36:58Z</time>
      </trkpt>
      <trkpt lat="49.09041" lon="0.74893">
        <ele>131.3</ele>
        <time>2011-07-02T06:37:02Z</time>
      </trkpt>
      <trkpt lat="49.09064" lon="0.74865">
        <ele>131.3</ele>
        <time>2011-07-02T06:37:06Z</time>
      </trkpt>
      <trkpt lat="49.09088" lon="0.74838">
        <ele>131.6</ele>
        <time>2011-07-02T06:37:10Z</time>
      </trkpt>
      <trkpt lat="49.09112" lon="0.74813">
        <ele>132</ele>
        <time>2011-07-02T06:37:14Z</time>
      </trkpt>
      <trkpt lat="49.09136" lon="0.74786">
        <ele>132.4</ele>
        <time>2011-07-02T06:37:18Z</time>
      </trkpt>
      <trkpt lat="49.0916" lon="0.74761">
        <ele>131.7</ele>
        <time>2011-07-02T06:37:22Z</time>
      </trkpt>
      <trkpt lat="49.09185" lon="0.74737">
        <ele>131.3</ele>
        <time>2011-07-02T06:37:26Z</time>
      </trkpt>
      <trkpt lat="49.09208" lon="0.74712">
        <ele>131.5</ele>
        <time>2011-07-02T06:37:30Z</time>
      </trkpt>
      <trkpt lat="49.09232" lon="0.74687">
        <ele>130.4</ele>
        <time>2011-07-02T06:37:34Z</time>
      </trkpt>
      <trkpt lat="49.09255" lon="0.74661">
        <ele>131.4</ele>
        <time>2011-07-02T06:37:38Z</time>
      </trkpt>
      <trkpt lat="49.09278" lon="0.74635">
        <ele>132</ele>
        <time>2011-07-02T06:37:42Z</time>
      </trkpt>
      <trkpt lat="49.09302" lon="0.7461">
        <ele>131.6</ele>
        <time>2011-07-02T06:37:46Z</time>
      </trkpt>
      <trkpt lat="49.09326" lon="0.74585">
        <ele>130.9</ele>
        <time>2011-07-02T06:37:50Z</time>
      </trkpt>
      <trkpt lat="49.0935" lon="0.7456">
        <ele>131.5</ele>
        <time>2011-07-02T06:37:54Z</time>
      </trkpt>
      <trkpt lat="49.09374" lon="0.74535">
        <ele>131.9</ele>
        <time>2011-07-02T06:37:58Z</time>
      </trkpt>
      <trkpt lat="49.09398" lon="0.74509">
        <ele>132.2</ele>
        <time>2011-07-02T06:38:02Z</time>
      </trkpt>
      <trkpt lat="49.09422" lon="0.74484">
        <ele>131.3</ele>
        <time>2011-07-02T06:38:06Z</time>
      </trkpt>
      <trkpt lat="49.09446" lon="0.74459">
        <ele>131</ele>
        <time>2011-07-02T06:38:10Z</time>
      </trkpt>
      <trkpt lat="49.0947" lon="0.74433">
        <ele>131.1</ele>
        <time>2011-07-02T06:38:14Z</time>
      </trkpt>
      <trkpt lat="49.09494" lon="0.74409">
        <ele>131.1</ele>
        <time>2011-07-02T06:38:18Z</time>
      </trkpt>
      <trkpt lat="49.09518" lon="0.74383">
        <ele>130.2</ele>
        <time>2011-07-02T06:38:22Z</time>
      </trkpt>
      <trkpt lat="49.09543" lon="0.74356">
        <ele>131.2</ele>
        <time>2011-07-02T06:38:26Z</time>
      </trkpt>
      <trkpt lat="49.09567" lon="0.74331">
        <ele>131.6</ele>
        <time>2011-07-02T06:38:30Z</time>
      </trkpt>
      <trkpt lat="49.0959" lon="0.74306">
        <ele>131.1</ele>
        <time>2011-07-02T06:38:34Z</time>
      </trkpt>
      <trkpt lat="49.09615" lon="0.74283">
        <ele>131</ele>
        <time>2011-07-02T06:38:38Z</time>
      </trkpt>
      <trkpt lat="49.09637" lon="0.74258">
        <ele>130.2</ele>
        <time>2011-07-02T06:38:42Z</time>
      </trkpt>
      <trkpt lat="49.09661" lon="0.74233">
        <ele>129.4</ele>
        <time>2011-07-02T06:38:46Z</time>
      </trkpt>
      <trkpt lat="49.09684" lon="0.74208">
        <ele>129.9</ele>
        <time>2011-07-02T06:38:50Z</time>
      </trkpt>
      <trkpt lat="49.09708" lon="0.74183">
        <ele>130.3</ele>
        <time>2011-07-02T06:38:54Z</time>
      </trkpt>
      <trkpt lat="49.09732" lon="0.74158">
        <ele>130.7</ele>
        <time>2011-07-02T06:38:58Z</time>
      </trkpt>
      <trkpt lat="49.09755" lon="0.74133">
        <ele>130.9</ele>
        <time>2011-07-02T06:39:02Z</time>
      </trkpt>
      <trkpt lat="49.09779" lon="0.74108">
        <ele>131.8</ele>
        <time>2011-07-02T06:39:06Z</time>
      </trkpt>
      <trkpt lat="49.09801" lon="0.74083">
        <ele>132.4</ele>
        <time>2011-07-02T06:39:10Z</time>
      </trkpt>
      <trkpt lat="49.09825" lon="0.74058">
        <ele>133.5</ele>
        <time>2011-07-02T06:39:14Z</time>
      </trkpt>
      <trkpt lat="49.09848" lon="0.74033">
        <ele>133.3</ele>
        <time>2011-07-02T06:39:18Z</time>
      </trkpt>
      <trkpt lat="49.09872" lon="0.74009">
        <ele>133.2</ele>
        <time>2011-07-02T06:39:22Z</time>
      </trkpt>
      <trkpt lat="49.09897" lon="0.73986">
        <ele>133.2</ele>
        <time>2011-07-02T06:39:26Z</time>
      </trkpt>
      <trkpt lat="49.09923" lon="0.73965">
        <ele>132.9</ele>
        <time>2011-07-02T06:39:30Z</time>
      </trkpt>
      <trkpt lat="49.09949" lon="0.73946">
        <ele>132.8</ele>
        <time>2011-07-02T06:39:34Z</time>
      </trkpt>
      <trkpt lat="49.09975" lon="0.73928">
        <ele>132.1</ele>
        <time>2011-07-02T06:39:38Z</time>
      </trkpt>
      <trkpt lat="49.1" lon="0.73908">
        <ele>132.6</ele>
        <time>2011-07-02T06:39:42Z</time>
      </trkpt>
      <trkpt lat="49.10025" lon="0.73886">
        <ele>132.5</ele>
        <time>2011-07-02T06:39:46Z</time>
      </trkpt>
      <trkpt lat="49.10051" lon="0.73863">
        <ele>132.9</ele>
        <time>2011-07-02T06:39:50Z</time>
      </trkpt>
      <trkpt lat="49.10075" lon="0.73839">
        <ele>132.6</ele>
        <time>2011-07-02T06:39:54Z</time>
      </trkpt>
      <trkpt lat="49.10098" lon="0.73811">
        <ele>132.9</ele>
        <time>2011-07-02T06:39:58Z</time>
      </trkpt>
      <trkpt lat="49.10122" lon="0.73786">
        <ele>132.4</ele>
        <time>2011-07-02T06:40:02Z</time>
      </trkpt>
      <trkpt lat="49.10144" lon="0.73761">
        <ele>131.5</ele>
        <time>2011-07-02T06:40:06Z</time>
      </trkpt>
      <trkpt lat="49.10169" lon="0.73735">
        <ele>130.1</ele>
        <time>2011-07-02T06:40:10Z</time>
      </trkpt>
      <trkpt lat="49.10193" lon="0.73709">
        <ele>130.5</ele>
        <time>2011-07-02T06:40:14Z</time>
      </trkpt>
      <trkpt lat="49.10218" lon="0.73687">
        <ele>130.1</ele>
        <time>2011-07-02T06:40:18Z</time>
      </trkpt>
      <trkpt lat="49.10244" lon="0.73666">
        <ele>130.4</ele>
        <time>2011-07-02T06:40:22Z</time>
      </trkpt>
      <trkpt lat="49.1027" lon="0.73647">
        <ele>130.4</ele>
        <time>2011-07-02T06:40:26Z</time>
      </trkpt>
      <trkpt lat="49.10298" lon="0.73629">
        <ele>130.7</ele>
        <time>2011-07-02T06:40:30Z</time>
      </trkpt>
      <trkpt lat="49.10325" lon="0.73611">
        <ele>130.1</ele>
        <time>2011-07-02T06:40:34Z</time>
      </trkpt>
      <trkpt lat="49.10353" lon="0.73595">
        <ele>129.6</ele>
        <time>2011-07-02T06:40:38Z</time>
      </trkpt>
      <trkpt lat="49.1038" lon="0.7358">
        <ele>128.7</ele>
        <time>2011-07-02T06:40:42Z</time>
      </trkpt>
      <trkpt lat="49.10408" lon="0.73564">
        <ele>128</ele>
        <time>2011-07-02T06:40:46Z</time>
      </trkpt>
      <trkpt lat="49.10436" lon="0.73546">
        <ele>128</ele>
        <time>2011-07-02T06:40:50Z</time>
      </trkpt>
      <trkpt lat="49.10463" lon="0.73523">
        <ele>128.1</ele>
        <time>2011-07-02T06:40:54Z</time>
      </trkpt>
      <trkpt lat="49.1049" lon="0.73501">
        <ele>128.2</ele>
        <time>2011-07-02T06:40:58Z</time>
      </trkpt>
      <trkpt lat="49.10514" lon="0.73478">
        <ele>128.7</ele>
        <time>2011-07-02T06:41:02Z</time>
      </trkpt>
      <trkpt lat="49.1054" lon="0.73455">
        <ele>126.3</ele>
        <time>2011-07-02T06:41:06Z</time>
      </trkpt>
      <trkpt lat="49.10564" lon="0.73429">
        <ele>125.1</ele>
        <time>2011-07-02T06:41:10Z</time>
      </trkpt>
      <trkpt lat="49.10587" lon="0.73403">
        <ele>125.7</ele>
        <time>2011-07-02T06:41:14Z</time>
      </trkpt>
      <trkpt lat="49.10607" lon="0.73374">
        <ele>126.2</ele>
        <time>2011-07-02T06:41:18Z</time>
      </trkpt>
      <trkpt lat="49.10627" lon="0.73345">
        <ele>126</ele>
        <time>2011-07-02T06:41:22Z</time>
      </trkpt>
      <trkpt lat="49.10647" lon="0.73315">
        <ele>126.7</ele>
        <time>2011-07-02T06:41:26Z</time>
      </trkpt>
      <trkpt lat="49.10667" lon="0.73286">
        <ele>126.2</ele>
        <time>2011-07-02T06:41:30Z</time>
      </trkpt>
      <trkpt lat="49.10686" lon="0.73254">
        <ele>127.1</ele>
        <time>2011-07-02T06:41:34Z</time>
      </trkpt>
      <trkpt lat="49.107" lon="0.73229">
        <ele>127.1</ele>
        <time>2011-07-02T06:41:37Z</time>
      </trkpt>
      <trkpt lat="49.10721" lon="0.73187">
        <ele>127.7</ele>
        <time>2011-07-02T06:41:42Z</time>
      </trkpt>
      <trkpt lat="49.10739" lon="0.73153">
        <ele>127.3</ele>
        <time>2011-07-02T06:41:46Z</time>
      </trkpt>
      <trkpt lat="49.10754" lon="0.7312">
        <ele>126.6</ele>
        <time>2011-07-02T06:41:50Z</time>
      </trkpt>
      <trkpt lat="49.10771" lon="0.73088">
        <ele>126.7</ele>
        <time>2011-07-02T06:41:54Z</time>
      </trkpt>
      <trkpt lat="49.10788" lon="0.73056">
        <ele>127.9</ele>
        <time>2011-07-02T06:41:58Z</time>
      </trkpt>
      <trkpt lat="49.10805" lon="0.73023">
        <ele>129</ele>
        <time>2011-07-02T06:42:02Z</time>
      </trkpt>
      <trkpt lat="49.10823" lon="0.72988">
        <ele>130.4</ele>
        <time>2011-07-02T06:42:06Z</time>
      </trkpt>
      <trkpt lat="49.10839" lon="0.72955">
        <ele>130.2</ele>
        <time>2011-07-02T06:42:10Z</time>
      </trkpt>
      <trkpt lat="49.10856" lon="0.72922">
        <ele>132</ele>
        <time>2011-07-02T06:42:14Z</time>
      </trkpt>
      <trkpt lat="49.10872" lon="0.72888">
        <ele>132.5</ele>
        <time>2011-07-02T06:42:18Z</time>
      </trkpt>
      <trkpt lat="49.10889" lon="0.72855">
        <ele>132.8</ele>
        <time>2011-07-02T06:42:22Z</time>
      </trkpt>
      <trkpt lat="49.10904" lon="0.72819">
        <ele>133.1</ele>
        <time>2011-07-02T06:42:26Z</time>
      </trkpt>
      <trkpt lat="49.10908" lon="0.72778">
        <ele>134.3</ele>
        <time>2011-07-02T06:42:30Z</time>
      </trkpt>
      <trkpt lat="49.10909" lon="0.72734">
        <ele>134.1</ele>
        <time>2011-07-02T06:42:34Z</time>
      </trkpt>
      <trkpt lat="49.10907" lon="0.72692">
        <ele>133.2</ele>
        <time>2011-07-02T06:42:38Z</time>
      </trkpt>
      <trkpt lat="49.10905" lon="0.72658">
        <ele>133.2</ele>
        <time>2011-07-02T06:42:41Z</time>
      </trkpt>
      <trkpt lat="49.10905" lon="0.72597">
        <ele>132.3</ele>
        <time>2011-07-02T06:42:46Z</time>
      </trkpt>
      <trkpt lat="49.10908" lon="0.7255">
        <ele>131.5</ele>
        <time>2011-07-02T06:42:50Z</time>
      </trkpt>
      <trkpt lat="49.10912" lon="0.72516">
        <ele>131.4</ele>
        <time>2011-07-02T06:42:53Z</time>
      </trkpt>
      <trkpt lat="49.10917" lon="0.72459">
        <ele>128.4</ele>
        <time>2011-07-02T06:42:58Z</time>
      </trkpt>
      <trkpt lat="49.10922" lon="0.72411">
        <ele>128</ele>
        <time>2011-07-02T06:43:02Z</time>
      </trkpt>
      <trkpt lat="49.10926" lon="0.72363">
        <ele>127.3</ele>
        <time>2011-07-02T06:43:06Z</time>
      </trkpt>
      <trkpt lat="49.10931" lon="0.72327">
        <ele>126.7</ele>
        <time>2011-07-02T06:43:09Z</time>
      </trkpt>
      <trkpt lat="49.10937" lon="0.72266">
        <ele>126.2</ele>
        <time>2011-07-02T06:43:14Z</time>
      </trkpt>
      <trkpt lat="49.10943" lon="0.72216">
        <ele>126.2</ele>
        <time>2011-07-02T06:43:18Z</time>
      </trkpt>
      <trkpt lat="49.10948" lon="0.72169">
        <ele>126.3</ele>
        <time>2011-07-02T06:43:22Z</time>
      </trkpt>
      <trkpt lat="49.1095" lon="0.72135">
        <ele>127.1</ele>
        <time>2011-07-02T06:43:25Z</time>
      </trkpt>
      <trkpt lat="49.10958" lon="0.72078">
        <ele>127</ele>
        <time>2011-07-02T06:43:30Z</time>
      </trkpt>
      <trkpt lat="49.10963" lon="0.72035">
        <ele>127.1</ele>
        <time>2011-07-02T06:43:34Z</time>
      </trkpt>
      <trkpt lat="49.10967" lon="0.71991">
        <ele>128.7</ele>
        <time>2011-07-02T06:43:38Z</time>
      </trkpt>
      <trkpt lat="49.10971" lon="0.71951">
        <ele>129</ele>
        <time>2011-07-02T06:43:42Z</time>
      </trkpt>
      <trkpt lat="49.10975" lon="0.7191">
        <ele>128.7</ele>
        <time>2011-07-02T06:43:46Z</time>
      </trkpt>
      <trkpt lat="49.10979" lon="0.7188">
        <ele>128.6</ele>
        <time>2011-07-02T06:43:49Z</time>
      </trkpt>
      <trkpt lat="49.10984" lon="0.71828">
        <ele>127.7</ele>
        <time>2011-07-02T06:43:54Z</time>
      </trkpt>
      <trkpt lat="49.10988" lon="0.71783">
        <ele>125.6</ele>
        <time>2011-07-02T06:43:58Z</time>
      </trkpt>
      <trkpt lat="49.10993" lon="0.71739">
        <ele>124.8</ele>
        <time>2011-07-02T06:44:02Z</time>
      </trkpt>
      <trkpt lat="49.10999" lon="0.71698">
        <ele>125.3</ele>
        <time>2011-07-02T06:44:06Z</time>
      </trkpt>
      <trkpt lat="49.11002" lon="0.71656">
        <ele>126.3</ele>
        <time>2011-07-02T06:44:10Z</time>
      </trkpt>
      <trkpt lat="49.11002" lon="0.71613">
        <ele>125.4</ele>
        <time>2011-07-02T06:44:14Z</time>
      </trkpt>
      <trkpt lat="49.10998" lon="0.71585">
        <ele>124.5</ele>
        <time>2011-07-02T06:44:17Z</time>
      </trkpt>
      <trkpt lat="49.10993" lon="0.71568">
        <ele>124.2</ele>
        <time>2011-07-02T06:44:19Z</time>
      </trkpt>
      <trkpt lat="49.10966" lon="0.71519">
        <ele>124</ele>
        <time>2011-07-02T06:44:26Z</time>
      </trkpt>
      <trkpt lat="49.10952" lon="0.71494">
        <ele>124.1</ele>
        <time>2011-07-02T06:44:30Z</time>
      </trkpt>
      <trkpt lat="49.10947" lon="0.71455">
        <ele>123.3</ele>
        <time>2011-07-02T06:44:34Z</time>
      </trkpt>
      <trkpt lat="49.1093" lon="0.7142">
        <ele>124.4</ele>
        <time>2011-07-02T06:44:38Z</time>
      </trkpt>
      <trkpt lat="49.10919" lon="0.71388">
        <ele>125.5</ele>
        <time>2011-07-02T06:44:42Z</time>
      </trkpt>
      <trkpt lat="49.10912" lon="0.71364">
        <ele>125.7</ele>
        <time>2011-07-02T06:44:45Z</time>
      </trkpt>
      <trkpt lat="49.109" lon="0.71323">
        <ele>126.1</ele>
        <time>2011-07-02T06:44:50Z</time>
      </trkpt>
      <trkpt lat="49.10898" lon="0.71293">
        <ele>125.8</ele>
        <time>2011-07-02T06:44:53Z</time>
      </trkpt>
      <trkpt lat="49.10892" lon="0.71246">
        <ele>128.6</ele>
        <time>2011-07-02T06:44:58Z</time>
      </trkpt>
      <trkpt lat="49.10887" lon="0.71216">
        <ele>125.9</ele>
        <time>2011-07-02T06:45:01Z</time>
      </trkpt>
      <trkpt lat="49.10887" lon="0.7118">
        <ele>124.6</ele>
        <time>2011-07-02T06:45:05Z</time>
      </trkpt>
      <trkpt lat="49.1088" lon="0.71129">
        <ele>125.2</ele>
        <time>2011-07-02T06:45:10Z</time>
      </trkpt>
      <trkpt lat="49.1087" lon="0.71094">
        <ele>125.5</ele>
        <time>2011-07-02T06:45:14Z</time>
      </trkpt>
      <trkpt lat="49.1086" lon="0.71069">
        <ele>125.7</ele>
        <time>2011-07-02T06:45:17Z</time>
      </trkpt>
      <trkpt lat="49.10847" lon="0.71034">
        <ele>126.5</ele>
        <time>2011-07-02T06:45:21Z</time>
      </trkpt>
      <trkpt lat="49.1083" lon="0.70988">
        <ele>126.8</ele>
        <time>2011-07-02T06:45:26Z</time>
      </trkpt>
      <trkpt lat="49.1082" lon="0.70954">
        <ele>127</ele>
        <time>2011-07-02T06:45:30Z</time>
      </trkpt>
      <trkpt lat="49.10804" lon="0.7092">
        <ele>125.8</ele>
        <time>2011-07-02T06:45:34Z</time>
      </trkpt>
      <trkpt lat="49.10789" lon="0.70882">
        <ele>124.3</ele>
        <time>2011-07-02T06:45:38Z</time>
      </trkpt>
      <trkpt lat="49.10776" lon="0.70835">
        <ele>125.3</ele>
        <time>2011-07-02T06:45:42Z</time>
      </trkpt>
      <trkpt lat="49.10764" lon="0.70793">
        <ele>125.7</ele>
        <time>2011-07-02T06:45:46Z</time>
      </trkpt>
      <trkpt lat="49.10751" lon="0.70756">
        <ele>127.3</ele>
        <time>2011-07-02T06:45:50Z</time>
      </trkpt>
      <trkpt lat="49.10738" lon="0.70719">
        <ele>127.4</ele>
        <time>2011-07-02T06:45:54Z</time>
      </trkpt>
      <trkpt lat="49.10725" lon="0.70683">
        <ele>127.5</ele>
        <time>2011-07-02T06:45:58Z</time>
      </trkpt>
      <trkpt lat="49.10711" lon="0.70649">
        <ele>127.8</ele>
        <time>2011-07-02T06:46:02Z</time>
      </trkpt>
      <trkpt lat="49.10693" lon="0.70619">
        <ele>127.2</ele>
        <time>2011-07-02T06:46:06Z</time>
      </trkpt>
      <trkpt lat="49.10677" lon="0.70583">
        <ele>126</ele>
        <time>2011-07-02T06:46:10Z</time>
      </trkpt>
      <trkpt lat="49.10661" lon="0.70546">
        <ele>126.2</ele>
        <time>2011-07-02T06:46:14Z</time>
      </trkpt>
      <trkpt lat="49.10651" lon="0.70502">
        <ele>126</ele>
        <time>2011-07-02T06:46:18Z</time>
      </trkpt>
      <trkpt lat="49.10638" lon="0.70462">
        <ele>124.6</ele>
        <time>2011-07-02T06:46:22Z</time>
      </trkpt>
      <trkpt lat="49.1063" lon="0.70427">
        <ele>125.4</ele>
        <time>2011-07-02T06:46:26Z</time>
      </trkpt>
      <trkpt lat="49.10629" lon="0.70398">
        <ele>125.9</ele>
        <time>2011-07-02T06:46:29Z</time>
      </trkpt>
      <trkpt lat="49.10606" lon="0.70361">
        <ele>127.5</ele>
        <time>2011-07-02T06:46:34Z</time>
      </trkpt>
      <trkpt lat="49.1059" lon="0.7032">
        <ele>127.8</ele>
        <time>2011-07-02T06:46:38Z</time>
      </trkpt>
      <trkpt lat="49.10578" lon="0.70288">
        <ele>126.8</ele>
        <time>2011-07-02T06:46:41Z</time>
      </trkpt>
      <trkpt lat="49.10564" lon="0.70249">
        <ele>126.2</ele>
        <time>2011-07-02T06:46:45Z</time>
      </trkpt>
      <trkpt lat="49.10547" lon="0.70202">
        <ele>127.7</ele>
        <time>2011-07-02T06:46:50Z</time>
      </trkpt>
      <trkpt lat="49.10532" lon="0.70168">
        <ele>127</ele>
        <time>2011-07-02T06:46:54Z</time>
      </trkpt>
      <trkpt lat="49.10517" lon="0.70133">
        <ele>126.5</ele>
        <time>2011-07-02T06:46:58Z</time>
      </trkpt>
      <trkpt lat="49.10504" lon="0.70095">
        <ele>125.8</ele>
        <time>2011-07-02T06:47:02Z</time>
      </trkpt>
      <trkpt lat="49.10491" lon="0.70053">
        <ele>126.8</ele>
        <time>2011-07-02T06:47:06Z</time>
      </trkpt>
      <trkpt lat="49.10477" lon="0.70015">
        <ele>128.1</ele>
        <time>2011-07-02T06:47:10Z</time>
      </trkpt>
      <trkpt lat="49.1046" lon="0.6998">
        <ele>127.9</ele>
        <time>2011-07-02T06:47:14Z</time>
      </trkpt>
      <trkpt lat="49.10448" lon="0.69942">
        <ele>129</ele>
        <time>2011-07-02T06:47:18Z</time>
      </trkpt>
      <trkpt lat="49.10435" lon="0.69903">
        <ele>130.5</ele>
        <time>2011-07-02T06:47:22Z</time>
      </trkpt>
      <trkpt lat="49.10421" lon="0.69866">
        <ele>130.1</ele>
        <time>2011-07-02T06:47:26Z</time>
      </trkpt>
      <trkpt lat="49.10407" lon="0.6983">
        <ele>130.6</ele>
        <time>2011-07-02T06:47:30Z</time>
      </trkpt>
      <trkpt lat="49.10391" lon="0.69794">
        <ele>131.6</ele>
        <time>2011-07-02T06:47:34Z</time>
      </trkpt>
      <trkpt lat="49.10376" lon="0.69756">
        <ele>132.1</ele>
        <time>2011-07-02T06:47:38Z</time>
      </trkpt>
      <trkpt lat="49.10362" lon="0.69717">
        <ele>131.9</ele>
        <time>2011-07-02T06:47:42Z</time>
      </trkpt>
      <trkpt lat="49.10349" lon="0.69678">
        <ele>132</ele>
        <time>2011-07-02T06:47:46Z</time>
      </trkpt>
      <trkpt lat="49.10335" lon="0.69635">
        <ele>130.4</ele>
        <time>2011-07-02T06:47:50Z</time>
      </trkpt>
      <trkpt lat="49.10317" lon="0.69597">
        <ele>129.4</ele>
        <time>2011-07-02T06:47:54Z</time>
      </trkpt>
      <trkpt lat="49.10302" lon="0.69553">
        <ele>128.7</ele>
        <time>2011-07-02T06:47:58Z</time>
      </trkpt>
      <trkpt lat="49.10286" lon="0.69512">
        <ele>127.4</ele>
        <time>2011-07-02T06:48:02Z</time>
      </trkpt>
      <trkpt lat="49.10275" lon="0.69486">
        <ele>127.2</ele>
        <time>2011-07-02T06:48:05Z</time>
      </trkpt>
      <trkpt lat="49.10257" lon="0.69433">
        <ele>126.6</ele>
        <time>2011-07-02T06:48:10Z</time>
      </trkpt>
      <trkpt lat="49.10242" lon="0.69393">
        <ele>125.2</ele>
        <time>2011-07-02T06:48:14Z</time>
      </trkpt>
      <trkpt lat="49.1023" lon="0.69361">
        <ele>127.4</ele>
        <time>2011-07-02T06:48:17Z</time>
      </trkpt>
      <trkpt lat="49.10204" lon="0.69324">
        <ele>128.1</ele>
        <time>2011-07-02T06:48:22Z</time>
      </trkpt>
      <trkpt lat="49.10178" lon="0.69304">
        <ele>128.2</ele>
        <time>2011-07-02T06:48:26Z</time>
      </trkpt>
      <trkpt lat="49.10152" lon="0.69287">
        <ele>127.6</ele>
        <time>2011-07-02T06:48:30Z</time>
      </trkpt>
      <trkpt lat="49.10123" lon="0.69272">
        <ele>127.1</ele>
        <time>2011-07-02T06:48:34Z</time>
      </trkpt>
      <trkpt lat="49.10095" lon="0.6926">
        <ele>126.2</ele>
        <time>2011-07-02T06:48:38Z</time>
      </trkpt>
      <trkpt lat="49.10069" lon="0.69245">
        <ele>125.5</ele>
        <time>2011-07-02T06:48:42Z</time>
      </trkpt>
      <trkpt lat="49.10042" lon="0.69228">
        <ele>126.2</ele>
        <time>2011-07-02T06:48:46Z</time>
      </trkpt>
      <trkpt lat="49.10014" lon="0.69209">
        <ele>125.2</ele>
        <time>2011-07-02T06:48:50Z</time>
      </trkpt>
      <trkpt lat="49.09989" lon="0.69184">
        <ele>126.7</ele>
        <time>2011-07-02T06:48:54Z</time>
      </trkpt>
      <trkpt lat="49.09963" lon="0.69164">
        <ele>124.8</ele>
        <time>2011-07-02T06:48:58Z</time>
      </trkpt>
      <trkpt lat="49.09932" lon="0.69148">
        <ele>125.2</ele>
        <time>2011-07-02T06:49:02Z</time>
      </trkpt>
      <trkpt lat="49.09912" lon="0.69135">
        <ele>126.8</ele>
        <time>2011-07-02T06:49:05Z</time>
      </trkpt>
      <trkpt lat="49.09877" lon="0.69112">
        <ele>128.1</ele>
        <time>2011-07-02T06:49:10Z</time>
      </trkpt>
      <trkpt lat="49.09851" lon="0.69087">
        <ele>130</ele>
        <time>2011-07-02T06:49:14Z</time>
      </trkpt>
      <trkpt lat="49.09826" lon="0.69056">
        <ele>130.8</ele>
        <time>2011-07-02T06:49:18Z</time>
      </trkpt>
      <trkpt lat="49.09804" lon="0.69026">
        <ele>132.9</ele>
        <time>2011-07-02T06:49:22Z</time>
      </trkpt>
      <trkpt lat="49.09781" lon="0.69">
        <ele>134.2</ele>
        <time>2011-07-02T06:49:26Z</time>
      </trkpt>
      <trkpt lat="49.09757" lon="0.68972">
        <ele>133.9</ele>
        <time>2011-07-02T06:49:30Z</time>
      </trkpt>
      <trkpt lat="49.0974" lon="0.68952">
        <ele>134.1</ele>
        <time>2011-07-02T06:49:33Z</time>
      </trkpt>
      <trkpt lat="49.09709" lon="0.68916">
        <ele>134.6</ele>
        <time>2011-07-02T06:49:38Z</time>
      </trkpt>
      <trkpt lat="49.09682" lon="0.68893">
        <ele>134.1</ele>
        <time>2011-07-02T06:49:42Z</time>
      </trkpt>
      <trkpt lat="49.09657" lon="0.68869">
        <ele>133</ele>
        <time>2011-07-02T06:49:46Z</time>
      </trkpt>
      <trkpt lat="49.09631" lon="0.68845">
        <ele>132.2</ele>
        <time>2011-07-02T06:49:50Z</time>
      </trkpt>
      <trkpt lat="49.09605" lon="0.68827">
        <ele>131.8</ele>
        <time>2011-07-02T06:49:54Z</time>
      </trkpt>
      <trkpt lat="49.09577" lon="0.68809">
        <ele>132.1</ele>
        <time>2011-07-02T06:49:58Z</time>
      </trkpt>
      <trkpt lat="49.09552" lon="0.68789">
        <ele>131.6</ele>
        <time>2011-07-02T06:50:02Z</time>
      </trkpt>
      <trkpt lat="49.09526" lon="0.68773">
        <ele>131</ele>
        <time>2011-07-02T06:50:06Z</time>
      </trkpt>
      <trkpt lat="49.095" lon="0.68752">
        <ele>130.9</ele>
        <time>2011-07-02T06:50:10Z</time>
      </trkpt>
      <trkpt lat="49.09484" lon="0.68743">
        <ele>133.4</ele>
        <time>2011-07-02T06:50:12Z</time>
      </trkpt>
      <trkpt lat="49.09457" lon="0.68695">
        <ele>138.6</ele>
        <time>2011-07-02T06:50:18Z</time>
      </trkpt>
      <trkpt lat="49.09442" lon="0.68649">
        <ele>136.4</ele>
        <time>2011-07-02T06:50:22Z</time>
      </trkpt>
      <trkpt lat="49.09425" lon="0.68613">
        <ele>136.2</ele>
        <time>2011-07-02T06:50:26Z</time>
      </trkpt>
      <trkpt lat="49.09407" lon="0.68577">
        <ele>136</ele>
        <time>2011-07-02T06:50:30Z</time>
      </trkpt>
      <trkpt lat="49.09386" lon="0.68551">
        <ele>136</ele>
        <time>2011-07-02T06:50:34Z</time>
      </trkpt>
      <trkpt lat="49.09365" lon="0.68523">
        <ele>135.3</ele>
        <time>2011-07-02T06:50:38Z</time>
      </trkpt>
      <trkpt lat="49.09344" lon="0.68492">
        <ele>135.3</ele>
        <time>2011-07-02T06:50:42Z</time>
      </trkpt>
      <trkpt lat="49.09327" lon="0.68455">
        <ele>135.7</ele>
        <time>2011-07-02T06:50:46Z</time>
      </trkpt>
      <trkpt lat="49.09311" lon="0.68414">
        <ele>136.2</ele>
        <time>2011-07-02T06:50:50Z</time>
      </trkpt>
      <trkpt lat="49.09297" lon="0.68393">
        <ele>136.5</ele>
        <time>2011-07-02T06:50:53Z</time>
      </trkpt>
      <trkpt lat="49.09291" lon="0.68333">
        <ele>135.6</ele>
        <time>2011-07-02T06:50:58Z</time>
      </trkpt>
      <trkpt lat="49.09286" lon="0.68288">
        <ele>136.2</ele>
        <time>2011-07-02T06:51:02Z</time>
      </trkpt>
      <trkpt lat="49.09279" lon="0.6824">
        <ele>136</ele>
        <time>2011-07-02T06:51:06Z</time>
      </trkpt>
      <trkpt lat="49.09274" lon="0.68199">
        <ele>136.6</ele>
        <time>2011-07-02T06:51:10Z</time>
      </trkpt>
      <trkpt lat="49.09267" lon="0.68161">
        <ele>137.5</ele>
        <time>2011-07-02T06:51:14Z</time>
      </trkpt>
      <trkpt lat="49.09259" lon="0.68124">
        <ele>138.7</ele>
        <time>2011-07-02T06:51:18Z</time>
      </trkpt>
      <trkpt lat="49.09251" lon="0.68088">
        <ele>137.4</ele>
        <time>2011-07-02T06:51:22Z</time>
      </trkpt>
      <trkpt lat="49.09244" lon="0.6805">
        <ele>138.3</ele>
        <time>2011-07-02T06:51:26Z</time>
      </trkpt>
      <trkpt lat="49.09237" lon="0.68014">
        <ele>138.7</ele>
        <time>2011-07-02T06:51:30Z</time>
      </trkpt>
      <trkpt lat="49.09235" lon="0.67994">
        <ele>138.3</ele>
        <time>2011-07-02T06:51:32Z</time>
      </trkpt>
      <trkpt lat="49.09229" lon="0.67932">
        <ele>139.4</ele>
        <time>2011-07-02T06:51:38Z</time>
      </trkpt>
      <trkpt lat="49.09229" lon="0.6789">
        <ele>139.5</ele>
        <time>2011-07-02T06:51:42Z</time>
      </trkpt>
      <trkpt lat="49.09226" lon="0.67862">
        <ele>140.1</ele>
        <time>2011-07-02T06:51:45Z</time>
      </trkpt>
      <trkpt lat="49.0922" lon="0.67813">
        <ele>140.8</ele>
        <time>2011-07-02T06:51:50Z</time>
      </trkpt>
      <trkpt lat="49.09215" lon="0.67768">
        <ele>141.3</ele>
        <time>2011-07-02T06:51:54Z</time>
      </trkpt>
      <trkpt lat="49.09204" lon="0.67728">
        <ele>141.2</ele>
        <time>2011-07-02T06:51:58Z</time>
      </trkpt>
      <trkpt lat="49.09199" lon="0.67698">
        <ele>140.8</ele>
        <time>2011-07-02T06:52:01Z</time>
      </trkpt>
      <trkpt lat="49.09191" lon="0.67642">
        <ele>140.1</ele>
        <time>2011-07-02T06:52:06Z</time>
      </trkpt>
      <trkpt lat="49.09187" lon="0.67591">
        <ele>139.1</ele>
        <time>2011-07-02T06:52:10Z</time>
      </trkpt>
      <trkpt lat="49.09186" lon="0.6755">
        <ele>138.7</ele>
        <time>2011-07-02T06:52:13Z</time>
      </trkpt>
      <trkpt lat="49.0918" lon="0.67489">
        <ele>138.5</ele>
        <time>2011-07-02T06:52:18Z</time>
      </trkpt>
      <trkpt lat="49.09177" lon="0.67435">
        <ele>137.3</ele>
        <time>2011-07-02T06:52:22Z</time>
      </trkpt>
      <trkpt lat="49.09167" lon="0.67385">
        <ele>137.3</ele>
        <time>2011-07-02T06:52:26Z</time>
      </trkpt>
      <trkpt lat="49.09164" lon="0.67335">
        <ele>136.4</ele>
        <time>2011-07-02T06:52:30Z</time>
      </trkpt>
      <trkpt lat="49.09164" lon="0.67287">
        <ele>135.9</ele>
        <time>2011-07-02T06:52:34Z</time>
      </trkpt>
      <trkpt lat="49.09164" lon="0.67242">
        <ele>134.9</ele>
        <time>2011-07-02T06:52:38Z</time>
      </trkpt>
      <trkpt lat="49.09169" lon="0.67211">
        <ele>135.3</ele>
        <time>2011-07-02T06:52:41Z</time>
      </trkpt>
      <trkpt lat="49.09169" lon="0.67174">
        <ele>135.9</ele>
        <time>2011-07-02T06:52:45Z</time>
      </trkpt>
      <trkpt lat="49.09164" lon="0.67121">
        <ele>137.2</ele>
        <time>2011-07-02T06:52:50Z</time>
      </trkpt>
      <trkpt lat="49.09158" lon="0.67079">
        <ele>136.5</ele>
        <time>2011-07-02T06:52:54Z</time>
      </trkpt>
      <trkpt lat="49.09157" lon="0.67036">
        <ele>136.6</ele>
        <time>2011-07-02T06:52:58Z</time>
      </trkpt>
      <trkpt lat="49.09156" lon="0.66992">
        <ele>136.9</ele>
        <time>2011-07-02T06:53:02Z</time>
      </trkpt>
      <trkpt lat="49.09154" lon="0.66946">
        <ele>138.6</ele>
        <time>2011-07-02T06:53:06Z</time>
      </trkpt>
      <trkpt lat="49.09155" lon="0.66902">
        <ele>140.3</ele>
        <time>2011-07-02T06:53:10Z</time>
      </trkpt>
      <trkpt lat="49.09154" lon="0.66849">
        <ele>141</ele>
        <time>2011-07-02T06:53:14Z</time>
      </trkpt>
      <trkpt lat="49.09154" lon="0.66828">
        <ele>141.3</ele>
        <time>2011-07-02T06:53:16Z</time>
      </trkpt>
      <trkpt lat="49.09151" lon="0.66766">
        <ele>140.9</ele>
        <time>2011-07-02T06:53:22Z</time>
      </trkpt>
      <trkpt lat="49.09147" lon="0.66718">
        <ele>140.7</ele>
        <time>2011-07-02T06:53:26Z</time>
      </trkpt>
      <trkpt lat="49.09143" lon="0.66676">
        <ele>140.9</ele>
        <time>2011-07-02T06:53:30Z</time>
      </trkpt>
      <trkpt lat="49.09137" lon="0.66635">
        <ele>141.7</ele>
        <time>2011-07-02T06:53:34Z</time>
      </trkpt>
      <trkpt lat="49.09133" lon="0.66589">
        <ele>142.7</ele>
        <time>2011-07-02T06:53:38Z</time>
      </trkpt>
      <trkpt lat="49.09128" lon="0.66557">
        <ele>143</ele>
        <time>2011-07-02T06:53:41Z</time>
      </trkpt>
      <trkpt lat="49.09122" lon="0.66503">
        <ele>142.7</ele>
        <time>2011-07-02T06:53:46Z</time>
      </trkpt>
      <trkpt lat="49.09119" lon="0.66458">
        <ele>141.6</ele>
        <time>2011-07-02T06:53:50Z</time>
      </trkpt>
      <trkpt lat="49.09113" lon="0.66415">
        <ele>141.8</ele>
        <time>2011-07-02T06:53:54Z</time>
      </trkpt>
      <trkpt lat="49.09109" lon="0.66371">
        <ele>141.2</ele>
        <time>2011-07-02T06:53:58Z</time>
      </trkpt>
      <trkpt lat="49.09104" lon="0.66327">
        <ele>141.4</ele>
        <time>2011-07-02T06:54:02Z</time>
      </trkpt>
      <trkpt lat="49.091" lon="0.6628">
        <ele>141.5</ele>
        <time>2011-07-02T06:54:06Z</time>
      </trkpt>
      <trkpt lat="49.09096" lon="0.66238">
        <ele>141.8</ele>
        <time>2011-07-02T06:54:10Z</time>
      </trkpt>
      <trkpt lat="49.09093" lon="0.66215">
        <ele>141.7</ele>
        <time>2011-07-02T06:54:12Z</time>
      </trkpt>
      <trkpt lat="49.09086" lon="0.66153">
        <ele>142.6</ele>
        <time>2011-07-02T06:54:18Z</time>
      </trkpt>
      <trkpt lat="49.09078" lon="0.66115">
        <ele>142.5</ele>
        <time>2011-07-02T06:54:22Z</time>
      </trkpt>
      <trkpt lat="49.09072" lon="0.66076">
        <ele>142.7</ele>
        <time>2011-07-02T06:54:26Z</time>
      </trkpt>
      <trkpt lat="49.09067" lon="0.66049">
        <ele>142.9</ele>
        <time>2011-07-02T06:54:29Z</time>
      </trkpt>
      <trkpt lat="49.09058" lon="0.66003">
        <ele>142.8</ele>
        <time>2011-07-02T06:54:34Z</time>
      </trkpt>
      <trkpt lat="49.09054" lon="0.65974">
        <ele>143.2</ele>
        <time>2011-07-02T06:54:37Z</time>
      </trkpt>
      <trkpt lat="49.09051" lon="0.65958">
        <ele>143.3</ele>
        <time>2011-07-02T06:54:39Z</time>
      </trkpt>
      <trkpt lat="49.09044" lon="0.65913">
        <ele>144</ele>
        <time>2011-07-02T06:54:44Z</time>
      </trkpt>
      <trkpt lat="49.09038" lon="0.65864">
        <ele>144.3</ele>
        <time>2011-07-02T06:54:49Z</time>
      </trkpt>
      <trkpt lat="49.09035" lon="0.65818">
        <ele>143</ele>
        <time>2011-07-02T06:54:53Z</time>
      </trkpt>
      <trkpt lat="49.09041" lon="0.65759">
        <ele>143</ele>
        <time>2011-07-02T06:54:58Z</time>
      </trkpt>
      <trkpt lat="49.09056" lon="0.65709">
        <ele>142.3</ele>
        <time>2011-07-02T06:55:02Z</time>
      </trkpt>
      <trkpt lat="49.09071" lon="0.65668">
        <ele>142.5</ele>
        <time>2011-07-02T06:55:06Z</time>
      </trkpt>
      <trkpt lat="49.09086" lon="0.65633">
        <ele>142.7</ele>
        <time>2011-07-02T06:55:10Z</time>
      </trkpt>
      <trkpt lat="49.09097" lon="0.65605">
        <ele>143.3</ele>
        <time>2011-07-02T06:55:13Z</time>
      </trkpt>
      <trkpt lat="49.09116" lon="0.65549">
        <ele>141.8</ele>
        <time>2011-07-02T06:55:18Z</time>
      </trkpt>
      <trkpt lat="49.09126" lon="0.65509">
        <ele>142.4</ele>
        <time>2011-07-02T06:55:22Z</time>
      </trkpt>
      <trkpt lat="49.09137" lon="0.6547">
        <ele>143.3</ele>
        <time>2011-07-02T06:55:26Z</time>
      </trkpt>
      <trkpt lat="49.09147" lon="0.65436">
        <ele>143.7</ele>
        <time>2011-07-02T06:55:30Z</time>
      </trkpt>
      <trkpt lat="49.09156" lon="0.65403">
        <ele>144.8</ele>
        <time>2011-07-02T06:55:34Z</time>
      </trkpt>
      <trkpt lat="49.09162" lon="0.65364">
        <ele>145.3</ele>
        <time>2011-07-02T06:55:38Z</time>
      </trkpt>
      <trkpt lat="49.09174" lon="0.65321">
        <ele>146.3</ele>
        <time>2011-07-02T06:55:42Z</time>
      </trkpt>
      <trkpt lat="49.09182" lon="0.65295">
        <ele>147.1</ele>
        <time>2011-07-02T06:55:45Z</time>
      </trkpt>
      <trkpt lat="49.09192" lon="0.65259">
        <ele>147.3</ele>
        <time>2011-07-02T06:55:49Z</time>
      </trkpt>
      <trkpt lat="49.0919" lon="0.65235">
        <ele>147.6</ele>
        <time>2011-07-02T06:55:53Z</time>
      </trkpt>
      <trkpt lat="49.09197" lon="0.65186">
        <ele>148</ele>
        <time>2011-07-02T06:55:58Z</time>
      </trkpt>
      <trkpt lat="49.09211" lon="0.65131">
        <ele>147.2</ele>
        <time>2011-07-02T06:56:02Z</time>
      </trkpt>
      <trkpt lat="49.09222" lon="0.65088">
        <ele>148.2</ele>
        <time>2011-07-02T06:56:06Z</time>
      </trkpt>
      <trkpt lat="49.09235" lon="0.6504">
        <ele>148.3</ele>
        <time>2011-07-02T06:56:10Z</time>
      </trkpt>
      <trkpt lat="49.09254" lon="0.6499">
        <ele>146.8</ele>
        <time>2011-07-02T06:56:14Z</time>
      </trkpt>
      <trkpt lat="49.09267" lon="0.64943">
        <ele>145.6</ele>
        <time>2011-07-02T06:56:18Z</time>
      </trkpt>
      <trkpt lat="49.09275" lon="0.64897">
        <ele>146.6</ele>
        <time>2011-07-02T06:56:22Z</time>
      </trkpt>
      <trkpt lat="49.09274" lon="0.64869">
        <ele>147</ele>
        <time>2011-07-02T06:56:26Z</time>
      </trkpt>
      <trkpt lat="49.09273" lon="0.64821">
        <ele>146.6</ele>
        <time>2011-07-02T06:56:31Z</time>
      </trkpt>
      <trkpt lat="49.09276" lon="0.64773">
        <ele>148.5</ele>
        <time>2011-07-02T06:56:35Z</time>
      </trkpt>
      <trkpt lat="49.09277" lon="0.6473">
        <ele>149.3</ele>
        <time>2011-07-02T06:56:39Z</time>
      </trkpt>
      <trkpt lat="49.0928" lon="0.64686">
        <ele>148.2</ele>
        <time>2011-07-02T06:56:43Z</time>
      </trkpt>
      <trkpt lat="49.09279" lon="0.64657">
        <ele>148.4</ele>
        <time>2011-07-02T06:56:46Z</time>
      </trkpt>
      <trkpt lat="49.09281" lon="0.64617">
        <ele>148.5</ele>
        <time>2011-07-02T06:56:50Z</time>
      </trkpt>
      <trkpt lat="49.09285" lon="0.64561">
        <ele>148.8</ele>
        <time>2011-07-02T06:56:55Z</time>
      </trkpt>
      <trkpt lat="49.09296" lon="0.64509">
        <ele>148.7</ele>
        <time>2011-07-02T06:56:59Z</time>
      </trkpt>
      <trkpt lat="49.09302" lon="0.64458">
        <ele>148.5</ele>
        <time>2011-07-02T06:57:03Z</time>
      </trkpt>
      <trkpt lat="49.09312" lon="0.64404">
        <ele>149.5</ele>
        <time>2011-07-02T06:57:07Z</time>
      </trkpt>
      <trkpt lat="49.09327" lon="0.64361">
        <ele>149.9</ele>
        <time>2011-07-02T06:57:11Z</time>
      </trkpt>
      <trkpt lat="49.09338" lon="0.64326">
        <ele>153.1</ele>
        <time>2011-07-02T06:57:15Z</time>
      </trkpt>
      <trkpt lat="49.09353" lon="0.64297">
        <ele>152.5</ele>
        <time>2011-07-02T06:57:19Z</time>
      </trkpt>
      <trkpt lat="49.09358" lon="0.64279">
        <ele>152.6</ele>
        <time>2011-07-02T06:57:21Z</time>
      </trkpt>
      <trkpt lat="49.09381" lon="0.64233">
        <ele>153.3</ele>
        <time>2011-07-02T06:57:27Z</time>
      </trkpt>
      <trkpt lat="49.09405" lon="0.64194">
        <ele>155</ele>
        <time>2011-07-02T06:57:31Z</time>
      </trkpt>
      <trkpt lat="49.09427" lon="0.64153">
        <ele>156.7</ele>
        <time>2011-07-02T06:57:35Z</time>
      </trkpt>
      <trkpt lat="49.09454" lon="0.6412">
        <ele>153.7</ele>
        <time>2011-07-02T06:57:39Z</time>
      </trkpt>
      <trkpt lat="49.09483" lon="0.64088">
        <ele>147.7</ele>
        <time>2011-07-02T06:57:43Z</time>
      </trkpt>
      <trkpt lat="49.09505" lon="0.6406">
        <ele>147</ele>
        <time>2011-07-02T06:57:47Z</time>
      </trkpt>
      <trkpt lat="49.09526" lon="0.64024">
        <ele>145.8</ele>
        <time>2011-07-02T06:57:51Z</time>
      </trkpt>
      <trkpt lat="49.09544" lon="0.63992">
        <ele>145.4</ele>
        <time>2011-07-02T06:57:55Z</time>
      </trkpt>
      <trkpt lat="49.09563" lon="0.6396">
        <ele>144.2</ele>
        <time>2011-07-02T06:57:59Z</time>
      </trkpt>
      <trkpt lat="49.09568" lon="0.63952">
        <ele>144.1</ele>
        <time>2011-07-02T06:58:00Z</time>
      </trkpt>
      <trkpt lat="49.09597" lon="0.63903">
        <ele>144.4</ele>
        <time>2011-07-02T06:58:07Z</time>
      </trkpt>
      <trkpt lat="49.09619" lon="0.63868">
        <ele>145.5</ele>
        <time>2011-07-02T06:58:11Z</time>
      </trkpt>
      <trkpt lat="49.09632" lon="0.63846">
        <ele>146.1</ele>
        <time>2011-07-02T06:58:14Z</time>
      </trkpt>
      <trkpt lat="49.09656" lon="0.63805">
        <ele>145.7</ele>
        <time>2011-07-02T06:58:19Z</time>
      </trkpt>
      <trkpt lat="49.09674" lon="0.63771">
        <ele>144.8</ele>
        <time>2011-07-02T06:58:23Z</time>
      </trkpt>
      <trkpt lat="49.09689" lon="0.63736">
        <ele>145.9</ele>
        <time>2011-07-02T06:58:27Z</time>
      </trkpt>
      <trkpt lat="49.09704" lon="0.63701">
        <ele>145.5</ele>
        <time>2011-07-02T06:58:31Z</time>
      </trkpt>
      <trkpt lat="49.0972" lon="0.63664">
        <ele>145.4</ele>
        <time>2011-07-02T06:58:35Z</time>
      </trkpt>
      <trkpt lat="49.09735" lon="0.63627">
        <ele>144.8</ele>
        <time>2011-07-02T06:58:39Z</time>
      </trkpt>
      <trkpt lat="49.0975" lon="0.6359">
        <ele>144.3</ele>
        <time>2011-07-02T06:58:43Z</time>
      </trkpt>
      <trkpt lat="49.09763" lon="0.63559">
        <ele>145</ele>
        <time>2011-07-02T06:58:47Z</time>
      </trkpt>
      <trkpt lat="49.0977" lon="0.63541">
        <ele>145</ele>
        <time>2011-07-02T06:58:49Z</time>
      </trkpt>
      <trkpt lat="49.09791" lon="0.63485">
        <ele>144.9</ele>
        <time>2011-07-02T06:58:55Z</time>
      </trkpt>
      <trkpt lat="49.09809" lon="0.63443">
        <ele>144.2</ele>
        <time>2011-07-02T06:58:59Z</time>
      </trkpt>
      <trkpt lat="49.0982" lon="0.63402">
        <ele>144.6</ele>
        <time>2011-07-02T06:59:03Z</time>
      </trkpt>
      <trkpt lat="49.09826" lon="0.63359">
        <ele>144.8</ele>
        <time>2011-07-02T06:59:07Z</time>
      </trkpt>
      <trkpt lat="49.09824" lon="0.63316">
        <ele>144.6</ele>
        <time>2011-07-02T06:59:11Z</time>
      </trkpt>
      <trkpt lat="49.09822" lon="0.63305">
        <ele>144.4</ele>
        <time>2011-07-02T06:59:12Z</time>
      </trkpt>
      <trkpt lat="49.09809" lon="0.63233">
        <ele>144.7</ele>
        <time>2011-07-02T06:59:19Z</time>
      </trkpt>
      <trkpt lat="49.09797" lon="0.63192">
        <ele>144.4</ele>
        <time>2011-07-02T06:59:23Z</time>
      </trkpt>
      <trkpt lat="49.09788" lon="0.63149">
        <ele>144.3</ele>
        <time>2011-07-02T06:59:27Z</time>
      </trkpt>
      <trkpt lat="49.09786" lon="0.63139">
        <ele>144.8</ele>
        <time>2011-07-02T06:59:28Z</time>
      </trkpt>
      <trkpt lat="49.09769" lon="0.63066">
        <ele>143.9</ele>
        <time>2011-07-02T06:59:35Z</time>
      </trkpt>
      <trkpt lat="49.0976" lon="0.63023">
        <ele>143.9</ele>
        <time>2011-07-02T06:59:39Z</time>
      </trkpt>
      <trkpt lat="49.0975" lon="0.62978">
        <ele>142.8</ele>
        <time>2011-07-02T06:59:43Z</time>
      </trkpt>
      <trkpt lat="49.09742" lon="0.62934">
        <ele>142.4</ele>
        <time>2011-07-02T06:59:47Z</time>
      </trkpt>
      <trkpt lat="49.09731" lon="0.62891">
        <ele>141.5</ele>
        <time>2011-07-02T06:59:51Z</time>
      </trkpt>
      <trkpt lat="49.09722" lon="0.62846">
        <ele>142.3</ele>
        <time>2011-07-02T06:59:55Z</time>
      </trkpt>
      <trkpt lat="49.09711" lon="0.62801">
        <ele>143.4</ele>
        <time>2011-07-02T06:59:59Z</time>
      </trkpt>
      <trkpt lat="49.09705" lon="0.62752">
        <ele>143.2</ele>
        <time>2011-07-02T07:00:03Z</time>
      </trkpt>
      <trkpt lat="49.09696" lon="0.62708">
        <ele>143.8</ele>
        <time>2011-07-02T07:00:07Z</time>
      </trkpt>
      <trkpt lat="49.09687" lon="0.62666">
        <ele>143.5</ele>
        <time>2011-07-02T07:00:11Z</time>
      </trkpt>
      <trkpt lat="49.09679" lon="0.62621">
        <ele>143.3</ele>
        <time>2011-07-02T07:00:15Z</time>
      </trkpt>
      <trkpt lat="49.0967" lon="0.62574">
        <ele>144</ele>
        <time>2011-07-02T07:00:19Z</time>
      </trkpt>
      <trkpt lat="49.09666" lon="0.62531">
        <ele>144.2</ele>
        <time>2011-07-02T07:00:23Z</time>
      </trkpt>
      <trkpt lat="49.09667" lon="0.62488">
        <ele>144</ele>
        <time>2011-07-02T07:00:27Z</time>
      </trkpt>
      <trkpt lat="49.0967" lon="0.62444">
        <ele>143.5</ele>
        <time>2011-07-02T07:00:31Z</time>
      </trkpt>
      <trkpt lat="49.09673" lon="0.62401">
        <ele>144.3</ele>
        <time>2011-07-02T07:00:35Z</time>
      </trkpt>
      <trkpt lat="49.09675" lon="0.62358">
        <ele>146.5</ele>
        <time>2011-07-02T07:00:39Z</time>
      </trkpt>
      <trkpt lat="49.09677" lon="0.62317">
        <ele>149.3</ele>
        <time>2011-07-02T07:00:43Z</time>
      </trkpt>
      <trkpt lat="49.0968" lon="0.62276">
        <ele>149</ele>
        <time>2011-07-02T07:00:47Z</time>
      </trkpt>
      <trkpt lat="49.09682" lon="0.62235">
        <ele>150</ele>
        <time>2011-07-02T07:00:51Z</time>
      </trkpt>
      <trkpt lat="49.09684" lon="0.62195">
        <ele>150</ele>
        <time>2011-07-02T07:00:55Z</time>
      </trkpt>
      <trkpt lat="49.09685" lon="0.62155">
        <ele>150.4</ele>
        <time>2011-07-02T07:00:59Z</time>
      </trkpt>
      <trkpt lat="49.09686" lon="0.62114">
        <ele>151.5</ele>
        <time>2011-07-02T07:01:03Z</time>
      </trkpt>
      <trkpt lat="49.09686" lon="0.62084">
        <ele>151.4</ele>
        <time>2011-07-02T07:01:06Z</time>
      </trkpt>
      <trkpt lat="49.09687" lon="0.62034">
        <ele>150.6</ele>
        <time>2011-07-02T07:01:11Z</time>
      </trkpt>
      <trkpt lat="49.09689" lon="0.61995">
        <ele>150.3</ele>
        <time>2011-07-02T07:01:15Z</time>
      </trkpt>
      <trkpt lat="49.0969" lon="0.61956">
        <ele>149.9</ele>
        <time>2011-07-02T07:01:19Z</time>
      </trkpt>
      <trkpt lat="49.09686" lon="0.61914">
        <ele>149.7</ele>
        <time>2011-07-02T07:01:23Z</time>
      </trkpt>
      <trkpt lat="49.09672" lon="0.61878">
        <ele>149.5</ele>
        <time>2011-07-02T07:01:27Z</time>
      </trkpt>
      <trkpt lat="49.09649" lon="0.61846">
        <ele>148.5</ele>
        <time>2011-07-02T07:01:31Z</time>
      </trkpt>
      <trkpt lat="49.09627" lon="0.61811">
        <ele>149.2</ele>
        <time>2011-07-02T07:01:35Z</time>
      </trkpt>
      <trkpt lat="49.09602" lon="0.61772">
        <ele>149.7</ele>
        <time>2011-07-02T07:01:39Z</time>
      </trkpt>
      <trkpt lat="49.09581" lon="0.61734">
        <ele>150.2</ele>
        <time>2011-07-02T07:01:43Z</time>
      </trkpt>
      <trkpt lat="49.09562" lon="0.61698">
        <ele>149.4</ele>
        <time>2011-07-02T07:01:47Z</time>
      </trkpt>
      <trkpt lat="49.09543" lon="0.61664">
        <ele>150.2</ele>
        <time>2011-07-02T07:01:51Z</time>
      </trkpt>
      <trkpt lat="49.09522" lon="0.61633">
        <ele>149.3</ele>
        <time>2011-07-02T07:01:55Z</time>
      </trkpt>
      <trkpt lat="49.09503" lon="0.61599">
        <ele>148.3</ele>
        <time>2011-07-02T07:01:59Z</time>
      </trkpt>
      <trkpt lat="49.09489" lon="0.61575">
        <ele>148.5</ele>
        <time>2011-07-02T07:02:02Z</time>
      </trkpt>
      <trkpt lat="49.09465" lon="0.61534">
        <ele>147.2</ele>
        <time>2011-07-02T07:02:07Z</time>
      </trkpt>
      <trkpt lat="49.09446" lon="0.615">
        <ele>146.8</ele>
        <time>2011-07-02T07:02:11Z</time>
      </trkpt>
      <trkpt lat="49.09426" lon="0.61464">
        <ele>146.2</ele>
        <time>2011-07-02T07:02:15Z</time>
      </trkpt>
      <trkpt lat="49.09405" lon="0.61429">
        <ele>146.2</ele>
        <time>2011-07-02T07:02:19Z</time>
      </trkpt>
      <trkpt lat="49.09383" lon="0.61397">
        <ele>146.3</ele>
        <time>2011-07-02T07:02:23Z</time>
      </trkpt>
      <trkpt lat="49.09364" lon="0.61364">
        <ele>146.8</ele>
        <time>2011-07-02T07:02:27Z</time>
      </trkpt>
      <trkpt lat="49.09347" lon="0.61344">
        <ele>146.5</ele>
        <time>2011-07-02T07:02:30Z</time>
      </trkpt>
      <trkpt lat="49.09314" lon="0.61316">
        <ele>145.9</ele>
        <time>2011-07-02T07:02:35Z</time>
      </trkpt>
      <trkpt lat="49.09301" lon="0.61308">
        <ele>145.6</ele>
        <time>2011-07-02T07:02:37Z</time>
      </trkpt>
      <trkpt lat="49.09261" lon="0.61274">
        <ele>146.2</ele>
        <time>2011-07-02T07:02:43Z</time>
      </trkpt>
      <trkpt lat="49.09238" lon="0.61239">
        <ele>146.3</ele>
        <time>2011-07-02T07:02:47Z</time>
      </trkpt>
      <trkpt lat="49.09222" lon="0.61202">
        <ele>145.4</ele>
        <time>2011-07-02T07:02:51Z</time>
      </trkpt>
      <trkpt lat="49.09209" lon="0.61163">
        <ele>144.1</ele>
        <time>2011-07-02T07:02:55Z</time>
      </trkpt>
      <trkpt lat="49.09197" lon="0.61122">
        <ele>144.1</ele>
        <time>2011-07-02T07:02:59Z</time>
      </trkpt>
      <trkpt lat="49.09184" lon="0.61083">
        <ele>143.6</ele>
        <time>2011-07-02T07:03:03Z</time>
      </trkpt>
      <trkpt lat="49.09172" lon="0.61047">
        <ele>144</ele>
        <time>2011-07-02T07:03:07Z</time>
      </trkpt>
      <trkpt lat="49.0916" lon="0.61009">
        <ele>144.3</ele>
        <time>2011-07-02T07:03:11Z</time>
      </trkpt>
      <trkpt lat="49.09146" lon="0.6097">
        <ele>144.8</ele>
        <time>2011-07-02T07:03:15Z</time>
      </trkpt>
      <trkpt lat="49.09132" lon="0.60934">
        <ele>145.7</ele>
        <time>2011-07-02T07:03:19Z</time>
      </trkpt>
      <trkpt lat="49.09118" lon="0.60898">
        <ele>144.9</ele>
        <time>2011-07-02T07:03:23Z</time>
      </trkpt>
      <trkpt lat="49.09103" lon="0.60863">
        <ele>144.9</ele>
        <time>2011-07-02T07:03:27Z</time>
      </trkpt>
      <trkpt lat="49.09088" lon="0.60827">
        <ele>144.7</ele>
        <time>2011-07-02T07:03:31Z</time>
      </trkpt>
      <trkpt lat="49.09074" lon="0.6079">
        <ele>145.9</ele>
        <time>2011-07-02T07:03:35Z</time>
      </trkpt>
      <trkpt lat="49.09062" lon="0.60754">
        <ele>147.2</ele>
        <time>2011-07-02T07:03:39Z</time>
      </trkpt>
      <trkpt lat="49.09049" lon="0.60721">
        <ele>147.8</ele>
        <time>2011-07-02T07:03:43Z</time>
      </trkpt>
      <trkpt lat="49.0904" lon="0.60685">
        <ele>148.6</ele>
        <time>2011-07-02T07:03:47Z</time>
      </trkpt>
      <trkpt lat="49.09031" lon="0.6065">
        <ele>149.3</ele>
        <time>2011-07-02T07:03:51Z</time>
      </trkpt>
      <trkpt lat="49.09023" lon="0.60622">
        <ele>149.6</ele>
        <time>2011-07-02T07:03:55Z</time>
      </trkpt>
      <trkpt lat="49.09016" lon="0.606">
        <ele>150.6</ele>
        <time>2011-07-02T07:03:59Z</time>
      </trkpt>
      <trkpt lat="49.09012" lon="0.6059">
        <ele>150.6</ele>
        <time>2011-07-02T07:04:02Z</time>
      </trkpt>
      <trkpt lat="49.09007" lon="0.60581">
        <ele>151.6</ele>
        <time>2011-07-02T07:04:06Z</time>
      </trkpt>
      <trkpt lat="49.09007" lon="0.60569">
        <ele>152.3</ele>
        <time>2011-07-02T07:04:14Z</time>
      </trkpt>
      <trkpt lat="49.09007" lon="0.60569">
        <ele>104</ele>
        <time>2011-07-02T07:04:25Z</time>
      </trkpt>
      <trkpt lat="49.09007" lon="0.60569">
        <ele>104</ele>
        <time>2011-07-02T07:04:41Z</time>
      </trkpt>
      <trkpt lat="49.08997" lon="0.60533">
        <ele>154.8</ele>
        <time>2011-07-02T07:04:48Z</time>
      </trkpt>
      <trkpt lat="49.08997" lon="0.60533">
        <ele>104</ele>
        <time>2011-07-02T07:04:59Z</time>
      </trkpt>
      <trkpt lat="49.08997" lon="0.60533">
        <ele>104</ele>
        <time>2011-07-02T07:06:14Z</time>
      </trkpt>
      <trkpt lat="49.08985" lon="0.60483">
        <ele>151.2</ele>
        <time>2011-07-02T07:06:22Z</time>
      </trkpt>
      <trkpt lat="49.08971" lon="0.6047">
        <ele>151</ele>
        <time>2011-07-02T07:06:26Z</time>
      </trkpt>
      <trkpt lat="49.08959" lon="0.60454">
        <ele>150.6</ele>
        <time>2011-07-02T07:06:30Z</time>
      </trkpt>
      <trkpt lat="49.08944" lon="0.60435">
        <ele>151.1</ele>
        <time>2011-07-02T07:06:34Z</time>
      </trkpt>
      <trkpt lat="49.08931" lon="0.60414">
        <ele>152.6</ele>
        <time>2011-07-02T07:06:38Z</time>
      </trkpt>
      <trkpt lat="49.08915" lon="0.60391">
        <ele>152.8</ele>
        <time>2011-07-02T07:06:42Z</time>
      </trkpt>
      <trkpt lat="49.08902" lon="0.60375">
        <ele>152.6</ele>
        <time>2011-07-02T07:06:46Z</time>
      </trkpt>
      <trkpt lat="49.08887" lon="0.60358">
        <ele>152.9</ele>
        <time>2011-07-02T07:06:50Z</time>
      </trkpt>
      <trkpt lat="49.08869" lon="0.60338">
        <ele>152.1</ele>
        <time>2011-07-02T07:06:54Z</time>
      </trkpt>
      <trkpt lat="49.08852" lon="0.60316">
        <ele>151.1</ele>
        <time>2011-07-02T07:06:58Z</time>
      </trkpt>
      <trkpt lat="49.08835" lon="0.60297">
        <ele>151.8</ele>
        <time>2011-07-02T07:07:02Z</time>
      </trkpt>
      <trkpt lat="49.08819" lon="0.60268">
        <ele>151.4</ele>
        <time>2011-07-02T07:07:06Z</time>
      </trkpt>
      <trkpt lat="49.0881" lon="0.6024">
        <ele>150.7</ele>
        <time>2011-07-02T07:07:09Z</time>
      </trkpt>
      <trkpt lat="49.088" lon="0.60195">
        <ele>151.1</ele>
        <time>2011-07-02T07:07:14Z</time>
      </trkpt>
      <trkpt lat="49.08792" lon="0.60156">
        <ele>150.6</ele>
        <time>2011-07-02T07:07:18Z</time>
      </trkpt>
      <trkpt lat="49.08785" lon="0.60128">
        <ele>152.5</ele>
        <time>2011-07-02T07:07:21Z</time>
      </trkpt>
      <trkpt lat="49.08777" lon="0.6008">
        <ele>151.1</ele>
        <time>2011-07-02T07:07:26Z</time>
      </trkpt>
      <trkpt lat="49.08773" lon="0.60043">
        <ele>149.6</ele>
        <time>2011-07-02T07:07:30Z</time>
      </trkpt>
      <trkpt lat="49.08768" lon="0.60009">
        <ele>149</ele>
        <time>2011-07-02T07:07:34Z</time>
      </trkpt>
      <trkpt lat="49.08767" lon="0.59972">
        <ele>149</ele>
        <time>2011-07-02T07:07:38Z</time>
      </trkpt>
      <trkpt lat="49.08767" lon="0.59932">
        <ele>150</ele>
        <time>2011-07-02T07:07:42Z</time>
      </trkpt>
      <trkpt lat="49.08767" lon="0.59891">
        <ele>149.9</ele>
        <time>2011-07-02T07:07:46Z</time>
      </trkpt>
      <trkpt lat="49.08764" lon="0.59852">
        <ele>150.8</ele>
        <time>2011-07-02T07:07:50Z</time>
      </trkpt>
      <trkpt lat="49.08761" lon="0.59825">
        <ele>151.5</ele>
        <time>2011-07-02T07:07:53Z</time>
      </trkpt>
      <trkpt lat="49.08757" lon="0.598">
        <ele>150</ele>
        <time>2011-07-02T07:07:57Z</time>
      </trkpt>
      <trkpt lat="49.08757" lon="0.59775">
        <ele>151.3</ele>
        <time>2011-07-02T07:08:02Z</time>
      </trkpt>
      <trkpt lat="49.08755" lon="0.59765">
        <ele>152</ele>
        <time>2011-07-02T07:08:06Z</time>
      </trkpt>
      <trkpt lat="49.08754" lon="0.59752">
        <ele>153</ele>
        <time>2011-07-02T07:08:10Z</time>
      </trkpt>
      <trkpt lat="49.08752" lon="0.59728">
        <ele>153.5</ele>
        <time>2011-07-02T07:08:14Z</time>
      </trkpt>
      <trkpt lat="49.08749" lon="0.59701">
        <ele>152.4</ele>
        <time>2011-07-02T07:08:18Z</time>
      </trkpt>
      <trkpt lat="49.08747" lon="0.59672">
        <ele>151.3</ele>
        <time>2011-07-02T07:08:22Z</time>
      </trkpt>
      <trkpt lat="49.08743" lon="0.59641">
        <ele>150</ele>
        <time>2011-07-02T07:08:26Z</time>
      </trkpt>
      <trkpt lat="49.0874" lon="0.59631">
        <ele>149.6</ele>
        <time>2011-07-02T07:08:28Z</time>
      </trkpt>
      <trkpt lat="49.08737" lon="0.59607">
        <ele>149.6</ele>
        <time>2011-07-02T07:08:31Z</time>
      </trkpt>
      <trkpt lat="49.08738" lon="0.59552">
        <ele>149.6</ele>
        <time>2011-07-02T07:08:37Z</time>
      </trkpt>
      <trkpt lat="49.08732" lon="0.59512">
        <ele>148.1</ele>
        <time>2011-07-02T07:08:42Z</time>
      </trkpt>
      <trkpt lat="49.08729" lon="0.59483">
        <ele>147</ele>
        <time>2011-07-02T07:08:46Z</time>
      </trkpt>
      <trkpt lat="49.08728" lon="0.59452">
        <ele>148.1</ele>
        <time>2011-07-02T07:08:50Z</time>
      </trkpt>
      <trkpt lat="49.08726" lon="0.5944">
        <ele>148.5</ele>
        <time>2011-07-02T07:08:52Z</time>
      </trkpt>
      <trkpt lat="49.08722" lon="0.59398">
        <ele>149.9</ele>
        <time>2011-07-02T07:08:58Z</time>
      </trkpt>
      <trkpt lat="49.08725" lon="0.59367">
        <ele>151.2</ele>
        <time>2011-07-02T07:09:02Z</time>
      </trkpt>
      <trkpt lat="49.08734" lon="0.59344">
        <ele>151.3</ele>
        <time>2011-07-02T07:09:05Z</time>
      </trkpt>
      <trkpt lat="49.08743" lon="0.5932">
        <ele>151.6</ele>
        <time>2011-07-02T07:09:09Z</time>
      </trkpt>
      <trkpt lat="49.08749" lon="0.59298">
        <ele>152.3</ele>
        <time>2011-07-02T07:09:13Z</time>
      </trkpt>
      <trkpt lat="49.0874" lon="0.59282">
        <ele>153.1</ele>
        <time>2011-07-02T07:09:18Z</time>
      </trkpt>
      <trkpt lat="49.08734" lon="0.59276">
        <ele>154.5</ele>
        <time>2011-07-02T07:09:21Z</time>
      </trkpt>
      <trkpt lat="49.08723" lon="0.5928">
        <ele>155.5</ele>
        <time>2011-07-02T07:09:24Z</time>
      </trkpt>
      <trkpt lat="49.08714" lon="0.59294">
        <ele>154.8</ele>
        <time>2011-07-02T07:09:28Z</time>
      </trkpt>
      <trkpt lat="49.08711" lon="0.59318">
        <ele>154</ele>
        <time>2011-07-02T07:09:34Z</time>
      </trkpt>
      <trkpt lat="49.08712" lon="0.5934">
        <ele>154.6</ele>
        <time>2011-07-02T07:09:38Z</time>
      </trkpt>
      <trkpt lat="49.08708" lon="0.59353">
        <ele>155.5</ele>
        <time>2011-07-02T07:09:40Z</time>
      </trkpt>
      <trkpt lat="49.08687" lon="0.59383">
        <ele>156.2</ele>
        <time>2011-07-02T07:09:46Z</time>
      </trkpt>
      <trkpt lat="49.08671" lon="0.59415">
        <ele>157.2</ele>
        <time>2011-07-02T07:09:50Z</time>
      </trkpt>
      <trkpt lat="49.08664" lon="0.59456">
        <ele>156.2</ele>
        <time>2011-07-02T07:09:54Z</time>
      </trkpt>
      <trkpt lat="49.08666" lon="0.595">
        <ele>156.9</ele>
        <time>2011-07-02T07:09:58Z</time>
      </trkpt>
      <trkpt lat="49.08671" lon="0.59532">
        <ele>156.9</ele>
        <time>2011-07-02T07:10:01Z</time>
      </trkpt>
      <trkpt lat="49.08679" lon="0.59587">
        <ele>157.4</ele>
        <time>2011-07-02T07:10:06Z</time>
      </trkpt>
      <trkpt lat="49.08684" lon="0.5963">
        <ele>157.1</ele>
        <time>2011-07-02T07:10:10Z</time>
      </trkpt>
      <trkpt lat="49.08685" lon="0.59655">
        <ele>157.6</ele>
        <time>2011-07-02T07:10:13Z</time>
      </trkpt>
      <trkpt lat="49.08668" lon="0.5968">
        <ele>157.5</ele>
        <time>2011-07-02T07:10:17Z</time>
      </trkpt>
      <trkpt lat="49.08631" lon="0.59699">
        <ele>159.9</ele>
        <time>2011-07-02T07:10:22Z</time>
      </trkpt>
      <trkpt lat="49.08603" lon="0.5971">
        <ele>160</ele>
        <time>2011-07-02T07:10:26Z</time>
      </trkpt>
      <trkpt lat="49.08583" lon="0.59715">
        <ele>158.8</ele>
        <time>2011-07-02T07:10:29Z</time>
      </trkpt>
      <trkpt lat="49.08563" lon="0.59731">
        <ele>159.8</ele>
        <time>2011-07-02T07:10:33Z</time>
      </trkpt>
      <trkpt lat="49.08533" lon="0.59749">
        <ele>160.9</ele>
        <time>2011-07-02T07:10:38Z</time>
      </trkpt>
      <trkpt lat="49.08508" lon="0.59764">
        <ele>161.4</ele>
        <time>2011-07-02T07:10:42Z</time>
      </trkpt>
      <trkpt lat="49.0849" lon="0.5977">
        <ele>161.9</ele>
        <time>2011-07-02T07:10:45Z</time>
      </trkpt>
      <trkpt lat="49.08459" lon="0.59781">
        <ele>161.6</ele>
        <time>2011-07-02T07:10:50Z</time>
      </trkpt>
      <trkpt lat="49.08439" lon="0.59785">
        <ele>159.6</ele>
        <time>2011-07-02T07:10:53Z</time>
      </trkpt>
      <trkpt lat="49.08407" lon="0.59797">
        <ele>159.2</ele>
        <time>2011-07-02T07:10:58Z</time>
      </trkpt>
      <trkpt lat="49.0838" lon="0.59809">
        <ele>158.9</ele>
        <time>2011-07-02T07:11:02Z</time>
      </trkpt>
      <trkpt lat="49.08356" lon="0.5982">
        <ele>157.8</ele>
        <time>2011-07-02T07:11:06Z</time>
      </trkpt>
      <trkpt lat="49.08329" lon="0.59829">
        <ele>158</ele>
        <time>2011-07-02T07:11:10Z</time>
      </trkpt>
      <trkpt lat="49.08301" lon="0.59837">
        <ele>158.3</ele>
        <time>2011-07-02T07:11:14Z</time>
      </trkpt>
      <trkpt lat="49.08272" lon="0.59844">
        <ele>158.1</ele>
        <time>2011-07-02T07:11:18Z</time>
      </trkpt>
      <trkpt lat="49.08248" lon="0.59854">
        <ele>158.5</ele>
        <time>2011-07-02T07:11:22Z</time>
      </trkpt>
      <trkpt lat="49.08228" lon="0.59864">
        <ele>159</ele>
        <time>2011-07-02T07:11:25Z</time>
      </trkpt>
      <trkpt lat="49.08203" lon="0.5987">
        <ele>159.5</ele>
        <time>2011-07-02T07:11:29Z</time>
      </trkpt>
      <trkpt lat="49.08156" lon="0.5989">
        <ele>158.4</ele>
        <time>2011-07-02T07:11:37Z</time>
      </trkpt>
      <trkpt lat="49.08104" lon="0.5988">
        <ele>158.5</ele>
        <time>2011-07-02T07:11:45Z</time>
      </trkpt>
      <trkpt lat="49.08071" lon="0.59882">
        <ele>157.8</ele>
        <time>2011-07-02T07:11:50Z</time>
      </trkpt>
      <trkpt lat="49.08044" lon="0.59886">
        <ele>157.5</ele>
        <time>2011-07-02T07:11:54Z</time>
      </trkpt>
      <trkpt lat="49.08027" lon="0.59888">
        <ele>157.5</ele>
        <time>2011-07-02T07:11:57Z</time>
      </trkpt>
      <trkpt lat="49.08015" lon="0.59892">
        <ele>157.4</ele>
        <time>2011-07-02T07:11:59Z</time>
      </trkpt>
      <trkpt lat="49.07976" lon="0.5991">
        <ele>158</ele>
        <time>2011-07-02T07:12:06Z</time>
      </trkpt>
      <trkpt lat="49.07961" lon="0.59924">
        <ele>158.2</ele>
        <time>2011-07-02T07:12:09Z</time>
      </trkpt>
      <trkpt lat="49.07939" lon="0.59933">
        <ele>156.5</ele>
        <time>2011-07-02T07:12:13Z</time>
      </trkpt>
      <trkpt lat="49.07913" lon="0.59955">
        <ele>157.6</ele>
        <time>2011-07-02T07:12:18Z</time>
      </trkpt>
      <trkpt lat="49.07885" lon="0.59966">
        <ele>156.4</ele>
        <time>2011-07-02T07:12:22Z</time>
      </trkpt>
      <trkpt lat="49.07852" lon="0.59971">
        <ele>157.4</ele>
        <time>2011-07-02T07:12:26Z</time>
      </trkpt>
      <trkpt lat="49.07822" lon="0.59981">
        <ele>157.3</ele>
        <time>2011-07-02T07:12:30Z</time>
      </trkpt>
      <trkpt lat="49.07792" lon="0.59988">
        <ele>159.2</ele>
        <time>2011-07-02T07:12:34Z</time>
      </trkpt>
      <trkpt lat="49.0776" lon="0.59993">
        <ele>160.7</ele>
        <time>2011-07-02T07:12:38Z</time>
      </trkpt>
      <trkpt lat="49.07731" lon="0.59994">
        <ele>160.8</ele>
        <time>2011-07-02T07:12:42Z</time>
      </trkpt>
      <trkpt lat="49.07703" lon="0.59994">
        <ele>160.1</ele>
        <time>2011-07-02T07:12:46Z</time>
      </trkpt>
      <trkpt lat="49.07675" lon="0.59992">
        <ele>163.4</ele>
        <time>2011-07-02T07:12:50Z</time>
      </trkpt>
      <trkpt lat="49.07647" lon="0.59988">
        <ele>160.1</ele>
        <time>2011-07-02T07:12:54Z</time>
      </trkpt>
      <trkpt lat="49.07628" lon="0.59984">
        <ele>158.4</ele>
        <time>2011-07-02T07:12:57Z</time>
      </trkpt>
      <trkpt lat="49.07604" lon="0.59977">
        <ele>156.4</ele>
        <time>2011-07-02T07:13:01Z</time>
      </trkpt>
      <trkpt lat="49.07571" lon="0.59962">
        <ele>156.8</ele>
        <time>2011-07-02T07:13:06Z</time>
      </trkpt>
      <trkpt lat="49.07549" lon="0.59951">
        <ele>157.8</ele>
        <time>2011-07-02T07:13:09Z</time>
      </trkpt>
      <trkpt lat="49.07511" lon="0.59947">
        <ele>157.9</ele>
        <time>2011-07-02T07:13:14Z</time>
      </trkpt>
      <trkpt lat="49.07498" lon="0.59945">
        <ele>158.2</ele>
        <time>2011-07-02T07:13:16Z</time>
      </trkpt>
      <trkpt lat="49.0746" lon="0.59928">
        <ele>157.4</ele>
        <time>2011-07-02T07:13:22Z</time>
      </trkpt>
      <trkpt lat="49.07446" lon="0.59925">
        <ele>157.4</ele>
        <time>2011-07-02T07:13:24Z</time>
      </trkpt>
      <trkpt lat="49.07415" lon="0.59913">
        <ele>156.3</ele>
        <time>2011-07-02T07:13:29Z</time>
      </trkpt>
      <trkpt lat="49.07397" lon="0.59909">
        <ele>156.7</ele>
        <time>2011-07-02T07:13:32Z</time>
      </trkpt>
      <trkpt lat="49.07367" lon="0.59897">
        <ele>155.2</ele>
        <time>2011-07-02T07:13:37Z</time>
      </trkpt>
      <trkpt lat="49.07348" lon="0.59891">
        <ele>154.1</ele>
        <time>2011-07-02T07:13:40Z</time>
      </trkpt>
      <trkpt lat="49.07329" lon="0.59884">
        <ele>153.9</ele>
        <time>2011-07-02T07:13:44Z</time>
      </trkpt>
      <trkpt lat="49.07295" lon="0.59879">
        <ele>159</ele>
        <time>2011-07-02T07:13:50Z</time>
      </trkpt>
      <trkpt lat="49.07274" lon="0.59875">
        <ele>161.4</ele>
        <time>2011-07-02T07:13:54Z</time>
      </trkpt>
      <trkpt lat="49.07243" lon="0.59869">
        <ele>163.6</ele>
        <time>2011-07-02T07:13:58Z</time>
      </trkpt>
      <trkpt lat="49.07226" lon="0.59861">
        <ele>164.4</ele>
        <time>2011-07-02T07:14:01Z</time>
      </trkpt>
      <trkpt lat="49.07202" lon="0.59854">
        <ele>166.9</ele>
        <time>2011-07-02T07:14:05Z</time>
      </trkpt>
      <trkpt lat="49.07183" lon="0.59849">
        <ele>167.5</ele>
        <time>2011-07-02T07:14:09Z</time>
      </trkpt>
      <trkpt lat="49.07163" lon="0.59846">
        <ele>170.6</ele>
        <time>2011-07-02T07:14:14Z</time>
      </trkpt>
      <trkpt lat="49.07125" lon="0.59841">
        <ele>171.1</ele>
        <time>2011-07-02T07:14:18Z</time>
      </trkpt>
      <trkpt lat="49.07088" lon="0.59843">
        <ele>172.2</ele>
        <time>2011-07-02T07:14:22Z</time>
      </trkpt>
      <trkpt lat="49.07057" lon="0.59844">
        <ele>173.1</ele>
        <time>2011-07-02T07:14:26Z</time>
      </trkpt>
      <trkpt lat="49.07026" lon="0.59846">
        <ele>173</ele>
        <time>2011-07-02T07:14:30Z</time>
      </trkpt>
      <trkpt lat="49.06997" lon="0.59844">
        <ele>171.8</ele>
        <time>2011-07-02T07:14:34Z</time>
      </trkpt>
      <trkpt lat="49.06972" lon="0.59847">
        <ele>172.4</ele>
        <time>2011-07-02T07:14:38Z</time>
      </trkpt>
      <trkpt lat="49.06955" lon="0.59847">
        <ele>172.9</ele>
        <time>2011-07-02T07:14:41Z</time>
      </trkpt>
      <trkpt lat="49.06935" lon="0.59848">
        <ele>171.7</ele>
        <time>2011-07-02T07:14:44Z</time>
      </trkpt>
      <trkpt lat="49.06903" lon="0.59847">
        <ele>169.7</ele>
        <time>2011-07-02T07:14:50Z</time>
      </trkpt>
      <trkpt lat="49.06892" lon="0.59848">
        <ele>168.4</ele>
        <time>2011-07-02T07:14:52Z</time>
      </trkpt>
      <trkpt lat="49.0687" lon="0.59849">
        <ele>169.1</ele>
        <time>2011-07-02T07:14:56Z</time>
      </trkpt>
      <trkpt lat="49.0687" lon="0.59849">
        <ele>113.3</ele>
        <time>2011-07-02T07:15:07Z</time>
      </trkpt>
      <trkpt lat="49.0687" lon="0.59849">
        <ele>113.3</ele>
        <time>2011-07-02T07:16:37Z</time>
      </trkpt>
      <trkpt lat="49.06836" lon="0.59843">
        <ele>168.7</ele>
        <time>2011-07-02T07:16:40Z</time>
      </trkpt>
      <trkpt lat="49.06813" lon="0.59834">
        <ele>163.9</ele>
        <time>2011-07-02T07:16:44Z</time>
      </trkpt>
      <trkpt lat="49.06793" lon="0.59827">
        <ele>161.7</ele>
        <time>2011-07-02T07:16:48Z</time>
      </trkpt>
      <trkpt lat="49.06776" lon="0.59822">
        <ele>160.5</ele>
        <time>2011-07-02T07:16:52Z</time>
      </trkpt>
      <trkpt lat="49.06761" lon="0.59819">
        <ele>162</ele>
        <time>2011-07-02T07:16:56Z</time>
      </trkpt>
      <trkpt lat="49.06743" lon="0.59815">
        <ele>159.7</ele>
        <time>2011-07-02T07:17:00Z</time>
      </trkpt>
      <trkpt lat="49.06736" lon="0.59814">
        <ele>160.2</ele>
        <time>2011-07-02T07:17:04Z</time>
      </trkpt>
      <trkpt lat="49.06736" lon="0.59814">
        <ele>112.8</ele>
        <time>2011-07-02T07:17:15Z</time>
      </trkpt>
      <trkpt lat="49.06427" lon="0.59626">
        <ele>162.8</ele>
        <time>2011-07-02T07:18:30Z</time>
      </trkpt>
      <trkpt lat="49.06415" lon="0.59594">
        <ele>159.9</ele>
        <time>2011-07-02T07:18:34Z</time>
      </trkpt>
      <trkpt lat="49.06403" lon="0.59559">
        <ele>158.7</ele>
        <time>2011-07-02T07:18:38Z</time>
      </trkpt>
      <trkpt lat="49.06388" lon="0.59524">
        <ele>156.6</ele>
        <time>2011-07-02T07:18:42Z</time>
      </trkpt>
      <trkpt lat="49.06377" lon="0.59497">
        <ele>155.2</ele>
        <time>2011-07-02T07:18:45Z</time>
      </trkpt>
      <trkpt lat="49.06352" lon="0.59458">
        <ele>153.6</ele>
        <time>2011-07-02T07:18:50Z</time>
      </trkpt>
      <trkpt lat="49.06332" lon="0.59424">
        <ele>152.7</ele>
        <time>2011-07-02T07:18:54Z</time>
      </trkpt>
      <trkpt lat="49.06315" lon="0.59391">
        <ele>152.9</ele>
        <time>2011-07-02T07:18:58Z</time>
      </trkpt>
      <trkpt lat="49.06297" lon="0.59356">
        <ele>152.2</ele>
        <time>2011-07-02T07:19:02Z</time>
      </trkpt>
      <trkpt lat="49.06278" lon="0.5932">
        <ele>152.5</ele>
        <time>2011-07-02T07:19:06Z</time>
      </trkpt>
      <trkpt lat="49.0626" lon="0.59285">
        <ele>153.1</ele>
        <time>2011-07-02T07:19:10Z</time>
      </trkpt>
      <trkpt lat="49.06233" lon="0.59254">
        <ele>153.8</ele>
        <time>2011-07-02T07:19:14Z</time>
      </trkpt>
      <trkpt lat="49.06217" lon="0.59218">
        <ele>152.3</ele>
        <time>2011-07-02T07:19:18Z</time>
      </trkpt>
      <trkpt lat="49.06202" lon="0.59182">
        <ele>151.8</ele>
        <time>2011-07-02T07:19:22Z</time>
      </trkpt>
      <trkpt lat="49.06184" lon="0.59152">
        <ele>152.4</ele>
        <time>2011-07-02T07:19:26Z</time>
      </trkpt>
      <trkpt lat="49.06164" lon="0.59127">
        <ele>151.7</ele>
        <time>2011-07-02T07:19:30Z</time>
      </trkpt>
      <trkpt lat="49.06145" lon="0.59102">
        <ele>151</ele>
        <time>2011-07-02T07:19:34Z</time>
      </trkpt>
      <trkpt lat="49.06134" lon="0.5909">
        <ele>151</ele>
        <time>2011-07-02T07:19:36Z</time>
      </trkpt>
      <trkpt lat="49.06102" lon="0.59056">
        <ele>151.8</ele>
        <time>2011-07-02T07:19:42Z</time>
      </trkpt>
      <trkpt lat="49.06084" lon="0.5903">
        <ele>151.5</ele>
        <time>2011-07-02T07:19:46Z</time>
      </trkpt>
      <trkpt lat="49.0606" lon="0.59013">
        <ele>152.3</ele>
        <time>2011-07-02T07:19:50Z</time>
      </trkpt>
      <trkpt lat="49.06036" lon="0.58996">
        <ele>153.3</ele>
        <time>2011-07-02T07:19:54Z</time>
      </trkpt>
      <trkpt lat="49.06026" lon="0.58986">
        <ele>153.5</ele>
        <time>2011-07-02T07:19:56Z</time>
      </trkpt>
      <trkpt lat="49.05997" lon="0.5896">
        <ele>155.3</ele>
        <time>2011-07-02T07:20:02Z</time>
      </trkpt>
      <trkpt lat="49.0598" lon="0.58932">
        <ele>155.2</ele>
        <time>2011-07-02T07:20:06Z</time>
      </trkpt>
      <trkpt lat="49.05965" lon="0.58918">
        <ele>155.5</ele>
        <time>2011-07-02T07:20:09Z</time>
      </trkpt>
      <trkpt lat="49.0594" lon="0.58892">
        <ele>156.3</ele>
        <time>2011-07-02T07:20:14Z</time>
      </trkpt>
      <trkpt lat="49.05923" lon="0.58881">
        <ele>157</ele>
        <time>2011-07-02T07:20:17Z</time>
      </trkpt>
      <trkpt lat="49.05896" lon="0.58857">
        <ele>156.5</ele>
        <time>2011-07-02T07:20:22Z</time>
      </trkpt>
      <trkpt lat="49.05874" lon="0.5884">
        <ele>157</ele>
        <time>2011-07-02T07:20:26Z</time>
      </trkpt>
      <trkpt lat="49.05855" lon="0.58826">
        <ele>157.5</ele>
        <time>2011-07-02T07:20:29Z</time>
      </trkpt>
      <trkpt lat="49.0582" lon="0.58805">
        <ele>156.4</ele>
        <time>2011-07-02T07:20:34Z</time>
      </trkpt>
      <trkpt lat="49.05798" lon="0.58783">
        <ele>155.9</ele>
        <time>2011-07-02T07:20:38Z</time>
      </trkpt>
      <trkpt lat="49.05787" lon="0.58772">
        <ele>155.5</ele>
        <time>2011-07-02T07:20:40Z</time>
      </trkpt>
      <trkpt lat="49.05754" lon="0.58735">
        <ele>156.8</ele>
        <time>2011-07-02T07:20:46Z</time>
      </trkpt>
      <trkpt lat="49.05737" lon="0.58707">
        <ele>157.3</ele>
        <time>2011-07-02T07:20:50Z</time>
      </trkpt>
      <trkpt lat="49.05708" lon="0.58688">
        <ele>157.2</ele>
        <time>2011-07-02T07:20:54Z</time>
      </trkpt>
      <trkpt lat="49.05686" lon="0.5866">
        <ele>156.6</ele>
        <time>2011-07-02T07:20:58Z</time>
      </trkpt>
      <trkpt lat="49.0567" lon="0.58628">
        <ele>156.3</ele>
        <time>2011-07-02T07:21:02Z</time>
      </trkpt>
      <trkpt lat="49.05654" lon="0.58598">
        <ele>156.5</ele>
        <time>2011-07-02T07:21:06Z</time>
      </trkpt>
      <trkpt lat="49.05639" lon="0.58562">
        <ele>157.1</ele>
        <time>2011-07-02T07:21:10Z</time>
      </trkpt>
      <trkpt lat="49.05631" lon="0.58544">
        <ele>157.8</ele>
        <time>2011-07-02T07:21:12Z</time>
      </trkpt>
      <trkpt lat="49.05609" lon="0.58492">
        <ele>159.3</ele>
        <time>2011-07-02T07:21:18Z</time>
      </trkpt>
      <trkpt lat="49.05592" lon="0.58459">
        <ele>158.7</ele>
        <time>2011-07-02T07:21:22Z</time>
      </trkpt>
      <trkpt lat="49.05575" lon="0.5842">
        <ele>158.9</ele>
        <time>2011-07-02T07:21:26Z</time>
      </trkpt>
      <trkpt lat="49.05558" lon="0.58388">
        <ele>158.2</ele>
        <time>2011-07-02T07:21:30Z</time>
      </trkpt>
      <trkpt lat="49.05548" lon="0.58365">
        <ele>158.4</ele>
        <time>2011-07-02T07:21:33Z</time>
      </trkpt>
      <trkpt lat="49.0553" lon="0.58321">
        <ele>160.2</ele>
        <time>2011-07-02T07:21:38Z</time>
      </trkpt>
      <trkpt lat="49.05517" lon="0.58283">
        <ele>159.3</ele>
        <time>2011-07-02T07:21:42Z</time>
      </trkpt>
      <trkpt lat="49.05505" lon="0.58256">
        <ele>159</ele>
        <time>2011-07-02T07:21:45Z</time>
      </trkpt>
      <trkpt lat="49.05487" lon="0.58214">
        <ele>157.6</ele>
        <time>2011-07-02T07:21:50Z</time>
      </trkpt>
      <trkpt lat="49.05471" lon="0.58179">
        <ele>157.8</ele>
        <time>2011-07-02T07:21:54Z</time>
      </trkpt>
      <trkpt lat="49.05461" lon="0.58157">
        <ele>157.4</ele>
        <time>2011-07-02T07:21:57Z</time>
      </trkpt>
      <trkpt lat="49.05439" lon="0.58125">
        <ele>156.3</ele>
        <time>2011-07-02T07:22:02Z</time>
      </trkpt>
      <trkpt lat="49.05418" lon="0.58096">
        <ele>157.4</ele>
        <time>2011-07-02T07:22:06Z</time>
      </trkpt>
      <trkpt lat="49.054" lon="0.58063">
        <ele>158.1</ele>
        <time>2011-07-02T07:22:10Z</time>
      </trkpt>
      <trkpt lat="49.05382" lon="0.58031">
        <ele>158.8</ele>
        <time>2011-07-02T07:22:14Z</time>
      </trkpt>
      <trkpt lat="49.05361" lon="0.58003">
        <ele>159.4</ele>
        <time>2011-07-02T07:22:18Z</time>
      </trkpt>
      <trkpt lat="49.0534" lon="0.57971">
        <ele>158.6</ele>
        <time>2011-07-02T07:22:22Z</time>
      </trkpt>
      <trkpt lat="49.05317" lon="0.57949">
        <ele>159.4</ele>
        <time>2011-07-02T07:22:26Z</time>
      </trkpt>
      <trkpt lat="49.05299" lon="0.57919">
        <ele>159.2</ele>
        <time>2011-07-02T07:22:30Z</time>
      </trkpt>
      <trkpt lat="49.05273" lon="0.57896">
        <ele>159.8</ele>
        <time>2011-07-02T07:22:34Z</time>
      </trkpt>
      <trkpt lat="49.05251" lon="0.57868">
        <ele>158.6</ele>
        <time>2011-07-02T07:22:38Z</time>
      </trkpt>
      <trkpt lat="49.05228" lon="0.57843">
        <ele>157.8</ele>
        <time>2011-07-02T07:22:42Z</time>
      </trkpt>
      <trkpt lat="49.05205" lon="0.57818">
        <ele>157.3</ele>
        <time>2011-07-02T07:22:46Z</time>
      </trkpt>
      <trkpt lat="49.0518" lon="0.578">
        <ele>158.2</ele>
        <time>2011-07-02T07:22:50Z</time>
      </trkpt>
      <trkpt lat="49.05161" lon="0.57789">
        <ele>158.4</ele>
        <time>2011-07-02T07:22:53Z</time>
      </trkpt>
      <trkpt lat="49.05135" lon="0.57781">
        <ele>158.7</ele>
        <time>2011-07-02T07:22:57Z</time>
      </trkpt>
      <trkpt lat="49.05103" lon="0.57781">
        <ele>160</ele>
        <time>2011-07-02T07:23:02Z</time>
      </trkpt>
      <trkpt lat="49.05076" lon="0.5779">
        <ele>159.8</ele>
        <time>2011-07-02T07:23:06Z</time>
      </trkpt>
      <trkpt lat="49.05049" lon="0.57805">
        <ele>159.1</ele>
        <time>2011-07-02T07:23:10Z</time>
      </trkpt>
      <trkpt lat="49.0503" lon="0.57818">
        <ele>159.2</ele>
        <time>2011-07-02T07:23:13Z</time>
      </trkpt>
      <trkpt lat="49.05009" lon="0.57839">
        <ele>159.2</ele>
        <time>2011-07-02T07:23:17Z</time>
      </trkpt>
      <trkpt lat="49.04984" lon="0.57866">
        <ele>160.2</ele>
        <time>2011-07-02T07:23:22Z</time>
      </trkpt>
      <trkpt lat="49.04959" lon="0.57887">
        <ele>160.1</ele>
        <time>2011-07-02T07:23:26Z</time>
      </trkpt>
      <trkpt lat="49.04944" lon="0.57902">
        <ele>161.9</ele>
        <time>2011-07-02T07:23:29Z</time>
      </trkpt>
      <trkpt lat="49.04917" lon="0.57928">
        <ele>160.5</ele>
        <time>2011-07-02T07:23:34Z</time>
      </trkpt>
      <trkpt lat="49.04894" lon="0.5795">
        <ele>161.1</ele>
        <time>2011-07-02T07:23:38Z</time>
      </trkpt>
      <trkpt lat="49.04869" lon="0.57974">
        <ele>159.8</ele>
        <time>2011-07-02T07:23:42Z</time>
      </trkpt>
      <trkpt lat="49.04859" lon="0.57983">
        <ele>159.9</ele>
        <time>2011-07-02T07:23:44Z</time>
      </trkpt>
      <trkpt lat="49.04827" lon="0.58009">
        <ele>160.5</ele>
        <time>2011-07-02T07:23:50Z</time>
      </trkpt>
      <trkpt lat="49.04807" lon="0.58014">
        <ele>161.1</ele>
        <time>2011-07-02T07:23:53Z</time>
      </trkpt>
      <trkpt lat="49.04757" lon="0.58025">
        <ele>161.8</ele>
        <time>2011-07-02T07:24:02Z</time>
      </trkpt>
      <trkpt lat="49.04736" lon="0.58029">
        <ele>161.9</ele>
        <time>2011-07-02T07:24:06Z</time>
      </trkpt>
      <trkpt lat="49.04701" lon="0.58024">
        <ele>160.6</ele>
        <time>2011-07-02T07:24:10Z</time>
      </trkpt>
      <trkpt lat="49.04671" lon="0.58016">
        <ele>159.5</ele>
        <time>2011-07-02T07:24:14Z</time>
      </trkpt>
      <trkpt lat="49.04643" lon="0.58008">
        <ele>159.4</ele>
        <time>2011-07-02T07:24:18Z</time>
      </trkpt>
      <trkpt lat="49.04616" lon="0.57999">
        <ele>158.8</ele>
        <time>2011-07-02T07:24:22Z</time>
      </trkpt>
      <trkpt lat="49.04589" lon="0.57994">
        <ele>158.5</ele>
        <time>2011-07-02T07:24:26Z</time>
      </trkpt>
      <trkpt lat="49.04566" lon="0.57991">
        <ele>158.2</ele>
        <time>2011-07-02T07:24:30Z</time>
      </trkpt>
      <trkpt lat="49.04544" lon="0.57982">
        <ele>159.3</ele>
        <time>2011-07-02T07:24:34Z</time>
      </trkpt>
      <trkpt lat="49.04516" lon="0.57973">
        <ele>159.8</ele>
        <time>2011-07-02T07:24:38Z</time>
      </trkpt>
      <trkpt lat="49.04492" lon="0.57968">
        <ele>159.5</ele>
        <time>2011-07-02T07:24:42Z</time>
      </trkpt>
      <trkpt lat="49.04466" lon="0.57966">
        <ele>159.1</ele>
        <time>2011-07-02T07:24:46Z</time>
      </trkpt>
      <trkpt lat="49.04441" lon="0.57959">
        <ele>158.7</ele>
        <time>2011-07-02T07:24:50Z</time>
      </trkpt>
      <trkpt lat="49.04423" lon="0.57958">
        <ele>159.4</ele>
        <time>2011-07-02T07:24:53Z</time>
      </trkpt>
      <trkpt lat="49.04413" lon="0.57955">
        <ele>160.2</ele>
        <time>2011-07-02T07:24:55Z</time>
      </trkpt>
      <trkpt lat="49.04381" lon="0.57948">
        <ele>162.1</ele>
        <time>2011-07-02T07:25:00Z</time>
      </trkpt>
      <trkpt lat="49.04341" lon="0.57933">
        <ele>164</ele>
        <time>2011-07-02T07:25:06Z</time>
      </trkpt>
      <trkpt lat="49.04316" lon="0.57918">
        <ele>164.2</ele>
        <time>2011-07-02T07:25:10Z</time>
      </trkpt>
      <trkpt lat="49.04297" lon="0.57904">
        <ele>164.4</ele>
        <time>2011-07-02T07:25:13Z</time>
      </trkpt>
      <trkpt lat="49.04264" lon="0.57885">
        <ele>164.9</ele>
        <time>2011-07-02T07:25:18Z</time>
      </trkpt>
      <trkpt lat="49.04238" lon="0.57868">
        <ele>164.8</ele>
        <time>2011-07-02T07:25:22Z</time>
      </trkpt>
      <trkpt lat="49.04213" lon="0.57856">
        <ele>165.2</ele>
        <time>2011-07-02T07:25:26Z</time>
      </trkpt>
      <trkpt lat="49.02688" lon="0.57163">
        <ele>173.5</ele>
        <time>2011-07-02T07:29:28Z</time>
      </trkpt>
      <trkpt lat="49.02651" lon="0.57141">
        <ele>174.6</ele>
        <time>2011-07-02T07:29:34Z</time>
      </trkpt>
      <trkpt lat="49.02622" lon="0.57121">
        <ele>174</ele>
        <time>2011-07-02T07:29:38Z</time>
      </trkpt>
      <trkpt lat="49.02602" lon="0.57108">
        <ele>173.5</ele>
        <time>2011-07-02T07:29:41Z</time>
      </trkpt>
      <trkpt lat="49.02571" lon="0.57084">
        <ele>173</ele>
        <time>2011-07-02T07:29:46Z</time>
      </trkpt>
      <trkpt lat="49.02546" lon="0.57069">
        <ele>172.6</ele>
        <time>2011-07-02T07:29:50Z</time>
      </trkpt>
      <trkpt lat="49.02522" lon="0.57046">
        <ele>172.4</ele>
        <time>2011-07-02T07:29:54Z</time>
      </trkpt>
      <trkpt lat="49.02498" lon="0.57025">
        <ele>172.7</ele>
        <time>2011-07-02T07:29:58Z</time>
      </trkpt>
      <trkpt lat="49.02486" lon="0.57006">
        <ele>172.5</ele>
        <time>2011-07-02T07:30:01Z</time>
      </trkpt>
      <trkpt lat="49.02461" lon="0.56977">
        <ele>171.9</ele>
        <time>2011-07-02T07:30:06Z</time>
      </trkpt>
      <trkpt lat="49.02444" lon="0.56964">
        <ele>172.1</ele>
        <time>2011-07-02T07:30:09Z</time>
      </trkpt>
      <trkpt lat="49.02412" lon="0.56933">
        <ele>172.2</ele>
        <time>2011-07-02T07:30:14Z</time>
      </trkpt>
      <trkpt lat="49.02393" lon="0.56915">
        <ele>172.1</ele>
        <time>2011-07-02T07:30:17Z</time>
      </trkpt>
      <trkpt lat="49.02365" lon="0.56887">
        <ele>171.8</ele>
        <time>2011-07-02T07:30:22Z</time>
      </trkpt>
      <trkpt lat="49.02339" lon="0.56872">
        <ele>172.7</ele>
        <time>2011-07-02T07:30:26Z</time>
      </trkpt>
      <trkpt lat="49.02324" lon="0.5687">
        <ele>173</ele>
        <time>2011-07-02T07:30:28Z</time>
      </trkpt>
      <trkpt lat="49.02293" lon="0.56857">
        <ele>173.3</ele>
        <time>2011-07-02T07:30:35Z</time>
      </trkpt>
      <trkpt lat="49.02279" lon="0.56846">
        <ele>173.5</ele>
        <time>2011-07-02T07:30:38Z</time>
      </trkpt>
      <trkpt lat="49.0227" lon="0.56838">
        <ele>173</ele>
        <time>2011-07-02T07:30:40Z</time>
      </trkpt>
      <trkpt lat="49.02233" lon="0.56811">
        <ele>172.4</ele>
        <time>2011-07-02T07:30:46Z</time>
      </trkpt>
      <trkpt lat="49.0221" lon="0.56799">
        <ele>171.6</ele>
        <time>2011-07-02T07:30:49Z</time>
      </trkpt>
      <trkpt lat="49.02195" lon="0.5679">
        <ele>173.1</ele>
        <time>2011-07-02T07:30:52Z</time>
      </trkpt>
      <trkpt lat="49.02167" lon="0.56769">
        <ele>173.7</ele>
        <time>2011-07-02T07:30:58Z</time>
      </trkpt>
      <trkpt lat="49.02151" lon="0.56752">
        <ele>174.9</ele>
        <time>2011-07-02T07:31:02Z</time>
      </trkpt>
      <trkpt lat="49.02144" lon="0.56742">
        <ele>175.5</ele>
        <time>2011-07-02T07:31:05Z</time>
      </trkpt>
      <trkpt lat="49.02131" lon="0.56725">
        <ele>175.4</ele>
        <time>2011-07-02T07:31:09Z</time>
      </trkpt>
      <trkpt lat="49.0209" lon="0.56684">
        <ele>173.9</ele>
        <time>2011-07-02T07:31:14Z</time>
      </trkpt>
      <trkpt lat="49.02065" lon="0.56635">
        <ele>172.8</ele>
        <time>2011-07-02T07:31:18Z</time>
      </trkpt>
      <trkpt lat="49.02043" lon="0.56599">
        <ele>173.7</ele>
        <time>2011-07-02T07:31:22Z</time>
      </trkpt>
      <trkpt lat="49.02033" lon="0.56557">
        <ele>175.2</ele>
        <time>2011-07-02T07:31:26Z</time>
      </trkpt>
      <trkpt lat="49.02018" lon="0.56514">
        <ele>175.6</ele>
        <time>2011-07-02T07:31:30Z</time>
      </trkpt>
      <trkpt lat="49.01999" lon="0.56474">
        <ele>176.8</ele>
        <time>2011-07-02T07:31:34Z</time>
      </trkpt>
      <trkpt lat="49.01984" lon="0.56444">
        <ele>180.5</ele>
        <time>2011-07-02T07:31:38Z</time>
      </trkpt>
      <trkpt lat="49.01965" lon="0.56425">
        <ele>180.5</ele>
        <time>2011-07-02T07:31:42Z</time>
      </trkpt>
      <trkpt lat="49.01948" lon="0.56399">
        <ele>179.3</ele>
        <time>2011-07-02T07:31:46Z</time>
      </trkpt>
      <trkpt lat="49.01934" lon="0.56367">
        <ele>179.9</ele>
        <time>2011-07-02T07:31:50Z</time>
      </trkpt>
      <trkpt lat="49.01913" lon="0.56341">
        <ele>178.7</ele>
        <time>2011-07-02T07:31:54Z</time>
      </trkpt>
      <trkpt lat="49.01898" lon="0.56328">
        <ele>179.7</ele>
        <time>2011-07-02T07:31:57Z</time>
      </trkpt>
      <trkpt lat="49.01896" lon="0.56266">
        <ele>179.4</ele>
        <time>2011-07-02T07:32:02Z</time>
      </trkpt>
      <trkpt lat="49.01888" lon="0.56225">
        <ele>178.2</ele>
        <time>2011-07-02T07:32:06Z</time>
      </trkpt>
      <trkpt lat="49.01874" lon="0.56185">
        <ele>176.9</ele>
        <time>2011-07-02T07:32:10Z</time>
      </trkpt>
      <trkpt lat="49.01857" lon="0.56146">
        <ele>177.6</ele>
        <time>2011-07-02T07:32:14Z</time>
      </trkpt>
      <trkpt lat="49.01838" lon="0.56108">
        <ele>179</ele>
        <time>2011-07-02T07:32:18Z</time>
      </trkpt>
      <trkpt lat="49.01816" lon="0.56077">
        <ele>179.5</ele>
        <time>2011-07-02T07:32:22Z</time>
      </trkpt>
      <trkpt lat="49.018" lon="0.56039">
        <ele>179.4</ele>
        <time>2011-07-02T07:32:26Z</time>
      </trkpt>
      <trkpt lat="49.01779" lon="0.56008">
        <ele>179.5</ele>
        <time>2011-07-02T07:32:30Z</time>
      </trkpt>
      <trkpt lat="49.0176" lon="0.55978">
        <ele>179.4</ele>
        <time>2011-07-02T07:32:34Z</time>
      </trkpt>
      <trkpt lat="49.01745" lon="0.55951">
        <ele>181.3</ele>
        <time>2011-07-02T07:32:38Z</time>
      </trkpt>
      <trkpt lat="49.01733" lon="0.55912">
        <ele>180.2</ele>
        <time>2011-07-02T07:32:42Z</time>
      </trkpt>
      <trkpt lat="49.01723" lon="0.55872">
        <ele>180.1</ele>
        <time>2011-07-02T07:32:46Z</time>
      </trkpt>
      <trkpt lat="49.01713" lon="0.55834">
        <ele>181.1</ele>
        <time>2011-07-02T07:32:50Z</time>
      </trkpt>
      <trkpt lat="49.01703" lon="0.55808">
        <ele>182</ele>
        <time>2011-07-02T07:32:53Z</time>
      </trkpt>
      <trkpt lat="49.01694" lon="0.55762">
        <ele>182.8</ele>
        <time>2011-07-02T07:32:58Z</time>
      </trkpt>
      <trkpt lat="49.01682" lon="0.55726">
        <ele>182.7</ele>
        <time>2011-07-02T07:33:02Z</time>
      </trkpt>
      <trkpt lat="49.01665" lon="0.55649">
        <ele>184.1</ele>
        <time>2011-07-02T07:33:10Z</time>
      </trkpt>
      <trkpt lat="49.01663" lon="0.55637">
        <ele>183.7</ele>
        <time>2011-07-02T07:33:11Z</time>
      </trkpt>
      <trkpt lat="49.01646" lon="0.55562">
        <ele>182.6</ele>
        <time>2011-07-02T07:33:18Z</time>
      </trkpt>
      <trkpt lat="49.01633" lon="0.5552">
        <ele>181.9</ele>
        <time>2011-07-02T07:33:22Z</time>
      </trkpt>
      <trkpt lat="49.01621" lon="0.55483">
        <ele>181.4</ele>
        <time>2011-07-02T07:33:26Z</time>
      </trkpt>
      <trkpt lat="49.01609" lon="0.55457">
        <ele>181.5</ele>
        <time>2011-07-02T07:33:29Z</time>
      </trkpt>
      <trkpt lat="49.0159" lon="0.55427">
        <ele>181.1</ele>
        <time>2011-07-02T07:33:33Z</time>
      </trkpt>
      <trkpt lat="49.01569" lon="0.55387">
        <ele>181.7</ele>
        <time>2011-07-02T07:33:38Z</time>
      </trkpt>
      <trkpt lat="49.01556" lon="0.55363">
        <ele>181.6</ele>
        <time>2011-07-02T07:33:41Z</time>
      </trkpt>
      <trkpt lat="49.0154" lon="0.55333">
        <ele>181.8</ele>
        <time>2011-07-02T07:33:45Z</time>
      </trkpt>
      <trkpt lat="49.01514" lon="0.55299">
        <ele>180.5</ele>
        <time>2011-07-02T07:33:50Z</time>
      </trkpt>
      <trkpt lat="49.01501" lon="0.55277">
        <ele>180.5</ele>
        <time>2011-07-02T07:33:53Z</time>
      </trkpt>
      <trkpt lat="49.01469" lon="0.55246">
        <ele>179.7</ele>
        <time>2011-07-02T07:33:58Z</time>
      </trkpt>
      <trkpt lat="49.01442" lon="0.55232">
        <ele>179.3</ele>
        <time>2011-07-02T07:34:02Z</time>
      </trkpt>
      <trkpt lat="49.01421" lon="0.55224">
        <ele>179.4</ele>
        <time>2011-07-02T07:34:06Z</time>
      </trkpt>
      <trkpt lat="49.01397" lon="0.55204">
        <ele>179.5</ele>
        <time>2011-07-02T07:34:10Z</time>
      </trkpt>
      <trkpt lat="49.01376" lon="0.55182">
        <ele>179.1</ele>
        <time>2011-07-02T07:34:14Z</time>
      </trkpt>
      <trkpt lat="49.01352" lon="0.55146">
        <ele>177.9</ele>
        <time>2011-07-02T07:34:18Z</time>
      </trkpt>
      <trkpt lat="49.01342" lon="0.55104">
        <ele>177.4</ele>
        <time>2011-07-02T07:34:22Z</time>
      </trkpt>
      <trkpt lat="49.01325" lon="0.55067">
        <ele>177.1</ele>
        <time>2011-07-02T07:34:26Z</time>
      </trkpt>
      <trkpt lat="49.01316" lon="0.55045">
        <ele>177.5</ele>
        <time>2011-07-02T07:34:29Z</time>
      </trkpt>
      <trkpt lat="49.013" lon="0.55006">
        <ele>179.1</ele>
        <time>2011-07-02T07:34:34Z</time>
      </trkpt>
      <trkpt lat="49.01286" lon="0.54968">
        <ele>180.2</ele>
        <time>2011-07-02T07:34:38Z</time>
      </trkpt>
      <trkpt lat="49.01274" lon="0.54929">
        <ele>180.1</ele>
        <time>2011-07-02T07:34:42Z</time>
      </trkpt>
      <trkpt lat="49.01266" lon="0.54885">
        <ele>180.3</ele>
        <time>2011-07-02T07:34:46Z</time>
      </trkpt>
      <trkpt lat="49.01262" lon="0.54837">
        <ele>182.7</ele>
        <time>2011-07-02T07:34:50Z</time>
      </trkpt>
      <trkpt lat="49.01263" lon="0.54788">
        <ele>185.1</ele>
        <time>2011-07-02T07:34:54Z</time>
      </trkpt>
      <trkpt lat="49.01262" lon="0.54742">
        <ele>188.4</ele>
        <time>2011-07-02T07:34:58Z</time>
      </trkpt>
      <trkpt lat="49.01258" lon="0.54703">
        <ele>189.5</ele>
        <time>2011-07-02T07:35:02Z</time>
      </trkpt>
      <trkpt lat="49.01245" lon="0.54667">
        <ele>190.5</ele>
        <time>2011-07-02T07:35:06Z</time>
      </trkpt>
      <trkpt lat="49.01222" lon="0.54638">
        <ele>189.9</ele>
        <time>2011-07-02T07:35:10Z</time>
      </trkpt>
      <trkpt lat="49.01208" lon="0.54607">
        <ele>189.1</ele>
        <time>2011-07-02T07:35:13Z</time>
      </trkpt>
      <trkpt lat="49.01202" lon="0.54598">
        <ele>189.5</ele>
        <time>2011-07-02T07:35:15Z</time>
      </trkpt>
      <trkpt lat="49.01189" lon="0.54544">
        <ele>192</ele>
        <time>2011-07-02T07:35:22Z</time>
      </trkpt>
      <trkpt lat="49.01175" lon="0.54505">
        <ele>192.3</ele>
        <time>2011-07-02T07:35:26Z</time>
      </trkpt>
      <trkpt lat="49.01169" lon="0.54462">
        <ele>192.3</ele>
        <time>2011-07-02T07:35:30Z</time>
      </trkpt>
      <trkpt lat="49.01159" lon="0.54416">
        <ele>195.1</ele>
        <time>2011-07-02T07:35:34Z</time>
      </trkpt>
      <trkpt lat="49.01154" lon="0.54371">
        <ele>199.2</ele>
        <time>2011-07-02T07:35:38Z</time>
      </trkpt>
      <trkpt lat="49.01146" lon="0.54332">
        <ele>199.6</ele>
        <time>2011-07-02T07:35:42Z</time>
      </trkpt>
      <trkpt lat="49.01134" lon="0.5429">
        <ele>200.2</ele>
        <time>2011-07-02T07:35:46Z</time>
      </trkpt>
      <trkpt lat="49.01124" lon="0.54252">
        <ele>202</ele>
        <time>2011-07-02T07:35:50Z</time>
      </trkpt>
      <trkpt lat="49.01113" lon="0.54208">
        <ele>201.6</ele>
        <time>2011-07-02T07:35:54Z</time>
      </trkpt>
      <trkpt lat="49.01102" lon="0.54168">
        <ele>201</ele>
        <time>2011-07-02T07:35:58Z</time>
      </trkpt>
      <trkpt lat="49.01101" lon="0.54116">
        <ele>199.5</ele>
        <time>2011-07-02T07:36:02Z</time>
      </trkpt>
      <trkpt lat="49.01093" lon="0.54066">
        <ele>197.7</ele>
        <time>2011-07-02T07:36:06Z</time>
      </trkpt>
      <trkpt lat="49.01086" lon="0.54024">
        <ele>198.2</ele>
        <time>2011-07-02T07:36:10Z</time>
      </trkpt>
      <trkpt lat="49.01077" lon="0.53981">
        <ele>198</ele>
        <time>2011-07-02T07:36:14Z</time>
      </trkpt>
      <trkpt lat="49.01064" lon="0.53944">
        <ele>197</ele>
        <time>2011-07-02T07:36:18Z</time>
      </trkpt>
      <trkpt lat="49.01054" lon="0.53908">
        <ele>198.1</ele>
        <time>2011-07-02T07:36:22Z</time>
      </trkpt>
      <trkpt lat="49.01042" lon="0.53862">
        <ele>197.4</ele>
        <time>2011-07-02T07:36:26Z</time>
      </trkpt>
      <trkpt lat="49.01032" lon="0.5382">
        <ele>196.5</ele>
        <time>2011-07-02T07:36:30Z</time>
      </trkpt>
      <trkpt lat="49.01022" lon="0.53781">
        <ele>195.2</ele>
        <time>2011-07-02T07:36:34Z</time>
      </trkpt>
      <trkpt lat="49.01009" lon="0.5374">
        <ele>193.6</ele>
        <time>2011-07-02T07:36:38Z</time>
      </trkpt>
      <trkpt lat="49.0099" lon="0.53707">
        <ele>191.9</ele>
        <time>2011-07-02T07:36:42Z</time>
      </trkpt>
      <trkpt lat="49.00973" lon="0.53678">
        <ele>191.3</ele>
        <time>2011-07-02T07:36:46Z</time>
      </trkpt>
      <trkpt lat="49.00959" lon="0.53661">
        <ele>190.8</ele>
        <time>2011-07-02T07:36:49Z</time>
      </trkpt>
      <trkpt lat="49.00939" lon="0.53645">
        <ele>190.1</ele>
        <time>2011-07-02T07:36:53Z</time>
      </trkpt>
      <trkpt lat="49.00923" lon="0.53632">
        <ele>189.4</ele>
        <time>2011-07-02T07:36:56Z</time>
      </trkpt>
      <trkpt lat="49.00923" lon="0.53632">
        <ele>157.7</ele>
        <time>2011-07-02T07:37:07Z</time>
      </trkpt>
      <trkpt lat="49.00923" lon="0.53632">
        <ele>157.7</ele>
        <time>2011-07-02T07:37:12Z</time>
      </trkpt>
      <trkpt lat="49.00851" lon="0.535">
        <ele>191.7</ele>
        <time>2011-07-02T07:37:15Z</time>
      </trkpt>
      <trkpt lat="49.00841" lon="0.53444">
        <ele>186.2</ele>
        <time>2011-07-02T07:37:19Z</time>
      </trkpt>
      <trkpt lat="49.00835" lon="0.53394">
        <ele>184.5</ele>
        <time>2011-07-02T07:37:23Z</time>
      </trkpt>
      <trkpt lat="49.00823" lon="0.53351">
        <ele>187.3</ele>
        <time>2011-07-02T07:37:27Z</time>
      </trkpt>
      <trkpt lat="49.00809" lon="0.53308">
        <ele>188.9</ele>
        <time>2011-07-02T07:37:31Z</time>
      </trkpt>
      <trkpt lat="49.00801" lon="0.53281">
        <ele>188.4</ele>
        <time>2011-07-02T07:37:34Z</time>
      </trkpt>
      <trkpt lat="49.00785" lon="0.53251">
        <ele>188.3</ele>
        <time>2011-07-02T07:37:38Z</time>
      </trkpt>
      <trkpt lat="49.00769" lon="0.53211">
        <ele>185</ele>
        <time>2011-07-02T07:37:43Z</time>
      </trkpt>
      <trkpt lat="49.00761" lon="0.53188">
        <ele>183.8</ele>
        <time>2011-07-02T07:37:46Z</time>
      </trkpt>
      <trkpt lat="49.00756" lon="0.53158">
        <ele>183.4</ele>
        <time>2011-07-02T07:37:50Z</time>
      </trkpt>
      <trkpt lat="49.00753" lon="0.53145">
        <ele>184.2</ele>
        <time>2011-07-02T07:37:52Z</time>
      </trkpt>
      <trkpt lat="49.00751" lon="0.53122">
        <ele>184.3</ele>
        <time>2011-07-02T07:37:57Z</time>
      </trkpt>
      <trkpt lat="49.0075" lon="0.53112">
        <ele>183.2</ele>
        <time>2011-07-02T07:38:01Z</time>
      </trkpt>
      <trkpt lat="49.00752" lon="0.531">
        <ele>180.9</ele>
        <time>2011-07-02T07:38:06Z</time>
      </trkpt>
      <trkpt lat="49.00755" lon="0.53089">
        <ele>180.3</ele>
        <time>2011-07-02T07:38:09Z</time>
      </trkpt>
      <trkpt lat="49.00764" lon="0.53051">
        <ele>181.5</ele>
        <time>2011-07-02T07:38:15Z</time>
      </trkpt>
      <trkpt lat="49.0077" lon="0.53019">
        <ele>181.5</ele>
        <time>2011-07-02T07:38:19Z</time>
      </trkpt>
      <trkpt lat="49.0078" lon="0.52991">
        <ele>182.3</ele>
        <time>2011-07-02T07:38:23Z</time>
      </trkpt>
      <trkpt lat="49.00786" lon="0.52979">
        <ele>182.8</ele>
        <time>2011-07-02T07:38:25Z</time>
      </trkpt>
      <trkpt lat="49.008" lon="0.52937">
        <ele>184.8</ele>
        <time>2011-07-02T07:38:30Z</time>
      </trkpt>
      <trkpt lat="49.00818" lon="0.52904">
        <ele>187.8</ele>
        <time>2011-07-02T07:38:38Z</time>
      </trkpt>
      <trkpt lat="49.00815" lon="0.52893">
        <ele>187.4</ele>
        <time>2011-07-02T07:38:40Z</time>
      </trkpt>
      <trkpt lat="49.00822" lon="0.5287">
        <ele>188.6</ele>
        <time>2011-07-02T07:38:47Z</time>
      </trkpt>
      <trkpt lat="49.00842" lon="0.5288">
        <ele>189.3</ele>
        <time>2011-07-02T07:38:55Z</time>
      </trkpt>
      <trkpt lat="49.00857" lon="0.52892">
        <ele>189.5</ele>
        <time>2011-07-02T07:38:59Z</time>
      </trkpt>
      <trkpt lat="49.00863" lon="0.529">
        <ele>189.2</ele>
        <time>2011-07-02T07:39:01Z</time>
      </trkpt>
      <trkpt lat="49.00877" lon="0.52917">
        <ele>186.4</ele>
        <time>2011-07-02T07:39:07Z</time>
      </trkpt>
      <trkpt lat="49.00893" lon="0.52911">
        <ele>184.6</ele>
        <time>2011-07-02T07:39:11Z</time>
      </trkpt>
      <trkpt lat="49.00898" lon="0.52903">
        <ele>185</ele>
        <time>2011-07-02T07:39:13Z</time>
      </trkpt>
      <trkpt lat="49.00903" lon="0.52895">
        <ele>185.5</ele>
        <time>2011-07-02T07:39:16Z</time>
      </trkpt>
      <trkpt lat="49.00918" lon="0.52862">
        <ele>185.4</ele>
        <time>2011-07-02T07:39:23Z</time>
      </trkpt>
      <trkpt lat="49.00924" lon="0.52838">
        <ele>185.6</ele>
        <time>2011-07-02T07:39:27Z</time>
      </trkpt>
      <trkpt lat="49.0093" lon="0.52817">
        <ele>186.3</ele>
        <time>2011-07-02T07:39:31Z</time>
      </trkpt>
      <trkpt lat="49.00933" lon="0.52806">
        <ele>186.5</ele>
        <time>2011-07-02T07:39:33Z</time>
      </trkpt>
      <trkpt lat="49.00933" lon="0.52767">
        <ele>185.9</ele>
        <time>2011-07-02T07:39:39Z</time>
      </trkpt>
      <trkpt lat="49.00938" lon="0.52735">
        <ele>187.6</ele>
        <time>2011-07-02T07:39:43Z</time>
      </trkpt>
      <trkpt lat="49.0094" lon="0.52718">
        <ele>187.1</ele>
        <time>2011-07-02T07:39:45Z</time>
      </trkpt>
      <trkpt lat="49.00947" lon="0.52673">
        <ele>187</ele>
        <time>2011-07-02T07:39:51Z</time>
      </trkpt>
      <trkpt lat="49.00947" lon="0.52642">
        <ele>189.1</ele>
        <time>2011-07-02T07:39:55Z</time>
      </trkpt>
      <trkpt lat="49.00945" lon="0.52611">
        <ele>189.7</ele>
        <time>2011-07-02T07:39:59Z</time>
      </trkpt>
      <trkpt lat="49.00945" lon="0.52597">
        <ele>191.4</ele>
        <time>2011-07-02T07:40:01Z</time>
      </trkpt>
      <trkpt lat="49.00946" lon="0.5257">
        <ele>192.5</ele>
        <time>2011-07-02T07:40:05Z</time>
      </trkpt>
      <trkpt lat="49.00941" lon="0.52529">
        <ele>194.4</ele>
        <time>2011-07-02T07:40:11Z</time>
      </trkpt>
      <trkpt lat="49.0094" lon="0.52516">
        <ele>194.6</ele>
        <time>2011-07-02T07:40:13Z</time>
      </trkpt>
      <trkpt lat="49.00927" lon="0.52475">
        <ele>194.9</ele>
        <time>2011-07-02T07:40:19Z</time>
      </trkpt>
      <trkpt lat="49.00917" lon="0.52446">
        <ele>196.3</ele>
        <time>2011-07-02T07:40:23Z</time>
      </trkpt>
      <trkpt lat="49.00906" lon="0.5242">
        <ele>197.1</ele>
        <time>2011-07-02T07:40:27Z</time>
      </trkpt>
      <trkpt lat="49.00897" lon="0.52396">
        <ele>198</ele>
        <time>2011-07-02T07:40:31Z</time>
      </trkpt>
      <trkpt lat="49.00883" lon="0.52375">
        <ele>198.9</ele>
        <time>2011-07-02T07:40:35Z</time>
      </trkpt>
      <trkpt lat="49.0087" lon="0.52354">
        <ele>201.2</ele>
        <time>2011-07-02T07:40:39Z</time>
      </trkpt>
      <trkpt lat="49.00861" lon="0.52345">
        <ele>201.4</ele>
        <time>2011-07-02T07:40:41Z</time>
      </trkpt>
      <trkpt lat="49.00823" lon="0.52316">
        <ele>202.1</ele>
        <time>2011-07-02T07:40:51Z</time>
      </trkpt>
      <trkpt lat="49.00807" lon="0.52302">
        <ele>201.5</ele>
        <time>2011-07-02T07:40:55Z</time>
      </trkpt>
      <trkpt lat="49.00794" lon="0.52288">
        <ele>202.4</ele>
        <time>2011-07-02T07:40:59Z</time>
      </trkpt>
      <trkpt lat="49.00781" lon="0.52271">
        <ele>204.7</ele>
        <time>2011-07-02T07:41:03Z</time>
      </trkpt>
      <trkpt lat="49.00773" lon="0.52248">
        <ele>207.8</ele>
        <time>2011-07-02T07:41:07Z</time>
      </trkpt>
      <trkpt lat="49.00779" lon="0.522">
        <ele>208.7</ele>
        <time>2011-07-02T07:41:11Z</time>
      </trkpt>
      <trkpt lat="49.00784" lon="0.52174">
        <ele>206</ele>
        <time>2011-07-02T07:41:14Z</time>
      </trkpt>
      <trkpt lat="49.008" lon="0.52178">
        <ele>206.4</ele>
        <time>2011-07-02T07:41:19Z</time>
      </trkpt>
      <trkpt lat="49.00814" lon="0.52202">
        <ele>205.8</ele>
        <time>2011-07-02T07:41:23Z</time>
      </trkpt>
      <trkpt lat="49.00827" lon="0.5222">
        <ele>206.8</ele>
        <time>2011-07-02T07:41:26Z</time>
      </trkpt>
      <trkpt lat="49.00841" lon="0.5224">
        <ele>208</ele>
        <time>2011-07-02T07:41:30Z</time>
      </trkpt>
      <trkpt lat="49.00855" lon="0.52254">
        <ele>210</ele>
        <time>2011-07-02T07:41:34Z</time>
      </trkpt>
      <trkpt lat="49.00874" lon="0.52269">
        <ele>209.9</ele>
        <time>2011-07-02T07:41:38Z</time>
      </trkpt>
      <trkpt lat="49.00896" lon="0.52279">
        <ele>209.1</ele>
        <time>2011-07-02T07:41:42Z</time>
      </trkpt>
      <trkpt lat="49.00907" lon="0.52285">
        <ele>208.6</ele>
        <time>2011-07-02T07:41:44Z</time>
      </trkpt>
      <trkpt lat="49.0094" lon="0.52297">
        <ele>209.8</ele>
        <time>2011-07-02T07:41:50Z</time>
      </trkpt>
      <trkpt lat="49.00961" lon="0.52317">
        <ele>212.5</ele>
        <time>2011-07-02T07:41:54Z</time>
      </trkpt>
      <trkpt lat="49.00983" lon="0.52339">
        <ele>214.4</ele>
        <time>2011-07-02T07:41:59Z</time>
      </trkpt>
      <trkpt lat="49.01002" lon="0.52357">
        <ele>215.4</ele>
        <time>2011-07-02T07:42:03Z</time>
      </trkpt>
      <trkpt lat="49.0102" lon="0.52371">
        <ele>214</ele>
        <time>2011-07-02T07:42:06Z</time>
      </trkpt>
      <trkpt lat="49.01048" lon="0.5238">
        <ele>214.2</ele>
        <time>2011-07-02T07:42:11Z</time>
      </trkpt>
      <trkpt lat="49.01062" lon="0.52365">
        <ele>215.5</ele>
        <time>2011-07-02T07:42:15Z</time>
      </trkpt>
      <trkpt lat="49.01072" lon="0.5234">
        <ele>215.8</ele>
        <time>2011-07-02T07:42:19Z</time>
      </trkpt>
      <trkpt lat="49.01083" lon="0.52312">
        <ele>217.2</ele>
        <time>2011-07-02T07:42:23Z</time>
      </trkpt>
      <trkpt lat="49.01094" lon="0.52286">
        <ele>219</ele>
        <time>2011-07-02T07:42:27Z</time>
      </trkpt>
      <trkpt lat="49.01104" lon="0.52257">
        <ele>219.5</ele>
        <time>2011-07-02T07:42:31Z</time>
      </trkpt>
      <trkpt lat="49.01115" lon="0.52227">
        <ele>220.8</ele>
        <time>2011-07-02T07:42:35Z</time>
      </trkpt>
      <trkpt lat="49.0112" lon="0.52211">
        <ele>221.6</ele>
        <time>2011-07-02T07:42:37Z</time>
      </trkpt>
      <trkpt lat="49.01138" lon="0.52162">
        <ele>222.8</ele>
        <time>2011-07-02T07:42:43Z</time>
      </trkpt>
      <trkpt lat="49.01151" lon="0.52128">
        <ele>224.1</ele>
        <time>2011-07-02T07:42:47Z</time>
      </trkpt>
      <trkpt lat="49.01162" lon="0.52094">
        <ele>223.7</ele>
        <time>2011-07-02T07:42:51Z</time>
      </trkpt>
      <trkpt lat="49.01167" lon="0.52078">
        <ele>224.6</ele>
        <time>2011-07-02T07:42:53Z</time>
      </trkpt>
      <trkpt lat="49.0118" lon="0.52035">
        <ele>225.5</ele>
        <time>2011-07-02T07:42:58Z</time>
      </trkpt>
      <trkpt lat="49.01185" lon="0.5202">
        <ele>225.7</ele>
        <time>2011-07-02T07:43:00Z</time>
      </trkpt>
      <trkpt lat="49.012" lon="0.51976">
        <ele>226.9</ele>
        <time>2011-07-02T07:43:06Z</time>
      </trkpt>
      <trkpt lat="49.01211" lon="0.51951">
        <ele>226.8</ele>
        <time>2011-07-02T07:43:10Z</time>
      </trkpt>
      <trkpt lat="49.01223" lon="0.51925">
        <ele>227.1</ele>
        <time>2011-07-02T07:43:14Z</time>
      </trkpt>
      <trkpt lat="49.01235" lon="0.51901">
        <ele>226.7</ele>
        <time>2011-07-02T07:43:18Z</time>
      </trkpt>
      <trkpt lat="49.01248" lon="0.5188">
        <ele>226.7</ele>
        <time>2011-07-02T07:43:22Z</time>
      </trkpt>
      <trkpt lat="49.01254" lon="0.51869">
        <ele>226.5</ele>
        <time>2011-07-02T07:43:24Z</time>
      </trkpt>
      <trkpt lat="49.01269" lon="0.51846">
        <ele>226.3</ele>
        <time>2011-07-02T07:43:28Z</time>
      </trkpt>
      <trkpt lat="49.0129" lon="0.5181">
        <ele>226.5</ele>
        <time>2011-07-02T07:43:34Z</time>
      </trkpt>
      <trkpt lat="49.013" lon="0.51799">
        <ele>226.7</ele>
        <time>2011-07-02T07:43:36Z</time>
      </trkpt>
      <trkpt lat="49.01324" lon="0.51783">
        <ele>227</ele>
        <time>2011-07-02T07:43:42Z</time>
      </trkpt>
      <trkpt lat="49.01341" lon="0.51767">
        <ele>226.9</ele>
        <time>2011-07-02T07:43:46Z</time>
      </trkpt>
      <trkpt lat="49.01344" lon="0.51737">
        <ele>227.9</ele>
        <time>2011-07-02T07:43:50Z</time>
      </trkpt>
      <trkpt lat="49.01332" lon="0.51714">
        <ele>229</ele>
        <time>2011-07-02T07:43:54Z</time>
      </trkpt>
      <trkpt lat="49.01313" lon="0.51712">
        <ele>228.4</ele>
        <time>2011-07-02T07:43:58Z</time>
      </trkpt>
      <trkpt lat="49.01305" lon="0.51721">
        <ele>228.3</ele>
        <time>2011-07-02T07:44:00Z</time>
      </trkpt>
      <trkpt lat="49.01304" lon="0.51763">
        <ele>228.2</ele>
        <time>2011-07-02T07:44:06Z</time>
      </trkpt>
      <trkpt lat="49.0132" lon="0.51781">
        <ele>226.9</ele>
        <time>2011-07-02T07:44:10Z</time>
      </trkpt>
      <trkpt lat="49.0134" lon="0.51769">
        <ele>227.5</ele>
        <time>2011-07-02T07:44:14Z</time>
      </trkpt>
      <trkpt lat="49.01344" lon="0.51737">
        <ele>227.4</ele>
        <time>2011-07-02T07:44:18Z</time>
      </trkpt>
      <trkpt lat="49.01332" lon="0.5169">
        <ele>227.5</ele>
        <time>2011-07-02T07:44:23Z</time>
      </trkpt>
      <trkpt lat="49.01338" lon="0.51644">
        <ele>228.4</ele>
        <time>2011-07-02T07:44:27Z</time>
      </trkpt>
      <trkpt lat="49.01344" lon="0.51597">
        <ele>228.8</ele>
        <time>2011-07-02T07:44:31Z</time>
      </trkpt>
      <trkpt lat="49.01351" lon="0.51555">
        <ele>229.5</ele>
        <time>2011-07-02T07:44:35Z</time>
      </trkpt>
      <trkpt lat="49.01362" lon="0.51509">
        <ele>228.7</ele>
        <time>2011-07-02T07:44:39Z</time>
      </trkpt>
      <trkpt lat="49.0137" lon="0.51467">
        <ele>229.4</ele>
        <time>2011-07-02T07:44:43Z</time>
      </trkpt>
      <trkpt lat="49.01382" lon="0.51425">
        <ele>229.4</ele>
        <time>2011-07-02T07:44:47Z</time>
      </trkpt>
      <trkpt lat="49.01397" lon="0.51384">
        <ele>229.2</ele>
        <time>2011-07-02T07:44:51Z</time>
      </trkpt>
      <trkpt lat="49.01406" lon="0.51356">
        <ele>229.9</ele>
        <time>2011-07-02T07:44:54Z</time>
      </trkpt>
      <trkpt lat="49.01422" lon="0.51307">
        <ele>229.9</ele>
        <time>2011-07-02T07:44:59Z</time>
      </trkpt>
      <trkpt lat="49.01435" lon="0.51269">
        <ele>230.3</ele>
        <time>2011-07-02T07:45:03Z</time>
      </trkpt>
      <trkpt lat="49.0145" lon="0.51226">
        <ele>229.7</ele>
        <time>2011-07-02T07:45:07Z</time>
      </trkpt>
      <trkpt lat="49.01465" lon="0.51183">
        <ele>229.4</ele>
        <time>2011-07-02T07:45:11Z</time>
      </trkpt>
      <trkpt lat="49.01477" lon="0.5114">
        <ele>229.7</ele>
        <time>2011-07-02T07:45:15Z</time>
      </trkpt>
      <trkpt lat="49.01487" lon="0.51097">
        <ele>228.3</ele>
        <time>2011-07-02T07:45:19Z</time>
      </trkpt>
      <trkpt lat="49.01498" lon="0.51052">
        <ele>227.7</ele>
        <time>2011-07-02T07:45:23Z</time>
      </trkpt>
      <trkpt lat="49.01506" lon="0.51023">
        <ele>228.7</ele>
        <time>2011-07-02T07:45:26Z</time>
      </trkpt>
      <trkpt lat="49.01523" lon="0.50969">
        <ele>228.2</ele>
        <time>2011-07-02T07:45:31Z</time>
      </trkpt>
      <trkpt lat="49.01534" lon="0.50924">
        <ele>227.2</ele>
        <time>2011-07-02T07:45:35Z</time>
      </trkpt>
      <trkpt lat="49.01541" lon="0.5088">
        <ele>224.4</ele>
        <time>2011-07-02T07:45:39Z</time>
      </trkpt>
      <trkpt lat="49.01544" lon="0.50832">
        <ele>223</ele>
        <time>2011-07-02T07:45:43Z</time>
      </trkpt>
      <trkpt lat="49.0155" lon="0.50783">
        <ele>224.2</ele>
        <time>2011-07-02T07:45:47Z</time>
      </trkpt>
      <trkpt lat="49.01559" lon="0.50737">
        <ele>224.1</ele>
        <time>2011-07-02T07:45:51Z</time>
      </trkpt>
      <trkpt lat="49.01573" lon="0.50696">
        <ele>224</ele>
        <time>2011-07-02T07:45:55Z</time>
      </trkpt>
      <trkpt lat="49.01584" lon="0.50668">
        <ele>223.7</ele>
        <time>2011-07-02T07:45:58Z</time>
      </trkpt>
      <trkpt lat="49.01605" lon="0.50619">
        <ele>224.5</ele>
        <time>2011-07-02T07:46:03Z</time>
      </trkpt>
      <trkpt lat="49.0162" lon="0.5058">
        <ele>224.4</ele>
        <time>2011-07-02T07:46:07Z</time>
      </trkpt>
      <trkpt lat="49.01636" lon="0.50544">
        <ele>224.7</ele>
        <time>2011-07-02T07:46:11Z</time>
      </trkpt>
      <trkpt lat="49.01648" lon="0.50505">
        <ele>224.2</ele>
        <time>2011-07-02T07:46:15Z</time>
      </trkpt>
      <trkpt lat="49.01657" lon="0.50467">
        <ele>224.1</ele>
        <time>2011-07-02T07:46:19Z</time>
      </trkpt>
      <trkpt lat="49.01663" lon="0.50431">
        <ele>224.2</ele>
        <time>2011-07-02T07:46:23Z</time>
      </trkpt>
      <trkpt lat="49.01672" lon="0.50391">
        <ele>224.2</ele>
        <time>2011-07-02T07:46:27Z</time>
      </trkpt>
      <trkpt lat="49.01681" lon="0.50356">
        <ele>224.1</ele>
        <time>2011-07-02T07:46:31Z</time>
      </trkpt>
      <trkpt lat="49.01687" lon="0.5033">
        <ele>224.3</ele>
        <time>2011-07-02T07:46:34Z</time>
      </trkpt>
      <trkpt lat="49.017" lon="0.50285">
        <ele>224.3</ele>
        <time>2011-07-02T07:46:39Z</time>
      </trkpt>
      <trkpt lat="49.01709" lon="0.50242">
        <ele>224.9</ele>
        <time>2011-07-02T07:46:43Z</time>
      </trkpt>
      <trkpt lat="49.01719" lon="0.50198">
        <ele>225.4</ele>
        <time>2011-07-02T07:46:47Z</time>
      </trkpt>
      <trkpt lat="49.01729" lon="0.50156">
        <ele>225.4</ele>
        <time>2011-07-02T07:46:51Z</time>
      </trkpt>
      <trkpt lat="49.0174" lon="0.50115">
        <ele>225.8</ele>
        <time>2011-07-02T07:46:55Z</time>
      </trkpt>
      <trkpt lat="49.01751" lon="0.50074">
        <ele>227.1</ele>
        <time>2011-07-02T07:46:59Z</time>
      </trkpt>
      <trkpt lat="49.0176" lon="0.50035">
        <ele>227.5</ele>
        <time>2011-07-02T07:47:03Z</time>
      </trkpt>
      <trkpt lat="49.01768" lon="0.49994">
        <ele>227</ele>
        <time>2011-07-02T07:47:07Z</time>
      </trkpt>
      <trkpt lat="49.01777" lon="0.49952">
        <ele>227.9</ele>
        <time>2011-07-02T07:47:11Z</time>
      </trkpt>
      <trkpt lat="49.01789" lon="0.49906">
        <ele>226.6</ele>
        <time>2011-07-02T07:47:15Z</time>
      </trkpt>
      <trkpt lat="49.01801" lon="0.4986">
        <ele>224.8</ele>
        <time>2011-07-02T07:47:19Z</time>
      </trkpt>
      <trkpt lat="49.01809" lon="0.49827">
        <ele>225.5</ele>
        <time>2011-07-02T07:47:22Z</time>
      </trkpt>
      <trkpt lat="49.01824" lon="0.49775">
        <ele>226</ele>
        <time>2011-07-02T07:47:27Z</time>
      </trkpt>
      <trkpt lat="49.01837" lon="0.49733">
        <ele>226.6</ele>
        <time>2011-07-02T07:47:31Z</time>
      </trkpt>
      <trkpt lat="49.01849" lon="0.49691">
        <ele>226.6</ele>
        <time>2011-07-02T07:47:35Z</time>
      </trkpt>
      <trkpt lat="49.0186" lon="0.49647">
        <ele>227.1</ele>
        <time>2011-07-02T07:47:39Z</time>
      </trkpt>
      <trkpt lat="49.01871" lon="0.49606">
        <ele>226.9</ele>
        <time>2011-07-02T07:47:43Z</time>
      </trkpt>
      <trkpt lat="49.01881" lon="0.49562">
        <ele>228.1</ele>
        <time>2011-07-02T07:47:47Z</time>
      </trkpt>
      <trkpt lat="49.01893" lon="0.49518">
        <ele>227.6</ele>
        <time>2011-07-02T07:47:51Z</time>
      </trkpt>
      <trkpt lat="49.01904" lon="0.49475">
        <ele>227.1</ele>
        <time>2011-07-02T07:47:55Z</time>
      </trkpt>
      <trkpt lat="49.01909" lon="0.49445">
        <ele>226.7</ele>
        <time>2011-07-02T07:47:58Z</time>
      </trkpt>
      <trkpt lat="49.01921" lon="0.49396">
        <ele>227.3</ele>
        <time>2011-07-02T07:48:03Z</time>
      </trkpt>
      <trkpt lat="49.01931" lon="0.49357">
        <ele>227.3</ele>
        <time>2011-07-02T07:48:07Z</time>
      </trkpt>
      <trkpt lat="49.01941" lon="0.49318">
        <ele>226.7</ele>
        <time>2011-07-02T07:48:11Z</time>
      </trkpt>
      <trkpt lat="49.0195" lon="0.49281">
        <ele>227</ele>
        <time>2011-07-02T07:48:15Z</time>
      </trkpt>
      <trkpt lat="49.01962" lon="0.49247">
        <ele>227.2</ele>
        <time>2011-07-02T07:48:19Z</time>
      </trkpt>
      <trkpt lat="49.01971" lon="0.49219">
        <ele>227.5</ele>
        <time>2011-07-02T07:48:22Z</time>
      </trkpt>
      <trkpt lat="49.01988" lon="0.49172">
        <ele>228.4</ele>
        <time>2011-07-02T07:48:27Z</time>
      </trkpt>
      <trkpt lat="49.02" lon="0.4913">
        <ele>229</ele>
        <time>2011-07-02T07:48:31Z</time>
      </trkpt>
      <trkpt lat="49.02013" lon="0.49091">
        <ele>227.4</ele>
        <time>2011-07-02T07:48:35Z</time>
      </trkpt>
      <trkpt lat="49.02026" lon="0.49057">
        <ele>227.1</ele>
        <time>2011-07-02T07:48:39Z</time>
      </trkpt>
      <trkpt lat="49.02039" lon="0.49019">
        <ele>226.4</ele>
        <time>2011-07-02T07:48:43Z</time>
      </trkpt>
      <trkpt lat="49.02049" lon="0.48992">
        <ele>225.9</ele>
        <time>2011-07-02T07:48:46Z</time>
      </trkpt>
      <trkpt lat="49.02064" lon="0.48946">
        <ele>226.7</ele>
        <time>2011-07-02T07:48:51Z</time>
      </trkpt>
      <trkpt lat="49.02078" lon="0.48908">
        <ele>226.9</ele>
        <time>2011-07-02T07:48:55Z</time>
      </trkpt>
      <trkpt lat="49.02095" lon="0.48868">
        <ele>227.9</ele>
        <time>2011-07-02T07:48:59Z</time>
      </trkpt>
      <trkpt lat="49.02108" lon="0.48829">
        <ele>227.6</ele>
        <time>2011-07-02T07:49:03Z</time>
      </trkpt>
      <trkpt lat="49.02118" lon="0.4879">
        <ele>227.4</ele>
        <time>2011-07-02T07:49:07Z</time>
      </trkpt>
      <trkpt lat="49.02134" lon="0.48751">
        <ele>226.5</ele>
        <time>2011-07-02T07:49:11Z</time>
      </trkpt>
      <trkpt lat="49.02147" lon="0.48714">
        <ele>227</ele>
        <time>2011-07-02T07:49:15Z</time>
      </trkpt>
      <trkpt lat="49.02158" lon="0.48676">
        <ele>226.6</ele>
        <time>2011-07-02T07:49:19Z</time>
      </trkpt>
      <trkpt lat="49.02173" lon="0.48639">
        <ele>226.8</ele>
        <time>2011-07-02T07:49:23Z</time>
      </trkpt>
      <trkpt lat="49.02184" lon="0.48601">
        <ele>226.8</ele>
        <time>2011-07-02T07:49:27Z</time>
      </trkpt>
      <trkpt lat="49.02382" lon="0.48035">
        <ele>237.7</ele>
        <time>2011-07-02T07:50:31Z</time>
      </trkpt>
      <trkpt lat="49.02395" lon="0.47994">
        <ele>236.9</ele>
        <time>2011-07-02T07:50:35Z</time>
      </trkpt>
      <trkpt lat="49.02407" lon="0.47955">
        <ele>235.3</ele>
        <time>2011-07-02T07:50:39Z</time>
      </trkpt>
      <trkpt lat="49.02421" lon="0.47916">
        <ele>235.3</ele>
        <time>2011-07-02T07:50:43Z</time>
      </trkpt>
      <trkpt lat="49.02434" lon="0.47878">
        <ele>234.8</ele>
        <time>2011-07-02T07:50:47Z</time>
      </trkpt>
      <trkpt lat="49.02447" lon="0.47838">
        <ele>233.8</ele>
        <time>2011-07-02T07:50:51Z</time>
      </trkpt>
      <trkpt lat="49.02461" lon="0.47799">
        <ele>233.6</ele>
        <time>2011-07-02T07:50:55Z</time>
      </trkpt>
      <trkpt lat="49.02474" lon="0.47759">
        <ele>233.7</ele>
        <time>2011-07-02T07:50:59Z</time>
      </trkpt>
      <trkpt lat="49.02488" lon="0.47721">
        <ele>234.3</ele>
        <time>2011-07-02T07:51:03Z</time>
      </trkpt>
      <trkpt lat="49.02499" lon="0.47685">
        <ele>233.1</ele>
        <time>2011-07-02T07:51:07Z</time>
      </trkpt>
      <trkpt lat="49.02513" lon="0.47649">
        <ele>232.9</ele>
        <time>2011-07-02T07:51:11Z</time>
      </trkpt>
      <trkpt lat="49.02524" lon="0.47613">
        <ele>233.6</ele>
        <time>2011-07-02T07:51:15Z</time>
      </trkpt>
      <trkpt lat="49.02535" lon="0.47578">
        <ele>233.6</ele>
        <time>2011-07-02T07:51:19Z</time>
      </trkpt>
      <trkpt lat="49.02549" lon="0.47541">
        <ele>233.2</ele>
        <time>2011-07-02T07:51:23Z</time>
      </trkpt>
      <trkpt lat="49.02562" lon="0.47505">
        <ele>233.6</ele>
        <time>2011-07-02T07:51:27Z</time>
      </trkpt>
      <trkpt lat="49.02575" lon="0.47466">
        <ele>234.1</ele>
        <time>2011-07-02T07:51:31Z</time>
      </trkpt>
      <trkpt lat="49.02588" lon="0.47428">
        <ele>234.1</ele>
        <time>2011-07-02T07:51:35Z</time>
      </trkpt>
      <trkpt lat="49.02602" lon="0.47389">
        <ele>233.5</ele>
        <time>2011-07-02T07:51:39Z</time>
      </trkpt>
      <trkpt lat="49.02615" lon="0.4735">
        <ele>233.1</ele>
        <time>2011-07-02T07:51:43Z</time>
      </trkpt>
      <trkpt lat="49.02628" lon="0.47313">
        <ele>233.2</ele>
        <time>2011-07-02T07:51:47Z</time>
      </trkpt>
      <trkpt lat="49.02637" lon="0.47286">
        <ele>233.6</ele>
        <time>2011-07-02T07:51:50Z</time>
      </trkpt>
      <trkpt lat="49.02652" lon="0.47242">
        <ele>233.6</ele>
        <time>2011-07-02T07:51:55Z</time>
      </trkpt>
      <trkpt lat="49.02665" lon="0.47203">
        <ele>233.5</ele>
        <time>2011-07-02T07:51:59Z</time>
      </trkpt>
      <trkpt lat="49.0268" lon="0.47164">
        <ele>233.2</ele>
        <time>2011-07-02T07:52:03Z</time>
      </trkpt>
      <trkpt lat="49.02691" lon="0.47123">
        <ele>233.2</ele>
        <time>2011-07-02T07:52:07Z</time>
      </trkpt>
      <trkpt lat="49.02701" lon="0.47083">
        <ele>232.8</ele>
        <time>2011-07-02T07:52:11Z</time>
      </trkpt>
      <trkpt lat="49.02712" lon="0.47043">
        <ele>234.1</ele>
        <time>2011-07-02T07:52:15Z</time>
      </trkpt>
      <trkpt lat="49.02721" lon="0.47004">
        <ele>234.1</ele>
        <time>2011-07-02T07:52:19Z</time>
      </trkpt>
      <trkpt lat="49.02733" lon="0.46963">
        <ele>234.1</ele>
        <time>2011-07-02T07:52:23Z</time>
      </trkpt>
      <trkpt lat="49.02743" lon="0.46924">
        <ele>234.5</ele>
        <time>2011-07-02T07:52:27Z</time>
      </trkpt>
      <trkpt lat="49.02755" lon="0.46884">
        <ele>235.9</ele>
        <time>2011-07-02T07:52:31Z</time>
      </trkpt>
      <trkpt lat="49.02766" lon="0.46845">
        <ele>235.4</ele>
        <time>2011-07-02T07:52:35Z</time>
      </trkpt>
      <trkpt lat="49.02776" lon="0.46806">
        <ele>235.7</ele>
        <time>2011-07-02T07:52:39Z</time>
      </trkpt>
      <trkpt lat="49.02785" lon="0.46768">
        <ele>235.7</ele>
        <time>2011-07-02T07:52:43Z</time>
      </trkpt>
      <trkpt lat="49.02796" lon="0.46728">
        <ele>235.2</ele>
        <time>2011-07-02T07:52:47Z</time>
      </trkpt>
      <trkpt lat="49.02807" lon="0.46691">
        <ele>235.1</ele>
        <time>2011-07-02T07:52:51Z</time>
      </trkpt>
      <trkpt lat="49.02817" lon="0.46653">
        <ele>235.2</ele>
        <time>2011-07-02T07:52:55Z</time>
      </trkpt>
      <trkpt lat="49.02827" lon="0.46616">
        <ele>235.3</ele>
        <time>2011-07-02T07:52:59Z</time>
      </trkpt>
      <trkpt lat="49.02837" lon="0.46578">
        <ele>234.8</ele>
        <time>2011-07-02T07:53:03Z</time>
      </trkpt>
      <trkpt lat="49.02845" lon="0.4654">
        <ele>232.7</ele>
        <time>2011-07-02T07:53:07Z</time>
      </trkpt>
      <trkpt lat="49.02855" lon="0.46501">
        <ele>232.8</ele>
        <time>2011-07-02T07:53:11Z</time>
      </trkpt>
      <trkpt lat="49.02865" lon="0.46462">
        <ele>232.6</ele>
        <time>2011-07-02T07:53:15Z</time>
      </trkpt>
      <trkpt lat="49.02876" lon="0.46426">
        <ele>232.4</ele>
        <time>2011-07-02T07:53:19Z</time>
      </trkpt>
      <trkpt lat="49.02887" lon="0.46389">
        <ele>231.7</ele>
        <time>2011-07-02T07:53:23Z</time>
      </trkpt>
      <trkpt lat="49.02898" lon="0.46351">
        <ele>232.3</ele>
        <time>2011-07-02T07:53:27Z</time>
      </trkpt>
      <trkpt lat="49.02909" lon="0.46312">
        <ele>231.9</ele>
        <time>2011-07-02T07:53:31Z</time>
      </trkpt>
      <trkpt lat="49.02921" lon="0.46274">
        <ele>232.2</ele>
        <time>2011-07-02T07:53:35Z</time>
      </trkpt>
      <trkpt lat="49.02929" lon="0.46245">
        <ele>232.2</ele>
        <time>2011-07-02T07:53:38Z</time>
      </trkpt>
      <trkpt lat="49.02942" lon="0.46197">
        <ele>232.4</ele>
        <time>2011-07-02T07:53:43Z</time>
      </trkpt>
      <trkpt lat="49.02951" lon="0.46157">
        <ele>233.4</ele>
        <time>2011-07-02T07:53:47Z</time>
      </trkpt>
      <trkpt lat="49.02961" lon="0.46119">
        <ele>233.9</ele>
        <time>2011-07-02T07:53:51Z</time>
      </trkpt>
      <trkpt lat="49.02971" lon="0.46079">
        <ele>234.1</ele>
        <time>2011-07-02T07:53:55Z</time>
      </trkpt>
      <trkpt lat="49.02983" lon="0.4604">
        <ele>234.8</ele>
        <time>2011-07-02T07:53:59Z</time>
      </trkpt>
      <trkpt lat="49.02993" lon="0.46001">
        <ele>235</ele>
        <time>2011-07-02T07:54:03Z</time>
      </trkpt>
      <trkpt lat="49.03003" lon="0.45962">
        <ele>235.4</ele>
        <time>2011-07-02T07:54:07Z</time>
      </trkpt>
      <trkpt lat="49.03013" lon="0.45924">
        <ele>236.6</ele>
        <time>2011-07-02T07:54:11Z</time>
      </trkpt>
      <trkpt lat="49.03021" lon="0.45895">
        <ele>236.9</ele>
        <time>2011-07-02T07:54:14Z</time>
      </trkpt>
      <trkpt lat="49.03035" lon="0.45847">
        <ele>237</ele>
        <time>2011-07-02T07:54:19Z</time>
      </trkpt>
      <trkpt lat="49.03044" lon="0.45806">
        <ele>238.3</ele>
        <time>2011-07-02T07:54:23Z</time>
      </trkpt>
      <trkpt lat="49.03054" lon="0.45763">
        <ele>238.4</ele>
        <time>2011-07-02T07:54:27Z</time>
      </trkpt>
      <trkpt lat="49.03065" lon="0.4572">
        <ele>237.9</ele>
        <time>2011-07-02T07:54:31Z</time>
      </trkpt>
      <trkpt lat="49.03075" lon="0.45681">
        <ele>238.2</ele>
        <time>2011-07-02T07:54:35Z</time>
      </trkpt>
      <trkpt lat="49.03086" lon="0.45641">
        <ele>237.7</ele>
        <time>2011-07-02T07:54:39Z</time>
      </trkpt>
      <trkpt lat="49.03098" lon="0.456">
        <ele>238.1</ele>
        <time>2011-07-02T07:54:43Z</time>
      </trkpt>
      <trkpt lat="49.03109" lon="0.45561">
        <ele>237.4</ele>
        <time>2011-07-02T07:54:47Z</time>
      </trkpt>
      <trkpt lat="49.0312" lon="0.45521">
        <ele>238</ele>
        <time>2011-07-02T07:54:51Z</time>
      </trkpt>
      <trkpt lat="49.0313" lon="0.45477">
        <ele>237.9</ele>
        <time>2011-07-02T07:54:55Z</time>
      </trkpt>
      <trkpt lat="49.03143" lon="0.45435">
        <ele>237.8</ele>
        <time>2011-07-02T07:54:59Z</time>
      </trkpt>
      <trkpt lat="49.03155" lon="0.45392">
        <ele>237.1</ele>
        <time>2011-07-02T07:55:03Z</time>
      </trkpt>
      <trkpt lat="49.03166" lon="0.45346">
        <ele>237.2</ele>
        <time>2011-07-02T07:55:07Z</time>
      </trkpt>
      <trkpt lat="49.03178" lon="0.45304">
        <ele>238.2</ele>
        <time>2011-07-02T07:55:11Z</time>
      </trkpt>
      <trkpt lat="49.03185" lon="0.45273">
        <ele>237.7</ele>
        <time>2011-07-02T07:55:14Z</time>
      </trkpt>
      <trkpt lat="49.03199" lon="0.45221">
        <ele>236.9</ele>
        <time>2011-07-02T07:55:19Z</time>
      </trkpt>
      <trkpt lat="49.0321" lon="0.45182">
        <ele>237.3</ele>
        <time>2011-07-02T07:55:23Z</time>
      </trkpt>
      <trkpt lat="49.03221" lon="0.4514">
        <ele>237.2</ele>
        <time>2011-07-02T07:55:27Z</time>
      </trkpt>
      <trkpt lat="49.03234" lon="0.45098">
        <ele>237</ele>
        <time>2011-07-02T07:55:31Z</time>
      </trkpt>
      <trkpt lat="49.03244" lon="0.45068">
        <ele>236.9</ele>
        <time>2011-07-02T07:55:34Z</time>
      </trkpt>
      <trkpt lat="49.03264" lon="0.45021">
        <ele>236.4</ele>
        <time>2011-07-02T07:55:39Z</time>
      </trkpt>
      <trkpt lat="49.03279" lon="0.44983">
        <ele>236.2</ele>
        <time>2011-07-02T07:55:43Z</time>
      </trkpt>
      <trkpt lat="49.03294" lon="0.44941">
        <ele>235.1</ele>
        <time>2011-07-02T07:55:47Z</time>
      </trkpt>
      <trkpt lat="49.03308" lon="0.449">
        <ele>235.2</ele>
        <time>2011-07-02T07:55:51Z</time>
      </trkpt>
      <trkpt lat="49.03321" lon="0.44859">
        <ele>231.9</ele>
        <time>2011-07-02T07:55:55Z</time>
      </trkpt>
      <trkpt lat="49.03328" lon="0.44826">
        <ele>230.7</ele>
        <time>2011-07-02T07:55:58Z</time>
      </trkpt>
      <trkpt lat="49.03332" lon="0.44769">
        <ele>231.7</ele>
        <time>2011-07-02T07:56:03Z</time>
      </trkpt>
      <trkpt lat="49.03334" lon="0.44723">
        <ele>231.3</ele>
        <time>2011-07-02T07:56:07Z</time>
      </trkpt>
      <trkpt lat="49.03335" lon="0.44677">
        <ele>230.7</ele>
        <time>2011-07-02T07:56:11Z</time>
      </trkpt>
      <trkpt lat="49.03336" lon="0.44635">
        <ele>232.4</ele>
        <time>2011-07-02T07:56:15Z</time>
      </trkpt>
      <trkpt lat="49.03341" lon="0.44604">
        <ele>232.4</ele>
        <time>2011-07-02T07:56:18Z</time>
      </trkpt>
      <trkpt lat="49.03353" lon="0.44569">
        <ele>232.3</ele>
        <time>2011-07-02T07:56:22Z</time>
      </trkpt>
      <trkpt lat="49.03358" lon="0.44521">
        <ele>232.8</ele>
        <time>2011-07-02T07:56:27Z</time>
      </trkpt>
      <trkpt lat="49.03373" lon="0.44479">
        <ele>233</ele>
        <time>2011-07-02T07:56:31Z</time>
      </trkpt>
      <trkpt lat="49.03392" lon="0.44439">
        <ele>234.4</ele>
        <time>2011-07-02T07:56:35Z</time>
      </trkpt>
      <trkpt lat="49.03409" lon="0.44402">
        <ele>234.9</ele>
        <time>2011-07-02T07:56:39Z</time>
      </trkpt>
      <trkpt lat="49.03427" lon="0.44368">
        <ele>234.4</ele>
        <time>2011-07-02T07:56:43Z</time>
      </trkpt>
      <trkpt lat="49.03439" lon="0.44334">
        <ele>234.2</ele>
        <time>2011-07-02T07:56:47Z</time>
      </trkpt>
      <trkpt lat="49.03452" lon="0.44303">
        <ele>234.4</ele>
        <time>2011-07-02T07:56:51Z</time>
      </trkpt>
      <trkpt lat="49.03468" lon="0.4427">
        <ele>234.9</ele>
        <time>2011-07-02T07:56:55Z</time>
      </trkpt>
      <trkpt lat="49.03484" lon="0.44234">
        <ele>235.5</ele>
        <time>2011-07-02T07:56:59Z</time>
      </trkpt>
      <trkpt lat="49.03502" lon="0.44194">
        <ele>234.5</ele>
        <time>2011-07-02T07:57:03Z</time>
      </trkpt>
      <trkpt lat="49.03522" lon="0.44152">
        <ele>233.7</ele>
        <time>2011-07-02T07:57:07Z</time>
      </trkpt>
      <trkpt lat="49.0354" lon="0.4411">
        <ele>233.1</ele>
        <time>2011-07-02T07:57:11Z</time>
      </trkpt>
      <trkpt lat="49.03555" lon="0.44081">
        <ele>232.9</ele>
        <time>2011-07-02T07:57:14Z</time>
      </trkpt>
      <trkpt lat="49.03585" lon="0.44053">
        <ele>233.2</ele>
        <time>2011-07-02T07:57:19Z</time>
      </trkpt>
      <trkpt lat="49.03603" lon="0.44024">
        <ele>233.7</ele>
        <time>2011-07-02T07:57:23Z</time>
      </trkpt>
      <trkpt lat="49.036" lon="0.43982">
        <ele>233.5</ele>
        <time>2011-07-02T07:57:27Z</time>
      </trkpt>
      <trkpt lat="49.03605" lon="0.43935">
        <ele>232.3</ele>
        <time>2011-07-02T07:57:31Z</time>
      </trkpt>
      <trkpt lat="49.03618" lon="0.43892">
        <ele>232.3</ele>
        <time>2011-07-02T07:57:35Z</time>
      </trkpt>
      <trkpt lat="49.03631" lon="0.4385">
        <ele>232</ele>
        <time>2011-07-02T07:57:39Z</time>
      </trkpt>
      <trkpt lat="49.03644" lon="0.4381">
        <ele>232.5</ele>
        <time>2011-07-02T07:57:43Z</time>
      </trkpt>
      <trkpt lat="49.03655" lon="0.43779">
        <ele>233</ele>
        <time>2011-07-02T07:57:46Z</time>
      </trkpt>
      <trkpt lat="49.03671" lon="0.43727">
        <ele>233.3</ele>
        <time>2011-07-02T07:57:51Z</time>
      </trkpt>
      <trkpt lat="49.03685" lon="0.43686">
        <ele>232.8</ele>
        <time>2011-07-02T07:57:55Z</time>
      </trkpt>
      <trkpt lat="49.03696" lon="0.43649">
        <ele>233.2</ele>
        <time>2011-07-02T07:57:59Z</time>
      </trkpt>
      <trkpt lat="49.03704" lon="0.43621">
        <ele>233.4</ele>
        <time>2011-07-02T07:58:02Z</time>
      </trkpt>
      <trkpt lat="49.03719" lon="0.43569">
        <ele>234</ele>
        <time>2011-07-02T07:58:07Z</time>
      </trkpt>
      <trkpt lat="49.03732" lon="0.43529">
        <ele>234.2</ele>
        <time>2011-07-02T07:58:11Z</time>
      </trkpt>
      <trkpt lat="49.03745" lon="0.43488">
        <ele>234.1</ele>
        <time>2011-07-02T07:58:15Z</time>
      </trkpt>
      <trkpt lat="49.03758" lon="0.43446">
        <ele>234.2</ele>
        <time>2011-07-02T07:58:19Z</time>
      </trkpt>
      <trkpt lat="49.0377" lon="0.43405">
        <ele>233.6</ele>
        <time>2011-07-02T07:58:23Z</time>
      </trkpt>
      <trkpt lat="49.03782" lon="0.43366">
        <ele>233.1</ele>
        <time>2011-07-02T07:58:27Z</time>
      </trkpt>
      <trkpt lat="49.03793" lon="0.43328">
        <ele>232</ele>
        <time>2011-07-02T07:58:31Z</time>
      </trkpt>
      <trkpt lat="49.03808" lon="0.4329">
        <ele>231.2</ele>
        <time>2011-07-02T07:58:35Z</time>
      </trkpt>
      <trkpt lat="49.0382" lon="0.4325">
        <ele>230.1</ele>
        <time>2011-07-02T07:58:39Z</time>
      </trkpt>
      <trkpt lat="49.03835" lon="0.43208">
        <ele>228.7</ele>
        <time>2011-07-02T07:58:43Z</time>
      </trkpt>
      <trkpt lat="49.03848" lon="0.43166">
        <ele>229.1</ele>
        <time>2011-07-02T07:58:47Z</time>
      </trkpt>
      <trkpt lat="49.03863" lon="0.43124">
        <ele>228.5</ele>
        <time>2011-07-02T07:58:51Z</time>
      </trkpt>
      <trkpt lat="49.03876" lon="0.43082">
        <ele>227.9</ele>
        <time>2011-07-02T07:58:55Z</time>
      </trkpt>
      <trkpt lat="49.0389" lon="0.43038">
        <ele>226.6</ele>
        <time>2011-07-02T07:58:59Z</time>
      </trkpt>
      <trkpt lat="49.03904" lon="0.42994">
        <ele>225.9</ele>
        <time>2011-07-02T07:59:03Z</time>
      </trkpt>
      <trkpt lat="49.03919" lon="0.42951">
        <ele>225.6</ele>
        <time>2011-07-02T07:59:07Z</time>
      </trkpt>
      <trkpt lat="49.03929" lon="0.42916">
        <ele>225.6</ele>
        <time>2011-07-02T07:59:10Z</time>
      </trkpt>
      <trkpt lat="49.03943" lon="0.42873">
        <ele>224.7</ele>
        <time>2011-07-02T07:59:14Z</time>
      </trkpt>
      <trkpt lat="49.03958" lon="0.42824">
        <ele>225.9</ele>
        <time>2011-07-02T07:59:19Z</time>
      </trkpt>
      <trkpt lat="49.0397" lon="0.42779">
        <ele>227.1</ele>
        <time>2011-07-02T07:59:23Z</time>
      </trkpt>
      <trkpt lat="49.03981" lon="0.42735">
        <ele>227.1</ele>
        <time>2011-07-02T07:59:27Z</time>
      </trkpt>
      <trkpt lat="49.03991" lon="0.42693">
        <ele>226.2</ele>
        <time>2011-07-02T07:59:31Z</time>
      </trkpt>
      <trkpt lat="49.04002" lon="0.42651">
        <ele>225.7</ele>
        <time>2011-07-02T07:59:35Z</time>
      </trkpt>
      <trkpt lat="49.04013" lon="0.4261">
        <ele>227</ele>
        <time>2011-07-02T07:59:39Z</time>
      </trkpt>
      <trkpt lat="49.04023" lon="0.42568">
        <ele>227.2</ele>
        <time>2011-07-02T07:59:43Z</time>
      </trkpt>
      <trkpt lat="49.04033" lon="0.42528">
        <ele>228.4</ele>
        <time>2011-07-02T07:59:47Z</time>
      </trkpt>
      <trkpt lat="49.04042" lon="0.42488">
        <ele>228.8</ele>
        <time>2011-07-02T07:59:51Z</time>
      </trkpt>
      <trkpt lat="49.04048" lon="0.42448">
        <ele>228.2</ele>
        <time>2011-07-02T07:59:55Z</time>
      </trkpt>
      <trkpt lat="49.04057" lon="0.42412">
        <ele>228.7</ele>
        <time>2011-07-02T07:59:59Z</time>
      </trkpt>
      <trkpt lat="49.04064" lon="0.42368">
        <ele>229.2</ele>
        <time>2011-07-02T08:00:03Z</time>
      </trkpt>
      <trkpt lat="49.04073" lon="0.42324">
        <ele>228.4</ele>
        <time>2011-07-02T08:00:07Z</time>
      </trkpt>
      <trkpt lat="49.04079" lon="0.4229">
        <ele>227.7</ele>
        <time>2011-07-02T08:00:10Z</time>
      </trkpt>
      <trkpt lat="49.04088" lon="0.42238">
        <ele>227.2</ele>
        <time>2011-07-02T08:00:15Z</time>
      </trkpt>
      <trkpt lat="49.04097" lon="0.42195">
        <ele>226.6</ele>
        <time>2011-07-02T08:00:19Z</time>
      </trkpt>
      <trkpt lat="49.04105" lon="0.42154">
        <ele>226</ele>
        <time>2011-07-02T08:00:23Z</time>
      </trkpt>
      <trkpt lat="49.04112" lon="0.42112">
        <ele>226.8</ele>
        <time>2011-07-02T08:00:27Z</time>
      </trkpt>
      <trkpt lat="49.0412" lon="0.42071">
        <ele>225.9</ele>
        <time>2011-07-02T08:00:31Z</time>
      </trkpt>
      <trkpt lat="49.04128" lon="0.42031">
        <ele>227.5</ele>
        <time>2011-07-02T08:00:35Z</time>
      </trkpt>
      <trkpt lat="49.04132" lon="0.41999">
        <ele>228</ele>
        <time>2011-07-02T08:00:38Z</time>
      </trkpt>
      <trkpt lat="49.04141" lon="0.41944">
        <ele>228.9</ele>
        <time>2011-07-02T08:00:43Z</time>
      </trkpt>
      <trkpt lat="49.04147" lon="0.41902">
        <ele>228.1</ele>
        <time>2011-07-02T08:00:47Z</time>
      </trkpt>
      <trkpt lat="49.04156" lon="0.41859">
        <ele>226.7</ele>
        <time>2011-07-02T08:00:51Z</time>
      </trkpt>
      <trkpt lat="49.04166" lon="0.41813">
        <ele>225.7</ele>
        <time>2011-07-02T08:00:55Z</time>
      </trkpt>
      <trkpt lat="49.04183" lon="0.41769">
        <ele>225.6</ele>
        <time>2011-07-02T08:00:59Z</time>
      </trkpt>
      <trkpt lat="49.04205" lon="0.41735">
        <ele>225.4</ele>
        <time>2011-07-02T08:01:03Z</time>
      </trkpt>
      <trkpt lat="49.0423" lon="0.41707">
        <ele>226</ele>
        <time>2011-07-02T08:01:07Z</time>
      </trkpt>
      <trkpt lat="49.04247" lon="0.41687">
        <ele>226.4</ele>
        <time>2011-07-02T08:01:10Z</time>
      </trkpt>
      <trkpt lat="49.04277" lon="0.41658">
        <ele>226.7</ele>
        <time>2011-07-02T08:01:15Z</time>
      </trkpt>
      <trkpt lat="49.04301" lon="0.41632">
        <ele>227.5</ele>
        <time>2011-07-02T08:01:19Z</time>
      </trkpt>
      <trkpt lat="49.04325" lon="0.41608">
        <ele>225.4</ele>
        <time>2011-07-02T08:01:23Z</time>
      </trkpt>
      <trkpt lat="49.04349" lon="0.41578">
        <ele>225.6</ele>
        <time>2011-07-02T08:01:27Z</time>
      </trkpt>
      <trkpt lat="49.04371" lon="0.4155">
        <ele>225.2</ele>
        <time>2011-07-02T08:01:31Z</time>
      </trkpt>
      <trkpt lat="49.04393" lon="0.4152">
        <ele>226.7</ele>
        <time>2011-07-02T08:01:35Z</time>
      </trkpt>
      <trkpt lat="49.04414" lon="0.41491">
        <ele>227.7</ele>
        <time>2011-07-02T08:01:39Z</time>
      </trkpt>
      <trkpt lat="49.04431" lon="0.41468">
        <ele>227.9</ele>
        <time>2011-07-02T08:01:42Z</time>
      </trkpt>
      <trkpt lat="49.04458" lon="0.41432">
        <ele>228.1</ele>
        <time>2011-07-02T08:01:47Z</time>
      </trkpt>
      <trkpt lat="49.04481" lon="0.41403">
        <ele>228.1</ele>
        <time>2011-07-02T08:01:51Z</time>
      </trkpt>
      <trkpt lat="49.04504" lon="0.41374">
        <ele>227.8</ele>
        <time>2011-07-02T08:01:55Z</time>
      </trkpt>
      <trkpt lat="49.04527" lon="0.41346">
        <ele>228.2</ele>
        <time>2011-07-02T08:01:59Z</time>
      </trkpt>
      <trkpt lat="49.0455" lon="0.41318">
        <ele>228.6</ele>
        <time>2011-07-02T08:02:03Z</time>
      </trkpt>
      <trkpt lat="49.04574" lon="0.41287">
        <ele>229</ele>
        <time>2011-07-02T08:02:07Z</time>
      </trkpt>
      <trkpt lat="49.04596" lon="0.41255">
        <ele>229.5</ele>
        <time>2011-07-02T08:02:11Z</time>
      </trkpt>
      <trkpt lat="49.04615" lon="0.41219">
        <ele>228.6</ele>
        <time>2011-07-02T08:02:15Z</time>
      </trkpt>
      <trkpt lat="49.04632" lon="0.4118">
        <ele>228.9</ele>
        <time>2011-07-02T08:02:19Z</time>
      </trkpt>
      <trkpt lat="49.04647" lon="0.4114">
        <ele>228.8</ele>
        <time>2011-07-02T08:02:23Z</time>
      </trkpt>
      <trkpt lat="49.04659" lon="0.41098">
        <ele>228.9</ele>
        <time>2011-07-02T08:02:27Z</time>
      </trkpt>
      <trkpt lat="49.04669" lon="0.41054">
        <ele>228.5</ele>
        <time>2011-07-02T08:02:31Z</time>
      </trkpt>
      <trkpt lat="49.04679" lon="0.4101">
        <ele>228.4</ele>
        <time>2011-07-02T08:02:35Z</time>
      </trkpt>
      <trkpt lat="49.04686" lon="0.4098">
        <ele>228.4</ele>
        <time>2011-07-02T08:02:38Z</time>
      </trkpt>
      <trkpt lat="49.04697" lon="0.40929">
        <ele>228.6</ele>
        <time>2011-07-02T08:02:43Z</time>
      </trkpt>
      <trkpt lat="49.04707" lon="0.40888">
        <ele>228.1</ele>
        <time>2011-07-02T08:02:47Z</time>
      </trkpt>
      <trkpt lat="49.04719" lon="0.40847">
        <ele>227</ele>
        <time>2011-07-02T08:02:51Z</time>
      </trkpt>
      <trkpt lat="49.04726" lon="0.40817">
        <ele>226.3</ele>
        <time>2011-07-02T08:02:54Z</time>
      </trkpt>
      <trkpt lat="49.04743" lon="0.40769">
        <ele>226.6</ele>
        <time>2011-07-02T08:02:59Z</time>
      </trkpt>
      <trkpt lat="49.04757" lon="0.40734">
        <ele>226.9</ele>
        <time>2011-07-02T08:03:03Z</time>
      </trkpt>
      <trkpt lat="49.0477" lon="0.40701">
        <ele>226.6</ele>
        <time>2011-07-02T08:03:07Z</time>
      </trkpt>
      <trkpt lat="49.04778" lon="0.40685">
        <ele>226.3</ele>
        <time>2011-07-02T08:03:09Z</time>
      </trkpt>
      <trkpt lat="49.04793" lon="0.40657">
        <ele>226.2</ele>
        <time>2011-07-02T08:03:13Z</time>
      </trkpt>
      <trkpt lat="49.0481" lon="0.4062">
        <ele>226.7</ele>
        <time>2011-07-02T08:03:19Z</time>
      </trkpt>
      <trkpt lat="49.04816" lon="0.40611">
        <ele>226.6</ele>
        <time>2011-07-02T08:03:22Z</time>
      </trkpt>
      <trkpt lat="49.04818" lon="0.40602">
        <ele>226.1</ele>
        <time>2011-07-02T08:03:26Z</time>
      </trkpt>
      <trkpt lat="49.04819" lon="0.40589">
        <ele>226</ele>
        <time>2011-07-02T08:03:32Z</time>
      </trkpt>
      <trkpt lat="49.04809" lon="0.40585">
        <ele>225.7</ele>
        <time>2011-07-02T08:03:36Z</time>
      </trkpt>
      <trkpt lat="49.04779" lon="0.40574">
        <ele>225</ele>
        <time>2011-07-02T08:03:42Z</time>
      </trkpt>
      <trkpt lat="49.04754" lon="0.40559">
        <ele>226.8</ele>
        <time>2011-07-02T08:03:47Z</time>
      </trkpt>
      <trkpt lat="49.04731" lon="0.40546">
        <ele>228.1</ele>
        <time>2011-07-02T08:03:51Z</time>
      </trkpt>
      <trkpt lat="49.04712" lon="0.40535">
        <ele>226.8</ele>
        <time>2011-07-02T08:03:55Z</time>
      </trkpt>
      <trkpt lat="49.04692" lon="0.40525">
        <ele>226.8</ele>
        <time>2011-07-02T08:03:59Z</time>
      </trkpt>
      <trkpt lat="49.0467" lon="0.40513">
        <ele>228.2</ele>
        <time>2011-07-02T08:04:03Z</time>
      </trkpt>
      <trkpt lat="49.04652" lon="0.405">
        <ele>228.9</ele>
        <time>2011-07-02T08:04:06Z</time>
      </trkpt>
      <trkpt lat="49.04628" lon="0.40487">
        <ele>229.2</ele>
        <time>2011-07-02T08:04:10Z</time>
      </trkpt>
      <trkpt lat="49.04597" lon="0.40469">
        <ele>228.4</ele>
        <time>2011-07-02T08:04:15Z</time>
      </trkpt>
      <trkpt lat="49.04574" lon="0.40453">
        <ele>229.1</ele>
        <time>2011-07-02T08:04:19Z</time>
      </trkpt>
      <trkpt lat="49.04551" lon="0.40436">
        <ele>228.5</ele>
        <time>2011-07-02T08:04:23Z</time>
      </trkpt>
      <trkpt lat="49.04527" lon="0.4042">
        <ele>227.7</ele>
        <time>2011-07-02T08:04:27Z</time>
      </trkpt>
      <trkpt lat="49.04503" lon="0.40403">
        <ele>227.5</ele>
        <time>2011-07-02T08:04:31Z</time>
      </trkpt>
      <trkpt lat="49.04478" lon="0.40386">
        <ele>227.2</ele>
        <time>2011-07-02T08:04:35Z</time>
      </trkpt>
      <trkpt lat="49.04453" lon="0.40368">
        <ele>227</ele>
        <time>2011-07-02T08:04:39Z</time>
      </trkpt>
      <trkpt lat="49.0443" lon="0.4035">
        <ele>227.5</ele>
        <time>2011-07-02T08:04:43Z</time>
      </trkpt>
      <trkpt lat="49.04406" lon="0.40327">
        <ele>226.8</ele>
        <time>2011-07-02T08:04:47Z</time>
      </trkpt>
      <trkpt lat="49.04382" lon="0.40304">
        <ele>226.4</ele>
        <time>2011-07-02T08:04:51Z</time>
      </trkpt>
      <trkpt lat="49.04359" lon="0.40277">
        <ele>226.3</ele>
        <time>2011-07-02T08:04:55Z</time>
      </trkpt>
      <trkpt lat="49.04335" lon="0.4025">
        <ele>225.6</ele>
        <time>2011-07-02T08:04:59Z</time>
      </trkpt>
      <trkpt lat="49.04314" lon="0.40225">
        <ele>225.4</ele>
        <time>2011-07-02T08:05:03Z</time>
      </trkpt>
      <trkpt lat="49.04296" lon="0.40197">
        <ele>224.3</ele>
        <time>2011-07-02T08:05:07Z</time>
      </trkpt>
      <trkpt lat="49.04277" lon="0.40167">
        <ele>224</ele>
        <time>2011-07-02T08:05:11Z</time>
      </trkpt>
      <trkpt lat="49.04257" lon="0.40133">
        <ele>224.8</ele>
        <time>2011-07-02T08:05:15Z</time>
      </trkpt>
      <trkpt lat="49.04238" lon="0.40099">
        <ele>224.6</ele>
        <time>2011-07-02T08:05:19Z</time>
      </trkpt>
      <trkpt lat="49.04224" lon="0.4007">
        <ele>224.4</ele>
        <time>2011-07-02T08:05:22Z</time>
      </trkpt>
      <trkpt lat="49.04202" lon="0.40028">
        <ele>225.6</ele>
        <time>2011-07-02T08:05:27Z</time>
      </trkpt>
      <trkpt lat="49.04186" lon="0.39991">
        <ele>225.5</ele>
        <time>2011-07-02T08:05:31Z</time>
      </trkpt>
      <trkpt lat="49.04172" lon="0.39945">
        <ele>223.8</ele>
        <time>2011-07-02T08:05:35Z</time>
      </trkpt>
      <trkpt lat="49.04163" lon="0.39894">
        <ele>223.4</ele>
        <time>2011-07-02T08:05:39Z</time>
      </trkpt>
      <trkpt lat="49.04154" lon="0.39845">
        <ele>222.3</ele>
        <time>2011-07-02T08:05:43Z</time>
      </trkpt>
      <trkpt lat="49.04149" lon="0.39796">
        <ele>221.2</ele>
        <time>2011-07-02T08:05:47Z</time>
      </trkpt>
      <trkpt lat="49.04142" lon="0.39745">
        <ele>221.5</ele>
        <time>2011-07-02T08:05:51Z</time>
      </trkpt>
      <trkpt lat="49.04135" lon="0.39698">
        <ele>220.7</ele>
        <time>2011-07-02T08:05:55Z</time>
      </trkpt>
      <trkpt lat="49.04133" lon="0.3966">
        <ele>220.4</ele>
        <time>2011-07-02T08:05:59Z</time>
      </trkpt>
      <trkpt lat="49.04134" lon="0.39632">
        <ele>220.5</ele>
        <time>2011-07-02T08:06:03Z</time>
      </trkpt>
      <trkpt lat="49.04141" lon="0.39599">
        <ele>219.5</ele>
        <time>2011-07-02T08:06:06Z</time>
      </trkpt>
      <trkpt lat="49.04157" lon="0.39533">
        <ele>217.1</ele>
        <time>2011-07-02T08:06:11Z</time>
      </trkpt>
      <trkpt lat="49.0417" lon="0.39479">
        <ele>217</ele>
        <time>2011-07-02T08:06:15Z</time>
      </trkpt>
      <trkpt lat="49.04174" lon="0.39422">
        <ele>218</ele>
        <time>2011-07-02T08:06:19Z</time>
      </trkpt>
      <trkpt lat="49.04166" lon="0.39362">
        <ele>218.6</ele>
        <time>2011-07-02T08:06:23Z</time>
      </trkpt>
      <trkpt lat="49.04159" lon="0.393">
        <ele>218</ele>
        <time>2011-07-02T08:06:27Z</time>
      </trkpt>
      <trkpt lat="49.04157" lon="0.39216">
        <ele>215.7</ele>
        <time>2011-07-02T08:06:31Z</time>
      </trkpt>
      <trkpt lat="49.04157" lon="0.39143">
        <ele>214.6</ele>
        <time>2011-07-02T08:06:35Z</time>
      </trkpt>
      <trkpt lat="49.04161" lon="0.39078">
        <ele>214</ele>
        <time>2011-07-02T08:06:39Z</time>
      </trkpt>
      <trkpt lat="49.04156" lon="0.39033">
        <ele>212.7</ele>
        <time>2011-07-02T08:06:42Z</time>
      </trkpt>
      <trkpt lat="49.04124" lon="0.38988">
        <ele>212.3</ele>
        <time>2011-07-02T08:06:47Z</time>
      </trkpt>
      <trkpt lat="49.0409" lon="0.38986">
        <ele>209.6</ele>
        <time>2011-07-02T08:06:51Z</time>
      </trkpt>
      <trkpt lat="49.04054" lon="0.3901">
        <ele>207.6</ele>
        <time>2011-07-02T08:06:55Z</time>
      </trkpt>
      <trkpt lat="49.04016" lon="0.39041">
        <ele>206.3</ele>
        <time>2011-07-02T08:06:59Z</time>
      </trkpt>
      <trkpt lat="49.03977" lon="0.39071">
        <ele>205.4</ele>
        <time>2011-07-02T08:07:03Z</time>
      </trkpt>
      <trkpt lat="49.03936" lon="0.3909">
        <ele>206.1</ele>
        <time>2011-07-02T08:07:07Z</time>
      </trkpt>
      <trkpt lat="49.03895" lon="0.39108">
        <ele>204.5</ele>
        <time>2011-07-02T08:07:11Z</time>
      </trkpt>
      <trkpt lat="49.03851" lon="0.39122">
        <ele>204.6</ele>
        <time>2011-07-02T08:07:15Z</time>
      </trkpt>
      <trkpt lat="49.03808" lon="0.39113">
        <ele>207</ele>
        <time>2011-07-02T08:07:19Z</time>
      </trkpt>
      <trkpt lat="49.03773" lon="0.39051">
        <ele>196.9</ele>
        <time>2011-07-02T08:07:23Z</time>
      </trkpt>
      <trkpt lat="49.03738" lon="0.38998">
        <ele>191.5</ele>
        <time>2011-07-02T08:07:27Z</time>
      </trkpt>
      <trkpt lat="49.03702" lon="0.3895">
        <ele>189.5</ele>
        <time>2011-07-02T08:07:31Z</time>
      </trkpt>
      <trkpt lat="49.03666" lon="0.3891">
        <ele>187</ele>
        <time>2011-07-02T08:07:35Z</time>
      </trkpt>
      <trkpt lat="49.03628" lon="0.38866">
        <ele>185.5</ele>
        <time>2011-07-02T08:07:39Z</time>
      </trkpt>
      <trkpt lat="49.03584" lon="0.38825">
        <ele>183.7</ele>
        <time>2011-07-02T08:07:43Z</time>
      </trkpt>
      <trkpt lat="49.0354" lon="0.38787">
        <ele>183.1</ele>
        <time>2011-07-02T08:07:47Z</time>
      </trkpt>
      <trkpt lat="49.03493" lon="0.38755">
        <ele>183.1</ele>
        <time>2011-07-02T08:07:51Z</time>
      </trkpt>
      <trkpt lat="49.03455" lon="0.38732">
        <ele>183.2</ele>
        <time>2011-07-02T08:07:55Z</time>
      </trkpt>
      <trkpt lat="49.03412" lon="0.38707">
        <ele>183.3</ele>
        <time>2011-07-02T08:07:59Z</time>
      </trkpt>
      <trkpt lat="49.03376" lon="0.38659">
        <ele>179</ele>
        <time>2011-07-02T08:08:03Z</time>
      </trkpt>
      <trkpt lat="49.03348" lon="0.38624">
        <ele>174.4</ele>
        <time>2011-07-02T08:08:07Z</time>
      </trkpt>
      <trkpt lat="49.03342" lon="0.3862">
        <ele>173.5</ele>
        <time>2011-07-02T08:08:08Z</time>
      </trkpt>
      <trkpt lat="49.03336" lon="0.38587">
        <ele>166.7</ele>
        <time>2011-07-02T08:08:15Z</time>
      </trkpt>
      <trkpt lat="49.03348" lon="0.38571">
        <ele>165.7</ele>
        <time>2011-07-02T08:08:19Z</time>
      </trkpt>
      <trkpt lat="49.03363" lon="0.38555">
        <ele>165.6</ele>
        <time>2011-07-02T08:08:23Z</time>
      </trkpt>
      <trkpt lat="49.03376" lon="0.38537">
        <ele>165.9</ele>
        <time>2011-07-02T08:08:27Z</time>
      </trkpt>
      <trkpt lat="49.03388" lon="0.38524">
        <ele>165.9</ele>
        <time>2011-07-02T08:08:31Z</time>
      </trkpt>
      <trkpt lat="49.03401" lon="0.38508">
        <ele>165.4</ele>
        <time>2011-07-02T08:08:35Z</time>
      </trkpt>
      <trkpt lat="49.03418" lon="0.38486">
        <ele>166.8</ele>
        <time>2011-07-02T08:08:39Z</time>
      </trkpt>
      <trkpt lat="49.03441" lon="0.38467">
        <ele>165.3</ele>
        <time>2011-07-02T08:08:43Z</time>
      </trkpt>
      <trkpt lat="49.03466" lon="0.38439">
        <ele>161.3</ele>
        <time>2011-07-02T08:08:47Z</time>
      </trkpt>
      <trkpt lat="49.0349" lon="0.38418">
        <ele>160.5</ele>
        <time>2011-07-02T08:08:51Z</time>
      </trkpt>
      <trkpt lat="49.03516" lon="0.38398">
        <ele>159.6</ele>
        <time>2011-07-02T08:08:55Z</time>
      </trkpt>
      <trkpt lat="49.03539" lon="0.38375">
        <ele>158.8</ele>
        <time>2011-07-02T08:08:59Z</time>
      </trkpt>
      <trkpt lat="49.03562" lon="0.38354">
        <ele>157.2</ele>
        <time>2011-07-02T08:09:03Z</time>
      </trkpt>
      <trkpt lat="49.03573" lon="0.38343">
        <ele>156.6</ele>
        <time>2011-07-02T08:09:05Z</time>
      </trkpt>
      <trkpt lat="49.03606" lon="0.38309">
        <ele>155.5</ele>
        <time>2011-07-02T08:09:11Z</time>
      </trkpt>
      <trkpt lat="49.03627" lon="0.38283">
        <ele>154.4</ele>
        <time>2011-07-02T08:09:15Z</time>
      </trkpt>
      <trkpt lat="49.03652" lon="0.3826">
        <ele>153.9</ele>
        <time>2011-07-02T08:09:19Z</time>
      </trkpt>
      <trkpt lat="49.03678" lon="0.38234">
        <ele>154.1</ele>
        <time>2011-07-02T08:09:23Z</time>
      </trkpt>
      <trkpt lat="49.03702" lon="0.3821">
        <ele>154.4</ele>
        <time>2011-07-02T08:09:27Z</time>
      </trkpt>
      <trkpt lat="49.03721" lon="0.38189">
        <ele>155.1</ele>
        <time>2011-07-02T08:09:30Z</time>
      </trkpt>
      <trkpt lat="49.03755" lon="0.38158">
        <ele>154.2</ele>
        <time>2011-07-02T08:09:35Z</time>
      </trkpt>
      <trkpt lat="49.03777" lon="0.38131">
        <ele>154.1</ele>
        <time>2011-07-02T08:09:39Z</time>
      </trkpt>
      <trkpt lat="49.03801" lon="0.38105">
        <ele>154.6</ele>
        <time>2011-07-02T08:09:43Z</time>
      </trkpt>
      <trkpt lat="49.03826" lon="0.3808">
        <ele>153.8</ele>
        <time>2011-07-02T08:09:47Z</time>
      </trkpt>
      <trkpt lat="49.03851" lon="0.38055">
        <ele>153.6</ele>
        <time>2011-07-02T08:09:51Z</time>
      </trkpt>
      <trkpt lat="49.03872" lon="0.38029">
        <ele>153.2</ele>
        <time>2011-07-02T08:09:55Z</time>
      </trkpt>
      <trkpt lat="49.03892" lon="0.3801">
        <ele>154.6</ele>
        <time>2011-07-02T08:09:58Z</time>
      </trkpt>
      <trkpt lat="49.03922" lon="0.37979">
        <ele>154.7</ele>
        <time>2011-07-02T08:10:03Z</time>
      </trkpt>
      <trkpt lat="49.03946" lon="0.37952">
        <ele>156.4</ele>
        <time>2011-07-02T08:10:07Z</time>
      </trkpt>
      <trkpt lat="49.03968" lon="0.37928">
        <ele>155.9</ele>
        <time>2011-07-02T08:10:11Z</time>
      </trkpt>
      <trkpt lat="49.03992" lon="0.37902">
        <ele>156.7</ele>
        <time>2011-07-02T08:10:15Z</time>
      </trkpt>
      <trkpt lat="49.04016" lon="0.37877">
        <ele>157</ele>
        <time>2011-07-02T08:10:19Z</time>
      </trkpt>
      <trkpt lat="49.04042" lon="0.37851">
        <ele>156.7</ele>
        <time>2011-07-02T08:10:23Z</time>
      </trkpt>
      <trkpt lat="49.04067" lon="0.37825">
        <ele>155.9</ele>
        <time>2011-07-02T08:10:27Z</time>
      </trkpt>
      <trkpt lat="49.04092" lon="0.37798">
        <ele>155.3</ele>
        <time>2011-07-02T08:10:31Z</time>
      </trkpt>
      <trkpt lat="49.04118" lon="0.37771">
        <ele>156</ele>
        <time>2011-07-02T08:10:35Z</time>
      </trkpt>
      <trkpt lat="49.0414" lon="0.37742">
        <ele>156.4</ele>
        <time>2011-07-02T08:10:39Z</time>
      </trkpt>
      <trkpt lat="49.04163" lon="0.37711">
        <ele>157</ele>
        <time>2011-07-02T08:10:43Z</time>
      </trkpt>
      <trkpt lat="49.04185" lon="0.37675">
        <ele>156.6</ele>
        <time>2011-07-02T08:10:47Z</time>
      </trkpt>
      <trkpt lat="49.04209" lon="0.37636">
        <ele>155.1</ele>
        <time>2011-07-02T08:10:51Z</time>
      </trkpt>
      <trkpt lat="49.0423" lon="0.37598">
        <ele>154.2</ele>
        <time>2011-07-02T08:10:55Z</time>
      </trkpt>
      <trkpt lat="49.04252" lon="0.37558">
        <ele>153.9</ele>
        <time>2011-07-02T08:10:59Z</time>
      </trkpt>
      <trkpt lat="49.04274" lon="0.37517">
        <ele>152.8</ele>
        <time>2011-07-02T08:11:03Z</time>
      </trkpt>
      <trkpt lat="49.04296" lon="0.37474">
        <ele>152.7</ele>
        <time>2011-07-02T08:11:07Z</time>
      </trkpt>
      <trkpt lat="49.04319" lon="0.37433">
        <ele>152.6</ele>
        <time>2011-07-02T08:11:11Z</time>
      </trkpt>
      <trkpt lat="49.04341" lon="0.37391">
        <ele>151.2</ele>
        <time>2011-07-02T08:11:15Z</time>
      </trkpt>
      <trkpt lat="49.04363" lon="0.37351">
        <ele>149</ele>
        <time>2011-07-02T08:11:19Z</time>
      </trkpt>
      <trkpt lat="49.04385" lon="0.3731">
        <ele>145.8</ele>
        <time>2011-07-02T08:11:23Z</time>
      </trkpt>
      <trkpt lat="49.04404" lon="0.37273">
        <ele>145.3</ele>
        <time>2011-07-02T08:11:27Z</time>
      </trkpt>
      <trkpt lat="49.04424" lon="0.37237">
        <ele>144.9</ele>
        <time>2011-07-02T08:11:31Z</time>
      </trkpt>
      <trkpt lat="49.04443" lon="0.37201">
        <ele>145.2</ele>
        <time>2011-07-02T08:11:35Z</time>
      </trkpt>
      <trkpt lat="49.04462" lon="0.37164">
        <ele>145.5</ele>
        <time>2011-07-02T08:11:39Z</time>
      </trkpt>
      <trkpt lat="49.0448" lon="0.37127">
        <ele>146.1</ele>
        <time>2011-07-02T08:11:43Z</time>
      </trkpt>
      <trkpt lat="49.045" lon="0.3709">
        <ele>148</ele>
        <time>2011-07-02T08:11:47Z</time>
      </trkpt>
      <trkpt lat="49.0452" lon="0.37055">
        <ele>146.1</ele>
        <time>2011-07-02T08:11:51Z</time>
      </trkpt>
      <trkpt lat="49.04534" lon="0.37029">
        <ele>145.5</ele>
        <time>2011-07-02T08:11:54Z</time>
      </trkpt>
      <trkpt lat="49.04557" lon="0.36985">
        <ele>144.7</ele>
        <time>2011-07-02T08:11:59Z</time>
      </trkpt>
      <trkpt lat="49.04579" lon="0.36946">
        <ele>144.3</ele>
        <time>2011-07-02T08:12:03Z</time>
      </trkpt>
      <trkpt lat="49.04599" lon="0.36904">
        <ele>143.8</ele>
        <time>2011-07-02T08:12:07Z</time>
      </trkpt>
      <trkpt lat="49.04654" lon="0.36803">
        <ele>143.1</ele>
        <time>2011-07-02T08:12:11Z</time>
      </trkpt>
      <trkpt lat="49.04668" lon="0.36776">
        <ele>142.9</ele>
        <time>2011-07-02T08:12:14Z</time>
      </trkpt>
      <trkpt lat="49.04691" lon="0.36738">
        <ele>140.7</ele>
        <time>2011-07-02T08:12:18Z</time>
      </trkpt>
      <trkpt lat="49.04721" lon="0.36694">
        <ele>139.7</ele>
        <time>2011-07-02T08:12:23Z</time>
      </trkpt>
      <trkpt lat="49.04748" lon="0.36666">
        <ele>140.1</ele>
        <time>2011-07-02T08:12:27Z</time>
      </trkpt>
      <trkpt lat="49.04778" lon="0.36642">
        <ele>140</ele>
        <time>2011-07-02T08:12:31Z</time>
      </trkpt>
      <trkpt lat="49.04807" lon="0.36619">
        <ele>139.5</ele>
        <time>2011-07-02T08:12:35Z</time>
      </trkpt>
      <trkpt lat="49.04831" lon="0.36596">
        <ele>139.6</ele>
        <time>2011-07-02T08:12:39Z</time>
      </trkpt>
      <trkpt lat="49.04855" lon="0.36569">
        <ele>140</ele>
        <time>2011-07-02T08:12:43Z</time>
      </trkpt>
      <trkpt lat="49.0488" lon="0.36542">
        <ele>139.3</ele>
        <time>2011-07-02T08:12:47Z</time>
      </trkpt>
      <trkpt lat="49.04902" lon="0.36515">
        <ele>140.2</ele>
        <time>2011-07-02T08:12:51Z</time>
      </trkpt>
      <trkpt lat="49.04919" lon="0.36491">
        <ele>140.5</ele>
        <time>2011-07-02T08:12:54Z</time>
      </trkpt>
      <trkpt lat="49.04949" lon="0.36448">
        <ele>140.2</ele>
        <time>2011-07-02T08:12:59Z</time>
      </trkpt>
      <trkpt lat="49.04969" lon="0.36413">
        <ele>141.6</ele>
        <time>2011-07-02T08:13:03Z</time>
      </trkpt>
      <trkpt lat="49.04984" lon="0.36389">
        <ele>141</ele>
        <time>2011-07-02T08:13:06Z</time>
      </trkpt>
      <trkpt lat="49.05009" lon="0.36349">
        <ele>141.9</ele>
        <time>2011-07-02T08:13:11Z</time>
      </trkpt>
      <trkpt lat="49.05034" lon="0.36319">
        <ele>141.7</ele>
        <time>2011-07-02T08:13:15Z</time>
      </trkpt>
      <trkpt lat="49.0505" lon="0.36297">
        <ele>140.5</ele>
        <time>2011-07-02T08:13:18Z</time>
      </trkpt>
      <trkpt lat="49.05079" lon="0.36257">
        <ele>138.1</ele>
        <time>2011-07-02T08:13:23Z</time>
      </trkpt>
      <trkpt lat="49.05101" lon="0.36223">
        <ele>138.7</ele>
        <time>2011-07-02T08:13:27Z</time>
      </trkpt>
      <trkpt lat="49.05121" lon="0.36192">
        <ele>139.2</ele>
        <time>2011-07-02T08:13:31Z</time>
      </trkpt>
      <trkpt lat="49.05137" lon="0.36169">
        <ele>138.9</ele>
        <time>2011-07-02T08:13:34Z</time>
      </trkpt>
      <trkpt lat="49.05163" lon="0.36125">
        <ele>138.9</ele>
        <time>2011-07-02T08:13:39Z</time>
      </trkpt>
      <trkpt lat="49.05182" lon="0.36088">
        <ele>137.8</ele>
        <time>2011-07-02T08:13:43Z</time>
      </trkpt>
      <trkpt lat="49.05198" lon="0.36047">
        <ele>138.4</ele>
        <time>2011-07-02T08:13:47Z</time>
      </trkpt>
      <trkpt lat="49.05211" lon="0.36006">
        <ele>137.9</ele>
        <time>2011-07-02T08:13:51Z</time>
      </trkpt>
      <trkpt lat="49.05222" lon="0.35964">
        <ele>137.6</ele>
        <time>2011-07-02T08:13:55Z</time>
      </trkpt>
      <trkpt lat="49.05231" lon="0.35922">
        <ele>138.6</ele>
        <time>2011-07-02T08:13:59Z</time>
      </trkpt>
      <trkpt lat="49.0524" lon="0.35875">
        <ele>138.3</ele>
        <time>2011-07-02T08:14:03Z</time>
      </trkpt>
      <trkpt lat="49.05251" lon="0.35832">
        <ele>136.5</ele>
        <time>2011-07-02T08:14:07Z</time>
      </trkpt>
      <trkpt lat="49.0526" lon="0.35784">
        <ele>136.8</ele>
        <time>2011-07-02T08:14:11Z</time>
      </trkpt>
      <trkpt lat="49.05269" lon="0.35737">
        <ele>135.4</ele>
        <time>2011-07-02T08:14:15Z</time>
      </trkpt>
      <trkpt lat="49.05279" lon="0.35694">
        <ele>134.6</ele>
        <time>2011-07-02T08:14:19Z</time>
      </trkpt>
      <trkpt lat="49.05289" lon="0.3565">
        <ele>135.7</ele>
        <time>2011-07-02T08:14:23Z</time>
      </trkpt>
      <trkpt lat="49.05299" lon="0.35612">
        <ele>136.4</ele>
        <time>2011-07-02T08:14:27Z</time>
      </trkpt>
      <trkpt lat="49.05309" lon="0.35581">
        <ele>136.1</ele>
        <time>2011-07-02T08:14:31Z</time>
      </trkpt>
      <trkpt lat="49.05321" lon="0.35556">
        <ele>137.6</ele>
        <time>2011-07-02T08:14:35Z</time>
      </trkpt>
      <trkpt lat="49.05328" lon="0.35544">
        <ele>138</ele>
        <time>2011-07-02T08:14:37Z</time>
      </trkpt>
      <trkpt lat="49.05344" lon="0.35505">
        <ele>139</ele>
        <time>2011-07-02T08:14:43Z</time>
      </trkpt>
      <trkpt lat="49.05353" lon="0.35481">
        <ele>140.8</ele>
        <time>2011-07-02T08:14:46Z</time>
      </trkpt>
      <trkpt lat="49.05368" lon="0.35457">
        <ele>141.8</ele>
        <time>2011-07-02T08:14:50Z</time>
      </trkpt>
      <trkpt lat="49.05385" lon="0.35435">
        <ele>141.4</ele>
        <time>2011-07-02T08:14:54Z</time>
      </trkpt>
      <trkpt lat="49.05399" lon="0.35414">
        <ele>142</ele>
        <time>2011-07-02T08:14:58Z</time>
      </trkpt>
      <trkpt lat="49.05412" lon="0.35394">
        <ele>143.1</ele>
        <time>2011-07-02T08:15:02Z</time>
      </trkpt>
      <trkpt lat="49.05424" lon="0.35373">
        <ele>146.4</ele>
        <time>2011-07-02T08:15:06Z</time>
      </trkpt>
      <trkpt lat="49.05438" lon="0.35352">
        <ele>147.3</ele>
        <time>2011-07-02T08:15:10Z</time>
      </trkpt>
      <trkpt lat="49.05454" lon="0.35329">
        <ele>146.6</ele>
        <time>2011-07-02T08:15:14Z</time>
      </trkpt>
      <trkpt lat="49.0547" lon="0.35305">
        <ele>146.1</ele>
        <time>2011-07-02T08:15:18Z</time>
      </trkpt>
      <trkpt lat="49.05485" lon="0.35281">
        <ele>146.6</ele>
        <time>2011-07-02T08:15:22Z</time>
      </trkpt>
      <trkpt lat="49.05503" lon="0.35256">
        <ele>146.3</ele>
        <time>2011-07-02T08:15:26Z</time>
      </trkpt>
      <trkpt lat="49.05525" lon="0.35222">
        <ele>145.9</ele>
        <time>2011-07-02T08:15:31Z</time>
      </trkpt>
      <trkpt lat="49.05543" lon="0.35194">
        <ele>146.5</ele>
        <time>2011-07-02T08:15:35Z</time>
      </trkpt>
      <trkpt lat="49.05561" lon="0.35166">
        <ele>146.8</ele>
        <time>2011-07-02T08:15:39Z</time>
      </trkpt>
      <trkpt lat="49.0558" lon="0.35137">
        <ele>147.1</ele>
        <time>2011-07-02T08:15:43Z</time>
      </trkpt>
      <trkpt lat="49.05597" lon="0.3511">
        <ele>147.2</ele>
        <time>2011-07-02T08:15:47Z</time>
      </trkpt>
      <trkpt lat="49.0561" lon="0.3509">
        <ele>148</ele>
        <time>2011-07-02T08:15:50Z</time>
      </trkpt>
      <trkpt lat="49.05633" lon="0.35057">
        <ele>147.3</ele>
        <time>2011-07-02T08:15:55Z</time>
      </trkpt>
      <trkpt lat="49.05652" lon="0.35029">
        <ele>147.8</ele>
        <time>2011-07-02T08:15:59Z</time>
      </trkpt>
      <trkpt lat="49.05672" lon="0.34999">
        <ele>148</ele>
        <time>2011-07-02T08:16:03Z</time>
      </trkpt>
      <trkpt lat="49.0569" lon="0.34969">
        <ele>147.8</ele>
        <time>2011-07-02T08:16:07Z</time>
      </trkpt>
      <trkpt lat="49.05708" lon="0.34937">
        <ele>147.5</ele>
        <time>2011-07-02T08:16:11Z</time>
      </trkpt>
      <trkpt lat="49.05728" lon="0.34907">
        <ele>147.3</ele>
        <time>2011-07-02T08:16:15Z</time>
      </trkpt>
      <trkpt lat="49.05748" lon="0.34876">
        <ele>147.5</ele>
        <time>2011-07-02T08:16:19Z</time>
      </trkpt>
      <trkpt lat="49.05769" lon="0.34844">
        <ele>147.1</ele>
        <time>2011-07-02T08:16:23Z</time>
      </trkpt>
      <trkpt lat="49.05791" lon="0.3481">
        <ele>147.9</ele>
        <time>2011-07-02T08:16:27Z</time>
      </trkpt>
      <trkpt lat="49.0581" lon="0.34779">
        <ele>148.7</ele>
        <time>2011-07-02T08:16:31Z</time>
      </trkpt>
      <trkpt lat="49.05828" lon="0.34751">
        <ele>149.2</ele>
        <time>2011-07-02T08:16:35Z</time>
      </trkpt>
      <trkpt lat="49.05847" lon="0.34722">
        <ele>150</ele>
        <time>2011-07-02T08:16:39Z</time>
      </trkpt>
      <trkpt lat="49.05866" lon="0.34693">
        <ele>150.1</ele>
        <time>2011-07-02T08:16:43Z</time>
      </trkpt>
      <trkpt lat="49.05886" lon="0.34663">
        <ele>150.5</ele>
        <time>2011-07-02T08:16:47Z</time>
      </trkpt>
      <trkpt lat="49.05907" lon="0.34631">
        <ele>150.8</ele>
        <time>2011-07-02T08:16:51Z</time>
      </trkpt>
      <trkpt lat="49.05942" lon="0.34576">
        <ele>150</ele>
        <time>2011-07-02T08:17:04Z</time>
      </trkpt>
      <trkpt lat="49.05962" lon="0.34545">
        <ele>150.8</ele>
        <time>2011-07-02T08:17:08Z</time>
      </trkpt>
      <trkpt lat="49.05977" lon="0.34522">
        <ele>150.4</ele>
        <time>2011-07-02T08:17:11Z</time>
      </trkpt>
      <trkpt lat="49.06005" lon="0.3448">
        <ele>149.2</ele>
        <time>2011-07-02T08:17:16Z</time>
      </trkpt>
      <trkpt lat="49.06026" lon="0.34448">
        <ele>149.1</ele>
        <time>2011-07-02T08:17:20Z</time>
      </trkpt>
      <trkpt lat="49.06047" lon="0.34415">
        <ele>149.9</ele>
        <time>2011-07-02T08:17:24Z</time>
      </trkpt>
      <trkpt lat="49.06067" lon="0.34383">
        <ele>149.8</ele>
        <time>2011-07-02T08:17:28Z</time>
      </trkpt>
      <trkpt lat="49.0609" lon="0.34348">
        <ele>149.7</ele>
        <time>2011-07-02T08:17:32Z</time>
      </trkpt>
      <trkpt lat="49.06111" lon="0.34315">
        <ele>150.2</ele>
        <time>2011-07-02T08:17:36Z</time>
      </trkpt>
      <trkpt lat="49.06133" lon="0.34282">
        <ele>150</ele>
        <time>2011-07-02T08:17:40Z</time>
      </trkpt>
      <trkpt lat="49.06154" lon="0.34248">
        <ele>150.1</ele>
        <time>2011-07-02T08:17:44Z</time>
      </trkpt>
      <trkpt lat="49.06176" lon="0.34214">
        <ele>150.3</ele>
        <time>2011-07-02T08:17:48Z</time>
      </trkpt>
      <trkpt lat="49.06198" lon="0.34184">
        <ele>149.3</ele>
        <time>2011-07-02T08:17:52Z</time>
      </trkpt>
      <trkpt lat="49.06223" lon="0.34147">
        <ele>149.2</ele>
        <time>2011-07-02T08:17:56Z</time>
      </trkpt>
      <trkpt lat="49.06245" lon="0.3411">
        <ele>148.6</ele>
        <time>2011-07-02T08:18:00Z</time>
      </trkpt>
      <trkpt lat="49.06269" lon="0.34072">
        <ele>147.1</ele>
        <time>2011-07-02T08:18:04Z</time>
      </trkpt>
      <trkpt lat="49.06294" lon="0.34034">
        <ele>146.6</ele>
        <time>2011-07-02T08:18:08Z</time>
      </trkpt>
      <trkpt lat="49.06317" lon="0.33998">
        <ele>146.2</ele>
        <time>2011-07-02T08:18:12Z</time>
      </trkpt>
      <trkpt lat="49.06343" lon="0.33962">
        <ele>146.2</ele>
        <time>2011-07-02T08:18:16Z</time>
      </trkpt>
      <trkpt lat="49.06365" lon="0.33927">
        <ele>146.1</ele>
        <time>2011-07-02T08:18:20Z</time>
      </trkpt>
      <trkpt lat="49.06378" lon="0.33903">
        <ele>145.5</ele>
        <time>2011-07-02T08:18:23Z</time>
      </trkpt>
      <trkpt lat="49.06388" lon="0.33892">
        <ele>144.9</ele>
        <time>2011-07-02T08:18:26Z</time>
      </trkpt>
      <trkpt lat="49.06402" lon="0.33875">
        <ele>145.2</ele>
        <time>2011-07-02T08:18:32Z</time>
      </trkpt>
      <trkpt lat="49.06408" lon="0.33868">
        <ele>145.2</ele>
        <time>2011-07-02T08:18:36Z</time>
      </trkpt>
      <trkpt lat="49.06414" lon="0.33857">
        <ele>144.2</ele>
        <time>2011-07-02T08:18:40Z</time>
      </trkpt>
      <trkpt lat="49.06414" lon="0.33857">
        <ele>91.6</ele>
        <time>2011-07-02T08:18:51Z</time>
      </trkpt>
      <trkpt lat="49.06414" lon="0.33857">
        <ele>91.6</ele>
        <time>2011-07-02T08:19:42Z</time>
      </trkpt>
      <trkpt lat="49.06429" lon="0.33873">
        <ele>143.9</ele>
        <time>2011-07-02T08:19:46Z</time>
      </trkpt>
      <trkpt lat="49.06429" lon="0.33873">
        <ele>93.3</ele>
        <time>2011-07-02T08:19:57Z</time>
      </trkpt>
      <trkpt lat="49.06429" lon="0.33873">
        <ele>93.3</ele>
        <time>2011-07-02T08:20:37Z</time>
      </trkpt>
      <trkpt lat="49.06437" lon="0.33888">
        <ele>145.1</ele>
        <time>2011-07-02T08:20:40Z</time>
      </trkpt>
      <trkpt lat="49.06438" lon="0.33898">
        <ele>144.1</ele>
        <time>2011-07-02T08:20:46Z</time>
      </trkpt>
      <trkpt lat="49.06438" lon="0.33898">
        <ele>94.5</ele>
        <time>2011-07-02T08:20:57Z</time>
      </trkpt>
      <trkpt lat="49.06438" lon="0.33898">
        <ele>94.5</ele>
        <time>2011-07-02T08:22:00Z</time>
      </trkpt>
      <trkpt lat="49.06438" lon="0.33898">
        <ele>94.5</ele>
        <time>2011-07-02T08:22:11Z</time>
      </trkpt>
      <trkpt lat="49.06438" lon="0.33898">
        <ele>94.5</ele>
        <time>2011-07-02T08:40:39Z</time>
      </trkpt>
      <trkpt lat="49.06438" lon="0.33898">
        <ele>94.5</ele>
        <time>2011-07-02T08:40:51Z</time>
      </trkpt>
      <trkpt lat="49.06438" lon="0.33898">
        <ele>94.5</ele>
        <time>2011-07-02T08:41:11Z</time>
      </trkpt>
      <trkpt lat="49.06422" lon="0.33843">
        <ele>131.8</ele>
        <time>2011-07-02T08:41:14Z</time>
      </trkpt>
      <trkpt lat="49.06429" lon="0.33826">
        <ele>131.4</ele>
        <time>2011-07-02T08:41:18Z</time>
      </trkpt>
      <trkpt lat="49.06443" lon="0.33806">
        <ele>132.9</ele>
        <time>2011-07-02T08:41:23Z</time>
      </trkpt>
      <trkpt lat="49.0646" lon="0.33782">
        <ele>132.6</ele>
        <time>2011-07-02T08:41:27Z</time>
      </trkpt>
      <trkpt lat="49.0648" lon="0.33754">
        <ele>132</ele>
        <time>2011-07-02T08:41:31Z</time>
      </trkpt>
      <trkpt lat="49.06492" lon="0.33731">
        <ele>132</ele>
        <time>2011-07-02T08:41:34Z</time>
      </trkpt>
      <trkpt lat="49.06506" lon="0.33708">
        <ele>132.2</ele>
        <time>2011-07-02T08:41:39Z</time>
      </trkpt>
      <trkpt lat="49.06527" lon="0.33675">
        <ele>133.4</ele>
        <time>2011-07-02T08:41:44Z</time>
      </trkpt>
      <trkpt lat="49.0654" lon="0.33653">
        <ele>134.6</ele>
        <time>2011-07-02T08:41:47Z</time>
      </trkpt>
      <trkpt lat="49.06549" lon="0.3364">
        <ele>134.2</ele>
        <time>2011-07-02T08:41:48Z</time>
      </trkpt>
      <trkpt lat="49.06578" lon="0.33593">
        <ele>134.3</ele>
        <time>2011-07-02T08:41:56Z</time>
      </trkpt>
      <trkpt lat="49.06597" lon="0.33564">
        <ele>133</ele>
        <time>2011-07-02T08:41:59Z</time>
      </trkpt>
      <trkpt lat="49.06618" lon="0.33536">
        <ele>133.3</ele>
        <time>2011-07-02T08:42:03Z</time>
      </trkpt>
      <trkpt lat="49.06637" lon="0.33507">
        <ele>134.7</ele>
        <time>2011-07-02T08:42:08Z</time>
      </trkpt>
      <trkpt lat="49.06648" lon="0.33492">
        <ele>134.4</ele>
        <time>2011-07-02T08:42:09Z</time>
      </trkpt>
      <trkpt lat="49.06671" lon="0.3346">
        <ele>133.5</ele>
        <time>2011-07-02T08:42:14Z</time>
      </trkpt>
      <trkpt lat="49.06695" lon="0.3342">
        <ele>133.5</ele>
        <time>2011-07-02T08:42:19Z</time>
      </trkpt>
      <trkpt lat="49.06714" lon="0.3339">
        <ele>133.2</ele>
        <time>2011-07-02T08:42:23Z</time>
      </trkpt>
      <trkpt lat="49.06734" lon="0.33359">
        <ele>132.2</ele>
        <time>2011-07-02T08:42:27Z</time>
      </trkpt>
      <trkpt lat="49.06754" lon="0.33326">
        <ele>131.4</ele>
        <time>2011-07-02T08:42:31Z</time>
      </trkpt>
      <trkpt lat="49.06775" lon="0.33295">
        <ele>131.9</ele>
        <time>2011-07-02T08:42:36Z</time>
      </trkpt>
      <trkpt lat="49.06795" lon="0.33262">
        <ele>131</ele>
        <time>2011-07-02T08:42:39Z</time>
      </trkpt>
      <trkpt lat="49.06816" lon="0.33231">
        <ele>128.5</ele>
        <time>2011-07-02T08:42:43Z</time>
      </trkpt>
      <trkpt lat="49.06836" lon="0.332">
        <ele>127.8</ele>
        <time>2011-07-02T08:42:47Z</time>
      </trkpt>
      <trkpt lat="49.06856" lon="0.33171">
        <ele>130.7</ele>
        <time>2011-07-02T08:42:51Z</time>
      </trkpt>
      <trkpt lat="49.06873" lon="0.33144">
        <ele>131.1</ele>
        <time>2011-07-02T08:42:55Z</time>
      </trkpt>
      <trkpt lat="49.06887" lon="0.33123">
        <ele>131</ele>
        <time>2011-07-02T08:42:58Z</time>
      </trkpt>
      <trkpt lat="49.06906" lon="0.33095">
        <ele>130.8</ele>
        <time>2011-07-02T08:43:02Z</time>
      </trkpt>
      <trkpt lat="49.06932" lon="0.33055">
        <ele>130.3</ele>
        <time>2011-07-02T08:43:07Z</time>
      </trkpt>
      <trkpt lat="49.06946" lon="0.33032">
        <ele>131.1</ele>
        <time>2011-07-02T08:43:10Z</time>
      </trkpt>
      <trkpt lat="49.06971" lon="0.32994">
        <ele>133.6</ele>
        <time>2011-07-02T08:43:15Z</time>
      </trkpt>
      <trkpt lat="49.0699" lon="0.32966">
        <ele>133.3</ele>
        <time>2011-07-02T08:43:19Z</time>
      </trkpt>
      <trkpt lat="49.07004" lon="0.32945">
        <ele>132.8</ele>
        <time>2011-07-02T08:43:22Z</time>
      </trkpt>
      <trkpt lat="49.07033" lon="0.32911">
        <ele>134.4</ele>
        <time>2011-07-02T08:43:27Z</time>
      </trkpt>
      <trkpt lat="49.07054" lon="0.32886">
        <ele>135</ele>
        <time>2011-07-02T08:43:31Z</time>
      </trkpt>
      <trkpt lat="49.07075" lon="0.32865">
        <ele>134.3</ele>
        <time>2011-07-02T08:43:35Z</time>
      </trkpt>
      <trkpt lat="49.07097" lon="0.32842">
        <ele>134.6</ele>
        <time>2011-07-02T08:43:39Z</time>
      </trkpt>
      <trkpt lat="49.07112" lon="0.32827">
        <ele>136.1</ele>
        <time>2011-07-02T08:43:42Z</time>
      </trkpt>
      <trkpt lat="49.0713" lon="0.32809">
        <ele>136.5</ele>
        <time>2011-07-02T08:43:46Z</time>
      </trkpt>
      <trkpt lat="49.07148" lon="0.32791">
        <ele>135.9</ele>
        <time>2011-07-02T08:43:50Z</time>
      </trkpt>
      <trkpt lat="49.07166" lon="0.32771">
        <ele>135.7</ele>
        <time>2011-07-02T08:43:54Z</time>
      </trkpt>
      <trkpt lat="49.07185" lon="0.32751">
        <ele>136.6</ele>
        <time>2011-07-02T08:43:58Z</time>
      </trkpt>
      <trkpt lat="49.07203" lon="0.32735">
        <ele>137.6</ele>
        <time>2011-07-02T08:44:02Z</time>
      </trkpt>
      <trkpt lat="49.07227" lon="0.32711">
        <ele>138.5</ele>
        <time>2011-07-02T08:44:07Z</time>
      </trkpt>
      <trkpt lat="49.07246" lon="0.32691">
        <ele>139.2</ele>
        <time>2011-07-02T08:44:11Z</time>
      </trkpt>
      <trkpt lat="49.07264" lon="0.32671">
        <ele>139.3</ele>
        <time>2011-07-02T08:44:15Z</time>
      </trkpt>
      <trkpt lat="49.07279" lon="0.32656">
        <ele>140.2</ele>
        <time>2011-07-02T08:44:18Z</time>
      </trkpt>
      <trkpt lat="49.07304" lon="0.32631">
        <ele>140.9</ele>
        <time>2011-07-02T08:44:23Z</time>
      </trkpt>
      <trkpt lat="49.07325" lon="0.32609">
        <ele>141.8</ele>
        <time>2011-07-02T08:44:27Z</time>
      </trkpt>
      <trkpt lat="49.07346" lon="0.32587">
        <ele>141.8</ele>
        <time>2011-07-02T08:44:31Z</time>
      </trkpt>
      <trkpt lat="49.07368" lon="0.32565">
        <ele>140.8</ele>
        <time>2011-07-02T08:44:35Z</time>
      </trkpt>
      <trkpt lat="49.0739" lon="0.3254">
        <ele>141.3</ele>
        <time>2011-07-02T08:44:39Z</time>
      </trkpt>
      <trkpt lat="49.07415" lon="0.32516">
        <ele>141.7</ele>
        <time>2011-07-02T08:44:43Z</time>
      </trkpt>
      <trkpt lat="49.07436" lon="0.32492">
        <ele>143</ele>
        <time>2011-07-02T08:44:47Z</time>
      </trkpt>
      <trkpt lat="49.07452" lon="0.32477">
        <ele>142.6</ele>
        <time>2011-07-02T08:44:50Z</time>
      </trkpt>
      <trkpt lat="49.07477" lon="0.32451">
        <ele>141.6</ele>
        <time>2011-07-02T08:44:55Z</time>
      </trkpt>
      <trkpt lat="49.07501" lon="0.32428">
        <ele>141.1</ele>
        <time>2011-07-02T08:44:59Z</time>
      </trkpt>
      <trkpt lat="49.07525" lon="0.32404">
        <ele>141.5</ele>
        <time>2011-07-02T08:45:03Z</time>
      </trkpt>
      <trkpt lat="49.07548" lon="0.32377">
        <ele>141.5</ele>
        <time>2011-07-02T08:45:07Z</time>
      </trkpt>
      <trkpt lat="49.07573" lon="0.32353">
        <ele>140.6</ele>
        <time>2011-07-02T08:45:11Z</time>
      </trkpt>
      <trkpt lat="49.07597" lon="0.3233">
        <ele>140</ele>
        <time>2011-07-02T08:45:15Z</time>
      </trkpt>
      <trkpt lat="49.0762" lon="0.32302">
        <ele>139.7</ele>
        <time>2011-07-02T08:45:19Z</time>
      </trkpt>
      <trkpt lat="49.07645" lon="0.32277">
        <ele>138.8</ele>
        <time>2011-07-02T08:45:23Z</time>
      </trkpt>
      <trkpt lat="49.0767" lon="0.32252">
        <ele>139.2</ele>
        <time>2011-07-02T08:45:27Z</time>
      </trkpt>
      <trkpt lat="49.07695" lon="0.32227">
        <ele>139.3</ele>
        <time>2011-07-02T08:45:31Z</time>
      </trkpt>
      <trkpt lat="49.07722" lon="0.32203">
        <ele>138.8</ele>
        <time>2011-07-02T08:45:35Z</time>
      </trkpt>
      <trkpt lat="49.07741" lon="0.32184">
        <ele>138.7</ele>
        <time>2011-07-02T08:45:38Z</time>
      </trkpt>
      <trkpt lat="49.07773" lon="0.32152">
        <ele>136.2</ele>
        <time>2011-07-02T08:45:43Z</time>
      </trkpt>
      <trkpt lat="49.078" lon="0.32127">
        <ele>135.1</ele>
        <time>2011-07-02T08:45:47Z</time>
      </trkpt>
      <trkpt lat="49.07825" lon="0.32102">
        <ele>135.5</ele>
        <time>2011-07-02T08:45:51Z</time>
      </trkpt>
      <trkpt lat="49.0785" lon="0.32077">
        <ele>135.4</ele>
        <time>2011-07-02T08:45:55Z</time>
      </trkpt>
      <trkpt lat="49.07875" lon="0.3205">
        <ele>135.4</ele>
        <time>2011-07-02T08:45:59Z</time>
      </trkpt>
      <trkpt lat="49.07901" lon="0.32025">
        <ele>135.8</ele>
        <time>2011-07-02T08:46:03Z</time>
      </trkpt>
      <trkpt lat="49.07926" lon="0.32">
        <ele>135.3</ele>
        <time>2011-07-02T08:46:07Z</time>
      </trkpt>
      <trkpt lat="49.07951" lon="0.31974">
        <ele>133.8</ele>
        <time>2011-07-02T08:46:11Z</time>
      </trkpt>
      <trkpt lat="49.07976" lon="0.31946">
        <ele>133.8</ele>
        <time>2011-07-02T08:46:15Z</time>
      </trkpt>
      <trkpt lat="49.07995" lon="0.31927">
        <ele>134.6</ele>
        <time>2011-07-02T08:46:18Z</time>
      </trkpt>
      <trkpt lat="49.08029" lon="0.31897">
        <ele>132.4</ele>
        <time>2011-07-02T08:46:23Z</time>
      </trkpt>
      <trkpt lat="49.08054" lon="0.3187">
        <ele>133</ele>
        <time>2011-07-02T08:46:27Z</time>
      </trkpt>
      <trkpt lat="49.08079" lon="0.31842">
        <ele>131.3</ele>
        <time>2011-07-02T08:46:31Z</time>
      </trkpt>
      <trkpt lat="49.08107" lon="0.31813">
        <ele>130.7</ele>
        <time>2011-07-02T08:46:35Z</time>
      </trkpt>
      <trkpt lat="49.08135" lon="0.31787">
        <ele>129.9</ele>
        <time>2011-07-02T08:46:39Z</time>
      </trkpt>
      <trkpt lat="49.08162" lon="0.31761">
        <ele>129.8</ele>
        <time>2011-07-02T08:46:43Z</time>
      </trkpt>
      <trkpt lat="49.0819" lon="0.3173">
        <ele>128.5</ele>
        <time>2011-07-02T08:46:47Z</time>
      </trkpt>
      <trkpt lat="49.08219" lon="0.317">
        <ele>127.5</ele>
        <time>2011-07-02T08:46:51Z</time>
      </trkpt>
      <trkpt lat="49.08247" lon="0.31671">
        <ele>125.9</ele>
        <time>2011-07-02T08:46:55Z</time>
      </trkpt>
      <trkpt lat="49.08275" lon="0.31643">
        <ele>124.3</ele>
        <time>2011-07-02T08:46:59Z</time>
      </trkpt>
      <trkpt lat="49.08303" lon="0.31614">
        <ele>123.4</ele>
        <time>2011-07-02T08:47:03Z</time>
      </trkpt>
      <trkpt lat="49.08329" lon="0.31588">
        <ele>123.1</ele>
        <time>2011-07-02T08:47:07Z</time>
      </trkpt>
      <trkpt lat="49.08353" lon="0.31564">
        <ele>122.2</ele>
        <time>2011-07-02T08:47:11Z</time>
      </trkpt>
      <trkpt lat="49.08369" lon="0.3155">
        <ele>119.5</ele>
        <time>2011-07-02T08:47:14Z</time>
      </trkpt>
      <trkpt lat="49.08395" lon="0.31524">
        <ele>119.7</ele>
        <time>2011-07-02T08:47:19Z</time>
      </trkpt>
      <trkpt lat="49.08415" lon="0.31503">
        <ele>121</ele>
        <time>2011-07-02T08:47:23Z</time>
      </trkpt>
      <trkpt lat="49.08434" lon="0.31483">
        <ele>121.2</ele>
        <time>2011-07-02T08:47:27Z</time>
      </trkpt>
      <trkpt lat="49.0845" lon="0.31468">
        <ele>122</ele>
        <time>2011-07-02T08:47:30Z</time>
      </trkpt>
      <trkpt lat="49.08477" lon="0.31441">
        <ele>123.6</ele>
        <time>2011-07-02T08:47:35Z</time>
      </trkpt>
      <trkpt lat="49.085" lon="0.31417">
        <ele>123.7</ele>
        <time>2011-07-02T08:47:39Z</time>
      </trkpt>
      <trkpt lat="49.08521" lon="0.31395">
        <ele>123.8</ele>
        <time>2011-07-02T08:47:43Z</time>
      </trkpt>
      <trkpt lat="49.08544" lon="0.31373">
        <ele>123.2</ele>
        <time>2011-07-02T08:47:47Z</time>
      </trkpt>
      <trkpt lat="49.08567" lon="0.3135">
        <ele>121.2</ele>
        <time>2011-07-02T08:47:51Z</time>
      </trkpt>
      <trkpt lat="49.08591" lon="0.31325">
        <ele>121.6</ele>
        <time>2011-07-02T08:47:55Z</time>
      </trkpt>
      <trkpt lat="49.08607" lon="0.31306">
        <ele>121.5</ele>
        <time>2011-07-02T08:47:58Z</time>
      </trkpt>
      <trkpt lat="49.08636" lon="0.31276">
        <ele>122</ele>
        <time>2011-07-02T08:48:03Z</time>
      </trkpt>
      <trkpt lat="49.08661" lon="0.31252">
        <ele>122.5</ele>
        <time>2011-07-02T08:48:07Z</time>
      </trkpt>
      <trkpt lat="49.08686" lon="0.3123">
        <ele>123.8</ele>
        <time>2011-07-02T08:48:11Z</time>
      </trkpt>
      <trkpt lat="49.0871" lon="0.31208">
        <ele>124.3</ele>
        <time>2011-07-02T08:48:15Z</time>
      </trkpt>
      <trkpt lat="49.08733" lon="0.31182">
        <ele>124.6</ele>
        <time>2011-07-02T08:48:19Z</time>
      </trkpt>
      <trkpt lat="49.08758" lon="0.31155">
        <ele>123.9</ele>
        <time>2011-07-02T08:48:23Z</time>
      </trkpt>
      <trkpt lat="49.08784" lon="0.31131">
        <ele>123.1</ele>
        <time>2011-07-02T08:48:27Z</time>
      </trkpt>
      <trkpt lat="49.08811" lon="0.31102">
        <ele>122.4</ele>
        <time>2011-07-02T08:48:31Z</time>
      </trkpt>
      <trkpt lat="49.08839" lon="0.31075">
        <ele>121.1</ele>
        <time>2011-07-02T08:48:35Z</time>
      </trkpt>
      <trkpt lat="49.08867" lon="0.31047">
        <ele>120.1</ele>
        <time>2011-07-02T08:48:39Z</time>
      </trkpt>
      <trkpt lat="49.08895" lon="0.31018">
        <ele>119.9</ele>
        <time>2011-07-02T08:48:43Z</time>
      </trkpt>
      <trkpt lat="49.08924" lon="0.30987">
        <ele>119.1</ele>
        <time>2011-07-02T08:48:47Z</time>
      </trkpt>
      <trkpt lat="49.08953" lon="0.30959">
        <ele>120.4</ele>
        <time>2011-07-02T08:48:51Z</time>
      </trkpt>
      <trkpt lat="49.08981" lon="0.30931">
        <ele>120.8</ele>
        <time>2011-07-02T08:48:55Z</time>
      </trkpt>
      <trkpt lat="49.09008" lon="0.30904">
        <ele>121.3</ele>
        <time>2011-07-02T08:48:59Z</time>
      </trkpt>
      <trkpt lat="49.09035" lon="0.30878">
        <ele>120.3</ele>
        <time>2011-07-02T08:49:03Z</time>
      </trkpt>
      <trkpt lat="49.09062" lon="0.30851">
        <ele>120.3</ele>
        <time>2011-07-02T08:49:07Z</time>
      </trkpt>
      <trkpt lat="49.09089" lon="0.30825">
        <ele>121.3</ele>
        <time>2011-07-02T08:49:11Z</time>
      </trkpt>
      <trkpt lat="49.09114" lon="0.30798">
        <ele>121.7</ele>
        <time>2011-07-02T08:49:15Z</time>
      </trkpt>
      <trkpt lat="49.09141" lon="0.30772">
        <ele>120.9</ele>
        <time>2011-07-02T08:49:19Z</time>
      </trkpt>
      <trkpt lat="49.09169" lon="0.30743">
        <ele>121.1</ele>
        <time>2011-07-02T08:49:23Z</time>
      </trkpt>
      <trkpt lat="49.09197" lon="0.30715">
        <ele>121</ele>
        <time>2011-07-02T08:49:27Z</time>
      </trkpt>
      <trkpt lat="49.09225" lon="0.30688">
        <ele>121.8</ele>
        <time>2011-07-02T08:49:31Z</time>
      </trkpt>
      <trkpt lat="49.09252" lon="0.3066">
        <ele>121.6</ele>
        <time>2011-07-02T08:49:35Z</time>
      </trkpt>
      <trkpt lat="49.0928" lon="0.30633">
        <ele>120.3</ele>
        <time>2011-07-02T08:49:39Z</time>
      </trkpt>
      <trkpt lat="49.09308" lon="0.30606">
        <ele>120.4</ele>
        <time>2011-07-02T08:49:43Z</time>
      </trkpt>
      <trkpt lat="49.09335" lon="0.30577">
        <ele>119</ele>
        <time>2011-07-02T08:49:47Z</time>
      </trkpt>
      <trkpt lat="49.09362" lon="0.30548">
        <ele>118</ele>
        <time>2011-07-02T08:49:51Z</time>
      </trkpt>
      <trkpt lat="49.09392" lon="0.30521">
        <ele>118.4</ele>
        <time>2011-07-02T08:49:55Z</time>
      </trkpt>
      <trkpt lat="49.09418" lon="0.30492">
        <ele>116.9</ele>
        <time>2011-07-02T08:49:59Z</time>
      </trkpt>
      <trkpt lat="49.09445" lon="0.30463">
        <ele>115.7</ele>
        <time>2011-07-02T08:50:03Z</time>
      </trkpt>
      <trkpt lat="49.09473" lon="0.30435">
        <ele>114.9</ele>
        <time>2011-07-02T08:50:07Z</time>
      </trkpt>
      <trkpt lat="49.09501" lon="0.30407">
        <ele>114.6</ele>
        <time>2011-07-02T08:50:11Z</time>
      </trkpt>
      <trkpt lat="49.09522" lon="0.30386">
        <ele>114.7</ele>
        <time>2011-07-02T08:50:14Z</time>
      </trkpt>
      <trkpt lat="49.0955" lon="0.30357">
        <ele>114.7</ele>
        <time>2011-07-02T08:50:18Z</time>
      </trkpt>
      <trkpt lat="49.09582" lon="0.30323">
        <ele>114.5</ele>
        <time>2011-07-02T08:50:23Z</time>
      </trkpt>
      <trkpt lat="49.09608" lon="0.30297">
        <ele>113.5</ele>
        <time>2011-07-02T08:50:27Z</time>
      </trkpt>
      <trkpt lat="49.09636" lon="0.30271">
        <ele>113.3</ele>
        <time>2011-07-02T08:50:31Z</time>
      </trkpt>
      <trkpt lat="49.09661" lon="0.30245">
        <ele>113.3</ele>
        <time>2011-07-02T08:50:35Z</time>
      </trkpt>
      <trkpt lat="49.09686" lon="0.3022">
        <ele>112.1</ele>
        <time>2011-07-02T08:50:39Z</time>
      </trkpt>
      <trkpt lat="49.0971" lon="0.30194">
        <ele>111.9</ele>
        <time>2011-07-02T08:50:43Z</time>
      </trkpt>
      <trkpt lat="49.09735" lon="0.30169">
        <ele>113</ele>
        <time>2011-07-02T08:50:47Z</time>
      </trkpt>
      <trkpt lat="49.09753" lon="0.30151">
        <ele>112.6</ele>
        <time>2011-07-02T08:50:50Z</time>
      </trkpt>
      <trkpt lat="49.09782" lon="0.3012">
        <ele>112.8</ele>
        <time>2011-07-02T08:50:55Z</time>
      </trkpt>
      <trkpt lat="49.09806" lon="0.30096">
        <ele>113</ele>
        <time>2011-07-02T08:50:59Z</time>
      </trkpt>
      <trkpt lat="49.0983" lon="0.30072">
        <ele>113.1</ele>
        <time>2011-07-02T08:51:03Z</time>
      </trkpt>
      <trkpt lat="49.09856" lon="0.30048">
        <ele>113.1</ele>
        <time>2011-07-02T08:51:07Z</time>
      </trkpt>
      <trkpt lat="49.09881" lon="0.30023">
        <ele>112.8</ele>
        <time>2011-07-02T08:51:11Z</time>
      </trkpt>
      <trkpt lat="49.09907" lon="0.3">
        <ele>111.9</ele>
        <time>2011-07-02T08:51:15Z</time>
      </trkpt>
      <trkpt lat="49.09926" lon="0.29979">
        <ele>112.5</ele>
        <time>2011-07-02T08:51:18Z</time>
      </trkpt>
      <trkpt lat="49.09957" lon="0.29945">
        <ele>111.9</ele>
        <time>2011-07-02T08:51:23Z</time>
      </trkpt>
      <trkpt lat="49.09981" lon="0.29919">
        <ele>111.5</ele>
        <time>2011-07-02T08:51:27Z</time>
      </trkpt>
      <trkpt lat="49.10007" lon="0.29894">
        <ele>110.9</ele>
        <time>2011-07-02T08:51:31Z</time>
      </trkpt>
      <trkpt lat="49.1003" lon="0.29867">
        <ele>111.2</ele>
        <time>2011-07-02T08:51:35Z</time>
      </trkpt>
      <trkpt lat="49.10054" lon="0.29841">
        <ele>110.6</ele>
        <time>2011-07-02T08:51:39Z</time>
      </trkpt>
      <trkpt lat="49.10077" lon="0.29813">
        <ele>110.6</ele>
        <time>2011-07-02T08:51:43Z</time>
      </trkpt>
      <trkpt lat="49.10102" lon="0.29786">
        <ele>111.8</ele>
        <time>2011-07-02T08:51:47Z</time>
      </trkpt>
      <trkpt lat="49.10129" lon="0.2976">
        <ele>112.1</ele>
        <time>2011-07-02T08:51:51Z</time>
      </trkpt>
      <trkpt lat="49.10155" lon="0.29733">
        <ele>112.3</ele>
        <time>2011-07-02T08:51:55Z</time>
      </trkpt>
      <trkpt lat="49.10176" lon="0.29709">
        <ele>113.2</ele>
        <time>2011-07-02T08:51:59Z</time>
      </trkpt>
      <trkpt lat="49.10197" lon="0.29685">
        <ele>112</ele>
        <time>2011-07-02T08:52:03Z</time>
      </trkpt>
      <trkpt lat="49.1022" lon="0.29659">
        <ele>111.3</ele>
        <time>2011-07-02T08:52:07Z</time>
      </trkpt>
      <trkpt lat="49.10245" lon="0.2963">
        <ele>109.8</ele>
        <time>2011-07-02T08:52:11Z</time>
      </trkpt>
      <trkpt lat="49.10271" lon="0.29601">
        <ele>109.1</ele>
        <time>2011-07-02T08:52:15Z</time>
      </trkpt>
      <trkpt lat="49.10298" lon="0.2957">
        <ele>109.8</ele>
        <time>2011-07-02T08:52:19Z</time>
      </trkpt>
      <trkpt lat="49.10324" lon="0.29539">
        <ele>109.6</ele>
        <time>2011-07-02T08:52:23Z</time>
      </trkpt>
      <trkpt lat="49.10349" lon="0.29511">
        <ele>109.3</ele>
        <time>2011-07-02T08:52:27Z</time>
      </trkpt>
      <trkpt lat="49.10374" lon="0.29484">
        <ele>109.8</ele>
        <time>2011-07-02T08:52:31Z</time>
      </trkpt>
      <trkpt lat="49.104" lon="0.29456">
        <ele>109.1</ele>
        <time>2011-07-02T08:52:35Z</time>
      </trkpt>
      <trkpt lat="49.10425" lon="0.29426">
        <ele>109.2</ele>
        <time>2011-07-02T08:52:39Z</time>
      </trkpt>
      <trkpt lat="49.10452" lon="0.29397">
        <ele>108.6</ele>
        <time>2011-07-02T08:52:43Z</time>
      </trkpt>
      <trkpt lat="49.10476" lon="0.2937">
        <ele>109</ele>
        <time>2011-07-02T08:52:47Z</time>
      </trkpt>
      <trkpt lat="49.10501" lon="0.29344">
        <ele>108.4</ele>
        <time>2011-07-02T08:52:51Z</time>
      </trkpt>
      <trkpt lat="49.10526" lon="0.29325">
        <ele>108.5</ele>
        <time>2011-07-02T08:52:55Z</time>
      </trkpt>
      <trkpt lat="49.10552" lon="0.29315">
        <ele>109.3</ele>
        <time>2011-07-02T08:52:59Z</time>
      </trkpt>
      <trkpt lat="49.10577" lon="0.29301">
        <ele>109.8</ele>
        <time>2011-07-02T08:53:03Z</time>
      </trkpt>
      <trkpt lat="49.10605" lon="0.29291">
        <ele>109.1</ele>
        <time>2011-07-02T08:53:07Z</time>
      </trkpt>
      <trkpt lat="49.10629" lon="0.29278">
        <ele>110.2</ele>
        <time>2011-07-02T08:53:11Z</time>
      </trkpt>
      <trkpt lat="49.10653" lon="0.29259">
        <ele>110.2</ele>
        <time>2011-07-02T08:53:15Z</time>
      </trkpt>
      <trkpt lat="49.10677" lon="0.29236">
        <ele>109.5</ele>
        <time>2011-07-02T08:53:19Z</time>
      </trkpt>
      <trkpt lat="49.10693" lon="0.29214">
        <ele>109.9</ele>
        <time>2011-07-02T08:53:22Z</time>
      </trkpt>
      <trkpt lat="49.10715" lon="0.2917">
        <ele>108.9</ele>
        <time>2011-07-02T08:53:27Z</time>
      </trkpt>
      <trkpt lat="49.10729" lon="0.29131">
        <ele>107.8</ele>
        <time>2011-07-02T08:53:31Z</time>
      </trkpt>
      <trkpt lat="49.10742" lon="0.29103">
        <ele>107.7</ele>
        <time>2011-07-02T08:53:34Z</time>
      </trkpt>
      <trkpt lat="49.10767" lon="0.29059">
        <ele>107.9</ele>
        <time>2011-07-02T08:53:39Z</time>
      </trkpt>
      <trkpt lat="49.10789" lon="0.29023">
        <ele>108.6</ele>
        <time>2011-07-02T08:53:43Z</time>
      </trkpt>
      <trkpt lat="49.10814" lon="0.28992">
        <ele>106.7</ele>
        <time>2011-07-02T08:53:47Z</time>
      </trkpt>
      <trkpt lat="49.10843" lon="0.2897">
        <ele>108</ele>
        <time>2011-07-02T08:53:51Z</time>
      </trkpt>
      <trkpt lat="49.1087" lon="0.28953">
        <ele>107.6</ele>
        <time>2011-07-02T08:53:55Z</time>
      </trkpt>
      <trkpt lat="49.109" lon="0.28936">
        <ele>108.8</ele>
        <time>2011-07-02T08:53:59Z</time>
      </trkpt>
      <trkpt lat="49.10928" lon="0.28919">
        <ele>108.8</ele>
        <time>2011-07-02T08:54:03Z</time>
      </trkpt>
      <trkpt lat="49.1096" lon="0.28901">
        <ele>108.6</ele>
        <time>2011-07-02T08:54:07Z</time>
      </trkpt>
      <trkpt lat="49.10991" lon="0.28883">
        <ele>109.3</ele>
        <time>2011-07-02T08:54:11Z</time>
      </trkpt>
      <trkpt lat="49.1102" lon="0.28861">
        <ele>110.1</ele>
        <time>2011-07-02T08:54:15Z</time>
      </trkpt>
      <trkpt lat="49.11046" lon="0.28834">
        <ele>110.5</ele>
        <time>2011-07-02T08:54:19Z</time>
      </trkpt>
      <trkpt lat="49.11072" lon="0.28806">
        <ele>110.3</ele>
        <time>2011-07-02T08:54:23Z</time>
      </trkpt>
      <trkpt lat="49.11096" lon="0.28778">
        <ele>109.6</ele>
        <time>2011-07-02T08:54:27Z</time>
      </trkpt>
      <trkpt lat="49.1112" lon="0.2875">
        <ele>108.8</ele>
        <time>2011-07-02T08:54:31Z</time>
      </trkpt>
      <trkpt lat="49.11147" lon="0.28719">
        <ele>108.2</ele>
        <time>2011-07-02T08:54:35Z</time>
      </trkpt>
      <trkpt lat="49.11176" lon="0.28689">
        <ele>107.7</ele>
        <time>2011-07-02T08:54:39Z</time>
      </trkpt>
      <trkpt lat="49.11203" lon="0.28658">
        <ele>107.6</ele>
        <time>2011-07-02T08:54:43Z</time>
      </trkpt>
      <trkpt lat="49.11227" lon="0.28629">
        <ele>106.9</ele>
        <time>2011-07-02T08:54:47Z</time>
      </trkpt>
      <trkpt lat="49.11252" lon="0.28601">
        <ele>106.7</ele>
        <time>2011-07-02T08:54:51Z</time>
      </trkpt>
      <trkpt lat="49.11277" lon="0.28575">
        <ele>107.3</ele>
        <time>2011-07-02T08:54:55Z</time>
      </trkpt>
      <trkpt lat="49.11304" lon="0.28551">
        <ele>107.6</ele>
        <time>2011-07-02T08:54:59Z</time>
      </trkpt>
      <trkpt lat="49.11323" lon="0.28538">
        <ele>107.6</ele>
        <time>2011-07-02T08:55:02Z</time>
      </trkpt>
      <trkpt lat="49.11351" lon="0.28526">
        <ele>107.9</ele>
        <time>2011-07-02T08:55:07Z</time>
      </trkpt>
      <trkpt lat="49.11378" lon="0.28513">
        <ele>109.2</ele>
        <time>2011-07-02T08:55:11Z</time>
      </trkpt>
      <trkpt lat="49.11404" lon="0.28502">
        <ele>109.1</ele>
        <time>2011-07-02T08:55:15Z</time>
      </trkpt>
      <trkpt lat="49.1143" lon="0.28491">
        <ele>109.9</ele>
        <time>2011-07-02T08:55:19Z</time>
      </trkpt>
      <trkpt lat="49.11457" lon="0.2848">
        <ele>110.8</ele>
        <time>2011-07-02T08:55:23Z</time>
      </trkpt>
      <trkpt lat="49.11484" lon="0.28468">
        <ele>111.4</ele>
        <time>2011-07-02T08:55:27Z</time>
      </trkpt>
      <trkpt lat="49.1151" lon="0.28455">
        <ele>111.1</ele>
        <time>2011-07-02T08:55:31Z</time>
      </trkpt>
      <trkpt lat="49.11538" lon="0.28444">
        <ele>111.4</ele>
        <time>2011-07-02T08:55:35Z</time>
      </trkpt>
      <trkpt lat="49.11564" lon="0.28433">
        <ele>112</ele>
        <time>2011-07-02T08:55:39Z</time>
      </trkpt>
      <trkpt lat="49.11588" lon="0.2842">
        <ele>112.3</ele>
        <time>2011-07-02T08:55:43Z</time>
      </trkpt>
      <trkpt lat="49.11614" lon="0.28409">
        <ele>112.4</ele>
        <time>2011-07-02T08:55:47Z</time>
      </trkpt>
      <trkpt lat="49.11632" lon="0.28401">
        <ele>113</ele>
        <time>2011-07-02T08:55:50Z</time>
      </trkpt>
      <trkpt lat="49.11655" lon="0.28391">
        <ele>112.9</ele>
        <time>2011-07-02T08:55:54Z</time>
      </trkpt>
      <trkpt lat="49.11679" lon="0.28382">
        <ele>113.3</ele>
        <time>2011-07-02T08:55:58Z</time>
      </trkpt>
      <trkpt lat="49.11701" lon="0.28373">
        <ele>113.4</ele>
        <time>2011-07-02T08:56:02Z</time>
      </trkpt>
      <trkpt lat="49.11728" lon="0.28363">
        <ele>113.5</ele>
        <time>2011-07-02T08:56:07Z</time>
      </trkpt>
      <trkpt lat="49.11752" lon="0.28353">
        <ele>113.5</ele>
        <time>2011-07-02T08:56:11Z</time>
      </trkpt>
      <trkpt lat="49.11764" lon="0.2835">
        <ele>114</ele>
        <time>2011-07-02T08:56:13Z</time>
      </trkpt>
      <trkpt lat="49.11796" lon="0.28333">
        <ele>115</ele>
        <time>2011-07-02T08:56:19Z</time>
      </trkpt>
      <trkpt lat="49.11819" lon="0.28325">
        <ele>115.1</ele>
        <time>2011-07-02T08:56:23Z</time>
      </trkpt>
      <trkpt lat="49.11842" lon="0.28314">
        <ele>114.9</ele>
        <time>2011-07-02T08:56:27Z</time>
      </trkpt>
      <trkpt lat="49.11864" lon="0.28304">
        <ele>114.9</ele>
        <time>2011-07-02T08:56:31Z</time>
      </trkpt>
      <trkpt lat="49.11888" lon="0.28292">
        <ele>115.7</ele>
        <time>2011-07-02T08:56:35Z</time>
      </trkpt>
      <trkpt lat="49.11912" lon="0.28282">
        <ele>115.7</ele>
        <time>2011-07-02T08:56:39Z</time>
      </trkpt>
      <trkpt lat="49.11935" lon="0.28272">
        <ele>116</ele>
        <time>2011-07-02T08:56:43Z</time>
      </trkpt>
      <trkpt lat="49.11953" lon="0.28265">
        <ele>115.3</ele>
        <time>2011-07-02T08:56:46Z</time>
      </trkpt>
      <trkpt lat="49.11983" lon="0.28252">
        <ele>115.7</ele>
        <time>2011-07-02T08:56:51Z</time>
      </trkpt>
      <trkpt lat="49.12001" lon="0.28245">
        <ele>116.1</ele>
        <time>2011-07-02T08:56:54Z</time>
      </trkpt>
      <trkpt lat="49.12024" lon="0.28235">
        <ele>116.6</ele>
        <time>2011-07-02T08:56:58Z</time>
      </trkpt>
      <trkpt lat="49.12054" lon="0.28221">
        <ele>116.1</ele>
        <time>2011-07-02T08:57:03Z</time>
      </trkpt>
      <trkpt lat="49.12071" lon="0.28211">
        <ele>116</ele>
        <time>2011-07-02T08:57:06Z</time>
      </trkpt>
      <trkpt lat="49.121" lon="0.2819">
        <ele>116.3</ele>
        <time>2011-07-02T08:57:11Z</time>
      </trkpt>
      <trkpt lat="49.12122" lon="0.2817">
        <ele>117.2</ele>
        <time>2011-07-02T08:57:15Z</time>
      </trkpt>
      <trkpt lat="49.12147" lon="0.28145">
        <ele>116.9</ele>
        <time>2011-07-02T08:57:19Z</time>
      </trkpt>
      <trkpt lat="49.12175" lon="0.28114">
        <ele>116.2</ele>
        <time>2011-07-02T08:57:23Z</time>
      </trkpt>
      <trkpt lat="49.12206" lon="0.28087">
        <ele>116.6</ele>
        <time>2011-07-02T08:57:27Z</time>
      </trkpt>
      <trkpt lat="49.1223" lon="0.28057">
        <ele>115.6</ele>
        <time>2011-07-02T08:57:31Z</time>
      </trkpt>
      <trkpt lat="49.12254" lon="0.28025">
        <ele>115.5</ele>
        <time>2011-07-02T08:57:35Z</time>
      </trkpt>
      <trkpt lat="49.12276" lon="0.27995">
        <ele>116.6</ele>
        <time>2011-07-02T08:57:39Z</time>
      </trkpt>
      <trkpt lat="49.12298" lon="0.27966">
        <ele>117.3</ele>
        <time>2011-07-02T08:57:43Z</time>
      </trkpt>
      <trkpt lat="49.12315" lon="0.27935">
        <ele>116.5</ele>
        <time>2011-07-02T08:57:47Z</time>
      </trkpt>
      <trkpt lat="49.12335" lon="0.27908">
        <ele>115.8</ele>
        <time>2011-07-02T08:57:51Z</time>
      </trkpt>
      <trkpt lat="49.12349" lon="0.27883">
        <ele>114.5</ele>
        <time>2011-07-02T08:57:55Z</time>
      </trkpt>
      <trkpt lat="49.12363" lon="0.2786">
        <ele>115</ele>
        <time>2011-07-02T08:57:59Z</time>
      </trkpt>
      <trkpt lat="49.12367" lon="0.27846">
        <ele>114.8</ele>
        <time>2011-07-02T08:58:01Z</time>
      </trkpt>
      <trkpt lat="49.12389" lon="0.27814">
        <ele>117</ele>
        <time>2011-07-02T08:58:07Z</time>
      </trkpt>
      <trkpt lat="49.12406" lon="0.27793">
        <ele>117.8</ele>
        <time>2011-07-02T08:58:11Z</time>
      </trkpt>
      <trkpt lat="49.12425" lon="0.27766">
        <ele>118.2</ele>
        <time>2011-07-02T08:58:15Z</time>
      </trkpt>
      <trkpt lat="49.12446" lon="0.27737">
        <ele>117.2</ele>
        <time>2011-07-02T08:58:19Z</time>
      </trkpt>
      <trkpt lat="49.12467" lon="0.27703">
        <ele>115.8</ele>
        <time>2011-07-02T08:58:23Z</time>
      </trkpt>
      <trkpt lat="49.12487" lon="0.27663">
        <ele>112.6</ele>
        <time>2011-07-02T08:58:27Z</time>
      </trkpt>
      <trkpt lat="49.12514" lon="0.27621">
        <ele>111.1</ele>
        <time>2011-07-02T08:58:31Z</time>
      </trkpt>
      <trkpt lat="49.12539" lon="0.27577">
        <ele>110.5</ele>
        <time>2011-07-02T08:58:35Z</time>
      </trkpt>
      <trkpt lat="49.12567" lon="0.27532">
        <ele>110.1</ele>
        <time>2011-07-02T08:58:39Z</time>
      </trkpt>
      <trkpt lat="49.12594" lon="0.27487">
        <ele>108.8</ele>
        <time>2011-07-02T08:58:43Z</time>
      </trkpt>
      <trkpt lat="49.12624" lon="0.27445">
        <ele>106.8</ele>
        <time>2011-07-02T08:58:47Z</time>
      </trkpt>
      <trkpt lat="49.12659" lon="0.27414">
        <ele>104.7</ele>
        <time>2011-07-02T08:58:51Z</time>
      </trkpt>
      <trkpt lat="49.12695" lon="0.27382">
        <ele>104</ele>
        <time>2011-07-02T08:58:55Z</time>
      </trkpt>
      <trkpt lat="49.1273" lon="0.27351">
        <ele>103.2</ele>
        <time>2011-07-02T08:58:59Z</time>
      </trkpt>
      <trkpt lat="49.12766" lon="0.27324">
        <ele>102.3</ele>
        <time>2011-07-02T08:59:03Z</time>
      </trkpt>
      <trkpt lat="49.12801" lon="0.27297">
        <ele>101.2</ele>
        <time>2011-07-02T08:59:07Z</time>
      </trkpt>
      <trkpt lat="49.12833" lon="0.27271">
        <ele>99.5</ele>
        <time>2011-07-02T08:59:11Z</time>
      </trkpt>
      <trkpt lat="49.12857" lon="0.27234">
        <ele>97.7</ele>
        <time>2011-07-02T08:59:15Z</time>
      </trkpt>
      <trkpt lat="49.12869" lon="0.27187">
        <ele>97.6</ele>
        <time>2011-07-02T08:59:19Z</time>
      </trkpt>
      <trkpt lat="49.12875" lon="0.2714">
        <ele>97.1</ele>
        <time>2011-07-02T08:59:23Z</time>
      </trkpt>
      <trkpt lat="49.12883" lon="0.27094">
        <ele>96.1</ele>
        <time>2011-07-02T08:59:27Z</time>
      </trkpt>
      <trkpt lat="49.12893" lon="0.27046">
        <ele>95.9</ele>
        <time>2011-07-02T08:59:31Z</time>
      </trkpt>
      <trkpt lat="49.12904" lon="0.26994">
        <ele>96.1</ele>
        <time>2011-07-02T08:59:35Z</time>
      </trkpt>
      <trkpt lat="49.12917" lon="0.26951">
        <ele>95.9</ele>
        <time>2011-07-02T08:59:39Z</time>
      </trkpt>
      <trkpt lat="49.12931" lon="0.26906">
        <ele>97.2</ele>
        <time>2011-07-02T08:59:43Z</time>
      </trkpt>
      <trkpt lat="49.12943" lon="0.26864">
        <ele>98.7</ele>
        <time>2011-07-02T08:59:47Z</time>
      </trkpt>
      <trkpt lat="49.12955" lon="0.26834">
        <ele>100.7</ele>
        <time>2011-07-02T08:59:50Z</time>
      </trkpt>
      <trkpt lat="49.12977" lon="0.26785">
        <ele>100.5</ele>
        <time>2011-07-02T08:59:55Z</time>
      </trkpt>
      <trkpt lat="49.12991" lon="0.26737">
        <ele>100.3</ele>
        <time>2011-07-02T08:59:59Z</time>
      </trkpt>
      <trkpt lat="49.13002" lon="0.26688">
        <ele>100.3</ele>
        <time>2011-07-02T09:00:03Z</time>
      </trkpt>
      <trkpt lat="49.13008" lon="0.26636">
        <ele>99.9</ele>
        <time>2011-07-02T09:00:07Z</time>
      </trkpt>
      <trkpt lat="49.13006" lon="0.26585">
        <ele>99</ele>
        <time>2011-07-02T09:00:11Z</time>
      </trkpt>
      <trkpt lat="49.13002" lon="0.2653">
        <ele>98.5</ele>
        <time>2011-07-02T09:00:15Z</time>
      </trkpt>
      <trkpt lat="49.13002" lon="0.26476">
        <ele>99</ele>
        <time>2011-07-02T09:00:19Z</time>
      </trkpt>
      <trkpt lat="49.13004" lon="0.26425">
        <ele>99.2</ele>
        <time>2011-07-02T09:00:23Z</time>
      </trkpt>
      <trkpt lat="49.13004" lon="0.26376">
        <ele>99.9</ele>
        <time>2011-07-02T09:00:27Z</time>
      </trkpt>
      <trkpt lat="49.13004" lon="0.26331">
        <ele>99.8</ele>
        <time>2011-07-02T09:00:31Z</time>
      </trkpt>
      <trkpt lat="49.13005" lon="0.26286">
        <ele>99.5</ele>
        <time>2011-07-02T09:00:35Z</time>
      </trkpt>
      <trkpt lat="49.13007" lon="0.26243">
        <ele>99.1</ele>
        <time>2011-07-02T09:00:39Z</time>
      </trkpt>
      <trkpt lat="49.13009" lon="0.26198">
        <ele>99.3</ele>
        <time>2011-07-02T09:00:43Z</time>
      </trkpt>
      <trkpt lat="49.13016" lon="0.26147">
        <ele>99.3</ele>
        <time>2011-07-02T09:00:47Z</time>
      </trkpt>
      <trkpt lat="49.13023" lon="0.26101">
        <ele>100.1</ele>
        <time>2011-07-02T09:00:51Z</time>
      </trkpt>
      <trkpt lat="49.1303" lon="0.26055">
        <ele>101.4</ele>
        <time>2011-07-02T09:00:55Z</time>
      </trkpt>
      <trkpt lat="49.1304" lon="0.26005">
        <ele>99.4</ele>
        <time>2011-07-02T09:00:59Z</time>
      </trkpt>
      <trkpt lat="49.13048" lon="0.25959">
        <ele>99.2</ele>
        <time>2011-07-02T09:01:03Z</time>
      </trkpt>
      <trkpt lat="49.13054" lon="0.25918">
        <ele>99.2</ele>
        <time>2011-07-02T09:01:07Z</time>
      </trkpt>
      <trkpt lat="49.13063" lon="0.25879">
        <ele>99.7</ele>
        <time>2011-07-02T09:01:11Z</time>
      </trkpt>
      <trkpt lat="49.13076" lon="0.25847">
        <ele>98.8</ele>
        <time>2011-07-02T09:01:15Z</time>
      </trkpt>
      <trkpt lat="49.13087" lon="0.25812">
        <ele>100.6</ele>
        <time>2011-07-02T09:01:19Z</time>
      </trkpt>
      <trkpt lat="49.131" lon="0.25778">
        <ele>100</ele>
        <time>2011-07-02T09:01:23Z</time>
      </trkpt>
      <trkpt lat="49.13119" lon="0.25748">
        <ele>99</ele>
        <time>2011-07-02T09:01:27Z</time>
      </trkpt>
      <trkpt lat="49.1313" lon="0.25725">
        <ele>95.8</ele>
        <time>2011-07-02T09:01:30Z</time>
      </trkpt>
      <trkpt lat="49.13152" lon="0.25689">
        <ele>93.8</ele>
        <time>2011-07-02T09:01:35Z</time>
      </trkpt>
      <trkpt lat="49.1317" lon="0.25662">
        <ele>94.7</ele>
        <time>2011-07-02T09:01:39Z</time>
      </trkpt>
      <trkpt lat="49.13187" lon="0.25636">
        <ele>95.7</ele>
        <time>2011-07-02T09:01:43Z</time>
      </trkpt>
      <trkpt lat="49.13203" lon="0.2561">
        <ele>94.8</ele>
        <time>2011-07-02T09:01:47Z</time>
      </trkpt>
      <trkpt lat="49.13215" lon="0.2559">
        <ele>94.3</ele>
        <time>2011-07-02T09:01:50Z</time>
      </trkpt>
      <trkpt lat="49.13222" lon="0.25581">
        <ele>95.8</ele>
        <time>2011-07-02T09:01:52Z</time>
      </trkpt>
      <trkpt lat="49.13242" lon="0.25552">
        <ele>98.7</ele>
        <time>2011-07-02T09:01:58Z</time>
      </trkpt>
      <trkpt lat="49.13259" lon="0.25523">
        <ele>99.7</ele>
        <time>2011-07-02T09:02:03Z</time>
      </trkpt>
      <trkpt lat="49.13274" lon="0.25499">
        <ele>100.8</ele>
        <time>2011-07-02T09:02:07Z</time>
      </trkpt>
      <trkpt lat="49.13286" lon="0.25481">
        <ele>101.7</ele>
        <time>2011-07-02T09:02:10Z</time>
      </trkpt>
      <trkpt lat="49.13309" lon="0.25449">
        <ele>102.2</ele>
        <time>2011-07-02T09:02:15Z</time>
      </trkpt>
      <trkpt lat="49.13326" lon="0.25419">
        <ele>102.8</ele>
        <time>2011-07-02T09:02:19Z</time>
      </trkpt>
      <trkpt lat="49.13344" lon="0.2539">
        <ele>104.5</ele>
        <time>2011-07-02T09:02:23Z</time>
      </trkpt>
      <trkpt lat="49.1336" lon="0.25359">
        <ele>105.5</ele>
        <time>2011-07-02T09:02:27Z</time>
      </trkpt>
      <trkpt lat="49.13377" lon="0.25327">
        <ele>104.2</ele>
        <time>2011-07-02T09:02:31Z</time>
      </trkpt>
      <trkpt lat="49.13392" lon="0.25292">
        <ele>104.6</ele>
        <time>2011-07-02T09:02:35Z</time>
      </trkpt>
      <trkpt lat="49.13399" lon="0.25274">
        <ele>104.8</ele>
        <time>2011-07-02T09:02:37Z</time>
      </trkpt>
      <trkpt lat="49.13416" lon="0.25234">
        <ele>105.7</ele>
        <time>2011-07-02T09:02:42Z</time>
      </trkpt>
      <trkpt lat="49.13428" lon="0.25202">
        <ele>107.1</ele>
        <time>2011-07-02T09:02:46Z</time>
      </trkpt>
      <trkpt lat="49.13442" lon="0.25169">
        <ele>106.6</ele>
        <time>2011-07-02T09:02:50Z</time>
      </trkpt>
      <trkpt lat="49.13455" lon="0.25138">
        <ele>105.3</ele>
        <time>2011-07-02T09:02:54Z</time>
      </trkpt>
      <trkpt lat="49.13469" lon="0.25106">
        <ele>105.1</ele>
        <time>2011-07-02T09:02:58Z</time>
      </trkpt>
      <trkpt lat="49.13486" lon="0.25058">
        <ele>104.8</ele>
        <time>2011-07-02T09:03:03Z</time>
      </trkpt>
      <trkpt lat="49.13502" lon="0.25022">
        <ele>104.6</ele>
        <time>2011-07-02T09:03:07Z</time>
      </trkpt>
      <trkpt lat="49.13519" lon="0.24981">
        <ele>105.6</ele>
        <time>2011-07-02T09:03:11Z</time>
      </trkpt>
      <trkpt lat="49.1353" lon="0.24943">
        <ele>106.7</ele>
        <time>2011-07-02T09:03:15Z</time>
      </trkpt>
      <trkpt lat="49.13539" lon="0.24906">
        <ele>106.6</ele>
        <time>2011-07-02T09:03:19Z</time>
      </trkpt>
      <trkpt lat="49.1355" lon="0.24866">
        <ele>105.9</ele>
        <time>2011-07-02T09:03:23Z</time>
      </trkpt>
      <trkpt lat="49.13561" lon="0.24822">
        <ele>106.9</ele>
        <time>2011-07-02T09:03:27Z</time>
      </trkpt>
      <trkpt lat="49.13568" lon="0.24772">
        <ele>104.2</ele>
        <time>2011-07-02T09:03:31Z</time>
      </trkpt>
      <trkpt lat="49.13573" lon="0.24716">
        <ele>103.3</ele>
        <time>2011-07-02T09:03:35Z</time>
      </trkpt>
      <trkpt lat="49.13578" lon="0.24655">
        <ele>102.1</ele>
        <time>2011-07-02T09:03:39Z</time>
      </trkpt>
      <trkpt lat="49.13581" lon="0.24598">
        <ele>103.3</ele>
        <time>2011-07-02T09:03:43Z</time>
      </trkpt>
      <trkpt lat="49.13584" lon="0.24542">
        <ele>103.6</ele>
        <time>2011-07-02T09:03:47Z</time>
      </trkpt>
      <trkpt lat="49.13585" lon="0.2449">
        <ele>103.8</ele>
        <time>2011-07-02T09:03:51Z</time>
      </trkpt>
      <trkpt lat="49.13585" lon="0.24451">
        <ele>104</ele>
        <time>2011-07-02T09:03:54Z</time>
      </trkpt>
      <trkpt lat="49.1359" lon="0.24387">
        <ele>104.6</ele>
        <time>2011-07-02T09:03:59Z</time>
      </trkpt>
      <trkpt lat="49.13598" lon="0.24336">
        <ele>104.2</ele>
        <time>2011-07-02T09:04:03Z</time>
      </trkpt>
      <trkpt lat="49.13605" lon="0.24283">
        <ele>103.6</ele>
        <time>2011-07-02T09:04:07Z</time>
      </trkpt>
      <trkpt lat="49.13608" lon="0.24226">
        <ele>103.3</ele>
        <time>2011-07-02T09:04:11Z</time>
      </trkpt>
      <trkpt lat="49.13611" lon="0.2417">
        <ele>101.2</ele>
        <time>2011-07-02T09:04:15Z</time>
      </trkpt>
      <trkpt lat="49.13617" lon="0.24114">
        <ele>101.3</ele>
        <time>2011-07-02T09:04:19Z</time>
      </trkpt>
      <trkpt lat="49.13626" lon="0.24064">
        <ele>101.4</ele>
        <time>2011-07-02T09:04:23Z</time>
      </trkpt>
      <trkpt lat="49.13643" lon="0.24019">
        <ele>99.9</ele>
        <time>2011-07-02T09:04:27Z</time>
      </trkpt>
      <trkpt lat="49.1366" lon="0.23972">
        <ele>99.3</ele>
        <time>2011-07-02T09:04:31Z</time>
      </trkpt>
      <trkpt lat="49.13681" lon="0.23936">
        <ele>97.7</ele>
        <time>2011-07-02T09:04:35Z</time>
      </trkpt>
      <trkpt lat="49.1369" lon="0.23916">
        <ele>98.4</ele>
        <time>2011-07-02T09:04:37Z</time>
      </trkpt>
      <trkpt lat="49.13706" lon="0.23851">
        <ele>100.6</ele>
        <time>2011-07-02T09:04:43Z</time>
      </trkpt>
      <trkpt lat="49.13713" lon="0.23808">
        <ele>100.6</ele>
        <time>2011-07-02T09:04:47Z</time>
      </trkpt>
      <trkpt lat="49.13726" lon="0.23764">
        <ele>98.8</ele>
        <time>2011-07-02T09:04:51Z</time>
      </trkpt>
      <trkpt lat="49.13743" lon="0.23718">
        <ele>98.5</ele>
        <time>2011-07-02T09:04:55Z</time>
      </trkpt>
      <trkpt lat="49.13757" lon="0.23679">
        <ele>98.3</ele>
        <time>2011-07-02T09:04:59Z</time>
      </trkpt>
      <trkpt lat="49.1377" lon="0.23638">
        <ele>98.7</ele>
        <time>2011-07-02T09:05:03Z</time>
      </trkpt>
      <trkpt lat="49.13782" lon="0.23593">
        <ele>99.2</ele>
        <time>2011-07-02T09:05:07Z</time>
      </trkpt>
      <trkpt lat="49.13797" lon="0.23549">
        <ele>98.4</ele>
        <time>2011-07-02T09:05:11Z</time>
      </trkpt>
      <trkpt lat="49.1381" lon="0.23508">
        <ele>96.6</ele>
        <time>2011-07-02T09:05:15Z</time>
      </trkpt>
      <trkpt lat="49.13826" lon="0.23464">
        <ele>96.2</ele>
        <time>2011-07-02T09:05:19Z</time>
      </trkpt>
      <trkpt lat="49.13844" lon="0.23425">
        <ele>95.6</ele>
        <time>2011-07-02T09:05:23Z</time>
      </trkpt>
      <trkpt lat="49.13866" lon="0.23394">
        <ele>94.5</ele>
        <time>2011-07-02T09:05:27Z</time>
      </trkpt>
      <trkpt lat="49.13886" lon="0.23362">
        <ele>94.1</ele>
        <time>2011-07-02T09:05:31Z</time>
      </trkpt>
      <trkpt lat="49.13905" lon="0.23332">
        <ele>94.1</ele>
        <time>2011-07-02T09:05:35Z</time>
      </trkpt>
      <trkpt lat="49.13926" lon="0.23305">
        <ele>94</ele>
        <time>2011-07-02T09:05:39Z</time>
      </trkpt>
      <trkpt lat="49.13946" lon="0.23278">
        <ele>93.4</ele>
        <time>2011-07-02T09:05:43Z</time>
      </trkpt>
      <trkpt lat="49.13967" lon="0.23252">
        <ele>92.6</ele>
        <time>2011-07-02T09:05:47Z</time>
      </trkpt>
      <trkpt lat="49.13987" lon="0.23225">
        <ele>91.4</ele>
        <time>2011-07-02T09:05:51Z</time>
      </trkpt>
      <trkpt lat="49.14006" lon="0.23197">
        <ele>91.9</ele>
        <time>2011-07-02T09:05:55Z</time>
      </trkpt>
      <trkpt lat="49.14025" lon="0.23181">
        <ele>90.6</ele>
        <time>2011-07-02T09:05:59Z</time>
      </trkpt>
      <trkpt lat="49.14045" lon="0.23179">
        <ele>90.8</ele>
        <time>2011-07-02T09:06:02Z</time>
      </trkpt>
      <trkpt lat="49.14068" lon="0.23163">
        <ele>92.6</ele>
        <time>2011-07-02T09:06:06Z</time>
      </trkpt>
      <trkpt lat="49.14089" lon="0.23146">
        <ele>93.7</ele>
        <time>2011-07-02T09:06:10Z</time>
      </trkpt>
      <trkpt lat="49.1411" lon="0.23131">
        <ele>96.1</ele>
        <time>2011-07-02T09:06:14Z</time>
      </trkpt>
      <trkpt lat="49.1412" lon="0.23124">
        <ele>96.1</ele>
        <time>2011-07-02T09:06:16Z</time>
      </trkpt>
      <trkpt lat="49.14149" lon="0.23103">
        <ele>98</ele>
        <time>2011-07-02T09:06:22Z</time>
      </trkpt>
      <trkpt lat="49.14167" lon="0.23089">
        <ele>99.9</ele>
        <time>2011-07-02T09:06:26Z</time>
      </trkpt>
      <trkpt lat="49.14185" lon="0.23075">
        <ele>100.8</ele>
        <time>2011-07-02T09:06:30Z</time>
      </trkpt>
      <trkpt lat="49.14203" lon="0.23068">
        <ele>101.5</ele>
        <time>2011-07-02T09:06:34Z</time>
      </trkpt>
      <trkpt lat="49.14219" lon="0.23063">
        <ele>102.6</ele>
        <time>2011-07-02T09:06:38Z</time>
      </trkpt>
      <trkpt lat="49.14234" lon="0.23062">
        <ele>104.1</ele>
        <time>2011-07-02T09:06:43Z</time>
      </trkpt>
      <trkpt lat="49.14247" lon="0.2305">
        <ele>108.5</ele>
        <time>2011-07-02T09:06:50Z</time>
      </trkpt>
      <trkpt lat="49.14254" lon="0.23053">
        <ele>105.5</ele>
        <time>2011-07-02T09:06:59Z</time>
      </trkpt>
      <trkpt lat="49.1426" lon="0.2306">
        <ele>106</ele>
        <time>2011-07-02T09:07:03Z</time>
      </trkpt>
      <trkpt lat="49.14264" lon="0.23067">
        <ele>106.1</ele>
        <time>2011-07-02T09:07:07Z</time>
      </trkpt>
      <trkpt lat="49.14269" lon="0.23059">
        <ele>108.2</ele>
        <time>2011-07-02T09:07:15Z</time>
      </trkpt>
      <trkpt lat="49.14275" lon="0.2305">
        <ele>107.9</ele>
        <time>2011-07-02T09:07:19Z</time>
      </trkpt>
      <trkpt lat="49.14292" lon="0.2303">
        <ele>108</ele>
        <time>2011-07-02T09:07:23Z</time>
      </trkpt>
      <trkpt lat="49.14307" lon="0.22999">
        <ele>107.3</ele>
        <time>2011-07-02T09:07:27Z</time>
      </trkpt>
      <trkpt lat="49.14318" lon="0.22977">
        <ele>106.3</ele>
        <time>2011-07-02T09:07:30Z</time>
      </trkpt>
      <trkpt lat="49.14324" lon="0.22963">
        <ele>105.6</ele>
        <time>2011-07-02T09:07:32Z</time>
      </trkpt>
      <trkpt lat="49.14341" lon="0.22931">
        <ele>103.6</ele>
        <time>2011-07-02T09:07:39Z</time>
      </trkpt>
      <trkpt lat="49.1435" lon="0.22924">
        <ele>105.1</ele>
        <time>2011-07-02T09:07:42Z</time>
      </trkpt>
      <trkpt lat="49.14363" lon="0.22933">
        <ele>102.3</ele>
        <time>2011-07-02T09:07:46Z</time>
      </trkpt>
      <trkpt lat="49.14372" lon="0.22964">
        <ele>101.9</ele>
        <time>2011-07-02T09:07:50Z</time>
      </trkpt>
      <trkpt lat="49.14377" lon="0.22979">
        <ele>101.4</ele>
        <time>2011-07-02T09:07:52Z</time>
      </trkpt>
      <trkpt lat="49.14389" lon="0.23024">
        <ele>103.1</ele>
        <time>2011-07-02T09:07:58Z</time>
      </trkpt>
      <trkpt lat="49.14405" lon="0.23039">
        <ele>106.1</ele>
        <time>2011-07-02T09:08:03Z</time>
      </trkpt>
      <trkpt lat="49.14442" lon="0.23019">
        <ele>107.4</ele>
        <time>2011-07-02T09:08:11Z</time>
      </trkpt>
      <trkpt lat="49.14466" lon="0.2301">
        <ele>104.8</ele>
        <time>2011-07-02T09:08:14Z</time>
      </trkpt>
      <trkpt lat="49.1449" lon="0.23003">
        <ele>102.3</ele>
        <time>2011-07-02T09:08:18Z</time>
      </trkpt>
      <trkpt lat="49.14507" lon="0.22994">
        <ele>102</ele>
        <time>2011-07-02T09:08:22Z</time>
      </trkpt>
      <trkpt lat="49.14524" lon="0.22984">
        <ele>103</ele>
        <time>2011-07-02T09:08:26Z</time>
      </trkpt>
      <trkpt lat="49.14543" lon="0.22976">
        <ele>103.8</ele>
        <time>2011-07-02T09:08:30Z</time>
      </trkpt>
      <trkpt lat="49.14577" lon="0.22973">
        <ele>108.1</ele>
        <time>2011-07-02T09:08:38Z</time>
      </trkpt>
      <trkpt lat="49.14596" lon="0.2296">
        <ele>108.1</ele>
        <time>2011-07-02T09:08:42Z</time>
      </trkpt>
      <trkpt lat="49.14613" lon="0.22948">
        <ele>118.1</ele>
        <time>2011-07-02T09:08:47Z</time>
      </trkpt>
      <trkpt lat="49.14631" lon="0.22949">
        <ele>114.7</ele>
        <time>2011-07-02T09:08:50Z</time>
      </trkpt>
      <trkpt lat="49.14653" lon="0.22937">
        <ele>117</ele>
        <time>2011-07-02T09:08:54Z</time>
      </trkpt>
      <trkpt lat="49.14674" lon="0.22924">
        <ele>115.7</ele>
        <time>2011-07-02T09:08:58Z</time>
      </trkpt>
      <trkpt lat="49.14703" lon="0.22908">
        <ele>112.3</ele>
        <time>2011-07-02T09:09:03Z</time>
      </trkpt>
      <trkpt lat="49.14728" lon="0.22896">
        <ele>111.8</ele>
        <time>2011-07-02T09:09:07Z</time>
      </trkpt>
      <trkpt lat="49.14744" lon="0.22885">
        <ele>111.6</ele>
        <time>2011-07-02T09:09:11Z</time>
      </trkpt>
      <trkpt lat="49.14751" lon="0.22879">
        <ele>111.7</ele>
        <time>2011-07-02T09:09:14Z</time>
      </trkpt>
      <trkpt lat="49.14776" lon="0.22862">
        <ele>113.1</ele>
        <time>2011-07-02T09:09:22Z</time>
      </trkpt>
      <trkpt lat="49.14791" lon="0.22851">
        <ele>112.8</ele>
        <time>2011-07-02T09:09:26Z</time>
      </trkpt>
      <trkpt lat="49.14806" lon="0.22846">
        <ele>114.2</ele>
        <time>2011-07-02T09:09:31Z</time>
      </trkpt>
      <trkpt lat="49.14814" lon="0.22848">
        <ele>110.9</ele>
        <time>2011-07-02T09:09:37Z</time>
      </trkpt>
      <trkpt lat="49.14814" lon="0.22848">
        <ele>59.5</ele>
        <time>2011-07-02T09:09:49Z</time>
      </trkpt>
      <trkpt lat="49.14814" lon="0.22848">
        <ele>59.5</ele>
        <time>2011-07-02T09:09:52Z</time>
      </trkpt>
      <trkpt lat="49.14825" lon="0.22839">
        <ele>107.9</ele>
        <time>2011-07-02T09:09:54Z</time>
      </trkpt>
      <trkpt lat="49.1484" lon="0.2283">
        <ele>101.5</ele>
        <time>2011-07-02T09:09:58Z</time>
      </trkpt>
      <trkpt lat="49.14846" lon="0.22825">
        <ele>100.6</ele>
        <time>2011-07-02T09:10:00Z</time>
      </trkpt>
      <trkpt lat="49.14887" lon="0.228">
        <ele>103</ele>
        <time>2011-07-02T09:10:07Z</time>
      </trkpt>
      <trkpt lat="49.14916" lon="0.22786">
        <ele>102.9</ele>
        <time>2011-07-02T09:10:11Z</time>
      </trkpt>
      <trkpt lat="49.14932" lon="0.2278">
        <ele>102.7</ele>
        <time>2011-07-02T09:10:13Z</time>
      </trkpt>
      <trkpt lat="49.14978" lon="0.22766">
        <ele>102.4</ele>
        <time>2011-07-02T09:10:19Z</time>
      </trkpt>
      <trkpt lat="49.15008" lon="0.22756">
        <ele>101.8</ele>
        <time>2011-07-02T09:10:23Z</time>
      </trkpt>
      <trkpt lat="49.15037" lon="0.22757">
        <ele>102</ele>
        <time>2011-07-02T09:10:27Z</time>
      </trkpt>
      <trkpt lat="49.15059" lon="0.22759">
        <ele>101.9</ele>
        <time>2011-07-02T09:10:30Z</time>
      </trkpt>
      <trkpt lat="49.15085" lon="0.22758">
        <ele>103.1</ele>
        <time>2011-07-02T09:10:35Z</time>
      </trkpt>
      <trkpt lat="49.15105" lon="0.22761">
        <ele>104.4</ele>
        <time>2011-07-02T09:10:38Z</time>
      </trkpt>
      <trkpt lat="49.15147" lon="0.22762">
        <ele>101.7</ele>
        <time>2011-07-02T09:10:43Z</time>
      </trkpt>
      <trkpt lat="49.15154" lon="0.22763">
        <ele>101.8</ele>
        <time>2011-07-02T09:10:44Z</time>
      </trkpt>
      <trkpt lat="49.15204" lon="0.22757">
        <ele>103.3</ele>
        <time>2011-07-02T09:10:51Z</time>
      </trkpt>
      <trkpt lat="49.15225" lon="0.22756">
        <ele>104.6</ele>
        <time>2011-07-02T09:10:55Z</time>
      </trkpt>
      <trkpt lat="49.15239" lon="0.22756">
        <ele>104.6</ele>
        <time>2011-07-02T09:10:57Z</time>
      </trkpt>
      <trkpt lat="49.15269" lon="0.22756">
        <ele>104</ele>
        <time>2011-07-02T09:11:02Z</time>
      </trkpt>
      <trkpt lat="49.153" lon="0.22756">
        <ele>106.6</ele>
        <time>2011-07-02T09:11:07Z</time>
      </trkpt>
      <trkpt lat="49.15318" lon="0.22755">
        <ele>105.5</ele>
        <time>2011-07-02T09:11:10Z</time>
      </trkpt>
      <trkpt lat="49.15341" lon="0.22754">
        <ele>104.6</ele>
        <time>2011-07-02T09:11:14Z</time>
      </trkpt>
      <trkpt lat="49.15377" lon="0.22757">
        <ele>104</ele>
        <time>2011-07-02T09:11:19Z</time>
      </trkpt>
      <trkpt lat="49.15391" lon="0.22757">
        <ele>103.7</ele>
        <time>2011-07-02T09:11:21Z</time>
      </trkpt>
      <trkpt lat="49.1543" lon="0.2276">
        <ele>104</ele>
        <time>2011-07-02T09:11:27Z</time>
      </trkpt>
      <trkpt lat="49.15454" lon="0.22756">
        <ele>103.4</ele>
        <time>2011-07-02T09:11:31Z</time>
      </trkpt>
      <trkpt lat="49.15478" lon="0.22755">
        <ele>103.9</ele>
        <time>2011-07-02T09:11:35Z</time>
      </trkpt>
      <trkpt lat="49.15497" lon="0.22754">
        <ele>104.5</ele>
        <time>2011-07-02T09:11:38Z</time>
      </trkpt>
      <trkpt lat="49.15522" lon="0.22763">
        <ele>104.7</ele>
        <time>2011-07-02T09:11:42Z</time>
      </trkpt>
      <trkpt lat="49.15554" lon="0.2276">
        <ele>107.4</ele>
        <time>2011-07-02T09:11:47Z</time>
      </trkpt>
      <trkpt lat="49.1558" lon="0.22759">
        <ele>107.5</ele>
        <time>2011-07-02T09:11:51Z</time>
      </trkpt>
      <trkpt lat="49.15606" lon="0.22758">
        <ele>107.9</ele>
        <time>2011-07-02T09:11:55Z</time>
      </trkpt>
      <trkpt lat="49.15629" lon="0.22758">
        <ele>108.1</ele>
        <time>2011-07-02T09:11:59Z</time>
      </trkpt>
      <trkpt lat="49.15648" lon="0.22755">
        <ele>109.8</ele>
        <time>2011-07-02T09:12:02Z</time>
      </trkpt>
      <trkpt lat="49.15679" lon="0.22757">
        <ele>110.4</ele>
        <time>2011-07-02T09:12:07Z</time>
      </trkpt>
      <trkpt lat="49.15706" lon="0.22756">
        <ele>112.2</ele>
        <time>2011-07-02T09:12:11Z</time>
      </trkpt>
      <trkpt lat="49.15729" lon="0.22756">
        <ele>112.6</ele>
        <time>2011-07-02T09:12:15Z</time>
      </trkpt>
      <trkpt lat="49.15754" lon="0.22758">
        <ele>114.4</ele>
        <time>2011-07-02T09:12:19Z</time>
      </trkpt>
      <trkpt lat="49.15785" lon="0.22761">
        <ele>115.2</ele>
        <time>2011-07-02T09:12:23Z</time>
      </trkpt>
      <trkpt lat="49.15797" lon="0.22761">
        <ele>114.8</ele>
        <time>2011-07-02T09:12:25Z</time>
      </trkpt>
      <trkpt lat="49.15834" lon="0.22764">
        <ele>115.2</ele>
        <time>2011-07-02T09:12:31Z</time>
      </trkpt>
      <trkpt lat="49.15856" lon="0.22759">
        <ele>114.2</ele>
        <time>2011-07-02T09:12:35Z</time>
      </trkpt>
      <trkpt lat="49.15888" lon="0.22757">
        <ele>112</ele>
        <time>2011-07-02T09:12:39Z</time>
      </trkpt>
      <trkpt lat="49.15922" lon="0.22752">
        <ele>113.3</ele>
        <time>2011-07-02T09:12:43Z</time>
      </trkpt>
      <trkpt lat="49.15948" lon="0.22753">
        <ele>113.7</ele>
        <time>2011-07-02T09:12:46Z</time>
      </trkpt>
      <trkpt lat="49.15991" lon="0.22753">
        <ele>112.3</ele>
        <time>2011-07-02T09:12:51Z</time>
      </trkpt>
      <trkpt lat="49.16022" lon="0.2275">
        <ele>111.5</ele>
        <time>2011-07-02T09:12:55Z</time>
      </trkpt>
      <trkpt lat="49.16054" lon="0.22753">
        <ele>110.7</ele>
        <time>2011-07-02T09:12:59Z</time>
      </trkpt>
      <trkpt lat="49.16084" lon="0.22751">
        <ele>111.5</ele>
        <time>2011-07-02T09:13:03Z</time>
      </trkpt>
      <trkpt lat="49.16114" lon="0.22753">
        <ele>110.9</ele>
        <time>2011-07-02T09:13:07Z</time>
      </trkpt>
      <trkpt lat="49.16143" lon="0.22757">
        <ele>109.5</ele>
        <time>2011-07-02T09:13:11Z</time>
      </trkpt>
      <trkpt lat="49.16172" lon="0.22761">
        <ele>108.4</ele>
        <time>2011-07-02T09:13:15Z</time>
      </trkpt>
      <trkpt lat="49.162" lon="0.22765">
        <ele>107.5</ele>
        <time>2011-07-02T09:13:19Z</time>
      </trkpt>
      <trkpt lat="49.16222" lon="0.22765">
        <ele>107.2</ele>
        <time>2011-07-02T09:13:22Z</time>
      </trkpt>
      <trkpt lat="49.16256" lon="0.22768">
        <ele>108.4</ele>
        <time>2011-07-02T09:13:27Z</time>
      </trkpt>
      <trkpt lat="49.16275" lon="0.2277">
        <ele>108.6</ele>
        <time>2011-07-02T09:13:30Z</time>
      </trkpt>
      <trkpt lat="49.16293" lon="0.22785">
        <ele>108.9</ele>
        <time>2011-07-02T09:13:34Z</time>
      </trkpt>
      <trkpt lat="49.16298" lon="0.22801">
        <ele>110.1</ele>
        <time>2011-07-02T09:13:36Z</time>
      </trkpt>
      <trkpt lat="49.16325" lon="0.2284">
        <ele>112.5</ele>
        <time>2011-07-02T09:13:42Z</time>
      </trkpt>
      <trkpt lat="49.16354" lon="0.22826">
        <ele>111.3</ele>
        <time>2011-07-02T09:13:47Z</time>
      </trkpt>
      <trkpt lat="49.16358" lon="0.22798">
        <ele>111.1</ele>
        <time>2011-07-02T09:13:50Z</time>
      </trkpt>
      <trkpt lat="49.1635" lon="0.22766">
        <ele>111.8</ele>
        <time>2011-07-02T09:13:54Z</time>
      </trkpt>
      <trkpt lat="49.16341" lon="0.22717">
        <ele>111.1</ele>
        <time>2011-07-02T09:13:59Z</time>
      </trkpt>
      <trkpt lat="49.16345" lon="0.22668">
        <ele>109.8</ele>
        <time>2011-07-02T09:14:03Z</time>
      </trkpt>
      <trkpt lat="49.16351" lon="0.22629">
        <ele>107.7</ele>
        <time>2011-07-02T09:14:06Z</time>
      </trkpt>
      <trkpt lat="49.16372" lon="0.22555">
        <ele>106</ele>
        <time>2011-07-02T09:14:11Z</time>
      </trkpt>
      <trkpt lat="49.16394" lon="0.22487">
        <ele>103.6</ele>
        <time>2011-07-02T09:14:15Z</time>
      </trkpt>
      <trkpt lat="49.16424" lon="0.22416">
        <ele>101.4</ele>
        <time>2011-07-02T09:14:19Z</time>
      </trkpt>
      <trkpt lat="49.16469" lon="0.22358">
        <ele>95.1</ele>
        <time>2011-07-02T09:14:23Z</time>
      </trkpt>
      <trkpt lat="49.16525" lon="0.22324">
        <ele>91.7</ele>
        <time>2011-07-02T09:14:27Z</time>
      </trkpt>
      <trkpt lat="49.16583" lon="0.22301">
        <ele>89.6</ele>
        <time>2011-07-02T09:14:31Z</time>
      </trkpt>
      <trkpt lat="49.16637" lon="0.22279">
        <ele>88.2</ele>
        <time>2011-07-02T09:14:35Z</time>
      </trkpt>
      <trkpt lat="49.16685" lon="0.22259">
        <ele>88.2</ele>
        <time>2011-07-02T09:14:39Z</time>
      </trkpt>
      <trkpt lat="49.16728" lon="0.22242">
        <ele>89.3</ele>
        <time>2011-07-02T09:14:43Z</time>
      </trkpt>
      <trkpt lat="49.16768" lon="0.22229">
        <ele>89.4</ele>
        <time>2011-07-02T09:14:47Z</time>
      </trkpt>
      <trkpt lat="49.16804" lon="0.22215">
        <ele>88.1</ele>
        <time>2011-07-02T09:14:51Z</time>
      </trkpt>
      <trkpt lat="49.16837" lon="0.22202">
        <ele>86.9</ele>
        <time>2011-07-02T09:14:55Z</time>
      </trkpt>
      <trkpt lat="49.1687" lon="0.2219">
        <ele>85.3</ele>
        <time>2011-07-02T09:14:59Z</time>
      </trkpt>
      <trkpt lat="49.169" lon="0.2218">
        <ele>84.5</ele>
        <time>2011-07-02T09:15:03Z</time>
      </trkpt>
      <trkpt lat="49.1693" lon="0.22168">
        <ele>84.9</ele>
        <time>2011-07-02T09:15:07Z</time>
      </trkpt>
      <trkpt lat="49.16959" lon="0.22157">
        <ele>85.7</ele>
        <time>2011-07-02T09:15:11Z</time>
      </trkpt>
      <trkpt lat="49.16986" lon="0.22142">
        <ele>85.9</ele>
        <time>2011-07-02T09:15:15Z</time>
      </trkpt>
      <trkpt lat="49.17011" lon="0.22123">
        <ele>86.4</ele>
        <time>2011-07-02T09:15:19Z</time>
      </trkpt>
      <trkpt lat="49.17033" lon="0.22099">
        <ele>85.9</ele>
        <time>2011-07-02T09:15:23Z</time>
      </trkpt>
      <trkpt lat="49.17044" lon="0.22086">
        <ele>85.6</ele>
        <time>2011-07-02T09:15:25Z</time>
      </trkpt>
      <trkpt lat="49.17073" lon="0.22039">
        <ele>83.2</ele>
        <time>2011-07-02T09:15:31Z</time>
      </trkpt>
      <trkpt lat="49.1709" lon="0.22001">
        <ele>82.2</ele>
        <time>2011-07-02T09:15:35Z</time>
      </trkpt>
      <trkpt lat="49.17251" lon="0.21385">
        <ele>80.7</ele>
        <time>2011-07-02T09:16:39Z</time>
      </trkpt>
      <trkpt lat="49.17273" lon="0.21355">
        <ele>81.9</ele>
        <time>2011-07-02T09:16:43Z</time>
      </trkpt>
      <trkpt lat="49.17294" lon="0.21332">
        <ele>81.9</ele>
        <time>2011-07-02T09:16:47Z</time>
      </trkpt>
      <trkpt lat="49.17317" lon="0.21308">
        <ele>81.7</ele>
        <time>2011-07-02T09:16:51Z</time>
      </trkpt>
      <trkpt lat="49.17328" lon="0.21298">
        <ele>82.3</ele>
        <time>2011-07-02T09:16:53Z</time>
      </trkpt>
      <trkpt lat="49.17349" lon="0.21279">
        <ele>82.7</ele>
        <time>2011-07-02T09:16:56Z</time>
      </trkpt>
      <trkpt lat="49.17383" lon="0.21251">
        <ele>83</ele>
        <time>2011-07-02T09:17:02Z</time>
      </trkpt>
      <trkpt lat="49.17398" lon="0.21234">
        <ele>82.5</ele>
        <time>2011-07-02T09:17:05Z</time>
      </trkpt>
      <trkpt lat="49.17427" lon="0.21212">
        <ele>83.4</ele>
        <time>2011-07-02T09:17:10Z</time>
      </trkpt>
      <trkpt lat="49.17456" lon="0.21194">
        <ele>84.8</ele>
        <time>2011-07-02T09:17:14Z</time>
      </trkpt>
      <trkpt lat="49.17482" lon="0.21176">
        <ele>85.2</ele>
        <time>2011-07-02T09:17:18Z</time>
      </trkpt>
      <trkpt lat="49.1751" lon="0.21161">
        <ele>85.2</ele>
        <time>2011-07-02T09:17:22Z</time>
      </trkpt>
      <trkpt lat="49.17537" lon="0.21144">
        <ele>86.8</ele>
        <time>2011-07-02T09:17:26Z</time>
      </trkpt>
      <trkpt lat="49.17566" lon="0.2113">
        <ele>84.5</ele>
        <time>2011-07-02T09:17:30Z</time>
      </trkpt>
      <trkpt lat="49.17594" lon="0.21114">
        <ele>83.6</ele>
        <time>2011-07-02T09:17:34Z</time>
      </trkpt>
      <trkpt lat="49.17621" lon="0.21096">
        <ele>84.4</ele>
        <time>2011-07-02T09:17:38Z</time>
      </trkpt>
      <trkpt lat="49.17647" lon="0.21074">
        <ele>84.2</ele>
        <time>2011-07-02T09:17:42Z</time>
      </trkpt>
      <trkpt lat="49.17673" lon="0.2105">
        <ele>83.1</ele>
        <time>2011-07-02T09:17:46Z</time>
      </trkpt>
      <trkpt lat="49.17702" lon="0.21026">
        <ele>81.5</ele>
        <time>2011-07-02T09:17:50Z</time>
      </trkpt>
      <trkpt lat="49.17732" lon="0.21004">
        <ele>81.5</ele>
        <time>2011-07-02T09:17:54Z</time>
      </trkpt>
      <trkpt lat="49.17765" lon="0.20988">
        <ele>82</ele>
        <time>2011-07-02T09:17:58Z</time>
      </trkpt>
      <trkpt lat="49.17796" lon="0.20978">
        <ele>81.6</ele>
        <time>2011-07-02T09:18:02Z</time>
      </trkpt>
      <trkpt lat="49.17826" lon="0.20969">
        <ele>81.3</ele>
        <time>2011-07-02T09:18:06Z</time>
      </trkpt>
      <trkpt lat="49.17857" lon="0.20959">
        <ele>81.5</ele>
        <time>2011-07-02T09:18:10Z</time>
      </trkpt>
      <trkpt lat="49.17887" lon="0.2095">
        <ele>80.9</ele>
        <time>2011-07-02T09:18:14Z</time>
      </trkpt>
      <trkpt lat="49.17918" lon="0.20941">
        <ele>81.4</ele>
        <time>2011-07-02T09:18:18Z</time>
      </trkpt>
      <trkpt lat="49.17948" lon="0.20933">
        <ele>81.4</ele>
        <time>2011-07-02T09:18:22Z</time>
      </trkpt>
      <trkpt lat="49.17978" lon="0.20931">
        <ele>81.6</ele>
        <time>2011-07-02T09:18:26Z</time>
      </trkpt>
      <trkpt lat="49.18006" lon="0.20936">
        <ele>82.1</ele>
        <time>2011-07-02T09:18:30Z</time>
      </trkpt>
      <trkpt lat="49.18032" lon="0.20941">
        <ele>82.9</ele>
        <time>2011-07-02T09:18:34Z</time>
      </trkpt>
      <trkpt lat="49.1805" lon="0.2094">
        <ele>83.7</ele>
        <time>2011-07-02T09:18:37Z</time>
      </trkpt>
      <trkpt lat="49.18073" lon="0.20937">
        <ele>83.5</ele>
        <time>2011-07-02T09:18:40Z</time>
      </trkpt>
      <trkpt lat="49.18116" lon="0.20946">
        <ele>83</ele>
        <time>2011-07-02T09:18:46Z</time>
      </trkpt>
      <trkpt lat="49.18137" lon="0.20948">
        <ele>83.5</ele>
        <time>2011-07-02T09:18:49Z</time>
      </trkpt>
      <trkpt lat="49.1817" lon="0.20956">
        <ele>85.2</ele>
        <time>2011-07-02T09:18:54Z</time>
      </trkpt>
      <trkpt lat="49.182" lon="0.20964">
        <ele>85.1</ele>
        <time>2011-07-02T09:18:58Z</time>
      </trkpt>
      <trkpt lat="49.18221" lon="0.20968">
        <ele>84.4</ele>
        <time>2011-07-02T09:19:01Z</time>
      </trkpt>
      <trkpt lat="49.18246" lon="0.20972">
        <ele>84.2</ele>
        <time>2011-07-02T09:19:05Z</time>
      </trkpt>
      <trkpt lat="49.1827" lon="0.20975">
        <ele>84.4</ele>
        <time>2011-07-02T09:19:09Z</time>
      </trkpt>
      <trkpt lat="49.18301" lon="0.20975">
        <ele>85.5</ele>
        <time>2011-07-02T09:19:14Z</time>
      </trkpt>
      <trkpt lat="49.1832" lon="0.20975">
        <ele>85.9</ele>
        <time>2011-07-02T09:19:17Z</time>
      </trkpt>
      <trkpt lat="49.18352" lon="0.20973">
        <ele>86.1</ele>
        <time>2011-07-02T09:19:22Z</time>
      </trkpt>
      <trkpt lat="49.18371" lon="0.20972">
        <ele>86.8</ele>
        <time>2011-07-02T09:19:25Z</time>
      </trkpt>
      <trkpt lat="49.18395" lon="0.20969">
        <ele>86.2</ele>
        <time>2011-07-02T09:19:29Z</time>
      </trkpt>
      <trkpt lat="49.18419" lon="0.20968">
        <ele>86.6</ele>
        <time>2011-07-02T09:19:33Z</time>
      </trkpt>
      <trkpt lat="49.18446" lon="0.20968">
        <ele>86.7</ele>
        <time>2011-07-02T09:19:37Z</time>
      </trkpt>
      <trkpt lat="49.1848" lon="0.20968">
        <ele>87.4</ele>
        <time>2011-07-02T09:19:42Z</time>
      </trkpt>
      <trkpt lat="49.18509" lon="0.20968">
        <ele>88.4</ele>
        <time>2011-07-02T09:19:46Z</time>
      </trkpt>
      <trkpt lat="49.18536" lon="0.20968">
        <ele>89.2</ele>
        <time>2011-07-02T09:19:50Z</time>
      </trkpt>
      <trkpt lat="49.18556" lon="0.20963">
        <ele>89.4</ele>
        <time>2011-07-02T09:19:53Z</time>
      </trkpt>
      <trkpt lat="49.18585" lon="0.20958">
        <ele>89.4</ele>
        <time>2011-07-02T09:19:58Z</time>
      </trkpt>
      <trkpt lat="49.18611" lon="0.20953">
        <ele>89.1</ele>
        <time>2011-07-02T09:20:02Z</time>
      </trkpt>
      <trkpt lat="49.1864" lon="0.20952">
        <ele>90</ele>
        <time>2011-07-02T09:20:06Z</time>
      </trkpt>
      <trkpt lat="49.1867" lon="0.20948">
        <ele>91.3</ele>
        <time>2011-07-02T09:20:10Z</time>
      </trkpt>
      <trkpt lat="49.18696" lon="0.20948">
        <ele>92.7</ele>
        <time>2011-07-02T09:20:14Z</time>
      </trkpt>
      <trkpt lat="49.18723" lon="0.20949">
        <ele>92.6</ele>
        <time>2011-07-02T09:20:18Z</time>
      </trkpt>
      <trkpt lat="49.18752" lon="0.2095">
        <ele>92.5</ele>
        <time>2011-07-02T09:20:22Z</time>
      </trkpt>
      <trkpt lat="49.18783" lon="0.20953">
        <ele>93.7</ele>
        <time>2011-07-02T09:20:26Z</time>
      </trkpt>
      <trkpt lat="49.18811" lon="0.20951">
        <ele>94.7</ele>
        <time>2011-07-02T09:20:30Z</time>
      </trkpt>
      <trkpt lat="49.18838" lon="0.20947">
        <ele>95.6</ele>
        <time>2011-07-02T09:20:34Z</time>
      </trkpt>
      <trkpt lat="49.1887" lon="0.20949">
        <ele>93.9</ele>
        <time>2011-07-02T09:20:38Z</time>
      </trkpt>
      <trkpt lat="49.18901" lon="0.20951">
        <ele>94.5</ele>
        <time>2011-07-02T09:20:42Z</time>
      </trkpt>
      <trkpt lat="49.18929" lon="0.2095">
        <ele>94.7</ele>
        <time>2011-07-02T09:20:46Z</time>
      </trkpt>
      <trkpt lat="49.1896" lon="0.20959">
        <ele>95.4</ele>
        <time>2011-07-02T09:20:50Z</time>
      </trkpt>
      <trkpt lat="49.18989" lon="0.20966">
        <ele>95.4</ele>
        <time>2011-07-02T09:20:54Z</time>
      </trkpt>
      <trkpt lat="49.19017" lon="0.2097">
        <ele>95.6</ele>
        <time>2011-07-02T09:20:58Z</time>
      </trkpt>
      <trkpt lat="49.19048" lon="0.20974">
        <ele>96.2</ele>
        <time>2011-07-02T09:21:02Z</time>
      </trkpt>
      <trkpt lat="49.19074" lon="0.20978">
        <ele>96.3</ele>
        <time>2011-07-02T09:21:06Z</time>
      </trkpt>
      <trkpt lat="49.19104" lon="0.20982">
        <ele>94.9</ele>
        <time>2011-07-02T09:21:10Z</time>
      </trkpt>
      <trkpt lat="49.19132" lon="0.20979">
        <ele>95.5</ele>
        <time>2011-07-02T09:21:14Z</time>
      </trkpt>
      <trkpt lat="49.19161" lon="0.20972">
        <ele>97.7</ele>
        <time>2011-07-02T09:21:18Z</time>
      </trkpt>
      <trkpt lat="49.1919" lon="0.20964">
        <ele>97.1</ele>
        <time>2011-07-02T09:21:22Z</time>
      </trkpt>
      <trkpt lat="49.19217" lon="0.20957">
        <ele>95.9</ele>
        <time>2011-07-02T09:21:26Z</time>
      </trkpt>
      <trkpt lat="49.19239" lon="0.20952">
        <ele>97.4</ele>
        <time>2011-07-02T09:21:29Z</time>
      </trkpt>
      <trkpt lat="49.19264" lon="0.20943">
        <ele>96.4</ele>
        <time>2011-07-02T09:21:33Z</time>
      </trkpt>
      <trkpt lat="49.19297" lon="0.20932">
        <ele>96.5</ele>
        <time>2011-07-02T09:21:38Z</time>
      </trkpt>
      <trkpt lat="49.19329" lon="0.20932">
        <ele>94.9</ele>
        <time>2011-07-02T09:21:42Z</time>
      </trkpt>
      <trkpt lat="49.19358" lon="0.20939">
        <ele>94.1</ele>
        <time>2011-07-02T09:21:46Z</time>
      </trkpt>
      <trkpt lat="49.19385" lon="0.20944">
        <ele>93.6</ele>
        <time>2011-07-02T09:21:50Z</time>
      </trkpt>
      <trkpt lat="49.19415" lon="0.2095">
        <ele>93.7</ele>
        <time>2011-07-02T09:21:54Z</time>
      </trkpt>
      <trkpt lat="49.19436" lon="0.20954">
        <ele>93.4</ele>
        <time>2011-07-02T09:21:57Z</time>
      </trkpt>
      <trkpt lat="49.19469" lon="0.20961">
        <ele>92.4</ele>
        <time>2011-07-02T09:22:02Z</time>
      </trkpt>
      <trkpt lat="49.19483" lon="0.20964">
        <ele>92.1</ele>
        <time>2011-07-02T09:22:04Z</time>
      </trkpt>
      <trkpt lat="49.19516" lon="0.20972">
        <ele>92.1</ele>
        <time>2011-07-02T09:22:09Z</time>
      </trkpt>
      <trkpt lat="49.19553" lon="0.20983">
        <ele>90.7</ele>
        <time>2011-07-02T09:22:14Z</time>
      </trkpt>
      <trkpt lat="49.1958" lon="0.20988">
        <ele>91.2</ele>
        <time>2011-07-02T09:22:18Z</time>
      </trkpt>
      <trkpt lat="49.19608" lon="0.20994">
        <ele>90.7</ele>
        <time>2011-07-02T09:22:22Z</time>
      </trkpt>
      <trkpt lat="49.19629" lon="0.20997">
        <ele>89.7</ele>
        <time>2011-07-02T09:22:25Z</time>
      </trkpt>
      <trkpt lat="49.19661" lon="0.21004">
        <ele>90.7</ele>
        <time>2011-07-02T09:22:30Z</time>
      </trkpt>
      <trkpt lat="49.19686" lon="0.21007">
        <ele>92.7</ele>
        <time>2011-07-02T09:22:34Z</time>
      </trkpt>
      <trkpt lat="49.19713" lon="0.2101">
        <ele>93.8</ele>
        <time>2011-07-02T09:22:38Z</time>
      </trkpt>
      <trkpt lat="49.19741" lon="0.21013">
        <ele>93.9</ele>
        <time>2011-07-02T09:22:42Z</time>
      </trkpt>
      <trkpt lat="49.19762" lon="0.21016">
        <ele>94.3</ele>
        <time>2011-07-02T09:22:45Z</time>
      </trkpt>
      <trkpt lat="49.19799" lon="0.21029">
        <ele>93.9</ele>
        <time>2011-07-02T09:22:50Z</time>
      </trkpt>
      <trkpt lat="49.19831" lon="0.21049">
        <ele>92.9</ele>
        <time>2011-07-02T09:22:54Z</time>
      </trkpt>
      <trkpt lat="49.19858" lon="0.21067">
        <ele>92.5</ele>
        <time>2011-07-02T09:22:58Z</time>
      </trkpt>
      <trkpt lat="49.1988" lon="0.21081">
        <ele>92.7</ele>
        <time>2011-07-02T09:23:01Z</time>
      </trkpt>
      <trkpt lat="49.19913" lon="0.211">
        <ele>93.3</ele>
        <time>2011-07-02T09:23:06Z</time>
      </trkpt>
      <trkpt lat="49.19942" lon="0.21129">
        <ele>92.7</ele>
        <time>2011-07-02T09:23:10Z</time>
      </trkpt>
      <trkpt lat="49.19976" lon="0.2115">
        <ele>92</ele>
        <time>2011-07-02T09:23:14Z</time>
      </trkpt>
      <trkpt lat="49.20004" lon="0.21166">
        <ele>91</ele>
        <time>2011-07-02T09:23:18Z</time>
      </trkpt>
      <trkpt lat="49.20035" lon="0.21181">
        <ele>90.1</ele>
        <time>2011-07-02T09:23:22Z</time>
      </trkpt>
      <trkpt lat="49.20067" lon="0.21202">
        <ele>89.4</ele>
        <time>2011-07-02T09:23:26Z</time>
      </trkpt>
      <trkpt lat="49.201" lon="0.21221">
        <ele>87.8</ele>
        <time>2011-07-02T09:23:30Z</time>
      </trkpt>
      <trkpt lat="49.2013" lon="0.21238">
        <ele>87.2</ele>
        <time>2011-07-02T09:23:34Z</time>
      </trkpt>
      <trkpt lat="49.20161" lon="0.21259">
        <ele>86.1</ele>
        <time>2011-07-02T09:23:38Z</time>
      </trkpt>
      <trkpt lat="49.20183" lon="0.21264">
        <ele>86.9</ele>
        <time>2011-07-02T09:23:41Z</time>
      </trkpt>
      <trkpt lat="49.20202" lon="0.21286">
        <ele>86.8</ele>
        <time>2011-07-02T09:23:45Z</time>
      </trkpt>
      <trkpt lat="49.20251" lon="0.21335">
        <ele>86.5</ele>
        <time>2011-07-02T09:23:51Z</time>
      </trkpt>
      <trkpt lat="49.20269" lon="0.21357">
        <ele>86.1</ele>
        <time>2011-07-02T09:23:54Z</time>
      </trkpt>
      <trkpt lat="49.20295" lon="0.21386">
        <ele>85.9</ele>
        <time>2011-07-02T09:23:58Z</time>
      </trkpt>
      <trkpt lat="49.20328" lon="0.21427">
        <ele>85.7</ele>
        <time>2011-07-02T09:24:03Z</time>
      </trkpt>
      <trkpt lat="49.20354" lon="0.21461">
        <ele>85.5</ele>
        <time>2011-07-02T09:24:07Z</time>
      </trkpt>
      <trkpt lat="49.20377" lon="0.21484">
        <ele>86.6</ele>
        <time>2011-07-02T09:24:11Z</time>
      </trkpt>
      <trkpt lat="49.20409" lon="0.21515">
        <ele>86.6</ele>
        <time>2011-07-02T09:24:15Z</time>
      </trkpt>
      <trkpt lat="49.20439" lon="0.21533">
        <ele>86.2</ele>
        <time>2011-07-02T09:24:19Z</time>
      </trkpt>
      <trkpt lat="49.20477" lon="0.21554">
        <ele>83.4</ele>
        <time>2011-07-02T09:24:23Z</time>
      </trkpt>
      <trkpt lat="49.20513" lon="0.21562">
        <ele>80.2</ele>
        <time>2011-07-02T09:24:27Z</time>
      </trkpt>
      <trkpt lat="49.20545" lon="0.21566">
        <ele>79.9</ele>
        <time>2011-07-02T09:24:31Z</time>
      </trkpt>
      <trkpt lat="49.20574" lon="0.21567">
        <ele>80.6</ele>
        <time>2011-07-02T09:24:35Z</time>
      </trkpt>
      <trkpt lat="49.20596" lon="0.21569">
        <ele>80.3</ele>
        <time>2011-07-02T09:24:38Z</time>
      </trkpt>
      <trkpt lat="49.20626" lon="0.21563">
        <ele>81.6</ele>
        <time>2011-07-02T09:24:43Z</time>
      </trkpt>
      <trkpt lat="49.20638" lon="0.21563">
        <ele>81.1</ele>
        <time>2011-07-02T09:24:45Z</time>
      </trkpt>
      <trkpt lat="49.20698" lon="0.21577">
        <ele>78.5</ele>
        <time>2011-07-02T09:24:51Z</time>
      </trkpt>
      <trkpt lat="49.20732" lon="0.21583">
        <ele>77.8</ele>
        <time>2011-07-02T09:24:55Z</time>
      </trkpt>
      <trkpt lat="49.20762" lon="0.21581">
        <ele>76.8</ele>
        <time>2011-07-02T09:24:59Z</time>
      </trkpt>
      <trkpt lat="49.208" lon="0.21581">
        <ele>75.7</ele>
        <time>2011-07-02T09:25:03Z</time>
      </trkpt>
      <trkpt lat="49.2084" lon="0.21575">
        <ele>75.7</ele>
        <time>2011-07-02T09:25:07Z</time>
      </trkpt>
      <trkpt lat="49.20872" lon="0.21571">
        <ele>78.2</ele>
        <time>2011-07-02T09:25:11Z</time>
      </trkpt>
      <trkpt lat="49.20903" lon="0.21567">
        <ele>79.1</ele>
        <time>2011-07-02T09:25:15Z</time>
      </trkpt>
      <trkpt lat="49.20934" lon="0.21557">
        <ele>80.5</ele>
        <time>2011-07-02T09:25:19Z</time>
      </trkpt>
      <trkpt lat="49.20968" lon="0.21556">
        <ele>78.3</ele>
        <time>2011-07-02T09:25:23Z</time>
      </trkpt>
      <trkpt lat="49.21" lon="0.21553">
        <ele>76.8</ele>
        <time>2011-07-02T09:25:27Z</time>
      </trkpt>
      <trkpt lat="49.21032" lon="0.2155">
        <ele>75.4</ele>
        <time>2011-07-02T09:25:31Z</time>
      </trkpt>
      <trkpt lat="49.2106" lon="0.21546">
        <ele>75.6</ele>
        <time>2011-07-02T09:25:35Z</time>
      </trkpt>
      <trkpt lat="49.2109" lon="0.21542">
        <ele>76.2</ele>
        <time>2011-07-02T09:25:39Z</time>
      </trkpt>
      <trkpt lat="49.21116" lon="0.21537">
        <ele>76.6</ele>
        <time>2011-07-02T09:25:43Z</time>
      </trkpt>
      <trkpt lat="49.21144" lon="0.21533">
        <ele>77.6</ele>
        <time>2011-07-02T09:25:47Z</time>
      </trkpt>
      <trkpt lat="49.21164" lon="0.21532">
        <ele>79.3</ele>
        <time>2011-07-02T09:25:50Z</time>
      </trkpt>
      <trkpt lat="49.21176" lon="0.21528">
        <ele>79.2</ele>
        <time>2011-07-02T09:25:52Z</time>
      </trkpt>
      <trkpt lat="49.21213" lon="0.21524">
        <ele>78.4</ele>
        <time>2011-07-02T09:25:58Z</time>
      </trkpt>
      <trkpt lat="49.21234" lon="0.21522">
        <ele>78.6</ele>
        <time>2011-07-02T09:26:02Z</time>
      </trkpt>
      <trkpt lat="49.21262" lon="0.21515">
        <ele>79.5</ele>
        <time>2011-07-02T09:26:07Z</time>
      </trkpt>
      <trkpt lat="49.2128" lon="0.21514">
        <ele>79.6</ele>
        <time>2011-07-02T09:26:10Z</time>
      </trkpt>
      <trkpt lat="49.21302" lon="0.21511">
        <ele>80.1</ele>
        <time>2011-07-02T09:26:14Z</time>
      </trkpt>
      <trkpt lat="49.21311" lon="0.2151">
        <ele>80.6</ele>
        <time>2011-07-02T09:26:16Z</time>
      </trkpt>
      <trkpt lat="49.21339" lon="0.21499">
        <ele>81.8</ele>
        <time>2011-07-02T09:26:22Z</time>
      </trkpt>
      <trkpt lat="49.21366" lon="0.21497">
        <ele>82</ele>
        <time>2011-07-02T09:26:27Z</time>
      </trkpt>
      <trkpt lat="49.21381" lon="0.21496">
        <ele>82.9</ele>
        <time>2011-07-02T09:26:29Z</time>
      </trkpt>
      <trkpt lat="49.21418" lon="0.21493">
        <ele>83.6</ele>
        <time>2011-07-02T09:26:35Z</time>
      </trkpt>
      <trkpt lat="49.21456" lon="0.21488">
        <ele>85.1</ele>
        <time>2011-07-02T09:26:39Z</time>
      </trkpt>
      <trkpt lat="49.21493" lon="0.21482">
        <ele>85.8</ele>
        <time>2011-07-02T09:26:43Z</time>
      </trkpt>
      <trkpt lat="49.21531" lon="0.21478">
        <ele>84.6</ele>
        <time>2011-07-02T09:26:47Z</time>
      </trkpt>
      <trkpt lat="49.21566" lon="0.21474">
        <ele>84.2</ele>
        <time>2011-07-02T09:26:51Z</time>
      </trkpt>
      <trkpt lat="49.21593" lon="0.21469">
        <ele>84.1</ele>
        <time>2011-07-02T09:26:54Z</time>
      </trkpt>
      <trkpt lat="49.21642" lon="0.21464">
        <ele>81.1</ele>
        <time>2011-07-02T09:26:59Z</time>
      </trkpt>
      <trkpt lat="49.21677" lon="0.2146">
        <ele>80.5</ele>
        <time>2011-07-02T09:27:03Z</time>
      </trkpt>
      <trkpt lat="49.21711" lon="0.21455">
        <ele>80.4</ele>
        <time>2011-07-02T09:27:07Z</time>
      </trkpt>
      <trkpt lat="49.21744" lon="0.21456">
        <ele>78.9</ele>
        <time>2011-07-02T09:27:11Z</time>
      </trkpt>
      <trkpt lat="49.21755" lon="0.21454">
        <ele>80</ele>
        <time>2011-07-02T09:27:12Z</time>
      </trkpt>
      <trkpt lat="49.21788" lon="0.21449">
        <ele>80.9</ele>
        <time>2011-07-02T09:27:16Z</time>
      </trkpt>
      <trkpt lat="49.21838" lon="0.21461">
        <ele>79.7</ele>
        <time>2011-07-02T09:27:22Z</time>
      </trkpt>
      <trkpt lat="49.21867" lon="0.21459">
        <ele>77.4</ele>
        <time>2011-07-02T09:27:27Z</time>
      </trkpt>
      <trkpt lat="49.21895" lon="0.21459">
        <ele>76.4</ele>
        <time>2011-07-02T09:27:31Z</time>
      </trkpt>
      <trkpt lat="49.2193" lon="0.21456">
        <ele>75</ele>
        <time>2011-07-02T09:27:35Z</time>
      </trkpt>
      <trkpt lat="49.21959" lon="0.21456">
        <ele>75.4</ele>
        <time>2011-07-02T09:27:39Z</time>
      </trkpt>
      <trkpt lat="49.21992" lon="0.21454">
        <ele>73.8</ele>
        <time>2011-07-02T09:27:43Z</time>
      </trkpt>
      <trkpt lat="49.22024" lon="0.21452">
        <ele>71.8</ele>
        <time>2011-07-02T09:27:47Z</time>
      </trkpt>
      <trkpt lat="49.22032" lon="0.21453">
        <ele>72.2</ele>
        <time>2011-07-02T09:27:48Z</time>
      </trkpt>
      <trkpt lat="49.22079" lon="0.21452">
        <ele>71.4</ele>
        <time>2011-07-02T09:27:54Z</time>
      </trkpt>
      <trkpt lat="49.22114" lon="0.2145">
        <ele>72.3</ele>
        <time>2011-07-02T09:27:59Z</time>
      </trkpt>
      <trkpt lat="49.2214" lon="0.21441">
        <ele>72.1</ele>
        <time>2011-07-02T09:28:03Z</time>
      </trkpt>
      <trkpt lat="49.2216" lon="0.21437">
        <ele>71.9</ele>
        <time>2011-07-02T09:28:06Z</time>
      </trkpt>
      <trkpt lat="49.22188" lon="0.21438">
        <ele>71.3</ele>
        <time>2011-07-02T09:28:11Z</time>
      </trkpt>
      <trkpt lat="49.22206" lon="0.21438">
        <ele>72</ele>
        <time>2011-07-02T09:28:14Z</time>
      </trkpt>
      <trkpt lat="49.22243" lon="0.21429">
        <ele>71.6</ele>
        <time>2011-07-02T09:28:19Z</time>
      </trkpt>
      <trkpt lat="49.22272" lon="0.21417">
        <ele>70.7</ele>
        <time>2011-07-02T09:28:24Z</time>
      </trkpt>
      <trkpt lat="49.22311" lon="0.21393">
        <ele>68.6</ele>
        <time>2011-07-02T09:28:28Z</time>
      </trkpt>
      <trkpt lat="49.22344" lon="0.21386">
        <ele>66.8</ele>
        <time>2011-07-02T09:28:32Z</time>
      </trkpt>
      <trkpt lat="49.22377" lon="0.21378">
        <ele>69.2</ele>
        <time>2011-07-02T09:28:36Z</time>
      </trkpt>
      <trkpt lat="49.22408" lon="0.21375">
        <ele>71.2</ele>
        <time>2011-07-02T09:28:40Z</time>
      </trkpt>
      <trkpt lat="49.22438" lon="0.21379">
        <ele>71</ele>
        <time>2011-07-02T09:28:44Z</time>
      </trkpt>
      <trkpt lat="49.22468" lon="0.21378">
        <ele>71.5</ele>
        <time>2011-07-02T09:28:48Z</time>
      </trkpt>
      <trkpt lat="49.22498" lon="0.21371">
        <ele>70.3</ele>
        <time>2011-07-02T09:28:52Z</time>
      </trkpt>
      <trkpt lat="49.22525" lon="0.21355">
        <ele>69.7</ele>
        <time>2011-07-02T09:28:56Z</time>
      </trkpt>
      <trkpt lat="49.22551" lon="0.21331">
        <ele>69.9</ele>
        <time>2011-07-02T09:29:00Z</time>
      </trkpt>
      <trkpt lat="49.22576" lon="0.21306">
        <ele>68.9</ele>
        <time>2011-07-02T09:29:04Z</time>
      </trkpt>
      <trkpt lat="49.22611" lon="0.21266">
        <ele>67.4</ele>
        <time>2011-07-02T09:29:10Z</time>
      </trkpt>
      <trkpt lat="49.22643" lon="0.21238">
        <ele>68.4</ele>
        <time>2011-07-02T09:29:15Z</time>
      </trkpt>
      <trkpt lat="49.2267" lon="0.21224">
        <ele>69.5</ele>
        <time>2011-07-02T09:29:19Z</time>
      </trkpt>
      <trkpt lat="49.22692" lon="0.21215">
        <ele>69.8</ele>
        <time>2011-07-02T09:29:22Z</time>
      </trkpt>
      <trkpt lat="49.2272" lon="0.21203">
        <ele>70.4</ele>
        <time>2011-07-02T09:29:26Z</time>
      </trkpt>
      <trkpt lat="49.2276" lon="0.212">
        <ele>70</ele>
        <time>2011-07-02T09:29:31Z</time>
      </trkpt>
      <trkpt lat="49.22792" lon="0.21198">
        <ele>70.4</ele>
        <time>2011-07-02T09:29:35Z</time>
      </trkpt>
      <trkpt lat="49.23225" lon="0.20874">
        <ele>67.5</ele>
        <time>2011-07-02T09:30:39Z</time>
      </trkpt>
      <trkpt lat="49.23251" lon="0.20851">
        <ele>68.1</ele>
        <time>2011-07-02T09:30:43Z</time>
      </trkpt>
      <trkpt lat="49.23272" lon="0.20835">
        <ele>67.5</ele>
        <time>2011-07-02T09:30:46Z</time>
      </trkpt>
      <trkpt lat="49.23304" lon="0.2081">
        <ele>68.6</ele>
        <time>2011-07-02T09:30:51Z</time>
      </trkpt>
      <trkpt lat="49.23328" lon="0.20792">
        <ele>68.8</ele>
        <time>2011-07-02T09:30:55Z</time>
      </trkpt>
      <trkpt lat="49.23341" lon="0.20784">
        <ele>68.5</ele>
        <time>2011-07-02T09:30:57Z</time>
      </trkpt>
      <trkpt lat="49.23378" lon="0.20763">
        <ele>68.3</ele>
        <time>2011-07-02T09:31:03Z</time>
      </trkpt>
      <trkpt lat="49.23396" lon="0.20761">
        <ele>67.5</ele>
        <time>2011-07-02T09:31:06Z</time>
      </trkpt>
      <trkpt lat="49.23422" lon="0.20758">
        <ele>66.6</ele>
        <time>2011-07-02T09:31:10Z</time>
      </trkpt>
      <trkpt lat="49.23456" lon="0.20749">
        <ele>66.6</ele>
        <time>2011-07-02T09:31:15Z</time>
      </trkpt>
      <trkpt lat="49.23485" lon="0.20741">
        <ele>66.1</ele>
        <time>2011-07-02T09:31:19Z</time>
      </trkpt>
      <trkpt lat="49.23518" lon="0.20729">
        <ele>67.6</ele>
        <time>2011-07-02T09:31:23Z</time>
      </trkpt>
      <trkpt lat="49.23552" lon="0.20717">
        <ele>69</ele>
        <time>2011-07-02T09:31:27Z</time>
      </trkpt>
      <trkpt lat="49.23587" lon="0.20708">
        <ele>69.2</ele>
        <time>2011-07-02T09:31:31Z</time>
      </trkpt>
      <trkpt lat="49.23613" lon="0.20711">
        <ele>68.8</ele>
        <time>2011-07-02T09:31:34Z</time>
      </trkpt>
      <trkpt lat="49.23657" lon="0.20729">
        <ele>69.8</ele>
        <time>2011-07-02T09:31:39Z</time>
      </trkpt>
      <trkpt lat="49.23687" lon="0.20753">
        <ele>69.7</ele>
        <time>2011-07-02T09:31:43Z</time>
      </trkpt>
      <trkpt lat="49.23713" lon="0.20779">
        <ele>70.7</ele>
        <time>2011-07-02T09:31:47Z</time>
      </trkpt>
      <trkpt lat="49.23739" lon="0.20802">
        <ele>72.2</ele>
        <time>2011-07-02T09:31:51Z</time>
      </trkpt>
      <trkpt lat="49.23765" lon="0.20831">
        <ele>70.7</ele>
        <time>2011-07-02T09:31:55Z</time>
      </trkpt>
      <trkpt lat="49.23793" lon="0.20862">
        <ele>70.3</ele>
        <time>2011-07-02T09:31:59Z</time>
      </trkpt>
      <trkpt lat="49.23814" lon="0.2088">
        <ele>70.7</ele>
        <time>2011-07-02T09:32:02Z</time>
      </trkpt>
      <trkpt lat="49.23838" lon="0.20902">
        <ele>69.8</ele>
        <time>2011-07-02T09:32:06Z</time>
      </trkpt>
      <trkpt lat="49.23861" lon="0.20915">
        <ele>71</ele>
        <time>2011-07-02T09:32:11Z</time>
      </trkpt>
      <trkpt lat="49.23869" lon="0.20917">
        <ele>71.4</ele>
        <time>2011-07-02T09:32:12Z</time>
      </trkpt>
      <trkpt lat="49.23899" lon="0.20943">
        <ele>75.5</ele>
        <time>2011-07-02T09:32:19Z</time>
      </trkpt>
      <trkpt lat="49.23926" lon="0.20975">
        <ele>77.3</ele>
        <time>2011-07-02T09:32:23Z</time>
      </trkpt>
      <trkpt lat="49.23959" lon="0.21011">
        <ele>78.8</ele>
        <time>2011-07-02T09:32:27Z</time>
      </trkpt>
      <trkpt lat="49.23986" lon="0.21036">
        <ele>79.3</ele>
        <time>2011-07-02T09:32:31Z</time>
      </trkpt>
      <trkpt lat="49.24013" lon="0.21065">
        <ele>78.6</ele>
        <time>2011-07-02T09:32:35Z</time>
      </trkpt>
      <trkpt lat="49.24038" lon="0.21091">
        <ele>78.5</ele>
        <time>2011-07-02T09:32:39Z</time>
      </trkpt>
      <trkpt lat="49.24066" lon="0.21119">
        <ele>77.7</ele>
        <time>2011-07-02T09:32:43Z</time>
      </trkpt>
      <trkpt lat="49.24096" lon="0.21143">
        <ele>70.5</ele>
        <time>2011-07-02T09:32:47Z</time>
      </trkpt>
      <trkpt lat="49.24127" lon="0.21147">
        <ele>68.9</ele>
        <time>2011-07-02T09:32:51Z</time>
      </trkpt>
      <trkpt lat="49.24158" lon="0.21153">
        <ele>67.9</ele>
        <time>2011-07-02T09:32:55Z</time>
      </trkpt>
      <trkpt lat="49.24187" lon="0.21153">
        <ele>67</ele>
        <time>2011-07-02T09:32:59Z</time>
      </trkpt>
      <trkpt lat="49.24219" lon="0.21153">
        <ele>65.5</ele>
        <time>2011-07-02T09:33:03Z</time>
      </trkpt>
      <trkpt lat="49.24241" lon="0.21153">
        <ele>65.8</ele>
        <time>2011-07-02T09:33:06Z</time>
      </trkpt>
      <trkpt lat="49.24274" lon="0.21157">
        <ele>66.7</ele>
        <time>2011-07-02T09:33:11Z</time>
      </trkpt>
      <trkpt lat="49.24299" lon="0.21158">
        <ele>66.9</ele>
        <time>2011-07-02T09:33:15Z</time>
      </trkpt>
      <trkpt lat="49.24314" lon="0.21159">
        <ele>65.5</ele>
        <time>2011-07-02T09:33:17Z</time>
      </trkpt>
      <trkpt lat="49.24361" lon="0.21156">
        <ele>65.2</ele>
        <time>2011-07-02T09:33:23Z</time>
      </trkpt>
      <trkpt lat="49.24393" lon="0.21151">
        <ele>64.6</ele>
        <time>2011-07-02T09:33:27Z</time>
      </trkpt>
      <trkpt lat="49.24421" lon="0.2115">
        <ele>62.8</ele>
        <time>2011-07-02T09:33:31Z</time>
      </trkpt>
      <trkpt lat="49.24448" lon="0.21149">
        <ele>63.3</ele>
        <time>2011-07-02T09:33:35Z</time>
      </trkpt>
      <trkpt lat="49.24474" lon="0.2115">
        <ele>64.2</ele>
        <time>2011-07-02T09:33:39Z</time>
      </trkpt>
      <trkpt lat="49.24505" lon="0.21147">
        <ele>63.6</ele>
        <time>2011-07-02T09:33:43Z</time>
      </trkpt>
      <trkpt lat="49.24536" lon="0.2114">
        <ele>63</ele>
        <time>2011-07-02T09:33:47Z</time>
      </trkpt>
      <trkpt lat="49.24566" lon="0.21141">
        <ele>62.8</ele>
        <time>2011-07-02T09:33:51Z</time>
      </trkpt>
      <trkpt lat="49.24593" lon="0.21151">
        <ele>62.3</ele>
        <time>2011-07-02T09:33:55Z</time>
      </trkpt>
      <trkpt lat="49.24621" lon="0.21165">
        <ele>64.3</ele>
        <time>2011-07-02T09:33:59Z</time>
      </trkpt>
      <trkpt lat="49.24651" lon="0.21176">
        <ele>65</ele>
        <time>2011-07-02T09:34:03Z</time>
      </trkpt>
      <trkpt lat="49.24679" lon="0.21188">
        <ele>64.8</ele>
        <time>2011-07-02T09:34:07Z</time>
      </trkpt>
      <trkpt lat="49.24709" lon="0.21186">
        <ele>65.3</ele>
        <time>2011-07-02T09:34:11Z</time>
      </trkpt>
      <trkpt lat="49.2473" lon="0.21182">
        <ele>65.9</ele>
        <time>2011-07-02T09:34:14Z</time>
      </trkpt>
      <trkpt lat="49.24765" lon="0.2118">
        <ele>63.3</ele>
        <time>2011-07-02T09:34:19Z</time>
      </trkpt>
      <trkpt lat="49.24799" lon="0.21174">
        <ele>65.4</ele>
        <time>2011-07-02T09:34:23Z</time>
      </trkpt>
      <trkpt lat="49.24828" lon="0.21168">
        <ele>65.1</ele>
        <time>2011-07-02T09:34:27Z</time>
      </trkpt>
      <trkpt lat="49.24857" lon="0.21165">
        <ele>65.3</ele>
        <time>2011-07-02T09:34:31Z</time>
      </trkpt>
      <trkpt lat="49.24891" lon="0.21161">
        <ele>65.5</ele>
        <time>2011-07-02T09:34:35Z</time>
      </trkpt>
      <trkpt lat="49.24921" lon="0.21155">
        <ele>65.2</ele>
        <time>2011-07-02T09:34:39Z</time>
      </trkpt>
      <trkpt lat="49.2495" lon="0.21151">
        <ele>66.1</ele>
        <time>2011-07-02T09:34:43Z</time>
      </trkpt>
      <trkpt lat="49.2498" lon="0.21147">
        <ele>66.6</ele>
        <time>2011-07-02T09:34:47Z</time>
      </trkpt>
      <trkpt lat="49.25008" lon="0.21143">
        <ele>66.5</ele>
        <time>2011-07-02T09:34:51Z</time>
      </trkpt>
      <trkpt lat="49.25032" lon="0.21138">
        <ele>66.7</ele>
        <time>2011-07-02T09:34:54Z</time>
      </trkpt>
      <trkpt lat="49.25066" lon="0.21123">
        <ele>69.9</ele>
        <time>2011-07-02T09:34:59Z</time>
      </trkpt>
      <trkpt lat="49.25093" lon="0.21109">
        <ele>70.3</ele>
        <time>2011-07-02T09:35:03Z</time>
      </trkpt>
      <trkpt lat="49.25122" lon="0.21089">
        <ele>71.4</ele>
        <time>2011-07-02T09:35:07Z</time>
      </trkpt>
      <trkpt lat="49.2515" lon="0.21068">
        <ele>72.4</ele>
        <time>2011-07-02T09:35:11Z</time>
      </trkpt>
      <trkpt lat="49.25177" lon="0.21051">
        <ele>73</ele>
        <time>2011-07-02T09:35:15Z</time>
      </trkpt>
      <trkpt lat="49.25204" lon="0.21035">
        <ele>72.9</ele>
        <time>2011-07-02T09:35:19Z</time>
      </trkpt>
      <trkpt lat="49.2523" lon="0.21016">
        <ele>73.1</ele>
        <time>2011-07-02T09:35:23Z</time>
      </trkpt>
      <trkpt lat="49.25257" lon="0.20997">
        <ele>70.4</ele>
        <time>2011-07-02T09:35:27Z</time>
      </trkpt>
      <trkpt lat="49.25286" lon="0.2098">
        <ele>71.1</ele>
        <time>2011-07-02T09:35:31Z</time>
      </trkpt>
      <trkpt lat="49.25314" lon="0.2096">
        <ele>70.3</ele>
        <time>2011-07-02T09:35:35Z</time>
      </trkpt>
      <trkpt lat="49.25341" lon="0.20938">
        <ele>68.6</ele>
        <time>2011-07-02T09:35:39Z</time>
      </trkpt>
      <trkpt lat="49.25365" lon="0.20921">
        <ele>68.2</ele>
        <time>2011-07-02T09:35:43Z</time>
      </trkpt>
      <trkpt lat="49.25391" lon="0.20901">
        <ele>67.1</ele>
        <time>2011-07-02T09:35:47Z</time>
      </trkpt>
      <trkpt lat="49.25417" lon="0.20884">
        <ele>67.8</ele>
        <time>2011-07-02T09:35:51Z</time>
      </trkpt>
      <trkpt lat="49.25444" lon="0.20865">
        <ele>68</ele>
        <time>2011-07-02T09:35:55Z</time>
      </trkpt>
      <trkpt lat="49.2547" lon="0.20846">
        <ele>67.6</ele>
        <time>2011-07-02T09:35:59Z</time>
      </trkpt>
      <trkpt lat="49.25497" lon="0.20827">
        <ele>69.1</ele>
        <time>2011-07-02T09:36:03Z</time>
      </trkpt>
      <trkpt lat="49.25522" lon="0.20808">
        <ele>68.2</ele>
        <time>2011-07-02T09:36:07Z</time>
      </trkpt>
      <trkpt lat="49.25548" lon="0.20791">
        <ele>69.2</ele>
        <time>2011-07-02T09:36:11Z</time>
      </trkpt>
      <trkpt lat="49.25574" lon="0.20775">
        <ele>69.7</ele>
        <time>2011-07-02T09:36:15Z</time>
      </trkpt>
      <trkpt lat="49.25594" lon="0.20761">
        <ele>69.2</ele>
        <time>2011-07-02T09:36:18Z</time>
      </trkpt>
      <trkpt lat="49.25619" lon="0.20749">
        <ele>69.1</ele>
        <time>2011-07-02T09:36:22Z</time>
      </trkpt>
      <trkpt lat="49.25653" lon="0.20736">
        <ele>69.1</ele>
        <time>2011-07-02T09:36:27Z</time>
      </trkpt>
      <trkpt lat="49.25681" lon="0.20728">
        <ele>68.5</ele>
        <time>2011-07-02T09:36:31Z</time>
      </trkpt>
      <trkpt lat="49.257" lon="0.2073">
        <ele>67.4</ele>
        <time>2011-07-02T09:36:34Z</time>
      </trkpt>
      <trkpt lat="49.26124" lon="0.20941">
        <ele>79.5</ele>
        <time>2011-07-02T09:37:37Z</time>
      </trkpt>
      <trkpt lat="49.26169" lon="0.20962">
        <ele>80.7</ele>
        <time>2011-07-02T09:37:43Z</time>
      </trkpt>
      <trkpt lat="49.26198" lon="0.2099">
        <ele>78.3</ele>
        <time>2011-07-02T09:37:47Z</time>
      </trkpt>
      <trkpt lat="49.26229" lon="0.21014">
        <ele>75.7</ele>
        <time>2011-07-02T09:37:51Z</time>
      </trkpt>
      <trkpt lat="49.26255" lon="0.21041">
        <ele>74.9</ele>
        <time>2011-07-02T09:37:55Z</time>
      </trkpt>
      <trkpt lat="49.26281" lon="0.21067">
        <ele>74.4</ele>
        <time>2011-07-02T09:37:59Z</time>
      </trkpt>
      <trkpt lat="49.26308" lon="0.21091">
        <ele>72.8</ele>
        <time>2011-07-02T09:38:03Z</time>
      </trkpt>
      <trkpt lat="49.26337" lon="0.21115">
        <ele>71.4</ele>
        <time>2011-07-02T09:38:07Z</time>
      </trkpt>
      <trkpt lat="49.26365" lon="0.21132">
        <ele>69.8</ele>
        <time>2011-07-02T09:38:11Z</time>
      </trkpt>
      <trkpt lat="49.26396" lon="0.21144">
        <ele>68.7</ele>
        <time>2011-07-02T09:38:15Z</time>
      </trkpt>
      <trkpt lat="49.26428" lon="0.21142">
        <ele>68.7</ele>
        <time>2011-07-02T09:38:19Z</time>
      </trkpt>
      <trkpt lat="49.26456" lon="0.21136">
        <ele>67.6</ele>
        <time>2011-07-02T09:38:23Z</time>
      </trkpt>
      <trkpt lat="49.26485" lon="0.21123">
        <ele>67.5</ele>
        <time>2011-07-02T09:38:27Z</time>
      </trkpt>
      <trkpt lat="49.26515" lon="0.2111">
        <ele>66.8</ele>
        <time>2011-07-02T09:38:31Z</time>
      </trkpt>
      <trkpt lat="49.26544" lon="0.21095">
        <ele>66.8</ele>
        <time>2011-07-02T09:38:35Z</time>
      </trkpt>
      <trkpt lat="49.26573" lon="0.21078">
        <ele>66.5</ele>
        <time>2011-07-02T09:38:39Z</time>
      </trkpt>
      <trkpt lat="49.26598" lon="0.21055">
        <ele>66.2</ele>
        <time>2011-07-02T09:38:43Z</time>
      </trkpt>
      <trkpt lat="49.26621" lon="0.21021">
        <ele>65.3</ele>
        <time>2011-07-02T09:38:47Z</time>
      </trkpt>
      <trkpt lat="49.26636" lon="0.20993">
        <ele>65.7</ele>
        <time>2011-07-02T09:38:50Z</time>
      </trkpt>
      <trkpt lat="49.26659" lon="0.20949">
        <ele>66.1</ele>
        <time>2011-07-02T09:38:55Z</time>
      </trkpt>
      <trkpt lat="49.26677" lon="0.20913">
        <ele>66.6</ele>
        <time>2011-07-02T09:38:59Z</time>
      </trkpt>
      <trkpt lat="49.26696" lon="0.20877">
        <ele>67</ele>
        <time>2011-07-02T09:39:03Z</time>
      </trkpt>
      <trkpt lat="49.26716" lon="0.20839">
        <ele>68.4</ele>
        <time>2011-07-02T09:39:07Z</time>
      </trkpt>
      <trkpt lat="49.26733" lon="0.20801">
        <ele>68.4</ele>
        <time>2011-07-02T09:39:11Z</time>
      </trkpt>
      <trkpt lat="49.26744" lon="0.20767">
        <ele>68.9</ele>
        <time>2011-07-02T09:39:15Z</time>
      </trkpt>
      <trkpt lat="49.26752" lon="0.20728">
        <ele>69.3</ele>
        <time>2011-07-02T09:39:19Z</time>
      </trkpt>
      <trkpt lat="49.26757" lon="0.20688">
        <ele>70.7</ele>
        <time>2011-07-02T09:39:23Z</time>
      </trkpt>
      <trkpt lat="49.26763" lon="0.20648">
        <ele>70.2</ele>
        <time>2011-07-02T09:39:27Z</time>
      </trkpt>
      <trkpt lat="49.2677" lon="0.20601">
        <ele>69.6</ele>
        <time>2011-07-02T09:39:31Z</time>
      </trkpt>
      <trkpt lat="49.26773" lon="0.20558">
        <ele>69</ele>
        <time>2011-07-02T09:39:35Z</time>
      </trkpt>
      <trkpt lat="49.2678" lon="0.20507">
        <ele>68.3</ele>
        <time>2011-07-02T09:39:39Z</time>
      </trkpt>
      <trkpt lat="49.26781" lon="0.20496">
        <ele>68.2</ele>
        <time>2011-07-02T09:39:40Z</time>
      </trkpt>
      <trkpt lat="49.26784" lon="0.20444">
        <ele>67.9</ele>
        <time>2011-07-02T09:39:46Z</time>
      </trkpt>
      <trkpt lat="49.26788" lon="0.20406">
        <ele>67.2</ele>
        <time>2011-07-02T09:39:50Z</time>
      </trkpt>
      <trkpt lat="49.26785" lon="0.20351">
        <ele>65.1</ele>
        <time>2011-07-02T09:39:55Z</time>
      </trkpt>
      <trkpt lat="49.26784" lon="0.20329">
        <ele>64.2</ele>
        <time>2011-07-02T09:39:57Z</time>
      </trkpt>
      <trkpt lat="49.26788" lon="0.20258">
        <ele>66</ele>
        <time>2011-07-02T09:40:03Z</time>
      </trkpt>
      <trkpt lat="49.26792" lon="0.20213">
        <ele>68.3</ele>
        <time>2011-07-02T09:40:07Z</time>
      </trkpt>
      <trkpt lat="49.26802" lon="0.20166">
        <ele>69</ele>
        <time>2011-07-02T09:40:11Z</time>
      </trkpt>
      <trkpt lat="49.26816" lon="0.20122">
        <ele>66.6</ele>
        <time>2011-07-02T09:40:15Z</time>
      </trkpt>
      <trkpt lat="49.26835" lon="0.2008">
        <ele>67.6</ele>
        <time>2011-07-02T09:40:19Z</time>
      </trkpt>
      <trkpt lat="49.26851" lon="0.20054">
        <ele>67.4</ele>
        <time>2011-07-02T09:40:22Z</time>
      </trkpt>
      <trkpt lat="49.2688" lon="0.20015">
        <ele>68.1</ele>
        <time>2011-07-02T09:40:27Z</time>
      </trkpt>
      <trkpt lat="49.26904" lon="0.19984">
        <ele>67.9</ele>
        <time>2011-07-02T09:40:31Z</time>
      </trkpt>
      <trkpt lat="49.26923" lon="0.19961">
        <ele>67.6</ele>
        <time>2011-07-02T09:40:34Z</time>
      </trkpt>
      <trkpt lat="49.26952" lon="0.19927">
        <ele>66.4</ele>
        <time>2011-07-02T09:40:38Z</time>
      </trkpt>
      <trkpt lat="49.2698" lon="0.19889">
        <ele>65.8</ele>
        <time>2011-07-02T09:40:43Z</time>
      </trkpt>
      <trkpt lat="49.27004" lon="0.19858">
        <ele>66</ele>
        <time>2011-07-02T09:40:47Z</time>
      </trkpt>
      <trkpt lat="49.27025" lon="0.19829">
        <ele>62.9</ele>
        <time>2011-07-02T09:40:51Z</time>
      </trkpt>
      <trkpt lat="49.27047" lon="0.19795">
        <ele>63.3</ele>
        <time>2011-07-02T09:40:55Z</time>
      </trkpt>
      <trkpt lat="49.2707" lon="0.19758">
        <ele>63.9</ele>
        <time>2011-07-02T09:40:59Z</time>
      </trkpt>
      <trkpt lat="49.27091" lon="0.19721">
        <ele>63.4</ele>
        <time>2011-07-02T09:41:03Z</time>
      </trkpt>
      <trkpt lat="49.27112" lon="0.19685">
        <ele>63.7</ele>
        <time>2011-07-02T09:41:07Z</time>
      </trkpt>
      <trkpt lat="49.27132" lon="0.19648">
        <ele>63.3</ele>
        <time>2011-07-02T09:41:11Z</time>
      </trkpt>
      <trkpt lat="49.27147" lon="0.19619">
        <ele>63.3</ele>
        <time>2011-07-02T09:41:14Z</time>
      </trkpt>
      <trkpt lat="49.27172" lon="0.19571">
        <ele>63.7</ele>
        <time>2011-07-02T09:41:19Z</time>
      </trkpt>
      <trkpt lat="49.27191" lon="0.19534">
        <ele>64.1</ele>
        <time>2011-07-02T09:41:23Z</time>
      </trkpt>
      <trkpt lat="49.27211" lon="0.195">
        <ele>63</ele>
        <time>2011-07-02T09:41:27Z</time>
      </trkpt>
      <trkpt lat="49.27232" lon="0.19465">
        <ele>62.8</ele>
        <time>2011-07-02T09:41:31Z</time>
      </trkpt>
      <trkpt lat="49.27254" lon="0.19431">
        <ele>62.5</ele>
        <time>2011-07-02T09:41:35Z</time>
      </trkpt>
      <trkpt lat="49.27275" lon="0.19399">
        <ele>63.3</ele>
        <time>2011-07-02T09:41:39Z</time>
      </trkpt>
      <trkpt lat="49.27295" lon="0.19367">
        <ele>62.5</ele>
        <time>2011-07-02T09:41:43Z</time>
      </trkpt>
      <trkpt lat="49.27316" lon="0.19336">
        <ele>62.4</ele>
        <time>2011-07-02T09:41:47Z</time>
      </trkpt>
      <trkpt lat="49.27338" lon="0.19301">
        <ele>62.8</ele>
        <time>2011-07-02T09:41:51Z</time>
      </trkpt>
      <trkpt lat="49.27362" lon="0.19273">
        <ele>63</ele>
        <time>2011-07-02T09:41:55Z</time>
      </trkpt>
      <trkpt lat="49.27385" lon="0.19245">
        <ele>62.7</ele>
        <time>2011-07-02T09:41:59Z</time>
      </trkpt>
      <trkpt lat="49.27407" lon="0.19217">
        <ele>63.2</ele>
        <time>2011-07-02T09:42:03Z</time>
      </trkpt>
      <trkpt lat="49.27429" lon="0.19189">
        <ele>63.6</ele>
        <time>2011-07-02T09:42:07Z</time>
      </trkpt>
      <trkpt lat="49.2745" lon="0.1916">
        <ele>63.6</ele>
        <time>2011-07-02T09:42:11Z</time>
      </trkpt>
      <trkpt lat="49.27473" lon="0.19132">
        <ele>63.6</ele>
        <time>2011-07-02T09:42:15Z</time>
      </trkpt>
      <trkpt lat="49.27496" lon="0.19102">
        <ele>63.8</ele>
        <time>2011-07-02T09:42:19Z</time>
      </trkpt>
      <trkpt lat="49.2752" lon="0.19072">
        <ele>64.2</ele>
        <time>2011-07-02T09:42:23Z</time>
      </trkpt>
      <trkpt lat="49.27543" lon="0.19041">
        <ele>62.1</ele>
        <time>2011-07-02T09:42:27Z</time>
      </trkpt>
      <trkpt lat="49.27565" lon="0.19014">
        <ele>62.6</ele>
        <time>2011-07-02T09:42:31Z</time>
      </trkpt>
      <trkpt lat="49.27585" lon="0.18988">
        <ele>63.7</ele>
        <time>2011-07-02T09:42:35Z</time>
      </trkpt>
      <trkpt lat="49.27595" lon="0.18973">
        <ele>63.7</ele>
        <time>2011-07-02T09:42:37Z</time>
      </trkpt>
      <trkpt lat="49.27624" lon="0.18934">
        <ele>62.4</ele>
        <time>2011-07-02T09:42:43Z</time>
      </trkpt>
      <trkpt lat="49.2764" lon="0.18919">
        <ele>64.8</ele>
        <time>2011-07-02T09:42:46Z</time>
      </trkpt>
      <trkpt lat="49.2767" lon="0.18895">
        <ele>62.4</ele>
        <time>2011-07-02T09:42:51Z</time>
      </trkpt>
      <trkpt lat="49.27698" lon="0.18879">
        <ele>62.3</ele>
        <time>2011-07-02T09:42:55Z</time>
      </trkpt>
      <trkpt lat="49.27728" lon="0.18864">
        <ele>62.1</ele>
        <time>2011-07-02T09:42:59Z</time>
      </trkpt>
      <trkpt lat="49.27755" lon="0.18848">
        <ele>62.5</ele>
        <time>2011-07-02T09:43:03Z</time>
      </trkpt>
      <trkpt lat="49.27786" lon="0.18834">
        <ele>63</ele>
        <time>2011-07-02T09:43:07Z</time>
      </trkpt>
      <trkpt lat="49.27818" lon="0.18822">
        <ele>62.7</ele>
        <time>2011-07-02T09:43:11Z</time>
      </trkpt>
      <trkpt lat="49.27846" lon="0.18807">
        <ele>62.8</ele>
        <time>2011-07-02T09:43:15Z</time>
      </trkpt>
      <trkpt lat="49.27876" lon="0.18795">
        <ele>63.4</ele>
        <time>2011-07-02T09:43:19Z</time>
      </trkpt>
      <trkpt lat="49.27903" lon="0.18781">
        <ele>63.8</ele>
        <time>2011-07-02T09:43:23Z</time>
      </trkpt>
      <trkpt lat="49.27922" lon="0.18767">
        <ele>63.2</ele>
        <time>2011-07-02T09:43:26Z</time>
      </trkpt>
      <trkpt lat="49.27958" lon="0.1875">
        <ele>62.8</ele>
        <time>2011-07-02T09:43:31Z</time>
      </trkpt>
      <trkpt lat="49.27989" lon="0.18736">
        <ele>62.7</ele>
        <time>2011-07-02T09:43:35Z</time>
      </trkpt>
      <trkpt lat="49.28016" lon="0.18721">
        <ele>62.3</ele>
        <time>2011-07-02T09:43:39Z</time>
      </trkpt>
      <trkpt lat="49.28042" lon="0.18705">
        <ele>61.9</ele>
        <time>2011-07-02T09:43:43Z</time>
      </trkpt>
      <trkpt lat="49.28067" lon="0.18692">
        <ele>62.5</ele>
        <time>2011-07-02T09:43:47Z</time>
      </trkpt>
      <trkpt lat="49.28098" lon="0.18681">
        <ele>62</ele>
        <time>2011-07-02T09:43:51Z</time>
      </trkpt>
      <trkpt lat="49.28129" lon="0.18668">
        <ele>61.8</ele>
        <time>2011-07-02T09:43:55Z</time>
      </trkpt>
      <trkpt lat="49.28157" lon="0.18649">
        <ele>63.9</ele>
        <time>2011-07-02T09:43:59Z</time>
      </trkpt>
      <trkpt lat="49.28183" lon="0.18625">
        <ele>65.2</ele>
        <time>2011-07-02T09:44:03Z</time>
      </trkpt>
      <trkpt lat="49.28208" lon="0.186">
        <ele>63.2</ele>
        <time>2011-07-02T09:44:07Z</time>
      </trkpt>
      <trkpt lat="49.28231" lon="0.18573">
        <ele>62.1</ele>
        <time>2011-07-02T09:44:11Z</time>
      </trkpt>
      <trkpt lat="49.28254" lon="0.18546">
        <ele>62.7</ele>
        <time>2011-07-02T09:44:15Z</time>
      </trkpt>
      <trkpt lat="49.28278" lon="0.18522">
        <ele>64.2</ele>
        <time>2011-07-02T09:44:19Z</time>
      </trkpt>
      <trkpt lat="49.28302" lon="0.18495">
        <ele>64.7</ele>
        <time>2011-07-02T09:44:23Z</time>
      </trkpt>
      <trkpt lat="49.2832" lon="0.18474">
        <ele>63.9</ele>
        <time>2011-07-02T09:44:26Z</time>
      </trkpt>
      <trkpt lat="49.2835" lon="0.18443">
        <ele>62.4</ele>
        <time>2011-07-02T09:44:31Z</time>
      </trkpt>
      <trkpt lat="49.28367" lon="0.18423">
        <ele>63</ele>
        <time>2011-07-02T09:44:34Z</time>
      </trkpt>
      <trkpt lat="49.28391" lon="0.18396">
        <ele>62.8</ele>
        <time>2011-07-02T09:44:38Z</time>
      </trkpt>
      <trkpt lat="49.28421" lon="0.18362">
        <ele>63.3</ele>
        <time>2011-07-02T09:44:43Z</time>
      </trkpt>
      <trkpt lat="49.28443" lon="0.18336">
        <ele>62.5</ele>
        <time>2011-07-02T09:44:47Z</time>
      </trkpt>
      <trkpt lat="49.28453" lon="0.18324">
        <ele>62.4</ele>
        <time>2011-07-02T09:44:49Z</time>
      </trkpt>
      <trkpt lat="49.28474" lon="0.18298">
        <ele>62.4</ele>
        <time>2011-07-02T09:44:55Z</time>
      </trkpt>
      <trkpt lat="49.28474" lon="0.18298">
        <ele>11</ele>
        <time>2011-07-02T09:45:06Z</time>
      </trkpt>
      <trkpt lat="49.28474" lon="0.18298">
        <ele>11</ele>
        <time>2011-07-02T09:45:11Z</time>
      </trkpt>
      <trkpt lat="49.28491" lon="0.18276">
        <ele>62.5</ele>
        <time>2011-07-02T09:45:15Z</time>
      </trkpt>
      <trkpt lat="49.28488" lon="0.18256">
        <ele>62</ele>
        <time>2011-07-02T09:45:20Z</time>
      </trkpt>
      <trkpt lat="49.28485" lon="0.18243">
        <ele>62.4</ele>
        <time>2011-07-02T09:45:22Z</time>
      </trkpt>
      <trkpt lat="49.28476" lon="0.18214">
        <ele>62.4</ele>
        <time>2011-07-02T09:45:26Z</time>
      </trkpt>
      <trkpt lat="49.28437" lon="0.18195">
        <ele>58.4</ele>
        <time>2011-07-02T09:45:31Z</time>
      </trkpt>
      <trkpt lat="49.28423" lon="0.18171">
        <ele>57.5</ele>
        <time>2011-07-02T09:45:35Z</time>
      </trkpt>
      <trkpt lat="49.28404" lon="0.18153">
        <ele>58.5</ele>
        <time>2011-07-02T09:45:39Z</time>
      </trkpt>
      <trkpt lat="49.28396" lon="0.18143">
        <ele>57.9</ele>
        <time>2011-07-02T09:45:41Z</time>
      </trkpt>
      <trkpt lat="49.28381" lon="0.1813">
        <ele>57</ele>
        <time>2011-07-02T09:45:45Z</time>
      </trkpt>
      <trkpt lat="49.28366" lon="0.1811">
        <ele>59.1</ele>
        <time>2011-07-02T09:45:54Z</time>
      </trkpt>
      <trkpt lat="49.28366" lon="0.1811">
        <ele>11</ele>
        <time>2011-07-02T09:46:05Z</time>
      </trkpt>
      <trkpt lat="49.28366" lon="0.1811">
        <ele>11</ele>
        <time>2011-07-02T09:46:45Z</time>
      </trkpt>
      <trkpt lat="49.28323" lon="0.18058">
        <ele>56.5</ele>
        <time>2011-07-02T09:46:55Z</time>
      </trkpt>
      <trkpt lat="49.28331" lon="0.18025">
        <ele>57.8</ele>
        <time>2011-07-02T09:47:00Z</time>
      </trkpt>
      <trkpt lat="49.28339" lon="0.18001">
        <ele>58.5</ele>
        <time>2011-07-02T09:47:03Z</time>
      </trkpt>
      <trkpt lat="49.28349" lon="0.17972">
        <ele>58.3</ele>
        <time>2011-07-02T09:47:07Z</time>
      </trkpt>
      <trkpt lat="49.28358" lon="0.17948">
        <ele>57.9</ele>
        <time>2011-07-02T09:47:10Z</time>
      </trkpt>
      <trkpt lat="49.28372" lon="0.17915">
        <ele>58</ele>
        <time>2011-07-02T09:47:14Z</time>
      </trkpt>
      <trkpt lat="49.28394" lon="0.17867">
        <ele>55.9</ele>
        <time>2011-07-02T09:47:20Z</time>
      </trkpt>
      <trkpt lat="49.28411" lon="0.17829">
        <ele>54.4</ele>
        <time>2011-07-02T09:47:24Z</time>
      </trkpt>
      <trkpt lat="49.28423" lon="0.17795">
        <ele>56.2</ele>
        <time>2011-07-02T09:47:28Z</time>
      </trkpt>
      <trkpt lat="49.28432" lon="0.17759">
        <ele>56.7</ele>
        <time>2011-07-02T09:47:32Z</time>
      </trkpt>
      <trkpt lat="49.28443" lon="0.17717">
        <ele>56.1</ele>
        <time>2011-07-02T09:47:36Z</time>
      </trkpt>
      <trkpt lat="49.28452" lon="0.17674">
        <ele>55.7</ele>
        <time>2011-07-02T09:47:40Z</time>
      </trkpt>
      <trkpt lat="49.28462" lon="0.17633">
        <ele>56.2</ele>
        <time>2011-07-02T09:47:44Z</time>
      </trkpt>
      <trkpt lat="49.28468" lon="0.17612">
        <ele>55.8</ele>
        <time>2011-07-02T09:47:46Z</time>
      </trkpt>
      <trkpt lat="49.28476" lon="0.17548">
        <ele>54</ele>
        <time>2011-07-02T09:47:52Z</time>
      </trkpt>
      <trkpt lat="49.2847" lon="0.17507">
        <ele>53.8</ele>
        <time>2011-07-02T09:47:56Z</time>
      </trkpt>
      <trkpt lat="49.28467" lon="0.17463">
        <ele>51</ele>
        <time>2011-07-02T09:48:00Z</time>
      </trkpt>
      <trkpt lat="49.28464" lon="0.17421">
        <ele>50.8</ele>
        <time>2011-07-02T09:48:04Z</time>
      </trkpt>
      <trkpt lat="49.2846" lon="0.17379">
        <ele>51</ele>
        <time>2011-07-02T09:48:08Z</time>
      </trkpt>
      <trkpt lat="49.28457" lon="0.1734">
        <ele>50.8</ele>
        <time>2011-07-02T09:48:12Z</time>
      </trkpt>
      <trkpt lat="49.28457" lon="0.17296">
        <ele>52</ele>
        <time>2011-07-02T09:48:16Z</time>
      </trkpt>
      <trkpt lat="49.28462" lon="0.17252">
        <ele>52.7</ele>
        <time>2011-07-02T09:48:20Z</time>
      </trkpt>
      <trkpt lat="49.28474" lon="0.17211">
        <ele>52.9</ele>
        <time>2011-07-02T09:48:24Z</time>
      </trkpt>
      <trkpt lat="49.28488" lon="0.17168">
        <ele>52.9</ele>
        <time>2011-07-02T09:48:28Z</time>
      </trkpt>
      <trkpt lat="49.28502" lon="0.17127">
        <ele>53.8</ele>
        <time>2011-07-02T09:48:32Z</time>
      </trkpt>
      <trkpt lat="49.28514" lon="0.17089">
        <ele>54.2</ele>
        <time>2011-07-02T09:48:36Z</time>
      </trkpt>
      <trkpt lat="49.28526" lon="0.17054">
        <ele>53.5</ele>
        <time>2011-07-02T09:48:40Z</time>
      </trkpt>
      <trkpt lat="49.28538" lon="0.17018">
        <ele>53.3</ele>
        <time>2011-07-02T09:48:44Z</time>
      </trkpt>
      <trkpt lat="49.28545" lon="0.16978">
        <ele>53.3</ele>
        <time>2011-07-02T09:48:48Z</time>
      </trkpt>
      <trkpt lat="49.28553" lon="0.16932">
        <ele>51.5</ele>
        <time>2011-07-02T09:48:52Z</time>
      </trkpt>
      <trkpt lat="49.28563" lon="0.16888">
        <ele>51.1</ele>
        <time>2011-07-02T09:48:56Z</time>
      </trkpt>
      <trkpt lat="49.28574" lon="0.16843">
        <ele>51.6</ele>
        <time>2011-07-02T09:49:00Z</time>
      </trkpt>
      <trkpt lat="49.28583" lon="0.16799">
        <ele>51.3</ele>
        <time>2011-07-02T09:49:04Z</time>
      </trkpt>
      <trkpt lat="49.28593" lon="0.16754">
        <ele>51.5</ele>
        <time>2011-07-02T09:49:08Z</time>
      </trkpt>
      <trkpt lat="49.28602" lon="0.16711">
        <ele>49.7</ele>
        <time>2011-07-02T09:49:12Z</time>
      </trkpt>
      <trkpt lat="49.28611" lon="0.16667">
        <ele>49.2</ele>
        <time>2011-07-02T09:49:16Z</time>
      </trkpt>
      <trkpt lat="49.28623" lon="0.16621">
        <ele>50.1</ele>
        <time>2011-07-02T09:49:20Z</time>
      </trkpt>
      <trkpt lat="49.28629" lon="0.1659">
        <ele>50.7</ele>
        <time>2011-07-02T09:49:23Z</time>
      </trkpt>
      <trkpt lat="49.28633" lon="0.16533">
        <ele>51.1</ele>
        <time>2011-07-02T09:49:28Z</time>
      </trkpt>
      <trkpt lat="49.28627" lon="0.16487">
        <ele>52.5</ele>
        <time>2011-07-02T09:49:32Z</time>
      </trkpt>
      <trkpt lat="49.28622" lon="0.16443">
        <ele>53.3</ele>
        <time>2011-07-02T09:49:36Z</time>
      </trkpt>
      <trkpt lat="49.28611" lon="0.16402">
        <ele>52.4</ele>
        <time>2011-07-02T09:49:40Z</time>
      </trkpt>
      <trkpt lat="49.286" lon="0.16372">
        <ele>53</ele>
        <time>2011-07-02T09:49:43Z</time>
      </trkpt>
      <trkpt lat="49.28578" lon="0.16327">
        <ele>52.8</ele>
        <time>2011-07-02T09:49:48Z</time>
      </trkpt>
      <trkpt lat="49.28561" lon="0.16291">
        <ele>52.9</ele>
        <time>2011-07-02T09:49:52Z</time>
      </trkpt>
      <trkpt lat="49.28548" lon="0.16253">
        <ele>52.1</ele>
        <time>2011-07-02T09:49:56Z</time>
      </trkpt>
      <trkpt lat="49.28538" lon="0.16209">
        <ele>52.9</ele>
        <time>2011-07-02T09:50:00Z</time>
      </trkpt>
      <trkpt lat="49.28527" lon="0.16166">
        <ele>51.2</ele>
        <time>2011-07-02T09:50:04Z</time>
      </trkpt>
      <trkpt lat="49.28517" lon="0.16137">
        <ele>50.5</ele>
        <time>2011-07-02T09:50:07Z</time>
      </trkpt>
      <trkpt lat="49.28495" lon="0.16095">
        <ele>49.7</ele>
        <time>2011-07-02T09:50:12Z</time>
      </trkpt>
      <trkpt lat="49.28479" lon="0.16064">
        <ele>48.4</ele>
        <time>2011-07-02T09:50:16Z</time>
      </trkpt>
      <trkpt lat="49.28458" lon="0.16035">
        <ele>49</ele>
        <time>2011-07-02T09:50:20Z</time>
      </trkpt>
      <trkpt lat="49.2845" lon="0.16019">
        <ele>48.3</ele>
        <time>2011-07-02T09:50:22Z</time>
      </trkpt>
      <trkpt lat="49.28422" lon="0.15976">
        <ele>48.9</ele>
        <time>2011-07-02T09:50:28Z</time>
      </trkpt>
      <trkpt lat="49.28408" lon="0.15936">
        <ele>47.9</ele>
        <time>2011-07-02T09:50:32Z</time>
      </trkpt>
      <trkpt lat="49.28394" lon="0.15899">
        <ele>47.3</ele>
        <time>2011-07-02T09:50:36Z</time>
      </trkpt>
      <trkpt lat="49.28381" lon="0.15865">
        <ele>47.5</ele>
        <time>2011-07-02T09:50:40Z</time>
      </trkpt>
      <trkpt lat="49.28377" lon="0.15856">
        <ele>47.8</ele>
        <time>2011-07-02T09:50:41Z</time>
      </trkpt>
      <trkpt lat="49.28362" lon="0.15803">
        <ele>49</ele>
        <time>2011-07-02T09:50:48Z</time>
      </trkpt>
      <trkpt lat="49.28347" lon="0.15775">
        <ele>48.2</ele>
        <time>2011-07-02T09:50:51Z</time>
      </trkpt>
      <trkpt lat="49.28325" lon="0.15739">
        <ele>48.6</ele>
        <time>2011-07-02T09:50:56Z</time>
      </trkpt>
      <trkpt lat="49.28317" lon="0.157">
        <ele>48.5</ele>
        <time>2011-07-02T09:51:00Z</time>
      </trkpt>
      <trkpt lat="49.28312" lon="0.15684">
        <ele>48.6</ele>
        <time>2011-07-02T09:51:02Z</time>
      </trkpt>
      <trkpt lat="49.28304" lon="0.15652">
        <ele>48.5</ele>
        <time>2011-07-02T09:51:06Z</time>
      </trkpt>
      <trkpt lat="49.28298" lon="0.15607">
        <ele>53.1</ele>
        <time>2011-07-02T09:51:12Z</time>
      </trkpt>
      <trkpt lat="49.28302" lon="0.15593">
        <ele>52.9</ele>
        <time>2011-07-02T09:51:14Z</time>
      </trkpt>
      <trkpt lat="49.2831" lon="0.15553">
        <ele>57.5</ele>
        <time>2011-07-02T09:51:19Z</time>
      </trkpt>
      <trkpt lat="49.28322" lon="0.1551">
        <ele>61.4</ele>
        <time>2011-07-02T09:51:24Z</time>
      </trkpt>
      <trkpt lat="49.28329" lon="0.15481">
        <ele>64.5</ele>
        <time>2011-07-02T09:51:28Z</time>
      </trkpt>
      <trkpt lat="49.28332" lon="0.15456">
        <ele>64.9</ele>
        <time>2011-07-02T09:51:32Z</time>
      </trkpt>
      <trkpt lat="49.28333" lon="0.15424">
        <ele>65.9</ele>
        <time>2011-07-02T09:51:36Z</time>
      </trkpt>
      <trkpt lat="49.28334" lon="0.15394">
        <ele>67.7</ele>
        <time>2011-07-02T09:51:40Z</time>
      </trkpt>
      <trkpt lat="49.28331" lon="0.15361">
        <ele>66.7</ele>
        <time>2011-07-02T09:51:44Z</time>
      </trkpt>
      <trkpt lat="49.28325" lon="0.15336">
        <ele>65.9</ele>
        <time>2011-07-02T09:51:48Z</time>
      </trkpt>
      <trkpt lat="49.28318" lon="0.1531">
        <ele>63.3</ele>
        <time>2011-07-02T09:51:52Z</time>
      </trkpt>
      <trkpt lat="49.28312" lon="0.15279">
        <ele>62</ele>
        <time>2011-07-02T09:51:56Z</time>
      </trkpt>
      <trkpt lat="49.28303" lon="0.15247">
        <ele>60.9</ele>
        <time>2011-07-02T09:52:00Z</time>
      </trkpt>
      <trkpt lat="49.28296" lon="0.15218">
        <ele>61.3</ele>
        <time>2011-07-02T09:52:04Z</time>
      </trkpt>
      <trkpt lat="49.28289" lon="0.15187">
        <ele>62</ele>
        <time>2011-07-02T09:52:08Z</time>
      </trkpt>
      <trkpt lat="49.28283" lon="0.15154">
        <ele>63.4</ele>
        <time>2011-07-02T09:52:12Z</time>
      </trkpt>
      <trkpt lat="49.2828" lon="0.15126">
        <ele>66.5</ele>
        <time>2011-07-02T09:52:15Z</time>
      </trkpt>
      <trkpt lat="49.28278" lon="0.15093">
        <ele>67.3</ele>
        <time>2011-07-02T09:52:19Z</time>
      </trkpt>
      <trkpt lat="49.28277" lon="0.15059">
        <ele>69.5</ele>
        <time>2011-07-02T09:52:23Z</time>
      </trkpt>
      <trkpt lat="49.28275" lon="0.15028">
        <ele>71.8</ele>
        <time>2011-07-02T09:52:27Z</time>
      </trkpt>
      <trkpt lat="49.28272" lon="0.14997">
        <ele>72.8</ele>
        <time>2011-07-02T09:52:31Z</time>
      </trkpt>
      <trkpt lat="49.2827" lon="0.14964">
        <ele>72.4</ele>
        <time>2011-07-02T09:52:35Z</time>
      </trkpt>
      <trkpt lat="49.28266" lon="0.14917">
        <ele>73.3</ele>
        <time>2011-07-02T09:52:40Z</time>
      </trkpt>
      <trkpt lat="49.28264" lon="0.14883">
        <ele>72.4</ele>
        <time>2011-07-02T09:52:44Z</time>
      </trkpt>
      <trkpt lat="49.28249" lon="0.14818">
        <ele>70.8</ele>
        <time>2011-07-02T09:52:52Z</time>
      </trkpt>
      <trkpt lat="49.28228" lon="0.14779">
        <ele>72.2</ele>
        <time>2011-07-02T09:52:58Z</time>
      </trkpt>
      <trkpt lat="49.28215" lon="0.14753">
        <ele>71.6</ele>
        <time>2011-07-02T09:53:02Z</time>
      </trkpt>
      <trkpt lat="49.28203" lon="0.14728">
        <ele>72.5</ele>
        <time>2011-07-02T09:53:06Z</time>
      </trkpt>
      <trkpt lat="49.28185" lon="0.14692">
        <ele>73.6</ele>
        <time>2011-07-02T09:53:11Z</time>
      </trkpt>
      <trkpt lat="49.28175" lon="0.14664">
        <ele>74.9</ele>
        <time>2011-07-02T09:53:15Z</time>
      </trkpt>
      <trkpt lat="49.28162" lon="0.14636">
        <ele>75.5</ele>
        <time>2011-07-02T09:53:19Z</time>
      </trkpt>
      <trkpt lat="49.28152" lon="0.14608">
        <ele>77.7</ele>
        <time>2011-07-02T09:53:23Z</time>
      </trkpt>
      <trkpt lat="49.28142" lon="0.14579">
        <ele>78.5</ele>
        <time>2011-07-02T09:53:27Z</time>
      </trkpt>
      <trkpt lat="49.28129" lon="0.14556">
        <ele>78</ele>
        <time>2011-07-02T09:53:31Z</time>
      </trkpt>
      <trkpt lat="49.28119" lon="0.14535">
        <ele>79.3</ele>
        <time>2011-07-02T09:53:34Z</time>
      </trkpt>
      <trkpt lat="49.28104" lon="0.14511">
        <ele>79.7</ele>
        <time>2011-07-02T09:53:38Z</time>
      </trkpt>
      <trkpt lat="49.28099" lon="0.14497">
        <ele>79.7</ele>
        <time>2011-07-02T09:53:40Z</time>
      </trkpt>
      <trkpt lat="49.28081" lon="0.1446">
        <ele>77.8</ele>
        <time>2011-07-02T09:53:45Z</time>
      </trkpt>
      <trkpt lat="49.28063" lon="0.1442">
        <ele>76.9</ele>
        <time>2011-07-02T09:53:51Z</time>
      </trkpt>
      <trkpt lat="49.28054" lon="0.14397">
        <ele>78.1</ele>
        <time>2011-07-02T09:53:54Z</time>
      </trkpt>
      <trkpt lat="49.28046" lon="0.14351">
        <ele>79.1</ele>
        <time>2011-07-02T09:53:59Z</time>
      </trkpt>
      <trkpt lat="49.28043" lon="0.14313">
        <ele>81.1</ele>
        <time>2011-07-02T09:54:03Z</time>
      </trkpt>
      <trkpt lat="49.28039" lon="0.14279">
        <ele>82.4</ele>
        <time>2011-07-02T09:54:07Z</time>
      </trkpt>
      <trkpt lat="49.28037" lon="0.14255">
        <ele>83.4</ele>
        <time>2011-07-02T09:54:10Z</time>
      </trkpt>
      <trkpt lat="49.28035" lon="0.14209">
        <ele>84.1</ele>
        <time>2011-07-02T09:54:15Z</time>
      </trkpt>
      <trkpt lat="49.28036" lon="0.14181">
        <ele>85.3</ele>
        <time>2011-07-02T09:54:18Z</time>
      </trkpt>
      <trkpt lat="49.28033" lon="0.14146">
        <ele>86.2</ele>
        <time>2011-07-02T09:54:22Z</time>
      </trkpt>
      <trkpt lat="49.28024" lon="0.14099">
        <ele>87.2</ele>
        <time>2011-07-02T09:54:27Z</time>
      </trkpt>
      <trkpt lat="49.28018" lon="0.14072">
        <ele>86.8</ele>
        <time>2011-07-02T09:54:30Z</time>
      </trkpt>
      <trkpt lat="49.2801" lon="0.14041">
        <ele>86.3</ele>
        <time>2011-07-02T09:54:34Z</time>
      </trkpt>
      <trkpt lat="49.28002" lon="0.14008">
        <ele>86.7</ele>
        <time>2011-07-02T09:54:38Z</time>
      </trkpt>
      <trkpt lat="49.27995" lon="0.13979">
        <ele>88</ele>
        <time>2011-07-02T09:54:41Z</time>
      </trkpt>
      <trkpt lat="49.27986" lon="0.13937">
        <ele>87.2</ele>
        <time>2011-07-02T09:54:46Z</time>
      </trkpt>
      <trkpt lat="49.27975" lon="0.13896">
        <ele>86.4</ele>
        <time>2011-07-02T09:54:51Z</time>
      </trkpt>
      <trkpt lat="49.27966" lon="0.13858">
        <ele>87</ele>
        <time>2011-07-02T09:54:55Z</time>
      </trkpt>
      <trkpt lat="49.27957" lon="0.13822">
        <ele>88.6</ele>
        <time>2011-07-02T09:54:59Z</time>
      </trkpt>
      <trkpt lat="49.2795" lon="0.13796">
        <ele>90.6</ele>
        <time>2011-07-02T09:55:02Z</time>
      </trkpt>
      <trkpt lat="49.27938" lon="0.13753">
        <ele>90.7</ele>
        <time>2011-07-02T09:55:07Z</time>
      </trkpt>
      <trkpt lat="49.2793" lon="0.13728">
        <ele>90.6</ele>
        <time>2011-07-02T09:55:10Z</time>
      </trkpt>
      <trkpt lat="49.27923" lon="0.13683">
        <ele>91.5</ele>
        <time>2011-07-02T09:55:15Z</time>
      </trkpt>
      <trkpt lat="49.27913" lon="0.13649">
        <ele>92.8</ele>
        <time>2011-07-02T09:55:19Z</time>
      </trkpt>
      <trkpt lat="49.27907" lon="0.13609">
        <ele>94</ele>
        <time>2011-07-02T09:55:23Z</time>
      </trkpt>
      <trkpt lat="49.27905" lon="0.13591">
        <ele>94.3</ele>
        <time>2011-07-02T09:55:25Z</time>
      </trkpt>
      <trkpt lat="49.27891" lon="0.13538">
        <ele>93.7</ele>
        <time>2011-07-02T09:55:31Z</time>
      </trkpt>
      <trkpt lat="49.27889" lon="0.13527">
        <ele>93.6</ele>
        <time>2011-07-02T09:55:32Z</time>
      </trkpt>
      <trkpt lat="49.27879" lon="0.13451">
        <ele>94.1</ele>
        <time>2011-07-02T09:55:39Z</time>
      </trkpt>
      <trkpt lat="49.2787" lon="0.13423">
        <ele>94.9</ele>
        <time>2011-07-02T09:55:42Z</time>
      </trkpt>
      <trkpt lat="49.27867" lon="0.13407">
        <ele>96.2</ele>
        <time>2011-07-02T09:55:44Z</time>
      </trkpt>
      <trkpt lat="49.27851" lon="0.13347">
        <ele>98.2</ele>
        <time>2011-07-02T09:55:51Z</time>
      </trkpt>
      <trkpt lat="49.27842" lon="0.13319">
        <ele>98.8</ele>
        <time>2011-07-02T09:55:54Z</time>
      </trkpt>
      <trkpt lat="49.27832" lon="0.13283">
        <ele>99.2</ele>
        <time>2011-07-02T09:55:58Z</time>
      </trkpt>
      <trkpt lat="49.27819" lon="0.1324">
        <ele>100.1</ele>
        <time>2011-07-02T09:56:03Z</time>
      </trkpt>
      <trkpt lat="49.27813" lon="0.13213">
        <ele>99.8</ele>
        <time>2011-07-02T09:56:06Z</time>
      </trkpt>
      <trkpt lat="49.27806" lon="0.13173">
        <ele>101.5</ele>
        <time>2011-07-02T09:56:10Z</time>
      </trkpt>
      <trkpt lat="49.27798" lon="0.13132">
        <ele>102.8</ele>
        <time>2011-07-02T09:56:14Z</time>
      </trkpt>
      <trkpt lat="49.27788" lon="0.13079">
        <ele>102.7</ele>
        <time>2011-07-02T09:56:19Z</time>
      </trkpt>
      <trkpt lat="49.27783" lon="0.13034">
        <ele>102.8</ele>
        <time>2011-07-02T09:56:23Z</time>
      </trkpt>
      <trkpt lat="49.2778" lon="0.12987">
        <ele>102.4</ele>
        <time>2011-07-02T09:56:27Z</time>
      </trkpt>
      <trkpt lat="49.2778" lon="0.12931">
        <ele>101.3</ele>
        <time>2011-07-02T09:56:31Z</time>
      </trkpt>
      <trkpt lat="49.27791" lon="0.12856">
        <ele>98.2</ele>
        <time>2011-07-02T09:56:36Z</time>
      </trkpt>
      <trkpt lat="49.27797" lon="0.12814">
        <ele>98.1</ele>
        <time>2011-07-02T09:56:39Z</time>
      </trkpt>
      <trkpt lat="49.278" lon="0.12761">
        <ele>96.8</ele>
        <time>2011-07-02T09:56:43Z</time>
      </trkpt>
      <trkpt lat="49.27799" lon="0.1272">
        <ele>96.2</ele>
        <time>2011-07-02T09:56:46Z</time>
      </trkpt>
      <trkpt lat="49.27794" lon="0.1267">
        <ele>96.7</ele>
        <time>2011-07-02T09:56:50Z</time>
      </trkpt>
      <trkpt lat="49.27789" lon="0.12608">
        <ele>96</ele>
        <time>2011-07-02T09:56:55Z</time>
      </trkpt>
      <trkpt lat="49.2779" lon="0.12548">
        <ele>96</ele>
        <time>2011-07-02T09:57:00Z</time>
      </trkpt>
      <trkpt lat="49.27789" lon="0.1251">
        <ele>95.2</ele>
        <time>2011-07-02T09:57:03Z</time>
      </trkpt>
      <trkpt lat="49.27789" lon="0.12474">
        <ele>96.2</ele>
        <time>2011-07-02T09:57:06Z</time>
      </trkpt>
      <trkpt lat="49.27799" lon="0.12407">
        <ele>95.3</ele>
        <time>2011-07-02T09:57:11Z</time>
      </trkpt>
      <trkpt lat="49.27808" lon="0.12352">
        <ele>95.1</ele>
        <time>2011-07-02T09:57:15Z</time>
      </trkpt>
      <trkpt lat="49.27815" lon="0.12298">
        <ele>93.7</ele>
        <time>2011-07-02T09:57:19Z</time>
      </trkpt>
      <trkpt lat="49.27825" lon="0.12245">
        <ele>94</ele>
        <time>2011-07-02T09:57:23Z</time>
      </trkpt>
      <trkpt lat="49.27836" lon="0.12192">
        <ele>91.4</ele>
        <time>2011-07-02T09:57:27Z</time>
      </trkpt>
      <trkpt lat="49.27854" lon="0.12124">
        <ele>89.1</ele>
        <time>2011-07-02T09:57:32Z</time>
      </trkpt>
      <trkpt lat="49.2787" lon="0.12068">
        <ele>89.2</ele>
        <time>2011-07-02T09:57:36Z</time>
      </trkpt>
      <trkpt lat="49.27885" lon="0.1201">
        <ele>87.6</ele>
        <time>2011-07-02T09:57:40Z</time>
      </trkpt>
      <trkpt lat="49.27902" lon="0.1195">
        <ele>85.9</ele>
        <time>2011-07-02T09:57:44Z</time>
      </trkpt>
      <trkpt lat="49.27914" lon="0.11892">
        <ele>85.7</ele>
        <time>2011-07-02T09:57:48Z</time>
      </trkpt>
      <trkpt lat="49.27915" lon="0.11866">
        <ele>85.5</ele>
        <time>2011-07-02T09:57:50Z</time>
      </trkpt>
      <trkpt lat="49.27912" lon="0.11835">
        <ele>85.3</ele>
        <time>2011-07-02T09:57:53Z</time>
      </trkpt>
      <trkpt lat="49.27916" lon="0.1178">
        <ele>83.8</ele>
        <time>2011-07-02T09:57:59Z</time>
      </trkpt>
      <trkpt lat="49.27915" lon="0.11754">
        <ele>84</ele>
        <time>2011-07-02T09:58:03Z</time>
      </trkpt>
      <trkpt lat="49.27913" lon="0.11716">
        <ele>85</ele>
        <time>2011-07-02T09:58:08Z</time>
      </trkpt>
      <trkpt lat="49.27916" lon="0.11683">
        <ele>84.4</ele>
        <time>2011-07-02T09:58:12Z</time>
      </trkpt>
      <trkpt lat="49.27921" lon="0.11653">
        <ele>85.2</ele>
        <time>2011-07-02T09:58:16Z</time>
      </trkpt>
      <trkpt lat="49.27923" lon="0.11625">
        <ele>86</ele>
        <time>2011-07-02T09:58:20Z</time>
      </trkpt>
      <trkpt lat="49.27924" lon="0.11599">
        <ele>88.7</ele>
        <time>2011-07-02T09:58:24Z</time>
      </trkpt>
      <trkpt lat="49.27926" lon="0.1157">
        <ele>91</ele>
        <time>2011-07-02T09:58:28Z</time>
      </trkpt>
      <trkpt lat="49.27928" lon="0.11557">
        <ele>91.9</ele>
        <time>2011-07-02T09:58:30Z</time>
      </trkpt>
      <trkpt lat="49.27929" lon="0.11531">
        <ele>93.3</ele>
        <time>2011-07-02T09:58:34Z</time>
      </trkpt>
      <trkpt lat="49.2793" lon="0.11502">
        <ele>94.4</ele>
        <time>2011-07-02T09:58:38Z</time>
      </trkpt>
      <trkpt lat="49.27932" lon="0.11446">
        <ele>97.1</ele>
        <time>2011-07-02T09:58:47Z</time>
      </trkpt>
      <trkpt lat="49.27935" lon="0.11397">
        <ele>100.7</ele>
        <time>2011-07-02T09:58:55Z</time>
      </trkpt>
      <trkpt lat="49.27934" lon="0.11387">
        <ele>102.1</ele>
        <time>2011-07-02T09:58:58Z</time>
      </trkpt>
      <trkpt lat="49.27933" lon="0.11362">
        <ele>103.4</ele>
        <time>2011-07-02T09:59:04Z</time>
      </trkpt>
      <trkpt lat="49.27929" lon="0.11341">
        <ele>104.3</ele>
        <time>2011-07-02T09:59:08Z</time>
      </trkpt>
      <trkpt lat="49.27924" lon="0.11319">
        <ele>104.7</ele>
        <time>2011-07-02T09:59:12Z</time>
      </trkpt>
      <trkpt lat="49.27921" lon="0.11296">
        <ele>106.7</ele>
        <time>2011-07-02T09:59:16Z</time>
      </trkpt>
      <trkpt lat="49.27917" lon="0.11286">
        <ele>106.2</ele>
        <time>2011-07-02T09:59:18Z</time>
      </trkpt>
      <trkpt lat="49.27913" lon="0.11263">
        <ele>106.4</ele>
        <time>2011-07-02T09:59:23Z</time>
      </trkpt>
      <trkpt lat="49.27906" lon="0.11254">
        <ele>107.3</ele>
        <time>2011-07-02T09:59:26Z</time>
      </trkpt>
      <trkpt lat="49.27891" lon="0.11237">
        <ele>109.7</ele>
        <time>2011-07-02T09:59:31Z</time>
      </trkpt>
      <trkpt lat="49.27878" lon="0.11227">
        <ele>110.4</ele>
        <time>2011-07-02T09:59:35Z</time>
      </trkpt>
      <trkpt lat="49.27866" lon="0.11215">
        <ele>112.5</ele>
        <time>2011-07-02T09:59:39Z</time>
      </trkpt>
      <trkpt lat="49.27849" lon="0.11206">
        <ele>112.6</ele>
        <time>2011-07-02T09:59:43Z</time>
      </trkpt>
      <trkpt lat="49.27832" lon="0.11198">
        <ele>112.3</ele>
        <time>2011-07-02T09:59:47Z</time>
      </trkpt>
      <trkpt lat="49.27816" lon="0.11157">
        <ele>114.3</ele>
        <time>2011-07-02T09:59:55Z</time>
      </trkpt>
      <trkpt lat="49.2782" lon="0.11131">
        <ele>115.5</ele>
        <time>2011-07-02T09:59:59Z</time>
      </trkpt>
      <trkpt lat="49.27822" lon="0.11106">
        <ele>117</ele>
        <time>2011-07-02T10:00:03Z</time>
      </trkpt>
      <trkpt lat="49.27825" lon="0.11093">
        <ele>118.2</ele>
        <time>2011-07-02T10:00:05Z</time>
      </trkpt>
      <trkpt lat="49.27827" lon="0.11058">
        <ele>121.2</ele>
        <time>2011-07-02T10:00:11Z</time>
      </trkpt>
      <trkpt lat="49.2783" lon="0.11046">
        <ele>123.2</ele>
        <time>2011-07-02T10:00:13Z</time>
      </trkpt>
      <trkpt lat="49.27838" lon="0.11011">
        <ele>124.7</ele>
        <time>2011-07-02T10:00:19Z</time>
      </trkpt>
      <trkpt lat="49.27845" lon="0.10989">
        <ele>128</ele>
        <time>2011-07-02T10:00:23Z</time>
      </trkpt>
      <trkpt lat="49.27853" lon="0.10971">
        <ele>129</ele>
        <time>2011-07-02T10:00:27Z</time>
      </trkpt>
      <trkpt lat="49.27853" lon="0.10971">
        <ele>88.7</ele>
        <time>2011-07-02T10:00:38Z</time>
      </trkpt>
      <trkpt lat="49.27853" lon="0.10971">
        <ele>88.7</ele>
        <time>2011-07-02T10:01:47Z</time>
      </trkpt>
      <trkpt lat="49.27855" lon="0.10912">
        <ele>136.5</ele>
        <time>2011-07-02T10:01:52Z</time>
      </trkpt>
      <trkpt lat="49.27853" lon="0.10886">
        <ele>135.8</ele>
        <time>2011-07-02T10:01:56Z</time>
      </trkpt>
      <trkpt lat="49.27844" lon="0.1084">
        <ele>133.5</ele>
        <time>2011-07-02T10:02:01Z</time>
      </trkpt>
      <trkpt lat="49.27835" lon="0.10793">
        <ele>132.2</ele>
        <time>2011-07-02T10:02:05Z</time>
      </trkpt>
      <trkpt lat="49.27821" lon="0.10745">
        <ele>131.9</ele>
        <time>2011-07-02T10:02:09Z</time>
      </trkpt>
      <trkpt lat="49.27807" lon="0.10694">
        <ele>129.1</ele>
        <time>2011-07-02T10:02:13Z</time>
      </trkpt>
      <trkpt lat="49.27786" lon="0.10642">
        <ele>127.7</ele>
        <time>2011-07-02T10:02:17Z</time>
      </trkpt>
      <trkpt lat="49.27773" lon="0.10584">
        <ele>125.4</ele>
        <time>2011-07-02T10:02:21Z</time>
      </trkpt>
      <trkpt lat="49.27794" lon="0.10518">
        <ele>120.8</ele>
        <time>2011-07-02T10:02:25Z</time>
      </trkpt>
      <trkpt lat="49.27819" lon="0.10453">
        <ele>116.9</ele>
        <time>2011-07-02T10:02:29Z</time>
      </trkpt>
      <trkpt lat="49.27839" lon="0.10402">
        <ele>115.9</ele>
        <time>2011-07-02T10:02:32Z</time>
      </trkpt>
      <trkpt lat="49.27873" lon="0.10309">
        <ele>114.9</ele>
        <time>2011-07-02T10:02:37Z</time>
      </trkpt>
      <trkpt lat="49.27896" lon="0.10267">
        <ele>113.7</ele>
        <time>2011-07-02T10:02:40Z</time>
      </trkpt>
      <trkpt lat="49.27942" lon="0.10236">
        <ele>110.5</ele>
        <time>2011-07-02T10:02:45Z</time>
      </trkpt>
      <trkpt lat="49.27978" lon="0.10225">
        <ele>108.8</ele>
        <time>2011-07-02T10:02:49Z</time>
      </trkpt>
      <trkpt lat="49.28007" lon="0.10205">
        <ele>107.6</ele>
        <time>2011-07-02T10:02:53Z</time>
      </trkpt>
      <trkpt lat="49.2803" lon="0.10165">
        <ele>109</ele>
        <time>2011-07-02T10:02:57Z</time>
      </trkpt>
      <trkpt lat="49.28024" lon="0.10122">
        <ele>109.9</ele>
        <time>2011-07-02T10:03:01Z</time>
      </trkpt>
      <trkpt lat="49.28003" lon="0.10095">
        <ele>109</ele>
        <time>2011-07-02T10:03:05Z</time>
      </trkpt>
      <trkpt lat="49.27997" lon="0.10055">
        <ele>110.3</ele>
        <time>2011-07-02T10:03:09Z</time>
      </trkpt>
      <trkpt lat="49.27998" lon="0.1002">
        <ele>111.1</ele>
        <time>2011-07-02T10:03:12Z</time>
      </trkpt>
      <trkpt lat="49.28008" lon="0.09963">
        <ele>111.3</ele>
        <time>2011-07-02T10:03:17Z</time>
      </trkpt>
      <trkpt lat="49.28021" lon="0.09913">
        <ele>111</ele>
        <time>2011-07-02T10:03:21Z</time>
      </trkpt>
      <trkpt lat="49.28033" lon="0.09867">
        <ele>112.2</ele>
        <time>2011-07-02T10:03:25Z</time>
      </trkpt>
      <trkpt lat="49.28042" lon="0.09825">
        <ele>114.4</ele>
        <time>2011-07-02T10:03:29Z</time>
      </trkpt>
      <trkpt lat="49.28048" lon="0.09796">
        <ele>114.7</ele>
        <time>2011-07-02T10:03:32Z</time>
      </trkpt>
      <trkpt lat="49.2806" lon="0.09744">
        <ele>115.2</ele>
        <time>2011-07-02T10:03:37Z</time>
      </trkpt>
      <trkpt lat="49.28064" lon="0.09713">
        <ele>116.2</ele>
        <time>2011-07-02T10:03:40Z</time>
      </trkpt>
      <trkpt lat="49.28076" lon="0.09659">
        <ele>116.9</ele>
        <time>2011-07-02T10:03:45Z</time>
      </trkpt>
      <trkpt lat="49.28079" lon="0.09622">
        <ele>116.4</ele>
        <time>2011-07-02T10:03:48Z</time>
      </trkpt>
      <trkpt lat="49.28082" lon="0.09566">
        <ele>116.8</ele>
        <time>2011-07-02T10:03:53Z</time>
      </trkpt>
      <trkpt lat="49.28093" lon="0.09513">
        <ele>117.2</ele>
        <time>2011-07-02T10:03:57Z</time>
      </trkpt>
      <trkpt lat="49.28101" lon="0.09461">
        <ele>118</ele>
        <time>2011-07-02T10:04:01Z</time>
      </trkpt>
      <trkpt lat="49.28107" lon="0.09413">
        <ele>117.4</ele>
        <time>2011-07-02T10:04:05Z</time>
      </trkpt>
      <trkpt lat="49.28115" lon="0.09364">
        <ele>116.8</ele>
        <time>2011-07-02T10:04:09Z</time>
      </trkpt>
      <trkpt lat="49.28122" lon="0.09316">
        <ele>116.4</ele>
        <time>2011-07-02T10:04:13Z</time>
      </trkpt>
      <trkpt lat="49.28129" lon="0.09266">
        <ele>117</ele>
        <time>2011-07-02T10:04:17Z</time>
      </trkpt>
      <trkpt lat="49.28133" lon="0.09217">
        <ele>116.7</ele>
        <time>2011-07-02T10:04:21Z</time>
      </trkpt>
      <trkpt lat="49.28142" lon="0.09171">
        <ele>117.9</ele>
        <time>2011-07-02T10:04:25Z</time>
      </trkpt>
      <trkpt lat="49.28159" lon="0.09124">
        <ele>117</ele>
        <time>2011-07-02T10:04:29Z</time>
      </trkpt>
      <trkpt lat="49.28167" lon="0.09079">
        <ele>117.8</ele>
        <time>2011-07-02T10:04:33Z</time>
      </trkpt>
      <trkpt lat="49.28185" lon="0.09044">
        <ele>119.4</ele>
        <time>2011-07-02T10:04:37Z</time>
      </trkpt>
      <trkpt lat="49.2821" lon="0.09031">
        <ele>120.7</ele>
        <time>2011-07-02T10:04:40Z</time>
      </trkpt>
      <trkpt lat="49.28267" lon="0.09003">
        <ele>117.7</ele>
        <time>2011-07-02T10:04:45Z</time>
      </trkpt>
      <trkpt lat="49.28307" lon="0.08959">
        <ele>116.6</ele>
        <time>2011-07-02T10:04:49Z</time>
      </trkpt>
      <trkpt lat="49.28335" lon="0.08893">
        <ele>114.9</ele>
        <time>2011-07-02T10:04:53Z</time>
      </trkpt>
      <trkpt lat="49.28356" lon="0.08846">
        <ele>114.5</ele>
        <time>2011-07-02T10:04:56Z</time>
      </trkpt>
      <trkpt lat="49.28395" lon="0.08778">
        <ele>113.2</ele>
        <time>2011-07-02T10:05:01Z</time>
      </trkpt>
      <trkpt lat="49.28421" lon="0.08741">
        <ele>112.3</ele>
        <time>2011-07-02T10:05:04Z</time>
      </trkpt>
      <trkpt lat="49.28466" lon="0.08682">
        <ele>112.8</ele>
        <time>2011-07-02T10:05:09Z</time>
      </trkpt>
      <trkpt lat="49.28502" lon="0.08633">
        <ele>113.7</ele>
        <time>2011-07-02T10:05:13Z</time>
      </trkpt>
      <trkpt lat="49.28533" lon="0.08585">
        <ele>115.4</ele>
        <time>2011-07-02T10:05:17Z</time>
      </trkpt>
      <trkpt lat="49.28564" lon="0.08541">
        <ele>115.7</ele>
        <time>2011-07-02T10:05:21Z</time>
      </trkpt>
      <trkpt lat="49.28598" lon="0.08505">
        <ele>115.9</ele>
        <time>2011-07-02T10:05:25Z</time>
      </trkpt>
      <trkpt lat="49.28628" lon="0.08463">
        <ele>114.7</ele>
        <time>2011-07-02T10:05:29Z</time>
      </trkpt>
      <trkpt lat="49.28656" lon="0.08417">
        <ele>112.8</ele>
        <time>2011-07-02T10:05:33Z</time>
      </trkpt>
      <trkpt lat="49.28681" lon="0.08372">
        <ele>113.2</ele>
        <time>2011-07-02T10:05:37Z</time>
      </trkpt>
      <trkpt lat="49.28712" lon="0.0832">
        <ele>111.1</ele>
        <time>2011-07-02T10:05:41Z</time>
      </trkpt>
      <trkpt lat="49.28727" lon="0.08249">
        <ele>106.5</ele>
        <time>2011-07-02T10:05:45Z</time>
      </trkpt>
      <trkpt lat="49.28749" lon="0.08174">
        <ele>104</ele>
        <time>2011-07-02T10:05:49Z</time>
      </trkpt>
      <trkpt lat="49.2878" lon="0.08107">
        <ele>103.4</ele>
        <time>2011-07-02T10:05:53Z</time>
      </trkpt>
      <trkpt lat="49.28805" lon="0.08065">
        <ele>102.7</ele>
        <time>2011-07-02T10:05:56Z</time>
      </trkpt>
      <trkpt lat="49.2885" lon="0.08011">
        <ele>101.6</ele>
        <time>2011-07-02T10:06:01Z</time>
      </trkpt>
      <trkpt lat="49.28884" lon="0.07975">
        <ele>101.1</ele>
        <time>2011-07-02T10:06:05Z</time>
      </trkpt>
      <trkpt lat="49.28916" lon="0.07938">
        <ele>101.9</ele>
        <time>2011-07-02T10:06:09Z</time>
      </trkpt>
      <trkpt lat="49.2894" lon="0.07911">
        <ele>101.9</ele>
        <time>2011-07-02T10:06:13Z</time>
      </trkpt>
      <trkpt lat="49.28967" lon="0.07883">
        <ele>101.2</ele>
        <time>2011-07-02T10:06:17Z</time>
      </trkpt>
      <trkpt lat="49.28987" lon="0.07862">
        <ele>102.1</ele>
        <time>2011-07-02T10:06:20Z</time>
      </trkpt>
      <trkpt lat="49.29012" lon="0.0784">
        <ele>102.7</ele>
        <time>2011-07-02T10:06:24Z</time>
      </trkpt>
      <trkpt lat="49.29036" lon="0.07811">
        <ele>108</ele>
        <time>2011-07-02T10:06:29Z</time>
      </trkpt>
      <trkpt lat="49.29054" lon="0.07788">
        <ele>109</ele>
        <time>2011-07-02T10:06:33Z</time>
      </trkpt>
      <trkpt lat="49.29062" lon="0.07775">
        <ele>109.3</ele>
        <time>2011-07-02T10:06:35Z</time>
      </trkpt>
      <trkpt lat="49.29075" lon="0.07753">
        <ele>109.3</ele>
        <time>2011-07-02T10:06:39Z</time>
      </trkpt>
      <trkpt lat="49.29092" lon="0.07726">
        <ele>110.5</ele>
        <time>2011-07-02T10:06:45Z</time>
      </trkpt>
      <trkpt lat="49.29097" lon="0.07717">
        <ele>110.4</ele>
        <time>2011-07-02T10:06:47Z</time>
      </trkpt>
      <trkpt lat="49.29105" lon="0.07696">
        <ele>109.3</ele>
        <time>2011-07-02T10:06:52Z</time>
      </trkpt>
      <trkpt lat="49.29114" lon="0.0768">
        <ele>108.6</ele>
        <time>2011-07-02T10:06:56Z</time>
      </trkpt>
      <trkpt lat="49.29127" lon="0.07661">
        <ele>108.5</ele>
        <time>2011-07-02T10:07:00Z</time>
      </trkpt>
      <trkpt lat="49.29143" lon="0.07639">
        <ele>109.6</ele>
        <time>2011-07-02T10:07:04Z</time>
      </trkpt>
      <trkpt lat="49.29151" lon="0.07628">
        <ele>109.5</ele>
        <time>2011-07-02T10:07:06Z</time>
      </trkpt>
      <trkpt lat="49.29171" lon="0.07597">
        <ele>109.6</ele>
        <time>2011-07-02T10:07:12Z</time>
      </trkpt>
      <trkpt lat="49.29181" lon="0.07579">
        <ele>109.1</ele>
        <time>2011-07-02T10:07:16Z</time>
      </trkpt>
      <trkpt lat="49.29193" lon="0.07564">
        <ele>108.3</ele>
        <time>2011-07-02T10:07:20Z</time>
      </trkpt>
      <trkpt lat="49.29207" lon="0.07547">
        <ele>109.1</ele>
        <time>2011-07-02T10:07:24Z</time>
      </trkpt>
      <trkpt lat="49.29222" lon="0.07525">
        <ele>108.2</ele>
        <time>2011-07-02T10:07:28Z</time>
      </trkpt>
      <trkpt lat="49.29234" lon="0.07503">
        <ele>108</ele>
        <time>2011-07-02T10:07:32Z</time>
      </trkpt>
      <trkpt lat="49.29255" lon="0.0747">
        <ele>107.1</ele>
        <time>2011-07-02T10:07:37Z</time>
      </trkpt>
      <trkpt lat="49.29271" lon="0.07445">
        <ele>107.3</ele>
        <time>2011-07-02T10:07:41Z</time>
      </trkpt>
      <trkpt lat="49.29286" lon="0.07422">
        <ele>108</ele>
        <time>2011-07-02T10:07:45Z</time>
      </trkpt>
      <trkpt lat="49.29305" lon="0.07395">
        <ele>109.8</ele>
        <time>2011-07-02T10:07:49Z</time>
      </trkpt>
      <trkpt lat="49.29323" lon="0.07366">
        <ele>110.3</ele>
        <time>2011-07-02T10:07:53Z</time>
      </trkpt>
      <trkpt lat="49.29341" lon="0.07339">
        <ele>109.9</ele>
        <time>2011-07-02T10:07:56Z</time>
      </trkpt>
      <trkpt lat="49.29355" lon="0.07317">
        <ele>109.6</ele>
        <time>2011-07-02T10:08:00Z</time>
      </trkpt>
      <trkpt lat="49.29372" lon="0.07293">
        <ele>109.7</ele>
        <time>2011-07-02T10:08:04Z</time>
      </trkpt>
      <trkpt lat="49.29387" lon="0.07268">
        <ele>111.5</ele>
        <time>2011-07-02T10:08:08Z</time>
      </trkpt>
      <trkpt lat="49.29406" lon="0.07242">
        <ele>111.1</ele>
        <time>2011-07-02T10:08:12Z</time>
      </trkpt>
      <trkpt lat="49.2942" lon="0.07218">
        <ele>111</ele>
        <time>2011-07-02T10:08:16Z</time>
      </trkpt>
      <trkpt lat="49.29425" lon="0.07212">
        <ele>111.3</ele>
        <time>2011-07-02T10:08:17Z</time>
      </trkpt>
      <trkpt lat="49.29454" lon="0.07165">
        <ele>111.4</ele>
        <time>2011-07-02T10:08:24Z</time>
      </trkpt>
      <trkpt lat="49.29469" lon="0.07141">
        <ele>112.9</ele>
        <time>2011-07-02T10:08:28Z</time>
      </trkpt>
      <trkpt lat="49.29488" lon="0.07114">
        <ele>115.3</ele>
        <time>2011-07-02T10:08:32Z</time>
      </trkpt>
      <trkpt lat="49.29503" lon="0.07094">
        <ele>115.2</ele>
        <time>2011-07-02T10:08:35Z</time>
      </trkpt>
      <trkpt lat="49.29526" lon="0.07056">
        <ele>117.4</ele>
        <time>2011-07-02T10:08:41Z</time>
      </trkpt>
      <trkpt lat="49.29535" lon="0.07043">
        <ele>117.4</ele>
        <time>2011-07-02T10:08:43Z</time>
      </trkpt>
      <trkpt lat="49.29556" lon="0.07011">
        <ele>119</ele>
        <time>2011-07-02T10:08:47Z</time>
      </trkpt>
      <trkpt lat="49.29579" lon="0.06971">
        <ele>119.5</ele>
        <time>2011-07-02T10:08:52Z</time>
      </trkpt>
      <trkpt lat="49.29595" lon="0.0695">
        <ele>119.7</ele>
        <time>2011-07-02T10:08:56Z</time>
      </trkpt>
      <trkpt lat="49.29611" lon="0.06926">
        <ele>118.7</ele>
        <time>2011-07-02T10:08:59Z</time>
      </trkpt>
      <trkpt lat="49.29632" lon="0.06894">
        <ele>118.4</ele>
        <time>2011-07-02T10:09:04Z</time>
      </trkpt>
      <trkpt lat="49.29648" lon="0.06865">
        <ele>118.7</ele>
        <time>2011-07-02T10:09:08Z</time>
      </trkpt>
      <trkpt lat="49.29669" lon="0.06828">
        <ele>117.7</ele>
        <time>2011-07-02T10:09:12Z</time>
      </trkpt>
      <trkpt lat="49.29687" lon="0.06791">
        <ele>116</ele>
        <time>2011-07-02T10:09:16Z</time>
      </trkpt>
      <trkpt lat="49.2971" lon="0.06746">
        <ele>117.1</ele>
        <time>2011-07-02T10:09:20Z</time>
      </trkpt>
      <trkpt lat="49.29731" lon="0.067">
        <ele>116.1</ele>
        <time>2011-07-02T10:09:24Z</time>
      </trkpt>
      <trkpt lat="49.29754" lon="0.06657">
        <ele>115.6</ele>
        <time>2011-07-02T10:09:28Z</time>
      </trkpt>
      <trkpt lat="49.29776" lon="0.06609">
        <ele>115.1</ele>
        <time>2011-07-02T10:09:32Z</time>
      </trkpt>
      <trkpt lat="49.29799" lon="0.06562">
        <ele>112.7</ele>
        <time>2011-07-02T10:09:36Z</time>
      </trkpt>
      <trkpt lat="49.29817" lon="0.06524">
        <ele>112</ele>
        <time>2011-07-02T10:09:40Z</time>
      </trkpt>
      <trkpt lat="49.29841" lon="0.06473">
        <ele>111</ele>
        <time>2011-07-02T10:09:43Z</time>
      </trkpt>
      <trkpt lat="49.29868" lon="0.06418">
        <ele>110.7</ele>
        <time>2011-07-02T10:09:47Z</time>
      </trkpt>
      <trkpt lat="49.29895" lon="0.06364">
        <ele>109.8</ele>
        <time>2011-07-02T10:09:52Z</time>
      </trkpt>
      <trkpt lat="49.29911" lon="0.06334">
        <ele>109.7</ele>
        <time>2011-07-02T10:09:56Z</time>
      </trkpt>
      <trkpt lat="49.29927" lon="0.06297">
        <ele>109.5</ele>
        <time>2011-07-02T10:10:00Z</time>
      </trkpt>
      <trkpt lat="49.29943" lon="0.06268">
        <ele>110.3</ele>
        <time>2011-07-02T10:10:04Z</time>
      </trkpt>
      <trkpt lat="49.29955" lon="0.06232">
        <ele>110.4</ele>
        <time>2011-07-02T10:10:08Z</time>
      </trkpt>
      <trkpt lat="49.29967" lon="0.06191">
        <ele>109.6</ele>
        <time>2011-07-02T10:10:12Z</time>
      </trkpt>
      <trkpt lat="49.29978" lon="0.06152">
        <ele>110</ele>
        <time>2011-07-02T10:10:16Z</time>
      </trkpt>
      <trkpt lat="49.29987" lon="0.06123">
        <ele>110</ele>
        <time>2011-07-02T10:10:19Z</time>
      </trkpt>
      <trkpt lat="49.30004" lon="0.06069">
        <ele>110.3</ele>
        <time>2011-07-02T10:10:24Z</time>
      </trkpt>
      <trkpt lat="49.3002" lon="0.06027">
        <ele>108.6</ele>
        <time>2011-07-02T10:10:28Z</time>
      </trkpt>
      <trkpt lat="49.30035" lon="0.05995">
        <ele>107.8</ele>
        <time>2011-07-02T10:10:32Z</time>
      </trkpt>
      <trkpt lat="49.30053" lon="0.05963">
        <ele>108.2</ele>
        <time>2011-07-02T10:10:36Z</time>
      </trkpt>
      <trkpt lat="49.30065" lon="0.05945">
        <ele>109.4</ele>
        <time>2011-07-02T10:10:39Z</time>
      </trkpt>
      <trkpt lat="49.30099" lon="0.05895">
        <ele>109.7</ele>
        <time>2011-07-02T10:10:44Z</time>
      </trkpt>
      <trkpt lat="49.30124" lon="0.05859">
        <ele>109.1</ele>
        <time>2011-07-02T10:10:48Z</time>
      </trkpt>
      <trkpt lat="49.30146" lon="0.05828">
        <ele>108.6</ele>
        <time>2011-07-02T10:10:52Z</time>
      </trkpt>
      <trkpt lat="49.3017" lon="0.05785">
        <ele>109.9</ele>
        <time>2011-07-02T10:10:56Z</time>
      </trkpt>
      <trkpt lat="49.30192" lon="0.05738">
        <ele>107.3</ele>
        <time>2011-07-02T10:11:00Z</time>
      </trkpt>
      <trkpt lat="49.3021" lon="0.05685">
        <ele>106.5</ele>
        <time>2011-07-02T10:11:04Z</time>
      </trkpt>
      <trkpt lat="49.30233" lon="0.05628">
        <ele>103.5</ele>
        <time>2011-07-02T10:11:08Z</time>
      </trkpt>
      <trkpt lat="49.30256" lon="0.0557">
        <ele>101.6</ele>
        <time>2011-07-02T10:11:12Z</time>
      </trkpt>
      <trkpt lat="49.30276" lon="0.05511">
        <ele>98.9</ele>
        <time>2011-07-02T10:11:16Z</time>
      </trkpt>
      <trkpt lat="49.30289" lon="0.05446">
        <ele>98</ele>
        <time>2011-07-02T10:11:20Z</time>
      </trkpt>
      <trkpt lat="49.30299" lon="0.05393">
        <ele>97.4</ele>
        <time>2011-07-02T10:11:24Z</time>
      </trkpt>
      <trkpt lat="49.30306" lon="0.05352">
        <ele>97.3</ele>
        <time>2011-07-02T10:11:28Z</time>
      </trkpt>
      <trkpt lat="49.30308" lon="0.05331">
        <ele>97.6</ele>
        <time>2011-07-02T10:11:30Z</time>
      </trkpt>
      <trkpt lat="49.3032" lon="0.05261">
        <ele>98.2</ele>
        <time>2011-07-02T10:11:36Z</time>
      </trkpt>
      <trkpt lat="49.30318" lon="0.05218">
        <ele>99</ele>
        <time>2011-07-02T10:11:41Z</time>
      </trkpt>
      <trkpt lat="49.30313" lon="0.05177">
        <ele>98.1</ele>
        <time>2011-07-02T10:11:44Z</time>
      </trkpt>
      <trkpt lat="49.30312" lon="0.05166">
        <ele>98.2</ele>
        <time>2011-07-02T10:11:45Z</time>
      </trkpt>
      <trkpt lat="49.30309" lon="0.05098">
        <ele>98.3</ele>
        <time>2011-07-02T10:11:52Z</time>
      </trkpt>
      <trkpt lat="49.30309" lon="0.05064">
        <ele>98.8</ele>
        <time>2011-07-02T10:11:56Z</time>
      </trkpt>
      <trkpt lat="49.30318" lon="0.05021">
        <ele>98.2</ele>
        <time>2011-07-02T10:12:00Z</time>
      </trkpt>
      <trkpt lat="49.30333" lon="0.04972">
        <ele>100.5</ele>
        <time>2011-07-02T10:12:04Z</time>
      </trkpt>
      <trkpt lat="49.3034" lon="0.0495">
        <ele>101.1</ele>
        <time>2011-07-02T10:12:06Z</time>
      </trkpt>
      <trkpt lat="49.30361" lon="0.04892">
        <ele>101.5</ele>
        <time>2011-07-02T10:12:12Z</time>
      </trkpt>
      <trkpt lat="49.30382" lon="0.04851">
        <ele>100.9</ele>
        <time>2011-07-02T10:12:16Z</time>
      </trkpt>
      <trkpt lat="49.30399" lon="0.04813">
        <ele>100.9</ele>
        <time>2011-07-02T10:12:20Z</time>
      </trkpt>
      <trkpt lat="49.30419" lon="0.04768">
        <ele>100</ele>
        <time>2011-07-02T10:12:24Z</time>
      </trkpt>
      <trkpt lat="49.30441" lon="0.04723">
        <ele>100.1</ele>
        <time>2011-07-02T10:12:28Z</time>
      </trkpt>
      <trkpt lat="49.30463" lon="0.04676">
        <ele>99.1</ele>
        <time>2011-07-02T10:12:32Z</time>
      </trkpt>
      <trkpt lat="49.30485" lon="0.04626">
        <ele>97.5</ele>
        <time>2011-07-02T10:12:36Z</time>
      </trkpt>
      <trkpt lat="49.30504" lon="0.04576">
        <ele>95.5</ele>
        <time>2011-07-02T10:12:41Z</time>
      </trkpt>
      <trkpt lat="49.30512" lon="0.04547">
        <ele>93.5</ele>
        <time>2011-07-02T10:12:43Z</time>
      </trkpt>
      <trkpt lat="49.30519" lon="0.04523">
        <ele>93.2</ele>
        <time>2011-07-02T10:12:46Z</time>
      </trkpt>
      <trkpt lat="49.30545" lon="0.04468">
        <ele>93.5</ele>
        <time>2011-07-02T10:12:52Z</time>
      </trkpt>
      <trkpt lat="49.3056" lon="0.04436">
        <ele>94.5</ele>
        <time>2011-07-02T10:12:56Z</time>
      </trkpt>
      <trkpt lat="49.30572" lon="0.04412">
        <ele>95.9</ele>
        <time>2011-07-02T10:13:00Z</time>
      </trkpt>
      <trkpt lat="49.30584" lon="0.0439">
        <ele>97.2</ele>
        <time>2011-07-02T10:13:04Z</time>
      </trkpt>
      <trkpt lat="49.30595" lon="0.0437">
        <ele>97.6</ele>
        <time>2011-07-02T10:13:08Z</time>
      </trkpt>
      <trkpt lat="49.30601" lon="0.04358">
        <ele>97.7</ele>
        <time>2011-07-02T10:13:11Z</time>
      </trkpt>
      <trkpt lat="49.30619" lon="0.04322">
        <ele>99.7</ele>
        <time>2011-07-02T10:13:16Z</time>
      </trkpt>
      <trkpt lat="49.30624" lon="0.04311">
        <ele>100.2</ele>
        <time>2011-07-02T10:13:18Z</time>
      </trkpt>
      <trkpt lat="49.30636" lon="0.04288">
        <ele>100.6</ele>
        <time>2011-07-02T10:13:23Z</time>
      </trkpt>
      <trkpt lat="49.30646" lon="0.04267">
        <ele>101</ele>
        <time>2011-07-02T10:13:27Z</time>
      </trkpt>
      <trkpt lat="49.30656" lon="0.04244">
        <ele>101.8</ele>
        <time>2011-07-02T10:13:31Z</time>
      </trkpt>
      <trkpt lat="49.30667" lon="0.04223">
        <ele>103.7</ele>
        <time>2011-07-02T10:13:35Z</time>
      </trkpt>
      <trkpt lat="49.30675" lon="0.04203">
        <ele>104.1</ele>
        <time>2011-07-02T10:13:39Z</time>
      </trkpt>
      <trkpt lat="49.30681" lon="0.04194">
        <ele>103.9</ele>
        <time>2011-07-02T10:13:41Z</time>
      </trkpt>
      <trkpt lat="49.30687" lon="0.04177">
        <ele>105.6</ele>
        <time>2011-07-02T10:13:45Z</time>
      </trkpt>
      <trkpt lat="49.307" lon="0.04145">
        <ele>104.3</ele>
        <time>2011-07-02T10:13:52Z</time>
      </trkpt>
      <trkpt lat="49.30704" lon="0.04136">
        <ele>107.6</ele>
        <time>2011-07-02T10:13:54Z</time>
      </trkpt>
      <trkpt lat="49.30714" lon="0.04117">
        <ele>110.3</ele>
        <time>2011-07-02T10:14:01Z</time>
      </trkpt>
      <trkpt lat="49.30714" lon="0.04117">
        <ele>67.9</ele>
        <time>2011-07-02T10:14:12Z</time>
      </trkpt>
      <trkpt lat="49.30714" lon="0.04117">
        <ele>67.9</ele>
        <time>2011-07-02T10:14:19Z</time>
      </trkpt>
      <trkpt lat="49.30714" lon="0.04117">
        <ele>67.9</ele>
        <time>2011-07-02T10:14:31Z</time>
      </trkpt>
      <trkpt lat="49.30714" lon="0.04117">
        <ele>67.9</ele>
        <time>2011-07-02T10:15:52Z</time>
      </trkpt>
      <trkpt lat="49.30732" lon="0.04057">
        <ele>113.8</ele>
        <time>2011-07-02T10:15:58Z</time>
      </trkpt>
      <trkpt lat="49.30745" lon="0.04029">
        <ele>113</ele>
        <time>2011-07-02T10:16:11Z</time>
      </trkpt>
      <trkpt lat="49.30749" lon="0.04019">
        <ele>112.6</ele>
        <time>2011-07-02T10:16:12Z</time>
      </trkpt>
      <trkpt lat="49.30766" lon="0.03971">
        <ele>111.8</ele>
        <time>2011-07-02T10:16:18Z</time>
      </trkpt>
      <trkpt lat="49.30783" lon="0.03924">
        <ele>110.8</ele>
        <time>2011-07-02T10:16:22Z</time>
      </trkpt>
      <trkpt lat="49.30802" lon="0.03874">
        <ele>108.8</ele>
        <time>2011-07-02T10:16:26Z</time>
      </trkpt>
      <trkpt lat="49.30821" lon="0.0382">
        <ele>108.5</ele>
        <time>2011-07-02T10:16:30Z</time>
      </trkpt>
      <trkpt lat="49.30841" lon="0.03767">
        <ele>107.3</ele>
        <time>2011-07-02T10:16:34Z</time>
      </trkpt>
      <trkpt lat="49.30861" lon="0.03713">
        <ele>105.8</ele>
        <time>2011-07-02T10:16:39Z</time>
      </trkpt>
      <trkpt lat="49.3087" lon="0.03668">
        <ele>106</ele>
        <time>2011-07-02T10:16:41Z</time>
      </trkpt>
      <trkpt lat="49.30875" lon="0.0358">
        <ele>102.8</ele>
        <time>2011-07-02T10:16:46Z</time>
      </trkpt>
      <trkpt lat="49.30887" lon="0.0352">
        <ele>102.1</ele>
        <time>2011-07-02T10:16:50Z</time>
      </trkpt>
      <trkpt lat="49.30906" lon="0.03477">
        <ele>101.5</ele>
        <time>2011-07-02T10:16:54Z</time>
      </trkpt>
      <trkpt lat="49.30928" lon="0.03429">
        <ele>100.3</ele>
        <time>2011-07-02T10:16:58Z</time>
      </trkpt>
      <trkpt lat="49.30932" lon="0.03363">
        <ele>96.2</ele>
        <time>2011-07-02T10:17:02Z</time>
      </trkpt>
      <trkpt lat="49.30947" lon="0.03317">
        <ele>95.6</ele>
        <time>2011-07-02T10:17:06Z</time>
      </trkpt>
      <trkpt lat="49.30978" lon="0.03312">
        <ele>96.8</ele>
        <time>2011-07-02T10:17:11Z</time>
      </trkpt>
      <trkpt lat="49.31009" lon="0.03318">
        <ele>95.8</ele>
        <time>2011-07-02T10:17:14Z</time>
      </trkpt>
      <trkpt lat="49.3102" lon="0.0332">
        <ele>96.9</ele>
        <time>2011-07-02T10:17:16Z</time>
      </trkpt>
      <trkpt lat="49.31052" lon="0.03331">
        <ele>96.5</ele>
        <time>2011-07-02T10:17:22Z</time>
      </trkpt>
      <trkpt lat="49.31074" lon="0.03343">
        <ele>96.1</ele>
        <time>2011-07-02T10:17:26Z</time>
      </trkpt>
      <trkpt lat="49.31096" lon="0.03364">
        <ele>97.5</ele>
        <time>2011-07-02T10:17:30Z</time>
      </trkpt>
      <trkpt lat="49.31118" lon="0.03393">
        <ele>98.4</ele>
        <time>2011-07-02T10:17:34Z</time>
      </trkpt>
      <trkpt lat="49.31153" lon="0.03424">
        <ele>95.7</ele>
        <time>2011-07-02T10:17:38Z</time>
      </trkpt>
      <trkpt lat="49.31192" lon="0.03431">
        <ele>97.1</ele>
        <time>2011-07-02T10:17:42Z</time>
      </trkpt>
      <trkpt lat="49.31236" lon="0.03442">
        <ele>97.4</ele>
        <time>2011-07-02T10:17:46Z</time>
      </trkpt>
      <trkpt lat="49.31278" lon="0.0347">
        <ele>98.2</ele>
        <time>2011-07-02T10:17:50Z</time>
      </trkpt>
      <trkpt lat="49.31319" lon="0.03507">
        <ele>98</ele>
        <time>2011-07-02T10:17:54Z</time>
      </trkpt>
      <trkpt lat="49.31359" lon="0.03544">
        <ele>95.5</ele>
        <time>2011-07-02T10:17:58Z</time>
      </trkpt>
      <trkpt lat="49.31392" lon="0.03575">
        <ele>94.8</ele>
        <time>2011-07-02T10:18:02Z</time>
      </trkpt>
      <trkpt lat="49.31424" lon="0.03602">
        <ele>93.3</ele>
        <time>2011-07-02T10:18:06Z</time>
      </trkpt>
      <trkpt lat="49.31454" lon="0.03626">
        <ele>93.9</ele>
        <time>2011-07-02T10:18:11Z</time>
      </trkpt>
      <trkpt lat="49.31485" lon="0.03644">
        <ele>94</ele>
        <time>2011-07-02T10:18:14Z</time>
      </trkpt>
      <trkpt lat="49.31515" lon="0.03643">
        <ele>94</ele>
        <time>2011-07-02T10:18:18Z</time>
      </trkpt>
      <trkpt lat="49.3154" lon="0.03623">
        <ele>88.4</ele>
        <time>2011-07-02T10:18:22Z</time>
      </trkpt>
      <trkpt lat="49.31566" lon="0.03607">
        <ele>86.6</ele>
        <time>2011-07-02T10:18:26Z</time>
      </trkpt>
      <trkpt lat="49.31601" lon="0.03602">
        <ele>86.1</ele>
        <time>2011-07-02T10:18:30Z</time>
      </trkpt>
      <trkpt lat="49.31638" lon="0.03613">
        <ele>85</ele>
        <time>2011-07-02T10:18:34Z</time>
      </trkpt>
      <trkpt lat="49.31677" lon="0.03627">
        <ele>82.9</ele>
        <time>2011-07-02T10:18:38Z</time>
      </trkpt>
      <trkpt lat="49.31705" lon="0.03627">
        <ele>82.4</ele>
        <time>2011-07-02T10:18:41Z</time>
      </trkpt>
      <trkpt lat="49.31748" lon="0.03626">
        <ele>79.9</ele>
        <time>2011-07-02T10:18:46Z</time>
      </trkpt>
      <trkpt lat="49.31777" lon="0.03624">
        <ele>78.6</ele>
        <time>2011-07-02T10:18:50Z</time>
      </trkpt>
      <trkpt lat="49.31823" lon="0.03627">
        <ele>76.6</ele>
        <time>2011-07-02T10:18:54Z</time>
      </trkpt>
      <trkpt lat="49.31861" lon="0.03631">
        <ele>75.6</ele>
        <time>2011-07-02T10:18:58Z</time>
      </trkpt>
      <trkpt lat="49.31882" lon="0.0363">
        <ele>73.8</ele>
        <time>2011-07-02T10:19:00Z</time>
      </trkpt>
      <trkpt lat="49.31943" lon="0.03614">
        <ele>74.1</ele>
        <time>2011-07-02T10:19:06Z</time>
      </trkpt>
      <trkpt lat="49.31985" lon="0.03604">
        <ele>72.5</ele>
        <time>2011-07-02T10:19:11Z</time>
      </trkpt>
      <trkpt lat="49.32027" lon="0.03594">
        <ele>72.5</ele>
        <time>2011-07-02T10:19:14Z</time>
      </trkpt>
      <trkpt lat="49.32064" lon="0.03598">
        <ele>69.5</ele>
        <time>2011-07-02T10:19:18Z</time>
      </trkpt>
      <trkpt lat="49.32098" lon="0.03598">
        <ele>68.7</ele>
        <time>2011-07-02T10:19:22Z</time>
      </trkpt>
      <trkpt lat="49.32133" lon="0.03597">
        <ele>70.2</ele>
        <time>2011-07-02T10:19:26Z</time>
      </trkpt>
      <trkpt lat="49.32172" lon="0.03605">
        <ele>64.3</ele>
        <time>2011-07-02T10:19:30Z</time>
      </trkpt>
      <trkpt lat="49.32197" lon="0.03656">
        <ele>60.8</ele>
        <time>2011-07-02T10:19:34Z</time>
      </trkpt>
      <trkpt lat="49.32227" lon="0.0368">
        <ele>60.8</ele>
        <time>2011-07-02T10:19:38Z</time>
      </trkpt>
      <trkpt lat="49.32259" lon="0.03685">
        <ele>60.7</ele>
        <time>2011-07-02T10:19:42Z</time>
      </trkpt>
      <trkpt lat="49.32291" lon="0.03666">
        <ele>62.6</ele>
        <time>2011-07-02T10:19:46Z</time>
      </trkpt>
      <trkpt lat="49.32329" lon="0.03659">
        <ele>63.9</ele>
        <time>2011-07-02T10:19:50Z</time>
      </trkpt>
      <trkpt lat="49.32371" lon="0.03649">
        <ele>62.3</ele>
        <time>2011-07-02T10:19:54Z</time>
      </trkpt>
      <trkpt lat="49.32406" lon="0.03647">
        <ele>60.8</ele>
        <time>2011-07-02T10:19:58Z</time>
      </trkpt>
      <trkpt lat="49.3244" lon="0.03645">
        <ele>63.1</ele>
        <time>2011-07-02T10:20:02Z</time>
      </trkpt>
      <trkpt lat="49.32475" lon="0.0364">
        <ele>62.3</ele>
        <time>2011-07-02T10:20:06Z</time>
      </trkpt>
      <trkpt lat="49.32508" lon="0.03636">
        <ele>62.2</ele>
        <time>2011-07-02T10:20:11Z</time>
      </trkpt>
      <trkpt lat="49.32539" lon="0.03631">
        <ele>61.4</ele>
        <time>2011-07-02T10:20:14Z</time>
      </trkpt>
      <trkpt lat="49.32567" lon="0.03624">
        <ele>60.4</ele>
        <time>2011-07-02T10:20:18Z</time>
      </trkpt>
      <trkpt lat="49.32601" lon="0.03619">
        <ele>61.2</ele>
        <time>2011-07-02T10:20:22Z</time>
      </trkpt>
      <trkpt lat="49.32635" lon="0.03611">
        <ele>61.3</ele>
        <time>2011-07-02T10:20:26Z</time>
      </trkpt>
      <trkpt lat="49.32668" lon="0.03607">
        <ele>61.3</ele>
        <time>2011-07-02T10:20:30Z</time>
      </trkpt>
      <trkpt lat="49.32699" lon="0.036">
        <ele>61.1</ele>
        <time>2011-07-02T10:20:34Z</time>
      </trkpt>
      <trkpt lat="49.32725" lon="0.03597">
        <ele>62.4</ele>
        <time>2011-07-02T10:20:37Z</time>
      </trkpt>
      <trkpt lat="49.32768" lon="0.03588">
        <ele>63.8</ele>
        <time>2011-07-02T10:20:42Z</time>
      </trkpt>
      <trkpt lat="49.328" lon="0.03591">
        <ele>61.1</ele>
        <time>2011-07-02T10:20:46Z</time>
      </trkpt>
      <trkpt lat="49.32832" lon="0.03586">
        <ele>61.1</ele>
        <time>2011-07-02T10:20:50Z</time>
      </trkpt>
      <trkpt lat="49.32855" lon="0.03584">
        <ele>62.4</ele>
        <time>2011-07-02T10:20:53Z</time>
      </trkpt>
      <trkpt lat="49.32896" lon="0.03578">
        <ele>62.6</ele>
        <time>2011-07-02T10:20:58Z</time>
      </trkpt>
      <trkpt lat="49.32919" lon="0.03573">
        <ele>60.4</ele>
        <time>2011-07-02T10:21:01Z</time>
      </trkpt>
      <trkpt lat="49.32951" lon="0.03563">
        <ele>60.8</ele>
        <time>2011-07-02T10:21:05Z</time>
      </trkpt>
      <trkpt lat="49.32993" lon="0.0356">
        <ele>60.2</ele>
        <time>2011-07-02T10:21:11Z</time>
      </trkpt>
      <trkpt lat="49.33031" lon="0.03558">
        <ele>62.1</ele>
        <time>2011-07-02T10:21:14Z</time>
      </trkpt>
      <trkpt lat="49.33065" lon="0.03551">
        <ele>63.4</ele>
        <time>2011-07-02T10:21:18Z</time>
      </trkpt>
      <trkpt lat="49.33096" lon="0.03543">
        <ele>62.7</ele>
        <time>2011-07-02T10:21:22Z</time>
      </trkpt>
      <trkpt lat="49.33115" lon="0.0354">
        <ele>62.1</ele>
        <time>2011-07-02T10:21:26Z</time>
      </trkpt>
      <trkpt lat="49.33138" lon="0.03536">
        <ele>61.7</ele>
        <time>2011-07-02T10:21:29Z</time>
      </trkpt>
      <trkpt lat="49.3316" lon="0.03533">
        <ele>59.5</ele>
        <time>2011-07-02T10:21:33Z</time>
      </trkpt>
      <trkpt lat="49.33186" lon="0.03527">
        <ele>59.4</ele>
        <time>2011-07-02T10:21:37Z</time>
      </trkpt>
      <trkpt lat="49.33209" lon="0.03525">
        <ele>58.7</ele>
        <time>2011-07-02T10:21:42Z</time>
      </trkpt>
      <trkpt lat="49.33231" lon="0.03524">
        <ele>57.8</ele>
        <time>2011-07-02T10:21:45Z</time>
      </trkpt>
      <trkpt lat="49.33242" lon="0.03524">
        <ele>57.9</ele>
        <time>2011-07-02T10:21:48Z</time>
      </trkpt>
      <trkpt lat="49.33275" lon="0.03537">
        <ele>57</ele>
        <time>2011-07-02T10:21:53Z</time>
      </trkpt>
      <trkpt lat="49.33294" lon="0.03553">
        <ele>59.4</ele>
        <time>2011-07-02T10:21:57Z</time>
      </trkpt>
      <trkpt lat="49.33317" lon="0.03575">
        <ele>59.9</ele>
        <time>2011-07-02T10:22:03Z</time>
      </trkpt>
      <trkpt lat="49.33339" lon="0.03576">
        <ele>60.6</ele>
        <time>2011-07-02T10:22:07Z</time>
      </trkpt>
      <trkpt lat="49.33356" lon="0.03552">
        <ele>60.4</ele>
        <time>2011-07-02T10:22:11Z</time>
      </trkpt>
      <trkpt lat="49.3337" lon="0.03524">
        <ele>58.5</ele>
        <time>2011-07-02T10:22:15Z</time>
      </trkpt>
      <trkpt lat="49.33381" lon="0.03501">
        <ele>57.1</ele>
        <time>2011-07-02T10:22:18Z</time>
      </trkpt>
      <trkpt lat="49.33397" lon="0.03471">
        <ele>56.9</ele>
        <time>2011-07-02T10:22:22Z</time>
      </trkpt>
      <trkpt lat="49.3342" lon="0.03433">
        <ele>57.5</ele>
        <time>2011-07-02T10:22:27Z</time>
      </trkpt>
      <trkpt lat="49.33438" lon="0.03404">
        <ele>57.6</ele>
        <time>2011-07-02T10:22:31Z</time>
      </trkpt>
      <trkpt lat="49.33457" lon="0.03375">
        <ele>55.8</ele>
        <time>2011-07-02T10:22:35Z</time>
      </trkpt>
      <trkpt lat="49.3347" lon="0.03355">
        <ele>56.5</ele>
        <time>2011-07-02T10:22:38Z</time>
      </trkpt>
      <trkpt lat="49.33487" lon="0.03329">
        <ele>56.6</ele>
        <time>2011-07-02T10:22:42Z</time>
      </trkpt>
      <trkpt lat="49.33509" lon="0.03295">
        <ele>56.9</ele>
        <time>2011-07-02T10:22:47Z</time>
      </trkpt>
      <trkpt lat="49.33527" lon="0.03268">
        <ele>57.7</ele>
        <time>2011-07-02T10:22:51Z</time>
      </trkpt>
      <trkpt lat="49.33541" lon="0.03247">
        <ele>58.6</ele>
        <time>2011-07-02T10:22:54Z</time>
      </trkpt>
      <trkpt lat="49.33562" lon="0.03214">
        <ele>59.2</ele>
        <time>2011-07-02T10:22:59Z</time>
      </trkpt>
      <trkpt lat="49.3358" lon="0.03187">
        <ele>59.1</ele>
        <time>2011-07-02T10:23:03Z</time>
      </trkpt>
      <trkpt lat="49.336" lon="0.03162">
        <ele>59.1</ele>
        <time>2011-07-02T10:23:07Z</time>
      </trkpt>
      <trkpt lat="49.33621" lon="0.03138">
        <ele>58.7</ele>
        <time>2011-07-02T10:23:11Z</time>
      </trkpt>
      <trkpt lat="49.3363" lon="0.03127">
        <ele>58.1</ele>
        <time>2011-07-02T10:23:13Z</time>
      </trkpt>
      <trkpt lat="49.33659" lon="0.0309">
        <ele>58.6</ele>
        <time>2011-07-02T10:23:19Z</time>
      </trkpt>
      <trkpt lat="49.33676" lon="0.0307">
        <ele>58</ele>
        <time>2011-07-02T10:23:22Z</time>
      </trkpt>
      <trkpt lat="49.33693" lon="0.03053">
        <ele>56.3</ele>
        <time>2011-07-02T10:23:26Z</time>
      </trkpt>
      <trkpt lat="49.33707" lon="0.03037">
        <ele>56.2</ele>
        <time>2011-07-02T10:23:29Z</time>
      </trkpt>
      <trkpt lat="49.33724" lon="0.03016">
        <ele>56.4</ele>
        <time>2011-07-02T10:23:33Z</time>
      </trkpt>
      <trkpt lat="49.33743" lon="0.03003">
        <ele>56.2</ele>
        <time>2011-07-02T10:23:37Z</time>
      </trkpt>
      <trkpt lat="49.33755" lon="0.02988">
        <ele>54.2</ele>
        <time>2011-07-02T10:23:43Z</time>
      </trkpt>
      <trkpt lat="49.33755" lon="0.02964">
        <ele>53.8</ele>
        <time>2011-07-02T10:23:46Z</time>
      </trkpt>
      <trkpt lat="49.33751" lon="0.02953">
        <ele>52.9</ele>
        <time>2011-07-02T10:23:48Z</time>
      </trkpt>
      <trkpt lat="49.33751" lon="0.02934">
        <ele>51.6</ele>
        <time>2011-07-02T10:23:53Z</time>
      </trkpt>
      <trkpt lat="49.33767" lon="0.02921">
        <ele>50.4</ele>
        <time>2011-07-02T10:23:57Z</time>
      </trkpt>
      <trkpt lat="49.33779" lon="0.02911">
        <ele>52.5</ele>
        <time>2011-07-02T10:24:02Z</time>
      </trkpt>
      <trkpt lat="49.33779" lon="0.02911">
        <ele>5</ele>
        <time>2011-07-02T10:24:14Z</time>
      </trkpt>
      <trkpt lat="49.33779" lon="0.02911">
        <ele>5</ele>
        <time>2011-07-02T10:24:15Z</time>
      </trkpt>
      <trkpt lat="49.33779" lon="0.02911">
        <ele>5</ele>
        <time>2011-07-02T10:24:27Z</time>
      </trkpt>
      <trkpt lat="49.33779" lon="0.02911">
        <ele>5</ele>
        <time>2011-07-02T10:24:56Z</time>
      </trkpt>
      <trkpt lat="49.33779" lon="0.02911">
        <ele>5</ele>
        <time>2011-07-02T10:25:08Z</time>
      </trkpt>
      <trkpt lat="49.33779" lon="0.02911">
        <ele>5</ele>
        <time>2011-07-02T10:25:23Z</time>
      </trkpt>
      <trkpt lat="49.33779" lon="0.02911">
        <ele>5</ele>
        <time>2011-07-02T10:25:35Z</time>
      </trkpt>
      <trkpt lat="49.33779" lon="0.02911">
        <ele>5</ele>
        <time>2011-07-02T10:32:13Z</time>
      </trkpt>
      <trkpt lat="49.33779" lon="0.02911">
        <ele>5</ele>
        <time>2011-07-02T10:32:25Z</time>
      </trkpt>
      <trkpt lat="49.33779" lon="0.02911">
        <ele>5</ele>
        <time>2011-07-02T10:34:22Z</time>
      </trkpt>
      <trkpt lat="49.33779" lon="0.02911">
        <ele>5</ele>
        <time>2011-07-02T10:34:34Z</time>
      </trkpt>
      <trkpt lat="49.33779" lon="0.02911">
        <ele>5</ele>
        <time>2011-07-02T10:34:59Z</time>
      </trkpt>
      <trkpt lat="49.33779" lon="0.02911">
        <ele>5</ele>
        <time>2011-07-02T10:35:11Z</time>
      </trkpt>
      <trkpt lat="49.33779" lon="0.02911">
        <ele>5</ele>
        <time>2011-07-02T10:46:15Z</time>
      </trkpt>
      <trkpt lat="49.33779" lon="0.02911">
        <ele>5</ele>
        <time>2011-07-02T10:46:27Z</time>
      </trkpt>
      <trkpt lat="49.33779" lon="0.02911">
        <ele>5</ele>
        <time>2011-07-02T10:47:15Z</time>
      </trkpt>
      <trkpt lat="49.33779" lon="0.02911">
        <ele>5</ele>
        <time>2011-07-02T10:47:27Z</time>
      </trkpt>
      <trkpt lat="49.33779" lon="0.02911">
        <ele>5</ele>
        <time>2011-07-02T10:47:45Z</time>
      </trkpt>
      <trkpt lat="49.33829" lon="0.02963">
        <ele>69.5</ele>
        <time>2011-07-02T10:47:50Z</time>
      </trkpt>
      <trkpt lat="49.33829" lon="0.02963">
        <ele>5.3</ele>
        <time>2011-07-02T10:48:02Z</time>
      </trkpt>
      <trkpt lat="49.33829" lon="0.02963">
        <ele>5.3</ele>
        <time>2011-07-02T10:48:06Z</time>
      </trkpt>
      <trkpt lat="49.33851" lon="0.02964">
        <ele>64.8</ele>
        <time>2011-07-02T10:48:09Z</time>
      </trkpt>
      <trkpt lat="49.33857" lon="0.02959">
        <ele>65.6</ele>
        <time>2011-07-02T10:48:14Z</time>
      </trkpt>
      <trkpt lat="49.33864" lon="0.02961">
        <ele>64.3</ele>
        <time>2011-07-02T10:48:19Z</time>
      </trkpt>
      <trkpt lat="49.33871" lon="0.02963">
        <ele>68.6</ele>
        <time>2011-07-02T10:48:24Z</time>
      </trkpt>
      <trkpt lat="49.33878" lon="0.02962">
        <ele>74.1</ele>
        <time>2011-07-02T10:48:31Z</time>
      </trkpt>
      <trkpt lat="49.33878" lon="0.02962">
        <ele>6.6</ele>
        <time>2011-07-02T10:48:43Z</time>
      </trkpt>
      <trkpt lat="49.33878" lon="0.02962">
        <ele>6.6</ele>
        <time>2011-07-02T10:48:50Z</time>
      </trkpt>
      <trkpt lat="49.33878" lon="0.02962">
        <ele>6.6</ele>
        <time>2011-07-02T10:49:02Z</time>
      </trkpt>
      <trkpt lat="49.33878" lon="0.02962">
        <ele>6.6</ele>
        <time>2011-07-02T10:49:33Z</time>
      </trkpt>
      <trkpt lat="49.33878" lon="0.02962">
        <ele>6.6</ele>
        <time>2011-07-02T10:49:45Z</time>
      </trkpt>
      <trkpt lat="49.33878" lon="0.02962">
        <ele>6.6</ele>
        <time>2011-07-02T10:50:06Z</time>
      </trkpt>
      <trkpt lat="49.33878" lon="0.02962">
        <ele>6.6</ele>
        <time>2011-07-02T10:50:18Z</time>
      </trkpt>
      <trkpt lat="49.33878" lon="0.02962">
        <ele>6.6</ele>
        <time>2011-07-02T12:55:13Z</time>
      </trkpt>
      <trkpt lat="49.33877" lon="0.02981">
        <ele>21.3</ele>
        <time>2011-07-02T12:55:24Z</time>
      </trkpt>
      <trkpt lat="49.33879" lon="0.02971">
        <ele>19.6</ele>
        <time>2011-07-02T12:55:29Z</time>
      </trkpt>
      <trkpt lat="49.33879" lon="0.02971">
        <ele>6.7</ele>
        <time>2011-07-02T12:55:41Z</time>
      </trkpt>
      <trkpt lat="49.33879" lon="0.02971">
        <ele>6.7</ele>
        <time>2011-07-02T12:59:24Z</time>
      </trkpt>
      <trkpt lat="49.33827" lon="0.0298">
        <ele>49.6</ele>
        <time>2011-07-02T12:59:28Z</time>
      </trkpt>
      <trkpt lat="49.3382" lon="0.02977">
        <ele>47.2</ele>
        <time>2011-07-02T12:59:32Z</time>
      </trkpt>
      <trkpt lat="49.3382" lon="0.02966">
        <ele>48.2</ele>
        <time>2011-07-02T12:59:42Z</time>
      </trkpt>
      <trkpt lat="49.33812" lon="0.02965">
        <ele>48.8</ele>
        <time>2011-07-02T12:59:46Z</time>
      </trkpt>
      <trkpt lat="49.33809" lon="0.02957">
        <ele>48.2</ele>
        <time>2011-07-02T12:59:52Z</time>
      </trkpt>
      <trkpt lat="49.33809" lon="0.02957">
        <ele>5.1</ele>
        <time>2011-07-02T13:00:03Z</time>
      </trkpt>
      <trkpt lat="49.33809" lon="0.02957">
        <ele>5.1</ele>
        <time>2011-07-02T13:00:05Z</time>
      </trkpt>
      <trkpt lat="49.33804" lon="0.02941">
        <ele>46.3</ele>
        <time>2011-07-02T13:00:12Z</time>
      </trkpt>
      <trkpt lat="49.33802" lon="0.0293">
        <ele>42.4</ele>
        <time>2011-07-02T13:00:19Z</time>
      </trkpt>
      <trkpt lat="49.33796" lon="0.02926">
        <ele>39.7</ele>
        <time>2011-07-02T13:00:25Z</time>
      </trkpt>
      <trkpt lat="49.33796" lon="0.02926">
        <ele>5</ele>
        <time>2011-07-02T13:00:36Z</time>
      </trkpt>
      <trkpt lat="49.33796" lon="0.02926">
        <ele>5</ele>
        <time>2011-07-02T13:07:34Z</time>
      </trkpt>
      <trkpt lat="49.33796" lon="0.02926">
        <ele>5</ele>
        <time>2011-07-02T13:07:45Z</time>
      </trkpt>
      <trkpt lat="49.33796" lon="0.02926">
        <ele>5</ele>
        <time>2011-07-02T13:20:37Z</time>
      </trkpt>
      <trkpt lat="49.33779" lon="0.02911">
        <ele>56.9</ele>
        <time>2011-07-02T13:20:41Z</time>
      </trkpt>
      <trkpt lat="49.33754" lon="0.02919">
        <ele>54.7</ele>
        <time>2011-07-02T13:20:45Z</time>
      </trkpt>
      <trkpt lat="49.33735" lon="0.02933">
        <ele>53.1</ele>
        <time>2011-07-02T13:20:49Z</time>
      </trkpt>
      <trkpt lat="49.33716" lon="0.02946">
        <ele>53.4</ele>
        <time>2011-07-02T13:20:53Z</time>
      </trkpt>
      <trkpt lat="49.33697" lon="0.02957">
        <ele>55</ele>
        <time>2011-07-02T13:20:57Z</time>
      </trkpt>
      <trkpt lat="49.33675" lon="0.02966">
        <ele>53.8</ele>
        <time>2011-07-02T13:21:01Z</time>
      </trkpt>
      <trkpt lat="49.3366" lon="0.02975">
        <ele>52.9</ele>
        <time>2011-07-02T13:21:04Z</time>
      </trkpt>
      <trkpt lat="49.33639" lon="0.02987">
        <ele>53.3</ele>
        <time>2011-07-02T13:21:08Z</time>
      </trkpt>
      <trkpt lat="49.3361" lon="0.03006">
        <ele>52.6</ele>
        <time>2011-07-02T13:21:13Z</time>
      </trkpt>
      <trkpt lat="49.33589" lon="0.03019">
        <ele>53.1</ele>
        <time>2011-07-02T13:21:17Z</time>
      </trkpt>
      <trkpt lat="49.33571" lon="0.03037">
        <ele>52.2</ele>
        <time>2011-07-02T13:21:21Z</time>
      </trkpt>
      <trkpt lat="49.33552" lon="0.03056">
        <ele>52</ele>
        <time>2011-07-02T13:21:25Z</time>
      </trkpt>
      <trkpt lat="49.33538" lon="0.03073">
        <ele>52.6</ele>
        <time>2011-07-02T13:21:29Z</time>
      </trkpt>
      <trkpt lat="49.33525" lon="0.03093">
        <ele>52.5</ele>
        <time>2011-07-02T13:21:33Z</time>
      </trkpt>
      <trkpt lat="49.33513" lon="0.03111">
        <ele>52.6</ele>
        <time>2011-07-02T13:21:37Z</time>
      </trkpt>
      <trkpt lat="49.33501" lon="0.03127">
        <ele>51.8</ele>
        <time>2011-07-02T13:21:41Z</time>
      </trkpt>
      <trkpt lat="49.33487" lon="0.03141">
        <ele>51.5</ele>
        <time>2011-07-02T13:21:45Z</time>
      </trkpt>
      <trkpt lat="49.33473" lon="0.03156">
        <ele>51.6</ele>
        <time>2011-07-02T13:21:49Z</time>
      </trkpt>
      <trkpt lat="49.33461" lon="0.0317">
        <ele>50.5</ele>
        <time>2011-07-02T13:21:53Z</time>
      </trkpt>
      <trkpt lat="49.33452" lon="0.03187">
        <ele>50.3</ele>
        <time>2011-07-02T13:21:57Z</time>
      </trkpt>
      <trkpt lat="49.33441" lon="0.03206">
        <ele>49.7</ele>
        <time>2011-07-02T13:22:01Z</time>
      </trkpt>
      <trkpt lat="49.33432" lon="0.03223">
        <ele>50.4</ele>
        <time>2011-07-02T13:22:05Z</time>
      </trkpt>
      <trkpt lat="49.33421" lon="0.03239">
        <ele>49.5</ele>
        <time>2011-07-02T13:22:09Z</time>
      </trkpt>
      <trkpt lat="49.33411" lon="0.03254">
        <ele>49.8</ele>
        <time>2011-07-02T13:22:13Z</time>
      </trkpt>
      <trkpt lat="49.334" lon="0.03268">
        <ele>50.6</ele>
        <time>2011-07-02T13:22:17Z</time>
      </trkpt>
      <trkpt lat="49.33391" lon="0.03283">
        <ele>51.7</ele>
        <time>2011-07-02T13:22:21Z</time>
      </trkpt>
      <trkpt lat="49.3338" lon="0.03301">
        <ele>52.1</ele>
        <time>2011-07-02T13:22:25Z</time>
      </trkpt>
      <trkpt lat="49.3337" lon="0.0332">
        <ele>51.6</ele>
        <time>2011-07-02T13:22:29Z</time>
      </trkpt>
      <trkpt lat="49.33359" lon="0.03337">
        <ele>50.8</ele>
        <time>2011-07-02T13:22:33Z</time>
      </trkpt>
      <trkpt lat="49.33348" lon="0.03356">
        <ele>50.7</ele>
        <time>2011-07-02T13:22:37Z</time>
      </trkpt>
      <trkpt lat="49.33338" lon="0.03375">
        <ele>50.7</ele>
        <time>2011-07-02T13:22:41Z</time>
      </trkpt>
      <trkpt lat="49.33328" lon="0.03394">
        <ele>51</ele>
        <time>2011-07-02T13:22:45Z</time>
      </trkpt>
      <trkpt lat="49.3332" lon="0.03413">
        <ele>51.1</ele>
        <time>2011-07-02T13:22:49Z</time>
      </trkpt>
      <trkpt lat="49.33309" lon="0.03432">
        <ele>51.3</ele>
        <time>2011-07-02T13:22:53Z</time>
      </trkpt>
      <trkpt lat="49.33298" lon="0.03451">
        <ele>51.9</ele>
        <time>2011-07-02T13:22:57Z</time>
      </trkpt>
      <trkpt lat="49.33287" lon="0.0347">
        <ele>51.5</ele>
        <time>2011-07-02T13:23:01Z</time>
      </trkpt>
      <trkpt lat="49.33275" lon="0.0349">
        <ele>51.7</ele>
        <time>2011-07-02T13:23:05Z</time>
      </trkpt>
      <trkpt lat="49.3327" lon="0.03498">
        <ele>52.6</ele>
        <time>2011-07-02T13:23:07Z</time>
      </trkpt>
      <trkpt lat="49.33258" lon="0.0351">
        <ele>53.1</ele>
        <time>2011-07-02T13:23:13Z</time>
      </trkpt>
      <trkpt lat="49.33242" lon="0.03515">
        <ele>52.8</ele>
        <time>2011-07-02T13:23:17Z</time>
      </trkpt>
      <trkpt lat="49.33226" lon="0.03518">
        <ele>51.4</ele>
        <time>2011-07-02T13:23:21Z</time>
      </trkpt>
      <trkpt lat="49.33209" lon="0.0352">
        <ele>51.1</ele>
        <time>2011-07-02T13:23:25Z</time>
      </trkpt>
      <trkpt lat="49.33191" lon="0.03525">
        <ele>50.1</ele>
        <time>2011-07-02T13:23:29Z</time>
      </trkpt>
      <trkpt lat="49.33183" lon="0.03526">
        <ele>49.9</ele>
        <time>2011-07-02T13:23:31Z</time>
      </trkpt>
      <trkpt lat="49.33159" lon="0.03531">
        <ele>50.1</ele>
        <time>2011-07-02T13:23:37Z</time>
      </trkpt>
      <trkpt lat="49.33136" lon="0.03533">
        <ele>50.4</ele>
        <time>2011-07-02T13:23:44Z</time>
      </trkpt>
      <trkpt lat="49.3312" lon="0.03535">
        <ele>50.1</ele>
        <time>2011-07-02T13:23:48Z</time>
      </trkpt>
      <trkpt lat="49.33103" lon="0.03539">
        <ele>50.1</ele>
        <time>2011-07-02T13:23:52Z</time>
      </trkpt>
      <trkpt lat="49.33085" lon="0.03542">
        <ele>50.7</ele>
        <time>2011-07-02T13:23:56Z</time>
      </trkpt>
      <trkpt lat="49.33067" lon="0.03544">
        <ele>51.1</ele>
        <time>2011-07-02T13:24:00Z</time>
      </trkpt>
      <trkpt lat="49.33049" lon="0.03548">
        <ele>51.2</ele>
        <time>2011-07-02T13:24:04Z</time>
      </trkpt>
      <trkpt lat="49.3303" lon="0.03549">
        <ele>51.3</ele>
        <time>2011-07-02T13:24:08Z</time>
      </trkpt>
      <trkpt lat="49.33021" lon="0.0355">
        <ele>51.6</ele>
        <time>2011-07-02T13:24:10Z</time>
      </trkpt>
      <trkpt lat="49.33003" lon="0.03556">
        <ele>50.2</ele>
        <time>2011-07-02T13:24:14Z</time>
      </trkpt>
      <trkpt lat="49.32978" lon="0.03559">
        <ele>49.9</ele>
        <time>2011-07-02T13:24:20Z</time>
      </trkpt>
      <trkpt lat="49.32963" lon="0.03561">
        <ele>50.7</ele>
        <time>2011-07-02T13:24:24Z</time>
      </trkpt>
      <trkpt lat="49.32947" lon="0.03563">
        <ele>51.7</ele>
        <time>2011-07-02T13:24:28Z</time>
      </trkpt>
      <trkpt lat="49.32939" lon="0.03564">
        <ele>52.2</ele>
        <time>2011-07-02T13:24:30Z</time>
      </trkpt>
      <trkpt lat="49.32916" lon="0.03568">
        <ele>53.8</ele>
        <time>2011-07-02T13:24:36Z</time>
      </trkpt>
      <trkpt lat="49.32893" lon="0.03571">
        <ele>51.6</ele>
        <time>2011-07-02T13:24:41Z</time>
      </trkpt>
      <trkpt lat="49.32876" lon="0.03573">
        <ele>51.2</ele>
        <time>2011-07-02T13:24:45Z</time>
      </trkpt>
      <trkpt lat="49.32858" lon="0.03576">
        <ele>50.1</ele>
        <time>2011-07-02T13:24:49Z</time>
      </trkpt>
      <trkpt lat="49.3284" lon="0.03579">
        <ele>51.2</ele>
        <time>2011-07-02T13:24:53Z</time>
      </trkpt>
      <trkpt lat="49.32821" lon="0.03582">
        <ele>50.7</ele>
        <time>2011-07-02T13:24:57Z</time>
      </trkpt>
      <trkpt lat="49.32803" lon="0.03585">
        <ele>51</ele>
        <time>2011-07-02T13:25:01Z</time>
      </trkpt>
      <trkpt lat="49.32785" lon="0.03588">
        <ele>51.5</ele>
        <time>2011-07-02T13:25:05Z</time>
      </trkpt>
      <trkpt lat="49.32765" lon="0.0359">
        <ele>51.1</ele>
        <time>2011-07-02T13:25:09Z</time>
      </trkpt>
      <trkpt lat="49.32746" lon="0.03594">
        <ele>51.3</ele>
        <time>2011-07-02T13:25:13Z</time>
      </trkpt>
      <trkpt lat="49.32727" lon="0.03597">
        <ele>52.1</ele>
        <time>2011-07-02T13:25:17Z</time>
      </trkpt>
      <trkpt lat="49.32719" lon="0.03597">
        <ele>52.6</ele>
        <time>2011-07-02T13:25:19Z</time>
      </trkpt>
      <trkpt lat="49.32692" lon="0.036">
        <ele>53.1</ele>
        <time>2011-07-02T13:25:25Z</time>
      </trkpt>
      <trkpt lat="49.32674" lon="0.03604">
        <ele>52.8</ele>
        <time>2011-07-02T13:25:29Z</time>
      </trkpt>
      <trkpt lat="49.32656" lon="0.03608">
        <ele>52.9</ele>
        <time>2011-07-02T13:25:33Z</time>
      </trkpt>
      <trkpt lat="49.32638" lon="0.0361">
        <ele>53.2</ele>
        <time>2011-07-02T13:25:37Z</time>
      </trkpt>
      <trkpt lat="49.3262" lon="0.03613">
        <ele>52.5</ele>
        <time>2011-07-02T13:25:41Z</time>
      </trkpt>
      <trkpt lat="49.32601" lon="0.03616">
        <ele>52.6</ele>
        <time>2011-07-02T13:25:45Z</time>
      </trkpt>
      <trkpt lat="49.32583" lon="0.03619">
        <ele>53.3</ele>
        <time>2011-07-02T13:25:49Z</time>
      </trkpt>
      <trkpt lat="49.32565" lon="0.03623">
        <ele>53.9</ele>
        <time>2011-07-02T13:25:53Z</time>
      </trkpt>
      <trkpt lat="49.32547" lon="0.03625">
        <ele>54.9</ele>
        <time>2011-07-02T13:25:57Z</time>
      </trkpt>
      <trkpt lat="49.32528" lon="0.03626">
        <ele>55.7</ele>
        <time>2011-07-02T13:26:01Z</time>
      </trkpt>
      <trkpt lat="49.3251" lon="0.03628">
        <ele>55.7</ele>
        <time>2011-07-02T13:26:05Z</time>
      </trkpt>
      <trkpt lat="49.32491" lon="0.03631">
        <ele>56.2</ele>
        <time>2011-07-02T13:26:09Z</time>
      </trkpt>
      <trkpt lat="49.32472" lon="0.03634">
        <ele>56.3</ele>
        <time>2011-07-02T13:26:13Z</time>
      </trkpt>
      <trkpt lat="49.32453" lon="0.03637">
        <ele>56.9</ele>
        <time>2011-07-02T13:26:17Z</time>
      </trkpt>
      <trkpt lat="49.32435" lon="0.03641">
        <ele>56.5</ele>
        <time>2011-07-02T13:26:21Z</time>
      </trkpt>
      <trkpt lat="49.32415" lon="0.03643">
        <ele>55.9</ele>
        <time>2011-07-02T13:26:25Z</time>
      </trkpt>
      <trkpt lat="49.32396" lon="0.03647">
        <ele>55.3</ele>
        <time>2011-07-02T13:26:29Z</time>
      </trkpt>
      <trkpt lat="49.32376" lon="0.0365">
        <ele>54.9</ele>
        <time>2011-07-02T13:26:33Z</time>
      </trkpt>
      <trkpt lat="49.3235" lon="0.03655">
        <ele>55</ele>
        <time>2011-07-02T13:26:41Z</time>
      </trkpt>
      <trkpt lat="49.32288" lon="0.03676">
        <ele>55.1</ele>
        <time>2011-07-02T13:26:53Z</time>
      </trkpt>
      <trkpt lat="49.32269" lon="0.03686">
        <ele>55.1</ele>
        <time>2011-07-02T13:26:56Z</time>
      </trkpt>
      <trkpt lat="49.3225" lon="0.03688">
        <ele>54</ele>
        <time>2011-07-02T13:27:01Z</time>
      </trkpt>
      <trkpt lat="49.32207" lon="0.03678">
        <ele>53.5</ele>
        <time>2011-07-02T13:27:09Z</time>
      </trkpt>
      <trkpt lat="49.32194" lon="0.0366">
        <ele>52.9</ele>
        <time>2011-07-02T13:27:13Z</time>
      </trkpt>
      <trkpt lat="49.32068" lon="0.03612">
        <ele>60.4</ele>
        <time>2011-07-02T13:27:47Z</time>
      </trkpt>
      <trkpt lat="49.32052" lon="0.03612">
        <ele>60.7</ele>
        <time>2011-07-02T13:27:51Z</time>
      </trkpt>
      <trkpt lat="49.31989" lon="0.03612">
        <ele>62</ele>
        <time>2011-07-02T13:28:07Z</time>
      </trkpt>
      <trkpt lat="49.31971" lon="0.03618">
        <ele>61</ele>
        <time>2011-07-02T13:28:12Z</time>
      </trkpt>
      <trkpt lat="49.31921" lon="0.0363">
        <ele>63</ele>
        <time>2011-07-02T13:28:24Z</time>
      </trkpt>
      <trkpt lat="49.31856" lon="0.03644">
        <ele>63.2</ele>
        <time>2011-07-02T13:28:37Z</time>
      </trkpt>
      <trkpt lat="49.31846" lon="0.03639">
        <ele>64.5</ele>
        <time>2011-07-02T13:28:40Z</time>
      </trkpt>
      <trkpt lat="49.31816" lon="0.03636">
        <ele>68.2</ele>
        <time>2011-07-02T13:28:49Z</time>
      </trkpt>
      <trkpt lat="49.31787" lon="0.03636">
        <ele>69.7</ele>
        <time>2011-07-02T13:28:57Z</time>
      </trkpt>
      <trkpt lat="49.31779" lon="0.03633">
        <ele>69.2</ele>
        <time>2011-07-02T13:29:00Z</time>
      </trkpt>
      <trkpt lat="49.31744" lon="0.0363">
        <ele>76</ele>
        <time>2011-07-02T13:29:07Z</time>
      </trkpt>
      <trkpt lat="49.31693" lon="0.03632">
        <ele>71.5</ele>
        <time>2011-07-02T13:29:20Z</time>
      </trkpt>
      <trkpt lat="49.31671" lon="0.0363">
        <ele>71.7</ele>
        <time>2011-07-02T13:29:26Z</time>
      </trkpt>
      <trkpt lat="49.31614" lon="0.0361">
        <ele>73.7</ele>
        <time>2011-07-02T13:29:41Z</time>
      </trkpt>
      <trkpt lat="49.31574" lon="0.03605">
        <ele>74.9</ele>
        <time>2011-07-02T13:29:51Z</time>
      </trkpt>
      <trkpt lat="49.31527" lon="0.03631">
        <ele>74.9</ele>
        <time>2011-07-02T13:30:03Z</time>
      </trkpt>
      <trkpt lat="49.31453" lon="0.03634">
        <ele>77.5</ele>
        <time>2011-07-02T13:30:20Z</time>
      </trkpt>
      <trkpt lat="49.3142" lon="0.03607">
        <ele>78</ele>
        <time>2011-07-02T13:30:27Z</time>
      </trkpt>
      <trkpt lat="49.31376" lon="0.03573">
        <ele>78</ele>
        <time>2011-07-02T13:30:36Z</time>
      </trkpt>
      <trkpt lat="49.31345" lon="0.03542">
        <ele>76.9</ele>
        <time>2011-07-02T13:30:44Z</time>
      </trkpt>
      <trkpt lat="49.3126" lon="0.03477">
        <ele>82.7</ele>
        <time>2011-07-02T13:31:07Z</time>
      </trkpt>
      <trkpt lat="49.31227" lon="0.03464">
        <ele>86.3</ele>
        <time>2011-07-02T13:31:21Z</time>
      </trkpt>
      <trkpt lat="49.31186" lon="0.03448">
        <ele>89.6</ele>
        <time>2011-07-02T13:31:30Z</time>
      </trkpt>
      <trkpt lat="49.31101" lon="0.03387">
        <ele>94.3</ele>
        <time>2011-07-02T13:31:58Z</time>
      </trkpt>
      <trkpt lat="49.3108" lon="0.03363">
        <ele>93.2</ele>
        <time>2011-07-02T13:32:05Z</time>
      </trkpt>
      <trkpt lat="49.31065" lon="0.03349">
        <ele>96.6</ele>
        <time>2011-07-02T13:32:10Z</time>
      </trkpt>
      <trkpt lat="49.31008" lon="0.03326">
        <ele>93.4</ele>
        <time>2011-07-02T13:32:23Z</time>
      </trkpt>
      <trkpt lat="49.30962" lon="0.03322">
        <ele>92</ele>
        <time>2011-07-02T13:32:31Z</time>
      </trkpt>
      <trkpt lat="49.30947" lon="0.03325">
        <ele>93.1</ele>
        <time>2011-07-02T13:32:37Z</time>
      </trkpt>
      <trkpt lat="49.3093" lon="0.03375">
        <ele>90.6</ele>
        <time>2011-07-02T13:32:47Z</time>
      </trkpt>
      <trkpt lat="49.30927" lon="0.03427">
        <ele>93.3</ele>
        <time>2011-07-02T13:32:56Z</time>
      </trkpt>
      <trkpt lat="49.30881" lon="0.03578">
        <ele>95.7</ele>
        <time>2011-07-02T13:33:19Z</time>
      </trkpt>
      <trkpt lat="49.30878" lon="0.03657">
        <ele>96.4</ele>
        <time>2011-07-02T13:33:27Z</time>
      </trkpt>
      <trkpt lat="49.30859" lon="0.03737">
        <ele>99.1</ele>
        <time>2011-07-02T13:33:44Z</time>
      </trkpt>
      <trkpt lat="49.3084" lon="0.03786">
        <ele>103.6</ele>
        <time>2011-07-02T13:33:52Z</time>
      </trkpt>
      <trkpt lat="49.30827" lon="0.03823">
        <ele>107.4</ele>
        <time>2011-07-02T13:34:00Z</time>
      </trkpt>
      <trkpt lat="49.30823" lon="0.03834">
        <ele>108.1</ele>
        <time>2011-07-02T13:34:03Z</time>
      </trkpt>
      <trkpt lat="49.30817" lon="0.03854">
        <ele>108.5</ele>
        <time>2011-07-02T13:34:08Z</time>
      </trkpt>
      <trkpt lat="49.30803" lon="0.03891">
        <ele>110.7</ele>
        <time>2011-07-02T13:34:16Z</time>
      </trkpt>
      <trkpt lat="49.30794" lon="0.0391">
        <ele>112.2</ele>
        <time>2011-07-02T13:34:20Z</time>
      </trkpt>
      <trkpt lat="49.30785" lon="0.03933">
        <ele>113</ele>
        <time>2011-07-02T13:34:25Z</time>
      </trkpt>
      <trkpt lat="49.30781" lon="0.03944">
        <ele>112.6</ele>
        <time>2011-07-02T13:34:28Z</time>
      </trkpt>
      <trkpt lat="49.30621" lon="0.04313">
        <ele>109.7</ele>
        <time>2011-07-02T13:35:35Z</time>
      </trkpt>
      <trkpt lat="49.30588" lon="0.04382">
        <ele>109.7</ele>
        <time>2011-07-02T13:35:41Z</time>
      </trkpt>
      <trkpt lat="49.30562" lon="0.04436">
        <ele>107.4</ele>
        <time>2011-07-02T13:35:45Z</time>
      </trkpt>
      <trkpt lat="49.30543" lon="0.04475">
        <ele>104.2</ele>
        <time>2011-07-02T13:35:48Z</time>
      </trkpt>
      <trkpt lat="49.30502" lon="0.04582">
        <ele>100.9</ele>
        <time>2011-07-02T13:35:53Z</time>
      </trkpt>
      <trkpt lat="49.30494" lon="0.04609">
        <ele>100</ele>
        <time>2011-07-02T13:35:57Z</time>
      </trkpt>
      <trkpt lat="49.30469" lon="0.04666">
        <ele>99.6</ele>
        <time>2011-07-02T13:36:01Z</time>
      </trkpt>
      <trkpt lat="49.30447" lon="0.04713">
        <ele>99.2</ele>
        <time>2011-07-02T13:36:08Z</time>
      </trkpt>
      <trkpt lat="49.3044" lon="0.04727">
        <ele>98.8</ele>
        <time>2011-07-02T13:36:09Z</time>
      </trkpt>
      <trkpt lat="49.30329" lon="0.05009">
        <ele>99.5</ele>
        <time>2011-07-02T13:36:51Z</time>
      </trkpt>
      <trkpt lat="49.30322" lon="0.05057">
        <ele>97.9</ele>
        <time>2011-07-02T13:36:57Z</time>
      </trkpt>
      <trkpt lat="49.30259" lon="0.0557">
        <ele>92.8</ele>
        <time>2011-07-02T13:37:45Z</time>
      </trkpt>
      <trkpt lat="49.30249" lon="0.05601">
        <ele>93.6</ele>
        <time>2011-07-02T13:37:50Z</time>
      </trkpt>
      <trkpt lat="49.30234" lon="0.05629">
        <ele>94.3</ele>
        <time>2011-07-02T13:37:57Z</time>
      </trkpt>
      <trkpt lat="49.30218" lon="0.05668">
        <ele>96.3</ele>
        <time>2011-07-02T13:38:06Z</time>
      </trkpt>
      <trkpt lat="49.30193" lon="0.05731">
        <ele>99.1</ele>
        <time>2011-07-02T13:38:20Z</time>
      </trkpt>
      <trkpt lat="49.30188" lon="0.0574">
        <ele>99.5</ele>
        <time>2011-07-02T13:38:21Z</time>
      </trkpt>
      <trkpt lat="49.30143" lon="0.05827">
        <ele>108.3</ele>
        <time>2011-07-02T13:38:43Z</time>
      </trkpt>
      <trkpt lat="49.30126" lon="0.05861">
        <ele>109.8</ele>
        <time>2011-07-02T13:38:52Z</time>
      </trkpt>
      <trkpt lat="49.30102" lon="0.05895">
        <ele>110.6</ele>
        <time>2011-07-02T13:39:00Z</time>
      </trkpt>
      <trkpt lat="49.30006" lon="0.06055">
        <ele>109.5</ele>
        <time>2011-07-02T13:39:24Z</time>
      </trkpt>
      <trkpt lat="49.29776" lon="0.06607">
        <ele>107.5</ele>
        <time>2011-07-02T13:40:36Z</time>
      </trkpt>
      <trkpt lat="49.29765" lon="0.06631">
        <ele>107.3</ele>
        <time>2011-07-02T13:40:41Z</time>
      </trkpt>
      <trkpt lat="49.29743" lon="0.06675">
        <ele>108.2</ele>
        <time>2011-07-02T13:40:48Z</time>
      </trkpt>
      <trkpt lat="49.29724" lon="0.06708">
        <ele>108.9</ele>
        <time>2011-07-02T13:40:54Z</time>
      </trkpt>
      <trkpt lat="49.29707" lon="0.06743">
        <ele>109.8</ele>
        <time>2011-07-02T13:41:01Z</time>
      </trkpt>
      <trkpt lat="49.29686" lon="0.06787">
        <ele>111</ele>
        <time>2011-07-02T13:41:08Z</time>
      </trkpt>
      <trkpt lat="49.29599" lon="0.06936">
        <ele>115.9</ele>
        <time>2011-07-02T13:41:37Z</time>
      </trkpt>
      <trkpt lat="49.29574" lon="0.06978">
        <ele>116.5</ele>
        <time>2011-07-02T13:41:42Z</time>
      </trkpt>
      <trkpt lat="49.29554" lon="0.07009">
        <ele>115.5</ele>
        <time>2011-07-02T13:41:47Z</time>
      </trkpt>
      <trkpt lat="49.29538" lon="0.07034">
        <ele>116.4</ele>
        <time>2011-07-02T13:41:51Z</time>
      </trkpt>
      <trkpt lat="49.29503" lon="0.07087">
        <ele>118.4</ele>
        <time>2011-07-02T13:42:00Z</time>
      </trkpt>
      <trkpt lat="49.29498" lon="0.07094">
        <ele>118</ele>
        <time>2011-07-02T13:42:02Z</time>
      </trkpt>
      <trkpt lat="49.29477" lon="0.07127">
        <ele>118.6</ele>
        <time>2011-07-02T13:42:08Z</time>
      </trkpt>
      <trkpt lat="49.29393" lon="0.07255">
        <ele>117.8</ele>
        <time>2011-07-02T13:42:28Z</time>
      </trkpt>
      <trkpt lat="49.29293" lon="0.07409">
        <ele>114.4</ele>
        <time>2011-07-02T13:42:48Z</time>
      </trkpt>
      <trkpt lat="49.29236" lon="0.07495">
        <ele>116.7</ele>
        <time>2011-07-02T13:43:01Z</time>
      </trkpt>
      <trkpt lat="49.29198" lon="0.07557">
        <ele>113.7</ele>
        <time>2011-07-02T13:43:09Z</time>
      </trkpt>
      <trkpt lat="49.2916" lon="0.07612">
        <ele>113.3</ele>
        <time>2011-07-02T13:43:16Z</time>
      </trkpt>
      <trkpt lat="49.29108" lon="0.07696">
        <ele>112.4</ele>
        <time>2011-07-02T13:43:24Z</time>
      </trkpt>
      <trkpt lat="49.29019" lon="0.07829">
        <ele>103.4</ele>
        <time>2011-07-02T13:43:36Z</time>
      </trkpt>
      <trkpt lat="49.28777" lon="0.0811">
        <ele>90.3</ele>
        <time>2011-07-02T13:44:01Z</time>
      </trkpt>
      <trkpt lat="49.28735" lon="0.08194">
        <ele>89.6</ele>
        <time>2011-07-02T13:44:09Z</time>
      </trkpt>
      <trkpt lat="49.28717" lon="0.08269">
        <ele>91.1</ele>
        <time>2011-07-02T13:44:22Z</time>
      </trkpt>
      <trkpt lat="49.28691" lon="0.08358">
        <ele>94.6</ele>
        <time>2011-07-02T13:44:44Z</time>
      </trkpt>
      <trkpt lat="49.28685" lon="0.08367">
        <ele>95</ele>
        <time>2011-07-02T13:44:46Z</time>
      </trkpt>
      <trkpt lat="49.28669" lon="0.08393">
        <ele>96.7</ele>
        <time>2011-07-02T13:44:56Z</time>
      </trkpt>
      <trkpt lat="49.28636" lon="0.08451">
        <ele>101.4</ele>
        <time>2011-07-02T13:45:12Z</time>
      </trkpt>
      <trkpt lat="49.28613" lon="0.08484">
        <ele>101.8</ele>
        <time>2011-07-02T13:45:19Z</time>
      </trkpt>
      <trkpt lat="49.28575" lon="0.08532">
        <ele>102.9</ele>
        <time>2011-07-02T13:45:28Z</time>
      </trkpt>
      <trkpt lat="49.28553" lon="0.08563">
        <ele>104.6</ele>
        <time>2011-07-02T13:45:34Z</time>
      </trkpt>
      <trkpt lat="49.28505" lon="0.08632">
        <ele>103.1</ele>
        <time>2011-07-02T13:45:45Z</time>
      </trkpt>
      <trkpt lat="49.28428" lon="0.08734">
        <ele>101.4</ele>
        <time>2011-07-02T13:46:00Z</time>
      </trkpt>
      <trkpt lat="49.28373" lon="0.08816">
        <ele>99.7</ele>
        <time>2011-07-02T13:46:16Z</time>
      </trkpt>
      <trkpt lat="49.28354" lon="0.08849">
        <ele>99.8</ele>
        <time>2011-07-02T13:46:21Z</time>
      </trkpt>
      <trkpt lat="49.28331" lon="0.08897">
        <ele>100.5</ele>
        <time>2011-07-02T13:46:27Z</time>
      </trkpt>
      <trkpt lat="49.28303" lon="0.08959">
        <ele>103.8</ele>
        <time>2011-07-02T13:46:36Z</time>
      </trkpt>
      <trkpt lat="49.28271" lon="0.09004">
        <ele>106.8</ele>
        <time>2011-07-02T13:46:43Z</time>
      </trkpt>
      <trkpt lat="49.28242" lon="0.09019">
        <ele>110</ele>
        <time>2011-07-02T13:46:51Z</time>
      </trkpt>
      <trkpt lat="49.28203" lon="0.09035">
        <ele>111.9</ele>
        <time>2011-07-02T13:46:59Z</time>
      </trkpt>
      <trkpt lat="49.28176" lon="0.09049">
        <ele>115.4</ele>
        <time>2011-07-02T13:47:09Z</time>
      </trkpt>
      <trkpt lat="49.28166" lon="0.09064">
        <ele>116.6</ele>
        <time>2011-07-02T13:47:12Z</time>
      </trkpt>
      <trkpt lat="49.28148" lon="0.09148">
        <ele>117.8</ele>
        <time>2011-07-02T13:47:25Z</time>
      </trkpt>
      <trkpt lat="49.28123" lon="0.09271">
        <ele>122.1</ele>
        <time>2011-07-02T13:47:41Z</time>
      </trkpt>
      <trkpt lat="49.28096" lon="0.09491">
        <ele>120.2</ele>
        <time>2011-07-02T13:48:04Z</time>
      </trkpt>
      <trkpt lat="49.28084" lon="0.09574">
        <ele>119.7</ele>
        <time>2011-07-02T13:48:12Z</time>
      </trkpt>
      <trkpt lat="49.28083" lon="0.09662">
        <ele>118.7</ele>
        <time>2011-07-02T13:48:20Z</time>
      </trkpt>
      <trkpt lat="49.28079" lon="0.09735">
        <ele>118.8</ele>
        <time>2011-07-02T13:48:27Z</time>
      </trkpt>
      <trkpt lat="49.28052" lon="0.09824">
        <ele>119.5</ele>
        <time>2011-07-02T13:48:35Z</time>
      </trkpt>
      <trkpt lat="49.28001" lon="0.10037">
        <ele>116.4</ele>
        <time>2011-07-02T13:48:52Z</time>
      </trkpt>
      <trkpt lat="49.28028" lon="0.10136">
        <ele>116</ele>
        <time>2011-07-02T13:49:00Z</time>
      </trkpt>
      <trkpt lat="49.27999" lon="0.10217">
        <ele>113.7</ele>
        <time>2011-07-02T13:49:08Z</time>
      </trkpt>
      <trkpt lat="49.2794" lon="0.1025">
        <ele>111.6</ele>
        <time>2011-07-02T13:49:16Z</time>
      </trkpt>
      <trkpt lat="49.27886" lon="0.10287">
        <ele>110</ele>
        <time>2011-07-02T13:49:24Z</time>
      </trkpt>
      <trkpt lat="49.27853" lon="0.10373">
        <ele>108.1</ele>
        <time>2011-07-02T13:49:32Z</time>
      </trkpt>
      <trkpt lat="49.27772" lon="0.10588">
        <ele>107.4</ele>
        <time>2011-07-02T13:49:59Z</time>
      </trkpt>
      <trkpt lat="49.27787" lon="0.10643">
        <ele>114.3</ele>
        <time>2011-07-02T13:50:07Z</time>
      </trkpt>
      <trkpt lat="49.27811" lon="0.10695">
        <ele>119.2</ele>
        <time>2011-07-02T13:50:16Z</time>
      </trkpt>
      <trkpt lat="49.27824" lon="0.10737">
        <ele>124</ele>
        <time>2011-07-02T13:50:26Z</time>
      </trkpt>
      <trkpt lat="49.27835" lon="0.10779">
        <ele>126.4</ele>
        <time>2011-07-02T13:50:35Z</time>
      </trkpt>
      <trkpt lat="49.27838" lon="0.10799">
        <ele>127.1</ele>
        <time>2011-07-02T13:50:39Z</time>
      </trkpt>
      <trkpt lat="49.27851" lon="0.10859">
        <ele>132</ele>
        <time>2011-07-02T13:50:53Z</time>
      </trkpt>
      <trkpt lat="49.27854" lon="0.10869">
        <ele>132.1</ele>
        <time>2011-07-02T13:50:55Z</time>
      </trkpt>
      <trkpt lat="49.27859" lon="0.10898">
        <ele>132.3</ele>
        <time>2011-07-02T13:51:01Z</time>
      </trkpt>
      <trkpt lat="49.27861" lon="0.10916">
        <ele>130</ele>
        <time>2011-07-02T13:51:04Z</time>
      </trkpt>
      <trkpt lat="49.27853" lon="0.10937">
        <ele>131.1</ele>
        <time>2011-07-02T13:51:08Z</time>
      </trkpt>
      <trkpt lat="49.27848" lon="0.10961">
        <ele>132.8</ele>
        <time>2011-07-02T13:51:12Z</time>
      </trkpt>
      <trkpt lat="49.27846" lon="0.10983">
        <ele>135.4</ele>
        <time>2011-07-02T13:51:17Z</time>
      </trkpt>
      <trkpt lat="49.27831" lon="0.11016">
        <ele>139.3</ele>
        <time>2011-07-02T13:51:26Z</time>
      </trkpt>
      <trkpt lat="49.2782" lon="0.11046">
        <ele>141.3</ele>
        <time>2011-07-02T13:51:36Z</time>
      </trkpt>
      <trkpt lat="49.27819" lon="0.11059">
        <ele>141</ele>
        <time>2011-07-02T13:51:38Z</time>
      </trkpt>
      <trkpt lat="49.27815" lon="0.11082">
        <ele>142.1</ele>
        <time>2011-07-02T13:51:42Z</time>
      </trkpt>
      <trkpt lat="49.27812" lon="0.11131">
        <ele>139.2</ele>
        <time>2011-07-02T13:51:47Z</time>
      </trkpt>
      <trkpt lat="49.27832" lon="0.11186">
        <ele>137.3</ele>
        <time>2011-07-02T13:51:53Z</time>
      </trkpt>
      <trkpt lat="49.27916" lon="0.11244">
        <ele>129.8</ele>
        <time>2011-07-02T13:52:02Z</time>
      </trkpt>
      <trkpt lat="49.27936" lon="0.11358">
        <ele>125.2</ele>
        <time>2011-07-02T13:52:12Z</time>
      </trkpt>
      <trkpt lat="49.27932" lon="0.11496">
        <ele>122.5</ele>
        <time>2011-07-02T13:52:21Z</time>
      </trkpt>
      <trkpt lat="49.27921" lon="0.11678">
        <ele>115.2</ele>
        <time>2011-07-02T13:52:29Z</time>
      </trkpt>
      <trkpt lat="49.27914" lon="0.11872">
        <ele>107.5</ele>
        <time>2011-07-02T13:52:36Z</time>
      </trkpt>
      <trkpt lat="49.27872" lon="0.12072">
        <ele>95.8</ele>
        <time>2011-07-02T13:52:48Z</time>
      </trkpt>
      <trkpt lat="49.27849" lon="0.12164">
        <ele>94.7</ele>
        <time>2011-07-02T13:52:56Z</time>
      </trkpt>
      <trkpt lat="49.27834" lon="0.12218">
        <ele>95.6</ele>
        <time>2011-07-02T13:53:03Z</time>
      </trkpt>
      <trkpt lat="49.27823" lon="0.12272">
        <ele>95.9</ele>
        <time>2011-07-02T13:53:11Z</time>
      </trkpt>
      <trkpt lat="49.27803" lon="0.12387">
        <ele>99.2</ele>
        <time>2011-07-02T13:53:27Z</time>
      </trkpt>
      <trkpt lat="49.27792" lon="0.12467">
        <ele>97.7</ele>
        <time>2011-07-02T13:53:36Z</time>
      </trkpt>
      <trkpt lat="49.27795" lon="0.126">
        <ele>98.1</ele>
        <time>2011-07-02T13:53:49Z</time>
      </trkpt>
      <trkpt lat="49.278" lon="0.12672">
        <ele>98.3</ele>
        <time>2011-07-02T13:53:55Z</time>
      </trkpt>
      <trkpt lat="49.27798" lon="0.12772">
        <ele>95.2</ele>
        <time>2011-07-02T13:54:04Z</time>
      </trkpt>
      <trkpt lat="49.27792" lon="0.12832">
        <ele>94.4</ele>
        <time>2011-07-02T13:54:10Z</time>
      </trkpt>
      <trkpt lat="49.27775" lon="0.12949">
        <ele>97.3</ele>
        <time>2011-07-02T13:54:23Z</time>
      </trkpt>
      <trkpt lat="49.27795" lon="0.13006">
        <ele>98.6</ele>
        <time>2011-07-02T13:54:32Z</time>
      </trkpt>
      <trkpt lat="49.27801" lon="0.13068">
        <ele>98.6</ele>
        <time>2011-07-02T13:54:38Z</time>
      </trkpt>
      <trkpt lat="49.27813" lon="0.13141">
        <ele>101.9</ele>
        <time>2011-07-02T13:54:46Z</time>
      </trkpt>
      <trkpt lat="49.27888" lon="0.1348">
        <ele>110.4</ele>
        <time>2011-07-02T13:55:21Z</time>
      </trkpt>
      <trkpt lat="49.27907" lon="0.13559">
        <ele>110.7</ele>
        <time>2011-07-02T13:55:28Z</time>
      </trkpt>
      <trkpt lat="49.2793" lon="0.13691">
        <ele>106.6</ele>
        <time>2011-07-02T13:55:40Z</time>
      </trkpt>
      <trkpt lat="49.2795" lon="0.13768">
        <ele>103.6</ele>
        <time>2011-07-02T13:55:47Z</time>
      </trkpt>
      <trkpt lat="49.27985" lon="0.13908">
        <ele>99.5</ele>
        <time>2011-07-02T13:56:00Z</time>
      </trkpt>
      <trkpt lat="49.2802" lon="0.14084">
        <ele>96.6</ele>
        <time>2011-07-02T13:56:17Z</time>
      </trkpt>
      <trkpt lat="49.28032" lon="0.14177">
        <ele>95.6</ele>
        <time>2011-07-02T13:56:24Z</time>
      </trkpt>
      <trkpt lat="49.28038" lon="0.14249">
        <ele>92.7</ele>
        <time>2011-07-02T13:56:30Z</time>
      </trkpt>
      <trkpt lat="49.28054" lon="0.14355">
        <ele>92.5</ele>
        <time>2011-07-02T13:56:39Z</time>
      </trkpt>
      <trkpt lat="49.2807" lon="0.14415">
        <ele>92.2</ele>
        <time>2011-07-02T13:56:44Z</time>
      </trkpt>
      <trkpt lat="49.281" lon="0.14496">
        <ele>91.4</ele>
        <time>2011-07-02T13:56:52Z</time>
      </trkpt>
      <trkpt lat="49.28148" lon="0.14591">
        <ele>92.2</ele>
        <time>2011-07-02T13:57:00Z</time>
      </trkpt>
      <trkpt lat="49.28191" lon="0.14675">
        <ele>91.3</ele>
        <time>2011-07-02T13:57:08Z</time>
      </trkpt>
      <trkpt lat="49.28209" lon="0.14723">
        <ele>89.5</ele>
        <time>2011-07-02T13:57:13Z</time>
      </trkpt>
      <trkpt lat="49.28245" lon="0.14812">
        <ele>86</ele>
        <time>2011-07-02T13:57:20Z</time>
      </trkpt>
      <trkpt lat="49.28273" lon="0.14938">
        <ele>84.4</ele>
        <time>2011-07-02T13:57:28Z</time>
      </trkpt>
      <trkpt lat="49.28282" lon="0.15033">
        <ele>83.2</ele>
        <time>2011-07-02T13:57:35Z</time>
      </trkpt>
      <trkpt lat="49.28294" lon="0.15158">
        <ele>83.7</ele>
        <time>2011-07-02T13:57:45Z</time>
      </trkpt>
      <trkpt lat="49.28305" lon="0.15212">
        <ele>82.4</ele>
        <time>2011-07-02T13:57:49Z</time>
      </trkpt>
      <trkpt lat="49.28328" lon="0.15324">
        <ele>82.5</ele>
        <time>2011-07-02T13:57:56Z</time>
      </trkpt>
      <trkpt lat="49.28344" lon="0.15422">
        <ele>77.3</ele>
        <time>2011-07-02T13:58:04Z</time>
      </trkpt>
      <trkpt lat="49.28315" lon="0.1559">
        <ele>73.4</ele>
        <time>2011-07-02T13:58:12Z</time>
      </trkpt>
      <trkpt lat="49.28384" lon="0.15851">
        <ele>71.1</ele>
        <time>2011-07-02T13:58:32Z</time>
      </trkpt>
      <trkpt lat="49.28412" lon="0.15928">
        <ele>69.8</ele>
        <time>2011-07-02T13:58:39Z</time>
      </trkpt>
      <trkpt lat="49.28505" lon="0.16124">
        <ele>62.2</ele>
        <time>2011-07-02T13:58:56Z</time>
      </trkpt>
      <trkpt lat="49.28531" lon="0.16194">
        <ele>60.9</ele>
        <time>2011-07-02T13:59:02Z</time>
      </trkpt>
      <trkpt lat="49.28608" lon="0.16397">
        <ele>59.8</ele>
        <time>2011-07-02T13:59:21Z</time>
      </trkpt>
      <trkpt lat="49.28626" lon="0.16541">
        <ele>56.7</ele>
        <time>2011-07-02T13:59:33Z</time>
      </trkpt>
      <trkpt lat="49.28625" lon="0.16576">
        <ele>55.6</ele>
        <time>2011-07-02T13:59:34Z</time>
      </trkpt>
      <trkpt lat="49.28615" lon="0.16631">
        <ele>55.2</ele>
        <time>2011-07-02T13:59:41Z</time>
      </trkpt>
      <trkpt lat="49.28598" lon="0.1671">
        <ele>54.6</ele>
        <time>2011-07-02T13:59:49Z</time>
      </trkpt>
      <trkpt lat="49.28586" lon="0.16765">
        <ele>54.9</ele>
        <time>2011-07-02T13:59:53Z</time>
      </trkpt>
      <trkpt lat="49.2857" lon="0.1684">
        <ele>54.3</ele>
        <time>2011-07-02T13:59:58Z</time>
      </trkpt>
      <trkpt lat="49.28552" lon="0.16928">
        <ele>54</ele>
        <time>2011-07-02T14:00:06Z</time>
      </trkpt>
      <trkpt lat="49.2854" lon="0.16981">
        <ele>53.9</ele>
        <time>2011-07-02T14:00:13Z</time>
      </trkpt>
      <trkpt lat="49.28518" lon="0.17066">
        <ele>54.4</ele>
        <time>2011-07-02T14:00:21Z</time>
      </trkpt>
      <trkpt lat="49.28504" lon="0.17105">
        <ele>55.2</ele>
        <time>2011-07-02T14:00:25Z</time>
      </trkpt>
      <trkpt lat="49.28482" lon="0.17175">
        <ele>55.1</ele>
        <time>2011-07-02T14:00:30Z</time>
      </trkpt>
      <trkpt lat="49.28471" lon="0.17215">
        <ele>55.5</ele>
        <time>2011-07-02T14:00:34Z</time>
      </trkpt>
      <trkpt lat="49.28457" lon="0.17266">
        <ele>55.1</ele>
        <time>2011-07-02T14:00:41Z</time>
      </trkpt>
      <trkpt lat="49.28456" lon="0.1735">
        <ele>54.9</ele>
        <time>2011-07-02T14:00:49Z</time>
      </trkpt>
      <trkpt lat="49.28459" lon="0.174">
        <ele>54.7</ele>
        <time>2011-07-02T14:00:53Z</time>
      </trkpt>
      <trkpt lat="49.28462" lon="0.17433">
        <ele>55.8</ele>
        <time>2011-07-02T14:00:56Z</time>
      </trkpt>
      <trkpt lat="49.28469" lon="0.1753">
        <ele>56.4</ele>
        <time>2011-07-02T14:01:05Z</time>
      </trkpt>
      <trkpt lat="49.28467" lon="0.17571">
        <ele>56.8</ele>
        <time>2011-07-02T14:01:09Z</time>
      </trkpt>
      <trkpt lat="49.28405" lon="0.17833">
        <ele>57.7</ele>
        <time>2011-07-02T14:01:35Z</time>
      </trkpt>
      <trkpt lat="49.28382" lon="0.17891">
        <ele>58.5</ele>
        <time>2011-07-02T14:01:45Z</time>
      </trkpt>
      <trkpt lat="49.28365" lon="0.17928">
        <ele>59.1</ele>
        <time>2011-07-02T14:01:49Z</time>
      </trkpt>
      <trkpt lat="49.28359" lon="0.17941">
        <ele>58.8</ele>
        <time>2011-07-02T14:01:50Z</time>
      </trkpt>
      <trkpt lat="49.28354" lon="0.17956">
        <ele>58.9</ele>
        <time>2011-07-02T14:01:53Z</time>
      </trkpt>
      <trkpt lat="49.28331" lon="0.18015">
        <ele>58.2</ele>
        <time>2011-07-02T14:02:02Z</time>
      </trkpt>
      <trkpt lat="49.28331" lon="0.18015">
        <ele>11.1</ele>
        <time>2011-07-02T14:02:35Z</time>
      </trkpt>
      <trkpt lat="49.28331" lon="0.18015">
        <ele>11.1</ele>
        <time>2011-07-02T14:03:19Z</time>
      </trkpt>
      <trkpt lat="49.2832" lon="0.18047">
        <ele>63.1</ele>
        <time>2011-07-02T14:03:21Z</time>
      </trkpt>
      <trkpt lat="49.2836" lon="0.18093">
        <ele>69.5</ele>
        <time>2011-07-02T14:03:32Z</time>
      </trkpt>
      <trkpt lat="49.28498" lon="0.18286">
        <ele>71.6</ele>
        <time>2011-07-02T14:04:01Z</time>
      </trkpt>
      <trkpt lat="49.28514" lon="0.18326">
        <ele>73.2</ele>
        <time>2011-07-02T14:04:07Z</time>
      </trkpt>
      <trkpt lat="49.28583" lon="0.18471">
        <ele>77.9</ele>
        <time>2011-07-02T14:04:28Z</time>
      </trkpt>
      <trkpt lat="49.28602" lon="0.1852">
        <ele>77.7</ele>
        <time>2011-07-02T14:04:35Z</time>
      </trkpt>
      <trkpt lat="49.28649" lon="0.18656">
        <ele>72.5</ele>
        <time>2011-07-02T14:04:55Z</time>
      </trkpt>
      <trkpt lat="49.28678" lon="0.18701">
        <ele>70.5</ele>
        <time>2011-07-02T14:05:05Z</time>
      </trkpt>
      <trkpt lat="49.28708" lon="0.18729">
        <ele>69.7</ele>
        <time>2011-07-02T14:05:10Z</time>
      </trkpt>
      <trkpt lat="49.28723" lon="0.18748">
        <ele>69.2</ele>
        <time>2011-07-02T14:05:14Z</time>
      </trkpt>
      <trkpt lat="49.28739" lon="0.1877">
        <ele>69.3</ele>
        <time>2011-07-02T14:05:18Z</time>
      </trkpt>
      <trkpt lat="49.28756" lon="0.18794">
        <ele>68.6</ele>
        <time>2011-07-02T14:05:22Z</time>
      </trkpt>
      <trkpt lat="49.28809" lon="0.18855">
        <ele>66.7</ele>
        <time>2011-07-02T14:05:34Z</time>
      </trkpt>
      <trkpt lat="49.28822" lon="0.18871">
        <ele>66.5</ele>
        <time>2011-07-02T14:05:37Z</time>
      </trkpt>
      <trkpt lat="49.29084" lon="0.19173">
        <ele>70.3</ele>
        <time>2011-07-02T14:06:36Z</time>
      </trkpt>
      <trkpt lat="49.29106" lon="0.19199">
        <ele>69.3</ele>
        <time>2011-07-02T14:06:41Z</time>
      </trkpt>
      <trkpt lat="49.29174" lon="0.19284">
        <ele>66.4</ele>
        <time>2011-07-02T14:07:01Z</time>
      </trkpt>
      <trkpt lat="49.29194" lon="0.19303">
        <ele>67.6</ele>
        <time>2011-07-02T14:07:05Z</time>
      </trkpt>
      <trkpt lat="49.29234" lon="0.19356">
        <ele>70.1</ele>
        <time>2011-07-02T14:07:13Z</time>
      </trkpt>
      <trkpt lat="49.29257" lon="0.19379">
        <ele>67.1</ele>
        <time>2011-07-02T14:07:17Z</time>
      </trkpt>
      <trkpt lat="49.293" lon="0.19421">
        <ele>66.8</ele>
        <time>2011-07-02T14:07:25Z</time>
      </trkpt>
      <trkpt lat="49.2932" lon="0.19448">
        <ele>67.6</ele>
        <time>2011-07-02T14:07:29Z</time>
      </trkpt>
      <trkpt lat="49.29331" lon="0.19461">
        <ele>68</ele>
        <time>2011-07-02T14:07:31Z</time>
      </trkpt>
      <trkpt lat="49.29395" lon="0.19592">
        <ele>66.6</ele>
        <time>2011-07-02T14:07:48Z</time>
      </trkpt>
      <trkpt lat="49.29425" lon="0.19687">
        <ele>65.5</ele>
        <time>2011-07-02T14:07:58Z</time>
      </trkpt>
      <trkpt lat="49.29434" lon="0.19712">
        <ele>65.2</ele>
        <time>2011-07-02T14:08:02Z</time>
      </trkpt>
      <trkpt lat="49.29442" lon="0.19738">
        <ele>64.9</ele>
        <time>2011-07-02T14:08:05Z</time>
      </trkpt>
      <trkpt lat="49.29472" lon="0.1983">
        <ele>65.2</ele>
        <time>2011-07-02T14:08:14Z</time>
      </trkpt>
      <trkpt lat="49.29661" lon="0.2039">
        <ele>63</ele>
        <time>2011-07-02T14:09:17Z</time>
      </trkpt>
      <trkpt lat="49.29672" lon="0.20426">
        <ele>65.9</ele>
        <time>2011-07-02T14:09:21Z</time>
      </trkpt>
      <trkpt lat="49.2973" lon="0.2065">
        <ele>64.3</ele>
        <time>2011-07-02T14:09:45Z</time>
      </trkpt>
      <trkpt lat="49.29738" lon="0.20745">
        <ele>64.9</ele>
        <time>2011-07-02T14:09:54Z</time>
      </trkpt>
      <trkpt lat="49.29751" lon="0.20859">
        <ele>65.6</ele>
        <time>2011-07-02T14:10:05Z</time>
      </trkpt>
      <trkpt lat="49.29762" lon="0.20981">
        <ele>66.5</ele>
        <time>2011-07-02T14:10:17Z</time>
      </trkpt>
      <trkpt lat="49.29765" lon="0.21001">
        <ele>66.8</ele>
        <time>2011-07-02T14:10:19Z</time>
      </trkpt>
      <trkpt lat="49.29774" lon="0.21105">
        <ele>66.3</ele>
        <time>2011-07-02T14:10:29Z</time>
      </trkpt>
      <trkpt lat="49.29777" lon="0.21177">
        <ele>67.4</ele>
        <time>2011-07-02T14:10:37Z</time>
      </trkpt>
      <trkpt lat="49.2978" lon="0.21228">
        <ele>68.2</ele>
        <time>2011-07-02T14:10:42Z</time>
      </trkpt>
      <trkpt lat="49.29783" lon="0.21259">
        <ele>69.4</ele>
        <time>2011-07-02T14:10:45Z</time>
      </trkpt>
      <trkpt lat="49.29793" lon="0.21353">
        <ele>70</ele>
        <time>2011-07-02T14:10:54Z</time>
      </trkpt>
      <trkpt lat="49.29797" lon="0.21392">
        <ele>69.7</ele>
        <time>2011-07-02T14:10:58Z</time>
      </trkpt>
      <trkpt lat="49.29805" lon="0.21472">
        <ele>70.2</ele>
        <time>2011-07-02T14:11:06Z</time>
      </trkpt>
      <trkpt lat="49.29808" lon="0.21498">
        <ele>70.3</ele>
        <time>2011-07-02T14:11:07Z</time>
      </trkpt>
      <trkpt lat="49.29834" lon="0.21729">
        <ele>73.6</ele>
        <time>2011-07-02T14:11:35Z</time>
      </trkpt>
      <trkpt lat="49.29841" lon="0.21825">
        <ele>75.1</ele>
        <time>2011-07-02T14:11:45Z</time>
      </trkpt>
      <trkpt lat="49.29846" lon="0.21903">
        <ele>76.5</ele>
        <time>2011-07-02T14:11:53Z</time>
      </trkpt>
      <trkpt lat="49.29862" lon="0.22059">
        <ele>79.7</ele>
        <time>2011-07-02T14:12:09Z</time>
      </trkpt>
      <trkpt lat="49.29869" lon="0.22104">
        <ele>79.9</ele>
        <time>2011-07-02T14:12:13Z</time>
      </trkpt>
      <trkpt lat="49.29892" lon="0.22287">
        <ele>80.9</ele>
        <time>2011-07-02T14:12:29Z</time>
      </trkpt>
      <trkpt lat="49.29909" lon="0.22377">
        <ele>82.1</ele>
        <time>2011-07-02T14:12:37Z</time>
      </trkpt>
      <trkpt lat="49.29935" lon="0.22556">
        <ele>79.6</ele>
        <time>2011-07-02T14:12:53Z</time>
      </trkpt>
      <trkpt lat="49.29949" lon="0.22647">
        <ele>78.4</ele>
        <time>2011-07-02T14:13:01Z</time>
      </trkpt>
      <trkpt lat="49.29964" lon="0.22744">
        <ele>78.1</ele>
        <time>2011-07-02T14:13:09Z</time>
      </trkpt>
      <trkpt lat="49.29978" lon="0.22823">
        <ele>78.3</ele>
        <time>2011-07-02T14:13:17Z</time>
      </trkpt>
      <trkpt lat="49.29996" lon="0.22935">
        <ele>79.4</ele>
        <time>2011-07-02T14:13:25Z</time>
      </trkpt>
      <trkpt lat="49.30014" lon="0.23034">
        <ele>76.1</ele>
        <time>2011-07-02T14:13:33Z</time>
      </trkpt>
      <trkpt lat="49.30025" lon="0.23108">
        <ele>75.9</ele>
        <time>2011-07-02T14:13:41Z</time>
      </trkpt>
      <trkpt lat="49.3004" lon="0.23199">
        <ele>74.4</ele>
        <time>2011-07-02T14:13:49Z</time>
      </trkpt>
      <trkpt lat="49.30049" lon="0.23243">
        <ele>75.1</ele>
        <time>2011-07-02T14:13:53Z</time>
      </trkpt>
      <trkpt lat="49.3011" lon="0.23639">
        <ele>76.6</ele>
        <time>2011-07-02T14:14:28Z</time>
      </trkpt>
      <trkpt lat="49.3013" lon="0.23748">
        <ele>75.6</ele>
        <time>2011-07-02T14:14:36Z</time>
      </trkpt>
      <trkpt lat="49.30147" lon="0.23868">
        <ele>73</ele>
        <time>2011-07-02T14:14:45Z</time>
      </trkpt>
      <trkpt lat="49.30161" lon="0.23969">
        <ele>72.8</ele>
        <time>2011-07-02T14:14:53Z</time>
      </trkpt>
      <trkpt lat="49.30169" lon="0.24025">
        <ele>72.9</ele>
        <time>2011-07-02T14:14:57Z</time>
      </trkpt>
      <trkpt lat="49.30181" lon="0.24097">
        <ele>72</ele>
        <time>2011-07-02T14:15:01Z</time>
      </trkpt>
      <trkpt lat="49.30209" lon="0.24263">
        <ele>72.8</ele>
        <time>2011-07-02T14:15:13Z</time>
      </trkpt>
      <trkpt lat="49.30227" lon="0.24375">
        <ele>72.2</ele>
        <time>2011-07-02T14:15:21Z</time>
      </trkpt>
      <trkpt lat="49.30274" lon="0.24666">
        <ele>74.1</ele>
        <time>2011-07-02T14:15:45Z</time>
      </trkpt>
      <trkpt lat="49.3028" lon="0.24709">
        <ele>74.7</ele>
        <time>2011-07-02T14:15:49Z</time>
      </trkpt>
      <trkpt lat="49.30294" lon="0.24797">
        <ele>73.6</ele>
        <time>2011-07-02T14:15:57Z</time>
      </trkpt>
      <trkpt lat="49.30328" lon="0.24978">
        <ele>75.5</ele>
        <time>2011-07-02T14:16:13Z</time>
      </trkpt>
      <trkpt lat="49.30333" lon="0.25012">
        <ele>76</ele>
        <time>2011-07-02T14:16:16Z</time>
      </trkpt>
      <trkpt lat="49.30364" lon="0.25156">
        <ele>76.7</ele>
        <time>2011-07-02T14:16:29Z</time>
      </trkpt>
      <trkpt lat="49.30374" lon="0.25227">
        <ele>78.3</ele>
        <time>2011-07-02T14:16:36Z</time>
      </trkpt>
      <trkpt lat="49.30395" lon="0.25315">
        <ele>78.7</ele>
        <time>2011-07-02T14:16:45Z</time>
      </trkpt>
      <trkpt lat="49.30413" lon="0.25397">
        <ele>79.5</ele>
        <time>2011-07-02T14:16:54Z</time>
      </trkpt>
      <trkpt lat="49.30435" lon="0.25522">
        <ele>80.4</ele>
        <time>2011-07-02T14:17:06Z</time>
      </trkpt>
      <trkpt lat="49.30417" lon="0.25578">
        <ele>79.7</ele>
        <time>2011-07-02T14:17:13Z</time>
      </trkpt>
      <trkpt lat="49.30382" lon="0.2561">
        <ele>78.7</ele>
        <time>2011-07-02T14:17:20Z</time>
      </trkpt>
      <trkpt lat="49.3034" lon="0.25664">
        <ele>76.7</ele>
        <time>2011-07-02T14:17:29Z</time>
      </trkpt>
      <trkpt lat="49.30324" lon="0.25697">
        <ele>76.5</ele>
        <time>2011-07-02T14:17:33Z</time>
      </trkpt>
      <trkpt lat="49.30282" lon="0.25846">
        <ele>76.6</ele>
        <time>2011-07-02T14:17:49Z</time>
      </trkpt>
      <trkpt lat="49.30265" lon="0.2593">
        <ele>78.1</ele>
        <time>2011-07-02T14:17:57Z</time>
      </trkpt>
      <trkpt lat="49.30258" lon="0.25962">
        <ele>78.4</ele>
        <time>2011-07-02T14:18:00Z</time>
      </trkpt>
      <trkpt lat="49.30234" lon="0.26049">
        <ele>79.1</ele>
        <time>2011-07-02T14:18:08Z</time>
      </trkpt>
      <trkpt lat="49.30223" lon="0.26102">
        <ele>78.4</ele>
        <time>2011-07-02T14:18:13Z</time>
      </trkpt>
      <trkpt lat="49.30198" lon="0.26209">
        <ele>80</ele>
        <time>2011-07-02T14:18:22Z</time>
      </trkpt>
      <trkpt lat="49.30174" lon="0.26348">
        <ele>77.1</ele>
        <time>2011-07-02T14:18:33Z</time>
      </trkpt>
      <trkpt lat="49.30169" lon="0.26383">
        <ele>77.3</ele>
        <time>2011-07-02T14:18:36Z</time>
      </trkpt>
      <trkpt lat="49.30115" lon="0.26617">
        <ele>74.7</ele>
        <time>2011-07-02T14:18:57Z</time>
      </trkpt>
      <trkpt lat="49.30105" lon="0.26662">
        <ele>75.2</ele>
        <time>2011-07-02T14:19:01Z</time>
      </trkpt>
      <trkpt lat="49.30098" lon="0.26708">
        <ele>75.8</ele>
        <time>2011-07-02T14:19:05Z</time>
      </trkpt>
      <trkpt lat="49.30084" lon="0.26755">
        <ele>75.3</ele>
        <time>2011-07-02T14:19:09Z</time>
      </trkpt>
      <trkpt lat="49.30069" lon="0.268">
        <ele>75</ele>
        <time>2011-07-02T14:19:13Z</time>
      </trkpt>
      <trkpt lat="49.30057" lon="0.26846">
        <ele>73.5</ele>
        <time>2011-07-02T14:19:16Z</time>
      </trkpt>
      <trkpt lat="49.30047" lon="0.26889">
        <ele>73.7</ele>
        <time>2011-07-02T14:19:21Z</time>
      </trkpt>
      <trkpt lat="49.30041" lon="0.26923">
        <ele>73.6</ele>
        <time>2011-07-02T14:19:24Z</time>
      </trkpt>
      <trkpt lat="49.30037" lon="0.26944">
        <ele>73.4</ele>
        <time>2011-07-02T14:19:26Z</time>
      </trkpt>
      <trkpt lat="49.30022" lon="0.27026">
        <ele>73.3</ele>
        <time>2011-07-02T14:19:33Z</time>
      </trkpt>
      <trkpt lat="49.30008" lon="0.27068">
        <ele>72.8</ele>
        <time>2011-07-02T14:19:37Z</time>
      </trkpt>
      <trkpt lat="49.3" lon="0.27111">
        <ele>73</ele>
        <time>2011-07-02T14:19:41Z</time>
      </trkpt>
      <trkpt lat="49.29996" lon="0.27133">
        <ele>73.1</ele>
        <time>2011-07-02T14:19:43Z</time>
      </trkpt>
      <trkpt lat="49.29992" lon="0.27192">
        <ele>73</ele>
        <time>2011-07-02T14:19:49Z</time>
      </trkpt>
      <trkpt lat="49.29971" lon="0.27261">
        <ele>71.8</ele>
        <time>2011-07-02T14:19:56Z</time>
      </trkpt>
      <trkpt lat="49.29939" lon="0.2737">
        <ele>72.7</ele>
        <time>2011-07-02T14:20:09Z</time>
      </trkpt>
      <trkpt lat="49.29925" lon="0.27431">
        <ele>74.3</ele>
        <time>2011-07-02T14:20:16Z</time>
      </trkpt>
      <trkpt lat="49.29908" lon="0.27512">
        <ele>75.3</ele>
        <time>2011-07-02T14:20:28Z</time>
      </trkpt>
      <trkpt lat="49.29898" lon="0.27559">
        <ele>76.6</ele>
        <time>2011-07-02T14:20:36Z</time>
      </trkpt>
      <trkpt lat="49.29894" lon="0.27589">
        <ele>76.5</ele>
        <time>2011-07-02T14:20:40Z</time>
      </trkpt>
      <trkpt lat="49.29888" lon="0.27619">
        <ele>76.3</ele>
        <time>2011-07-02T14:20:44Z</time>
      </trkpt>
      <trkpt lat="49.29873" lon="0.27685">
        <ele>76.1</ele>
        <time>2011-07-02T14:20:53Z</time>
      </trkpt>
      <trkpt lat="49.29857" lon="0.27742">
        <ele>77.5</ele>
        <time>2011-07-02T14:21:00Z</time>
      </trkpt>
      <trkpt lat="49.29846" lon="0.27782">
        <ele>77.6</ele>
        <time>2011-07-02T14:21:05Z</time>
      </trkpt>
      <trkpt lat="49.29837" lon="0.27812">
        <ele>78.1</ele>
        <time>2011-07-02T14:21:09Z</time>
      </trkpt>
      <trkpt lat="49.29815" lon="0.27921">
        <ele>79.4</ele>
        <time>2011-07-02T14:21:21Z</time>
      </trkpt>
      <trkpt lat="49.29805" lon="0.27963">
        <ele>80.5</ele>
        <time>2011-07-02T14:21:26Z</time>
      </trkpt>
      <trkpt lat="49.29795" lon="0.28004">
        <ele>83.6</ele>
        <time>2011-07-02T14:21:31Z</time>
      </trkpt>
      <trkpt lat="49.29779" lon="0.28074">
        <ele>83.2</ele>
        <time>2011-07-02T14:21:40Z</time>
      </trkpt>
      <trkpt lat="49.29758" lon="0.28171">
        <ele>82.7</ele>
        <time>2011-07-02T14:21:52Z</time>
      </trkpt>
      <trkpt lat="49.29742" lon="0.2825">
        <ele>83.2</ele>
        <time>2011-07-02T14:22:02Z</time>
      </trkpt>
      <trkpt lat="49.29721" lon="0.28346">
        <ele>84.6</ele>
        <time>2011-07-02T14:22:12Z</time>
      </trkpt>
      <trkpt lat="49.29701" lon="0.28414">
        <ele>82.8</ele>
        <time>2011-07-02T14:22:19Z</time>
      </trkpt>
      <trkpt lat="49.29657" lon="0.28525">
        <ele>82.2</ele>
        <time>2011-07-02T14:22:32Z</time>
      </trkpt>
      <trkpt lat="49.29635" lon="0.28563">
        <ele>81.8</ele>
        <time>2011-07-02T14:22:37Z</time>
      </trkpt>
      <trkpt lat="49.29587" lon="0.28641">
        <ele>82.9</ele>
        <time>2011-07-02T14:22:48Z</time>
      </trkpt>
      <trkpt lat="49.29544" lon="0.28706">
        <ele>82.1</ele>
        <time>2011-07-02T14:22:58Z</time>
      </trkpt>
      <trkpt lat="49.29495" lon="0.28781">
        <ele>81.9</ele>
        <time>2011-07-02T14:23:08Z</time>
      </trkpt>
      <trkpt lat="49.2945" lon="0.28845">
        <ele>81</ele>
        <time>2011-07-02T14:23:17Z</time>
      </trkpt>
      <trkpt lat="49.29379" lon="0.28958">
        <ele>81.3</ele>
        <time>2011-07-02T14:23:33Z</time>
      </trkpt>
      <trkpt lat="49.29332" lon="0.29003">
        <ele>83.6</ele>
        <time>2011-07-02T14:23:42Z</time>
      </trkpt>
      <trkpt lat="49.29288" lon="0.29035">
        <ele>83</ele>
        <time>2011-07-02T14:23:49Z</time>
      </trkpt>
      <trkpt lat="49.29208" lon="0.29076">
        <ele>84.2</ele>
        <time>2011-07-02T14:24:01Z</time>
      </trkpt>
      <trkpt lat="49.29163" lon="0.29103">
        <ele>84.6</ele>
        <time>2011-07-02T14:24:07Z</time>
      </trkpt>
      <trkpt lat="49.29124" lon="0.29129">
        <ele>87.8</ele>
        <time>2011-07-02T14:24:14Z</time>
      </trkpt>
      <trkpt lat="49.29076" lon="0.29169">
        <ele>87.7</ele>
        <time>2011-07-02T14:24:21Z</time>
      </trkpt>
      <trkpt lat="49.29036" lon="0.2921">
        <ele>87</ele>
        <time>2011-07-02T14:24:29Z</time>
      </trkpt>
      <trkpt lat="49.28965" lon="0.29281">
        <ele>86</ele>
        <time>2011-07-02T14:24:42Z</time>
      </trkpt>
      <trkpt lat="49.28927" lon="0.29324">
        <ele>85.8</ele>
        <time>2011-07-02T14:24:48Z</time>
      </trkpt>
      <trkpt lat="49.28859" lon="0.29412">
        <ele>84.8</ele>
        <time>2011-07-02T14:25:01Z</time>
      </trkpt>
      <trkpt lat="49.28829" lon="0.2945">
        <ele>85.3</ele>
        <time>2011-07-02T14:25:07Z</time>
      </trkpt>
      <trkpt lat="49.28791" lon="0.29517">
        <ele>86.4</ele>
        <time>2011-07-02T14:25:17Z</time>
      </trkpt>
      <trkpt lat="49.28772" lon="0.2956">
        <ele>86.9</ele>
        <time>2011-07-02T14:25:24Z</time>
      </trkpt>
      <trkpt lat="49.28702" lon="0.29701">
        <ele>86.6</ele>
        <time>2011-07-02T14:25:42Z</time>
      </trkpt>
      <trkpt lat="49.28667" lon="0.29757">
        <ele>86.1</ele>
        <time>2011-07-02T14:25:49Z</time>
      </trkpt>
      <trkpt lat="49.28602" lon="0.29893">
        <ele>87.4</ele>
        <time>2011-07-02T14:26:05Z</time>
      </trkpt>
      <trkpt lat="49.28581" lon="0.29932">
        <ele>86.4</ele>
        <time>2011-07-02T14:26:10Z</time>
      </trkpt>
      <trkpt lat="49.28539" lon="0.30021">
        <ele>86.1</ele>
        <time>2011-07-02T14:26:21Z</time>
      </trkpt>
      <trkpt lat="49.28527" lon="0.30056">
        <ele>85.5</ele>
        <time>2011-07-02T14:26:25Z</time>
      </trkpt>
      <trkpt lat="49.28507" lon="0.30088">
        <ele>86.1</ele>
        <time>2011-07-02T14:26:29Z</time>
      </trkpt>
      <trkpt lat="49.2849" lon="0.30124">
        <ele>85.8</ele>
        <time>2011-07-02T14:26:33Z</time>
      </trkpt>
      <trkpt lat="49.28476" lon="0.30149">
        <ele>85.8</ele>
        <time>2011-07-02T14:26:36Z</time>
      </trkpt>
      <trkpt lat="49.28466" lon="0.30176">
        <ele>85.5</ele>
        <time>2011-07-02T14:26:39Z</time>
      </trkpt>
      <trkpt lat="49.28442" lon="0.3023">
        <ele>85.6</ele>
        <time>2011-07-02T14:26:45Z</time>
      </trkpt>
      <trkpt lat="49.28398" lon="0.30324">
        <ele>84.8</ele>
        <time>2011-07-02T14:26:56Z</time>
      </trkpt>
      <trkpt lat="49.28365" lon="0.30403">
        <ele>85</ele>
        <time>2011-07-02T14:27:05Z</time>
      </trkpt>
      <trkpt lat="49.28346" lon="0.30439">
        <ele>85</ele>
        <time>2011-07-02T14:27:09Z</time>
      </trkpt>
      <trkpt lat="49.28318" lon="0.30512">
        <ele>84.6</ele>
        <time>2011-07-02T14:27:17Z</time>
      </trkpt>
      <trkpt lat="49.28298" lon="0.30555">
        <ele>83.3</ele>
        <time>2011-07-02T14:27:22Z</time>
      </trkpt>
      <trkpt lat="49.2828" lon="0.30615">
        <ele>83.5</ele>
        <time>2011-07-02T14:27:28Z</time>
      </trkpt>
      <trkpt lat="49.28264" lon="0.30666">
        <ele>81.6</ele>
        <time>2011-07-02T14:27:33Z</time>
      </trkpt>
      <trkpt lat="49.2824" lon="0.30729">
        <ele>82</ele>
        <time>2011-07-02T14:27:40Z</time>
      </trkpt>
      <trkpt lat="49.28225" lon="0.30766">
        <ele>81.4</ele>
        <time>2011-07-02T14:27:44Z</time>
      </trkpt>
      <trkpt lat="49.28197" lon="0.30837">
        <ele>82.3</ele>
        <time>2011-07-02T14:27:52Z</time>
      </trkpt>
      <trkpt lat="49.28178" lon="0.3088">
        <ele>84.8</ele>
        <time>2011-07-02T14:27:57Z</time>
      </trkpt>
      <trkpt lat="49.28161" lon="0.30913">
        <ele>85.4</ele>
        <time>2011-07-02T14:28:01Z</time>
      </trkpt>
      <trkpt lat="49.28147" lon="0.30937">
        <ele>85</ele>
        <time>2011-07-02T14:28:04Z</time>
      </trkpt>
      <trkpt lat="49.28128" lon="0.30969">
        <ele>84.2</ele>
        <time>2011-07-02T14:28:08Z</time>
      </trkpt>
      <trkpt lat="49.28087" lon="0.31045">
        <ele>84.5</ele>
        <time>2011-07-02T14:28:17Z</time>
      </trkpt>
      <trkpt lat="49.28087" lon="0.31045">
        <ele>43.8</ele>
        <time>2011-07-02T14:28:29Z</time>
      </trkpt>
      <trkpt lat="49.28087" lon="0.31045">
        <ele>43.8</ele>
        <time>2011-07-02T14:28:56Z</time>
      </trkpt>
      <trkpt lat="49.27936" lon="0.31423">
        <ele>91.8</ele>
        <time>2011-07-02T14:28:57Z</time>
      </trkpt>
      <trkpt lat="49.27916" lon="0.31497">
        <ele>90.4</ele>
        <time>2011-07-02T14:29:05Z</time>
      </trkpt>
      <trkpt lat="49.27888" lon="0.31615">
        <ele>90</ele>
        <time>2011-07-02T14:29:18Z</time>
      </trkpt>
      <trkpt lat="49.27851" lon="0.31721">
        <ele>90.4</ele>
        <time>2011-07-02T14:29:28Z</time>
      </trkpt>
      <trkpt lat="49.27829" lon="0.31813">
        <ele>90.2</ele>
        <time>2011-07-02T14:29:37Z</time>
      </trkpt>
      <trkpt lat="49.27771" lon="0.32072">
        <ele>90.8</ele>
        <time>2011-07-02T14:30:05Z</time>
      </trkpt>
      <trkpt lat="49.27716" lon="0.32297">
        <ele>91.4</ele>
        <time>2011-07-02T14:30:25Z</time>
      </trkpt>
      <trkpt lat="49.27661" lon="0.3257">
        <ele>90.2</ele>
        <time>2011-07-02T14:30:51Z</time>
      </trkpt>
      <trkpt lat="49.27638" lon="0.32676">
        <ele>90.3</ele>
        <time>2011-07-02T14:31:01Z</time>
      </trkpt>
      <trkpt lat="49.27626" lon="0.32725">
        <ele>89.9</ele>
        <time>2011-07-02T14:31:06Z</time>
      </trkpt>
      <trkpt lat="49.2761" lon="0.32796">
        <ele>89.8</ele>
        <time>2011-07-02T14:31:13Z</time>
      </trkpt>
      <trkpt lat="49.27588" lon="0.32927">
        <ele>89.6</ele>
        <time>2011-07-02T14:31:25Z</time>
      </trkpt>
      <trkpt lat="49.27571" lon="0.32999">
        <ele>87.2</ele>
        <time>2011-07-02T14:31:33Z</time>
      </trkpt>
      <trkpt lat="49.27558" lon="0.3305">
        <ele>87.7</ele>
        <time>2011-07-02T14:31:37Z</time>
      </trkpt>
      <trkpt lat="49.27521" lon="0.33233">
        <ele>88.1</ele>
        <time>2011-07-02T14:31:55Z</time>
      </trkpt>
      <trkpt lat="49.27428" lon="0.3369">
        <ele>93.2</ele>
        <time>2011-07-02T14:32:41Z</time>
      </trkpt>
      <trkpt lat="49.27417" lon="0.33736">
        <ele>93.5</ele>
        <time>2011-07-02T14:32:46Z</time>
      </trkpt>
      <trkpt lat="49.27408" lon="0.33798">
        <ele>93.2</ele>
        <time>2011-07-02T14:32:53Z</time>
      </trkpt>
      <trkpt lat="49.27395" lon="0.33864">
        <ele>95.4</ele>
        <time>2011-07-02T14:33:00Z</time>
      </trkpt>
      <trkpt lat="49.2736" lon="0.34044">
        <ele>92.9</ele>
        <time>2011-07-02T14:33:20Z</time>
      </trkpt>
      <trkpt lat="49.27346" lon="0.34123">
        <ele>93.5</ele>
        <time>2011-07-02T14:33:29Z</time>
      </trkpt>
      <trkpt lat="49.27332" lon="0.3421">
        <ele>92.7</ele>
        <time>2011-07-02T14:33:38Z</time>
      </trkpt>
      <trkpt lat="49.27315" lon="0.3429">
        <ele>91.9</ele>
        <time>2011-07-02T14:33:46Z</time>
      </trkpt>
      <trkpt lat="49.27249" lon="0.34637">
        <ele>94.4</ele>
        <time>2011-07-02T14:34:24Z</time>
      </trkpt>
      <trkpt lat="49.27234" lon="0.34706">
        <ele>96</ele>
        <time>2011-07-02T14:34:32Z</time>
      </trkpt>
      <trkpt lat="49.27228" lon="0.34741">
        <ele>95.9</ele>
        <time>2011-07-02T14:34:36Z</time>
      </trkpt>
      <trkpt lat="49.2718" lon="0.3496">
        <ele>95.5</ele>
        <time>2011-07-02T14:35:01Z</time>
      </trkpt>
      <trkpt lat="49.27152" lon="0.3506">
        <ele>94.9</ele>
        <time>2011-07-02T14:35:12Z</time>
      </trkpt>
      <trkpt lat="49.27143" lon="0.35094">
        <ele>95.3</ele>
        <time>2011-07-02T14:35:16Z</time>
      </trkpt>
      <trkpt lat="49.27126" lon="0.35173">
        <ele>95.4</ele>
        <time>2011-07-02T14:35:26Z</time>
      </trkpt>
      <trkpt lat="49.27118" lon="0.35217">
        <ele>96</ele>
        <time>2011-07-02T14:35:32Z</time>
      </trkpt>
      <trkpt lat="49.271" lon="0.35274">
        <ele>97.8</ele>
        <time>2011-07-02T14:35:40Z</time>
      </trkpt>
      <trkpt lat="49.27085" lon="0.35333">
        <ele>99.4</ele>
        <time>2011-07-02T14:35:49Z</time>
      </trkpt>
      <trkpt lat="49.27075" lon="0.35372">
        <ele>100.2</ele>
        <time>2011-07-02T14:35:53Z</time>
      </trkpt>
      <trkpt lat="49.27042" lon="0.35486">
        <ele>103.7</ele>
        <time>2011-07-02T14:36:09Z</time>
      </trkpt>
      <trkpt lat="49.27023" lon="0.35535">
        <ele>106.8</ele>
        <time>2011-07-02T14:36:16Z</time>
      </trkpt>
      <trkpt lat="49.27011" lon="0.35563">
        <ele>107.2</ele>
        <time>2011-07-02T14:36:20Z</time>
      </trkpt>
      <trkpt lat="49.26995" lon="0.35598">
        <ele>109</ele>
        <time>2011-07-02T14:36:25Z</time>
      </trkpt>
      <trkpt lat="49.26968" lon="0.35652">
        <ele>108.3</ele>
        <time>2011-07-02T14:36:33Z</time>
      </trkpt>
      <trkpt lat="49.26959" lon="0.35664">
        <ele>108.5</ele>
        <time>2011-07-02T14:36:35Z</time>
      </trkpt>
      <trkpt lat="49.26899" lon="0.35756">
        <ele>106.6</ele>
        <time>2011-07-02T14:36:49Z</time>
      </trkpt>
      <trkpt lat="49.26876" lon="0.35785">
        <ele>107.4</ele>
        <time>2011-07-02T14:36:54Z</time>
      </trkpt>
      <trkpt lat="49.26834" lon="0.35846">
        <ele>109.6</ele>
        <time>2011-07-02T14:37:02Z</time>
      </trkpt>
      <trkpt lat="49.26799" lon="0.35897">
        <ele>108.8</ele>
        <time>2011-07-02T14:37:09Z</time>
      </trkpt>
      <trkpt lat="49.26729" lon="0.35995">
        <ele>108.3</ele>
        <time>2011-07-02T14:37:21Z</time>
      </trkpt>
      <trkpt lat="49.26685" lon="0.36056">
        <ele>108.5</ele>
        <time>2011-07-02T14:37:29Z</time>
      </trkpt>
      <trkpt lat="49.2663" lon="0.36141">
        <ele>109.4</ele>
        <time>2011-07-02T14:37:41Z</time>
      </trkpt>
      <trkpt lat="49.2656" lon="0.36249">
        <ele>107.5</ele>
        <time>2011-07-02T14:37:53Z</time>
      </trkpt>
      <trkpt lat="49.26511" lon="0.36321">
        <ele>107.2</ele>
        <time>2011-07-02T14:38:01Z</time>
      </trkpt>
      <trkpt lat="49.26466" lon="0.36384">
        <ele>106.6</ele>
        <time>2011-07-02T14:38:09Z</time>
      </trkpt>
      <trkpt lat="49.26404" lon="0.36463">
        <ele>106.1</ele>
        <time>2011-07-02T14:38:21Z</time>
      </trkpt>
      <trkpt lat="49.26313" lon="0.36575">
        <ele>104.5</ele>
        <time>2011-07-02T14:38:37Z</time>
      </trkpt>
      <trkpt lat="49.26281" lon="0.36616">
        <ele>104.7</ele>
        <time>2011-07-02T14:38:44Z</time>
      </trkpt>
      <trkpt lat="49.26229" lon="0.36678">
        <ele>105.3</ele>
        <time>2011-07-02T14:38:53Z</time>
      </trkpt>
      <trkpt lat="49.26184" lon="0.36731">
        <ele>103.9</ele>
        <time>2011-07-02T14:39:01Z</time>
      </trkpt>
      <trkpt lat="49.26055" lon="0.36888">
        <ele>102.5</ele>
        <time>2011-07-02T14:39:25Z</time>
      </trkpt>
      <trkpt lat="49.25999" lon="0.36954">
        <ele>102.8</ele>
        <time>2011-07-02T14:39:34Z</time>
      </trkpt>
      <trkpt lat="49.25923" lon="0.37052">
        <ele>103.7</ele>
        <time>2011-07-02T14:39:49Z</time>
      </trkpt>
      <trkpt lat="49.25905" lon="0.37072">
        <ele>103.3</ele>
        <time>2011-07-02T14:39:53Z</time>
      </trkpt>
      <trkpt lat="49.25856" lon="0.3713">
        <ele>103.2</ele>
        <time>2011-07-02T14:40:01Z</time>
      </trkpt>
      <trkpt lat="49.25797" lon="0.37198">
        <ele>104.6</ele>
        <time>2011-07-02T14:40:11Z</time>
      </trkpt>
      <trkpt lat="49.25696" lon="0.37317">
        <ele>104.5</ele>
        <time>2011-07-02T14:40:30Z</time>
      </trkpt>
      <trkpt lat="49.25677" lon="0.37342">
        <ele>104.9</ele>
        <time>2011-07-02T14:40:33Z</time>
      </trkpt>
      <trkpt lat="49.25656" lon="0.37365">
        <ele>105.8</ele>
        <time>2011-07-02T14:40:37Z</time>
      </trkpt>
      <trkpt lat="49.25642" lon="0.37385">
        <ele>106.7</ele>
        <time>2011-07-02T14:40:41Z</time>
      </trkpt>
      <trkpt lat="49.25626" lon="0.37402">
        <ele>108.3</ele>
        <time>2011-07-02T14:40:42Z</time>
      </trkpt>
      <trkpt lat="49.25584" lon="0.37455">
        <ele>108.3</ele>
        <time>2011-07-02T14:40:52Z</time>
      </trkpt>
      <trkpt lat="49.25531" lon="0.3752">
        <ele>109.7</ele>
        <time>2011-07-02T14:41:04Z</time>
      </trkpt>
      <trkpt lat="49.25513" lon="0.37543">
        <ele>110.7</ele>
        <time>2011-07-02T14:41:09Z</time>
      </trkpt>
      <trkpt lat="49.25469" lon="0.37589">
        <ele>110.5</ele>
        <time>2011-07-02T14:41:17Z</time>
      </trkpt>
      <trkpt lat="49.25397" lon="0.37621">
        <ele>111.3</ele>
        <time>2011-07-02T14:41:29Z</time>
      </trkpt>
      <trkpt lat="49.25378" lon="0.37623">
        <ele>110.4</ele>
        <time>2011-07-02T14:41:32Z</time>
      </trkpt>
      <trkpt lat="49.253" lon="0.3763">
        <ele>110.7</ele>
        <time>2011-07-02T14:41:44Z</time>
      </trkpt>
      <trkpt lat="49.25243" lon="0.37632">
        <ele>110.3</ele>
        <time>2011-07-02T14:41:53Z</time>
      </trkpt>
      <trkpt lat="49.25191" lon="0.37638">
        <ele>109.9</ele>
        <time>2011-07-02T14:42:01Z</time>
      </trkpt>
      <trkpt lat="49.25138" lon="0.37641">
        <ele>110.3</ele>
        <time>2011-07-02T14:42:09Z</time>
      </trkpt>
      <trkpt lat="49.25005" lon="0.37636">
        <ele>110.8</ele>
        <time>2011-07-02T14:42:29Z</time>
      </trkpt>
      <trkpt lat="49.24883" lon="0.37648">
        <ele>110.7</ele>
        <time>2011-07-02T14:42:46Z</time>
      </trkpt>
      <trkpt lat="49.24855" lon="0.37658">
        <ele>111.9</ele>
        <time>2011-07-02T14:42:53Z</time>
      </trkpt>
      <trkpt lat="49.24816" lon="0.37684">
        <ele>111.4</ele>
        <time>2011-07-02T14:43:01Z</time>
      </trkpt>
      <trkpt lat="49.24798" lon="0.37693">
        <ele>110.7</ele>
        <time>2011-07-02T14:43:05Z</time>
      </trkpt>
      <trkpt lat="49.24781" lon="0.37717">
        <ele>112.1</ele>
        <time>2011-07-02T14:43:10Z</time>
      </trkpt>
      <trkpt lat="49.24743" lon="0.37799">
        <ele>114.8</ele>
        <time>2011-07-02T14:43:21Z</time>
      </trkpt>
      <trkpt lat="49.2471" lon="0.37864">
        <ele>115.5</ele>
        <time>2011-07-02T14:43:30Z</time>
      </trkpt>
      <trkpt lat="49.24669" lon="0.37951">
        <ele>113.9</ele>
        <time>2011-07-02T14:43:41Z</time>
      </trkpt>
      <trkpt lat="49.24624" lon="0.38031">
        <ele>113.9</ele>
        <time>2011-07-02T14:43:52Z</time>
      </trkpt>
      <trkpt lat="49.24593" lon="0.38095">
        <ele>112.4</ele>
        <time>2011-07-02T14:44:00Z</time>
      </trkpt>
      <trkpt lat="49.24486" lon="0.38224">
        <ele>112.5</ele>
        <time>2011-07-02T14:44:21Z</time>
      </trkpt>
      <trkpt lat="49.24447" lon="0.38269">
        <ele>111.5</ele>
        <time>2011-07-02T14:44:29Z</time>
      </trkpt>
      <trkpt lat="49.24419" lon="0.38302">
        <ele>110.4</ele>
        <time>2011-07-02T14:44:35Z</time>
      </trkpt>
      <trkpt lat="49.24345" lon="0.38394">
        <ele>113.4</ele>
        <time>2011-07-02T14:44:52Z</time>
      </trkpt>
      <trkpt lat="49.24298" lon="0.3844">
        <ele>113.9</ele>
        <time>2011-07-02T14:45:01Z</time>
      </trkpt>
      <trkpt lat="49.24252" lon="0.38524">
        <ele>114.4</ele>
        <time>2011-07-02T14:45:13Z</time>
      </trkpt>
      <trkpt lat="49.24207" lon="0.3862">
        <ele>116</ele>
        <time>2011-07-02T14:45:25Z</time>
      </trkpt>
      <trkpt lat="49.24171" lon="0.38672">
        <ele>115.9</ele>
        <time>2011-07-02T14:45:32Z</time>
      </trkpt>
      <trkpt lat="49.24128" lon="0.38726">
        <ele>115.7</ele>
        <time>2011-07-02T14:45:40Z</time>
      </trkpt>
      <trkpt lat="49.24093" lon="0.3878">
        <ele>115.2</ele>
        <time>2011-07-02T14:45:49Z</time>
      </trkpt>
      <trkpt lat="49.24046" lon="0.38837">
        <ele>114.6</ele>
        <time>2011-07-02T14:45:57Z</time>
      </trkpt>
      <trkpt lat="49.24003" lon="0.38887">
        <ele>114.6</ele>
        <time>2011-07-02T14:46:04Z</time>
      </trkpt>
      <trkpt lat="49.23952" lon="0.3895">
        <ele>114.5</ele>
        <time>2011-07-02T14:46:13Z</time>
      </trkpt>
      <trkpt lat="49.2391" lon="0.39003">
        <ele>115</ele>
        <time>2011-07-02T14:46:21Z</time>
      </trkpt>
      <trkpt lat="49.23887" lon="0.39029">
        <ele>117</ele>
        <time>2011-07-02T14:46:25Z</time>
      </trkpt>
      <trkpt lat="49.2378" lon="0.39109">
        <ele>114.9</ele>
        <time>2011-07-02T14:46:41Z</time>
      </trkpt>
      <trkpt lat="49.23688" lon="0.39168">
        <ele>115.4</ele>
        <time>2011-07-02T14:46:57Z</time>
      </trkpt>
      <trkpt lat="49.23577" lon="0.39251">
        <ele>118.1</ele>
        <time>2011-07-02T14:47:15Z</time>
      </trkpt>
      <trkpt lat="49.23535" lon="0.39311">
        <ele>119.6</ele>
        <time>2011-07-02T14:47:24Z</time>
      </trkpt>
      <trkpt lat="49.23499" lon="0.39386">
        <ele>119.3</ele>
        <time>2011-07-02T14:47:33Z</time>
      </trkpt>
      <trkpt lat="49.23428" lon="0.39535">
        <ele>123.6</ele>
        <time>2011-07-02T14:47:53Z</time>
      </trkpt>
      <trkpt lat="49.234" lon="0.39599">
        <ele>124</ele>
        <time>2011-07-02T14:48:00Z</time>
      </trkpt>
      <trkpt lat="49.23382" lon="0.39687">
        <ele>123</ele>
        <time>2011-07-02T14:48:09Z</time>
      </trkpt>
      <trkpt lat="49.23382" lon="0.39727">
        <ele>123</ele>
        <time>2011-07-02T14:48:13Z</time>
      </trkpt>
      <trkpt lat="49.23385" lon="0.39765">
        <ele>122.8</ele>
        <time>2011-07-02T14:48:17Z</time>
      </trkpt>
      <trkpt lat="49.23411" lon="0.39891">
        <ele>125.3</ele>
        <time>2011-07-02T14:48:33Z</time>
      </trkpt>
      <trkpt lat="49.23463" lon="0.40104">
        <ele>130.4</ele>
        <time>2011-07-02T14:49:04Z</time>
      </trkpt>
      <trkpt lat="49.2347" lon="0.40155">
        <ele>128.9</ele>
        <time>2011-07-02T14:49:11Z</time>
      </trkpt>
      <trkpt lat="49.23472" lon="0.4021">
        <ele>129.7</ele>
        <time>2011-07-02T14:49:19Z</time>
      </trkpt>
      <trkpt lat="49.23478" lon="0.40273">
        <ele>131.9</ele>
        <time>2011-07-02T14:49:30Z</time>
      </trkpt>
      <trkpt lat="49.23481" lon="0.40376">
        <ele>135.1</ele>
        <time>2011-07-02T14:49:44Z</time>
      </trkpt>
      <trkpt lat="49.23485" lon="0.40459">
        <ele>135.9</ele>
        <time>2011-07-02T14:49:53Z</time>
      </trkpt>
      <trkpt lat="49.2349" lon="0.4053">
        <ele>140.3</ele>
        <time>2011-07-02T14:50:01Z</time>
      </trkpt>
      <trkpt lat="49.23494" lon="0.40595">
        <ele>140.8</ele>
        <time>2011-07-02T14:50:09Z</time>
      </trkpt>
      <trkpt lat="49.23521" lon="0.40757">
        <ele>141.5</ele>
        <time>2011-07-02T14:50:29Z</time>
      </trkpt>
      <trkpt lat="49.23545" lon="0.40852">
        <ele>144.7</ele>
        <time>2011-07-02T14:50:41Z</time>
      </trkpt>
      <trkpt lat="49.23565" lon="0.40914">
        <ele>145.6</ele>
        <time>2011-07-02T14:50:49Z</time>
      </trkpt>
      <trkpt lat="49.23611" lon="0.40993">
        <ele>145.4</ele>
        <time>2011-07-02T14:51:01Z</time>
      </trkpt>
      <trkpt lat="49.23671" lon="0.41048">
        <ele>150.2</ele>
        <time>2011-07-02T14:51:17Z</time>
      </trkpt>
      <trkpt lat="49.23705" lon="0.41087">
        <ele>150.8</ele>
        <time>2011-07-02T14:51:24Z</time>
      </trkpt>
      <trkpt lat="49.23743" lon="0.41125">
        <ele>153.3</ele>
        <time>2011-07-02T14:51:32Z</time>
      </trkpt>
      <trkpt lat="49.2381" lon="0.41182">
        <ele>152.5</ele>
        <time>2011-07-02T14:51:49Z</time>
      </trkpt>
      <trkpt lat="49.23837" lon="0.41208">
        <ele>152.3</ele>
        <time>2011-07-02T14:51:53Z</time>
      </trkpt>
      <trkpt lat="49.23846" lon="0.41218">
        <ele>152.9</ele>
        <time>2011-07-02T14:51:57Z</time>
      </trkpt>
      <trkpt lat="49.23876" lon="0.41261">
        <ele>154.4</ele>
        <time>2011-07-02T14:52:02Z</time>
      </trkpt>
      <trkpt lat="49.23904" lon="0.41318">
        <ele>158.5</ele>
        <time>2011-07-02T14:52:10Z</time>
      </trkpt>
      <trkpt lat="49.23917" lon="0.41348">
        <ele>159.4</ele>
        <time>2011-07-02T14:52:14Z</time>
      </trkpt>
      <trkpt lat="49.23927" lon="0.41401">
        <ele>161.2</ele>
        <time>2011-07-02T14:52:21Z</time>
      </trkpt>
      <trkpt lat="49.2393" lon="0.41425">
        <ele>161.9</ele>
        <time>2011-07-02T14:52:24Z</time>
      </trkpt>
      <trkpt lat="49.23931" lon="0.41459">
        <ele>163.4</ele>
        <time>2011-07-02T14:52:29Z</time>
      </trkpt>
      <trkpt lat="49.23926" lon="0.41558">
        <ele>167.3</ele>
        <time>2011-07-02T14:52:40Z</time>
      </trkpt>
      <trkpt lat="49.23926" lon="0.41576">
        <ele>166.4</ele>
        <time>2011-07-02T14:52:42Z</time>
      </trkpt>
      <trkpt lat="49.23919" lon="0.41641">
        <ele>167.1</ele>
        <time>2011-07-02T14:52:49Z</time>
      </trkpt>
      <trkpt lat="49.23917" lon="0.41697">
        <ele>170</ele>
        <time>2011-07-02T14:52:55Z</time>
      </trkpt>
      <trkpt lat="49.2392" lon="0.41747">
        <ele>172.4</ele>
        <time>2011-07-02T14:53:01Z</time>
      </trkpt>
      <trkpt lat="49.23926" lon="0.41825">
        <ele>175.5</ele>
        <time>2011-07-02T14:53:09Z</time>
      </trkpt>
      <trkpt lat="49.23928" lon="0.41885">
        <ele>179</ele>
        <time>2011-07-02T14:53:18Z</time>
      </trkpt>
      <trkpt lat="49.23926" lon="0.41916">
        <ele>179.3</ele>
        <time>2011-07-02T14:53:21Z</time>
      </trkpt>
      <trkpt lat="49.23924" lon="0.41933">
        <ele>179.1</ele>
        <time>2011-07-02T14:53:22Z</time>
      </trkpt>
      <trkpt lat="49.23918" lon="0.41982">
        <ele>180</ele>
        <time>2011-07-02T14:53:29Z</time>
      </trkpt>
      <trkpt lat="49.23914" lon="0.42008">
        <ele>181.9</ele>
        <time>2011-07-02T14:53:32Z</time>
      </trkpt>
      <trkpt lat="49.239" lon="0.42122">
        <ele>185.6</ele>
        <time>2011-07-02T14:53:49Z</time>
      </trkpt>
      <trkpt lat="49.23892" lon="0.42204">
        <ele>189.4</ele>
        <time>2011-07-02T14:53:57Z</time>
      </trkpt>
      <trkpt lat="49.23897" lon="0.42252">
        <ele>193.3</ele>
        <time>2011-07-02T14:54:04Z</time>
      </trkpt>
      <trkpt lat="49.239" lon="0.42337">
        <ele>194.7</ele>
        <time>2011-07-02T14:54:12Z</time>
      </trkpt>
      <trkpt lat="49.23893" lon="0.42435">
        <ele>195.1</ele>
        <time>2011-07-02T14:54:21Z</time>
      </trkpt>
      <trkpt lat="49.23882" lon="0.42497">
        <ele>191.8</ele>
        <time>2011-07-02T14:54:28Z</time>
      </trkpt>
      <trkpt lat="49.2386" lon="0.42541">
        <ele>192.7</ele>
        <time>2011-07-02T14:54:34Z</time>
      </trkpt>
      <trkpt lat="49.23831" lon="0.42588">
        <ele>194.3</ele>
        <time>2011-07-02T14:54:41Z</time>
      </trkpt>
      <trkpt lat="49.2381" lon="0.42628">
        <ele>194.9</ele>
        <time>2011-07-02T14:54:47Z</time>
      </trkpt>
      <trkpt lat="49.23751" lon="0.42735">
        <ele>195.7</ele>
        <time>2011-07-02T14:55:05Z</time>
      </trkpt>
      <trkpt lat="49.23702" lon="0.42812">
        <ele>199.6</ele>
        <time>2011-07-02T14:55:13Z</time>
      </trkpt>
      <trkpt lat="49.23681" lon="0.42847">
        <ele>198.4</ele>
        <time>2011-07-02T14:55:17Z</time>
      </trkpt>
      <trkpt lat="49.23663" lon="0.42884">
        <ele>198</ele>
        <time>2011-07-02T14:55:21Z</time>
      </trkpt>
      <trkpt lat="49.2365" lon="0.42912">
        <ele>198</ele>
        <time>2011-07-02T14:55:24Z</time>
      </trkpt>
      <trkpt lat="49.23636" lon="0.42948">
        <ele>198.4</ele>
        <time>2011-07-02T14:55:28Z</time>
      </trkpt>
      <trkpt lat="49.23622" lon="0.42977">
        <ele>198</ele>
        <time>2011-07-02T14:55:32Z</time>
      </trkpt>
      <trkpt lat="49.23585" lon="0.43055">
        <ele>198</ele>
        <time>2011-07-02T14:55:44Z</time>
      </trkpt>
      <trkpt lat="49.23546" lon="0.43148">
        <ele>199.4</ele>
        <time>2011-07-02T14:56:00Z</time>
      </trkpt>
      <trkpt lat="49.23521" lon="0.43212">
        <ele>200</ele>
        <time>2011-07-02T14:56:11Z</time>
      </trkpt>
      <trkpt lat="49.23505" lon="0.43244">
        <ele>200.1</ele>
        <time>2011-07-02T14:56:16Z</time>
      </trkpt>
      <trkpt lat="49.23462" lon="0.43345">
        <ele>200.7</ele>
        <time>2011-07-02T14:56:31Z</time>
      </trkpt>
      <trkpt lat="49.23434" lon="0.43408">
        <ele>200.7</ele>
        <time>2011-07-02T14:56:43Z</time>
      </trkpt>
      <trkpt lat="49.23405" lon="0.43473">
        <ele>201.6</ele>
        <time>2011-07-02T14:56:58Z</time>
      </trkpt>
      <trkpt lat="49.23412" lon="0.43471">
        <ele>200.6</ele>
        <time>2011-07-02T14:57:12Z</time>
      </trkpt>
      <trkpt lat="49.23425" lon="0.4344">
        <ele>200.8</ele>
        <time>2011-07-02T14:57:20Z</time>
      </trkpt>
      <trkpt lat="49.23438" lon="0.43409">
        <ele>200.6</ele>
        <time>2011-07-02T14:57:25Z</time>
      </trkpt>
      <trkpt lat="49.2346" lon="0.4336">
        <ele>200.5</ele>
        <time>2011-07-02T14:57:35Z</time>
      </trkpt>
      <trkpt lat="49.23481" lon="0.43311">
        <ele>200.6</ele>
        <time>2011-07-02T14:57:45Z</time>
      </trkpt>
      <trkpt lat="49.23502" lon="0.43263">
        <ele>199.1</ele>
        <time>2011-07-02T14:57:53Z</time>
      </trkpt>
      <trkpt lat="49.2352" lon="0.43223">
        <ele>199.1</ele>
        <time>2011-07-02T14:58:00Z</time>
      </trkpt>
      <trkpt lat="49.23549" lon="0.4315">
        <ele>200.2</ele>
        <time>2011-07-02T14:58:12Z</time>
      </trkpt>
      <trkpt lat="49.23568" lon="0.43108">
        <ele>199.7</ele>
        <time>2011-07-02T14:58:20Z</time>
      </trkpt>
      <trkpt lat="49.23607" lon="0.43018">
        <ele>199.8</ele>
        <time>2011-07-02T14:58:36Z</time>
      </trkpt>
      <trkpt lat="49.23625" lon="0.42978">
        <ele>200.5</ele>
        <time>2011-07-02T14:58:46Z</time>
      </trkpt>
      <trkpt lat="49.23618" lon="0.42984">
        <ele>199.9</ele>
        <time>2011-07-02T14:58:56Z</time>
      </trkpt>
      <trkpt lat="49.23597" lon="0.43033">
        <ele>199.7</ele>
        <time>2011-07-02T14:59:05Z</time>
      </trkpt>
      <trkpt lat="49.23566" lon="0.43101">
        <ele>200.1</ele>
        <time>2011-07-02T14:59:13Z</time>
      </trkpt>
      <trkpt lat="49.23518" lon="0.43213">
        <ele>200.9</ele>
        <time>2011-07-02T14:59:29Z</time>
      </trkpt>
      <trkpt lat="49.23474" lon="0.43318">
        <ele>200.8</ele>
        <time>2011-07-02T14:59:41Z</time>
      </trkpt>
      <trkpt lat="49.2345" lon="0.43372">
        <ele>200.1</ele>
        <time>2011-07-02T14:59:48Z</time>
      </trkpt>
      <trkpt lat="49.23425" lon="0.43428">
        <ele>200</ele>
        <time>2011-07-02T14:59:55Z</time>
      </trkpt>
      <trkpt lat="49.23404" lon="0.43475">
        <ele>199.8</ele>
        <time>2011-07-02T15:00:01Z</time>
      </trkpt>
      <trkpt lat="49.23376" lon="0.4354">
        <ele>199.4</ele>
        <time>2011-07-02T15:00:09Z</time>
      </trkpt>
      <trkpt lat="49.23346" lon="0.43607">
        <ele>200.6</ele>
        <time>2011-07-02T15:00:17Z</time>
      </trkpt>
      <trkpt lat="49.23318" lon="0.43671">
        <ele>200.4</ele>
        <time>2011-07-02T15:00:24Z</time>
      </trkpt>
      <trkpt lat="49.23286" lon="0.43744">
        <ele>201.4</ele>
        <time>2011-07-02T15:00:32Z</time>
      </trkpt>
      <trkpt lat="49.23154" lon="0.44048">
        <ele>202.5</ele>
        <time>2011-07-02T15:01:06Z</time>
      </trkpt>
      <trkpt lat="49.2312" lon="0.44221">
        <ele>203.3</ele>
        <time>2011-07-02T15:01:21Z</time>
      </trkpt>
      <trkpt lat="49.23116" lon="0.44363">
        <ele>202.2</ele>
        <time>2011-07-02T15:01:33Z</time>
      </trkpt>
      <trkpt lat="49.23113" lon="0.44474">
        <ele>203.7</ele>
        <time>2011-07-02T15:01:41Z</time>
      </trkpt>
      <trkpt lat="49.23105" lon="0.4475">
        <ele>204.2</ele>
        <time>2011-07-02T15:02:04Z</time>
      </trkpt>
      <trkpt lat="49.23098" lon="0.45057">
        <ele>204</ele>
        <time>2011-07-02T15:02:29Z</time>
      </trkpt>
      <trkpt lat="49.23092" lon="0.45159">
        <ele>202.7</ele>
        <time>2011-07-02T15:02:37Z</time>
      </trkpt>
      <trkpt lat="49.23084" lon="0.45436">
        <ele>206</ele>
        <time>2011-07-02T15:03:00Z</time>
      </trkpt>
      <trkpt lat="49.23082" lon="0.45575">
        <ele>208</ele>
        <time>2011-07-02T15:03:12Z</time>
      </trkpt>
      <trkpt lat="49.23078" lon="0.45742">
        <ele>207.1</ele>
        <time>2011-07-02T15:03:25Z</time>
      </trkpt>
      <trkpt lat="49.23075" lon="0.45789">
        <ele>207.3</ele>
        <time>2011-07-02T15:03:30Z</time>
      </trkpt>
      <trkpt lat="49.23075" lon="0.45813">
        <ele>207.8</ele>
        <time>2011-07-02T15:03:33Z</time>
      </trkpt>
      <trkpt lat="49.23065" lon="0.46182">
        <ele>209.5</ele>
        <time>2011-07-02T15:04:02Z</time>
      </trkpt>
      <trkpt lat="49.23062" lon="0.46268">
        <ele>209.8</ele>
        <time>2011-07-02T15:04:09Z</time>
      </trkpt>
      <trkpt lat="49.23059" lon="0.46369">
        <ele>209</ele>
        <time>2011-07-02T15:04:17Z</time>
      </trkpt>
      <trkpt lat="49.2305" lon="0.4668">
        <ele>208.7</ele>
        <time>2011-07-02T15:04:41Z</time>
      </trkpt>
      <trkpt lat="49.23046" lon="0.46805">
        <ele>208.2</ele>
        <time>2011-07-02T15:04:50Z</time>
      </trkpt>
      <trkpt lat="49.23043" lon="0.46904">
        <ele>206.6</ele>
        <time>2011-07-02T15:04:57Z</time>
      </trkpt>
      <trkpt lat="49.23042" lon="0.46976">
        <ele>206.2</ele>
        <time>2011-07-02T15:05:02Z</time>
      </trkpt>
      <trkpt lat="49.23037" lon="0.47143">
        <ele>207.3</ele>
        <time>2011-07-02T15:05:14Z</time>
      </trkpt>
      <trkpt lat="49.23035" lon="0.47222">
        <ele>208.6</ele>
        <time>2011-07-02T15:05:20Z</time>
      </trkpt>
      <trkpt lat="49.23025" lon="0.47426">
        <ele>209.2</ele>
        <time>2011-07-02T15:05:37Z</time>
      </trkpt>
      <trkpt lat="49.23034" lon="0.47545">
        <ele>211.7</ele>
        <time>2011-07-02T15:05:49Z</time>
      </trkpt>
      <trkpt lat="49.23025" lon="0.47592">
        <ele>211.6</ele>
        <time>2011-07-02T15:05:53Z</time>
      </trkpt>
      <trkpt lat="49.23023" lon="0.47641">
        <ele>211.1</ele>
        <time>2011-07-02T15:05:57Z</time>
      </trkpt>
      <trkpt lat="49.23017" lon="0.47807">
        <ele>209.6</ele>
        <time>2011-07-02T15:06:12Z</time>
      </trkpt>
      <trkpt lat="49.23014" lon="0.47931">
        <ele>209.5</ele>
        <time>2011-07-02T15:06:21Z</time>
      </trkpt>
      <trkpt lat="49.23007" lon="0.48186">
        <ele>209.8</ele>
        <time>2011-07-02T15:06:41Z</time>
      </trkpt>
      <trkpt lat="49.23005" lon="0.48225">
        <ele>210.3</ele>
        <time>2011-07-02T15:06:44Z</time>
      </trkpt>
      <trkpt lat="49.23001" lon="0.48379">
        <ele>210.7</ele>
        <time>2011-07-02T15:06:56Z</time>
      </trkpt>
      <trkpt lat="49.22998" lon="0.48495">
        <ele>209.7</ele>
        <time>2011-07-02T15:07:05Z</time>
      </trkpt>
      <trkpt lat="49.22995" lon="0.48548">
        <ele>209.1</ele>
        <time>2011-07-02T15:07:09Z</time>
      </trkpt>
      <trkpt lat="49.22992" lon="0.48652">
        <ele>209.5</ele>
        <time>2011-07-02T15:07:17Z</time>
      </trkpt>
      <trkpt lat="49.2299" lon="0.48754">
        <ele>209.1</ele>
        <time>2011-07-02T15:07:25Z</time>
      </trkpt>
      <trkpt lat="49.22979" lon="0.4909">
        <ele>209.3</ele>
        <time>2011-07-02T15:07:53Z</time>
      </trkpt>
      <trkpt lat="49.22978" lon="0.49141">
        <ele>208.8</ele>
        <time>2011-07-02T15:07:57Z</time>
      </trkpt>
      <trkpt lat="49.22976" lon="0.49193">
        <ele>208.7</ele>
        <time>2011-07-02T15:08:01Z</time>
      </trkpt>
      <trkpt lat="49.22975" lon="0.49231">
        <ele>209.2</ele>
        <time>2011-07-02T15:08:05Z</time>
      </trkpt>
      <trkpt lat="49.22973" lon="0.4941">
        <ele>210.4</ele>
        <time>2011-07-02T15:08:17Z</time>
      </trkpt>
      <trkpt lat="49.22976" lon="0.49462">
        <ele>210.2</ele>
        <time>2011-07-02T15:08:21Z</time>
      </trkpt>
      <trkpt lat="49.22979" lon="0.49501">
        <ele>210.2</ele>
        <time>2011-07-02T15:08:25Z</time>
      </trkpt>
      <trkpt lat="49.23032" lon="0.49741">
        <ele>214.5</ele>
        <time>2011-07-02T15:08:43Z</time>
      </trkpt>
      <trkpt lat="49.23049" lon="0.49809">
        <ele>215.8</ele>
        <time>2011-07-02T15:08:52Z</time>
      </trkpt>
      <trkpt lat="49.23053" lon="0.49835">
        <ele>216.1</ele>
        <time>2011-07-02T15:08:56Z</time>
      </trkpt>
      <trkpt lat="49.23055" lon="0.4986">
        <ele>217.1</ele>
        <time>2011-07-02T15:09:01Z</time>
      </trkpt>
      <trkpt lat="49.23057" lon="0.49884">
        <ele>217.8</ele>
        <time>2011-07-02T15:09:05Z</time>
      </trkpt>
      <trkpt lat="49.23054" lon="0.49893">
        <ele>217.4</ele>
        <time>2011-07-02T15:09:08Z</time>
      </trkpt>
      <trkpt lat="49.23048" lon="0.49901">
        <ele>214.3</ele>
        <time>2011-07-02T15:09:12Z</time>
      </trkpt>
      <trkpt lat="49.23048" lon="0.49901">
        <ele>170</ele>
        <time>2011-07-02T15:09:23Z</time>
      </trkpt>
      <trkpt lat="49.23048" lon="0.49901">
        <ele>170</ele>
        <time>2011-07-02T15:09:27Z</time>
      </trkpt>
      <trkpt lat="49.23048" lon="0.49901">
        <ele>170</ele>
        <time>2011-07-02T15:09:38Z</time>
      </trkpt>
      <trkpt lat="49.23048" lon="0.49901">
        <ele>170</ele>
        <time>2011-07-02T15:09:59Z</time>
      </trkpt>
      <trkpt lat="49.23035" lon="0.49924">
        <ele>211.6</ele>
        <time>2011-07-02T15:10:05Z</time>
      </trkpt>
      <trkpt lat="49.23031" lon="0.49955">
        <ele>215.5</ele>
        <time>2011-07-02T15:10:11Z</time>
      </trkpt>
      <trkpt lat="49.23004" lon="0.50043">
        <ele>218.5</ele>
        <time>2011-07-02T15:10:22Z</time>
      </trkpt>
      <trkpt lat="49.22992" lon="0.5009">
        <ele>217.7</ele>
        <time>2011-07-02T15:10:27Z</time>
      </trkpt>
      <trkpt lat="49.22965" lon="0.50361">
        <ele>211.8</ele>
        <time>2011-07-02T15:10:54Z</time>
      </trkpt>
      <trkpt lat="49.22965" lon="0.50397">
        <ele>210.2</ele>
        <time>2011-07-02T15:10:57Z</time>
      </trkpt>
      <trkpt lat="49.22961" lon="0.50535">
        <ele>208.9</ele>
        <time>2011-07-02T15:11:11Z</time>
      </trkpt>
      <trkpt lat="49.22959" lon="0.50577">
        <ele>208</ele>
        <time>2011-07-02T15:11:15Z</time>
      </trkpt>
      <trkpt lat="49.22958" lon="0.50617">
        <ele>208.9</ele>
        <time>2011-07-02T15:11:19Z</time>
      </trkpt>
      <trkpt lat="49.22954" lon="0.50648">
        <ele>207.8</ele>
        <time>2011-07-02T15:11:22Z</time>
      </trkpt>
      <trkpt lat="49.22852" lon="0.51268">
        <ele>207.2</ele>
        <time>2011-07-02T15:12:22Z</time>
      </trkpt>
      <trkpt lat="49.22775" lon="0.51682">
        <ele>208</ele>
        <time>2011-07-02T15:13:05Z</time>
      </trkpt>
      <trkpt lat="49.22761" lon="0.51721">
        <ele>208.6</ele>
        <time>2011-07-02T15:13:08Z</time>
      </trkpt>
      <trkpt lat="49.2268" lon="0.51935">
        <ele>209.6</ele>
        <time>2011-07-02T15:13:30Z</time>
      </trkpt>
      <trkpt lat="49.22641" lon="0.52007">
        <ele>209.2</ele>
        <time>2011-07-02T15:13:39Z</time>
      </trkpt>
      <trkpt lat="49.22618" lon="0.52039">
        <ele>209.6</ele>
        <time>2011-07-02T15:13:42Z</time>
      </trkpt>
      <trkpt lat="49.22587" lon="0.52072">
        <ele>207.8</ele>
        <time>2011-07-02T15:13:47Z</time>
      </trkpt>
      <trkpt lat="49.22554" lon="0.52118">
        <ele>205.9</ele>
        <time>2011-07-02T15:13:53Z</time>
      </trkpt>
      <trkpt lat="49.22486" lon="0.52199">
        <ele>208.7</ele>
        <time>2011-07-02T15:14:05Z</time>
      </trkpt>
      <trkpt lat="49.2245" lon="0.52236">
        <ele>209.4</ele>
        <time>2011-07-02T15:14:11Z</time>
      </trkpt>
      <trkpt lat="49.22432" lon="0.52256">
        <ele>210</ele>
        <time>2011-07-02T15:14:15Z</time>
      </trkpt>
      <trkpt lat="49.2241" lon="0.52283">
        <ele>211.2</ele>
        <time>2011-07-02T15:14:18Z</time>
      </trkpt>
      <trkpt lat="49.22363" lon="0.52375">
        <ele>211.8</ele>
        <time>2011-07-02T15:14:30Z</time>
      </trkpt>
      <trkpt lat="49.22345" lon="0.52414">
        <ele>211.7</ele>
        <time>2011-07-02T15:14:34Z</time>
      </trkpt>
      <trkpt lat="49.22331" lon="0.52452">
        <ele>211.3</ele>
        <time>2011-07-02T15:14:38Z</time>
      </trkpt>
      <trkpt lat="49.22287" lon="0.52731">
        <ele>208</ele>
        <time>2011-07-02T15:15:03Z</time>
      </trkpt>
      <trkpt lat="49.22266" lon="0.5278">
        <ele>206.2</ele>
        <time>2011-07-02T15:15:07Z</time>
      </trkpt>
      <trkpt lat="49.22261" lon="0.52789">
        <ele>206.2</ele>
        <time>2011-07-02T15:15:08Z</time>
      </trkpt>
      <trkpt lat="49.2221" lon="0.52882">
        <ele>206.6</ele>
        <time>2011-07-02T15:15:18Z</time>
      </trkpt>
      <trkpt lat="49.22173" lon="0.52956">
        <ele>205.5</ele>
        <time>2011-07-02T15:15:27Z</time>
      </trkpt>
      <trkpt lat="49.22105" lon="0.5307">
        <ele>202.7</ele>
        <time>2011-07-02T15:15:46Z</time>
      </trkpt>
      <trkpt lat="49.2203" lon="0.53149">
        <ele>203.6</ele>
        <time>2011-07-02T15:15:58Z</time>
      </trkpt>
      <trkpt lat="49.21867" lon="0.53287">
        <ele>202.8</ele>
        <time>2011-07-02T15:16:22Z</time>
      </trkpt>
      <trkpt lat="49.21841" lon="0.53303">
        <ele>202.2</ele>
        <time>2011-07-02T15:16:26Z</time>
      </trkpt>
      <trkpt lat="49.21776" lon="0.53346">
        <ele>202.9</ele>
        <time>2011-07-02T15:16:37Z</time>
      </trkpt>
      <trkpt lat="49.21752" lon="0.53382">
        <ele>203.4</ele>
        <time>2011-07-02T15:16:41Z</time>
      </trkpt>
      <trkpt lat="49.21697" lon="0.53487">
        <ele>205</ele>
        <time>2011-07-02T15:16:54Z</time>
      </trkpt>
      <trkpt lat="49.21612" lon="0.53662">
        <ele>209.5</ele>
        <time>2011-07-02T15:17:15Z</time>
      </trkpt>
      <trkpt lat="49.21599" lon="0.53688">
        <ele>209.5</ele>
        <time>2011-07-02T15:17:19Z</time>
      </trkpt>
      <trkpt lat="49.21578" lon="0.53731">
        <ele>210.5</ele>
        <time>2011-07-02T15:17:23Z</time>
      </trkpt>
      <trkpt lat="49.21527" lon="0.53858">
        <ele>211.7</ele>
        <time>2011-07-02T15:17:38Z</time>
      </trkpt>
      <trkpt lat="49.21501" lon="0.5393">
        <ele>211.9</ele>
        <time>2011-07-02T15:17:47Z</time>
      </trkpt>
      <trkpt lat="49.2147" lon="0.54012">
        <ele>211.9</ele>
        <time>2011-07-02T15:17:55Z</time>
      </trkpt>
      <trkpt lat="49.21459" lon="0.54039">
        <ele>212.5</ele>
        <time>2011-07-02T15:17:58Z</time>
      </trkpt>
      <trkpt lat="49.21433" lon="0.54106">
        <ele>211</ele>
        <time>2011-07-02T15:18:07Z</time>
      </trkpt>
      <trkpt lat="49.21408" lon="0.54174">
        <ele>211.8</ele>
        <time>2011-07-02T15:18:15Z</time>
      </trkpt>
      <trkpt lat="49.21359" lon="0.54305">
        <ele>213.6</ele>
        <time>2011-07-02T15:18:29Z</time>
      </trkpt>
      <trkpt lat="49.21329" lon="0.54385">
        <ele>212.6</ele>
        <time>2011-07-02T15:18:39Z</time>
      </trkpt>
      <trkpt lat="49.21304" lon="0.54449">
        <ele>210.4</ele>
        <time>2011-07-02T15:18:45Z</time>
      </trkpt>
      <trkpt lat="49.21273" lon="0.54538">
        <ele>210.9</ele>
        <time>2011-07-02T15:18:55Z</time>
      </trkpt>
      <trkpt lat="49.21261" lon="0.54585">
        <ele>210.8</ele>
        <time>2011-07-02T15:19:02Z</time>
      </trkpt>
      <trkpt lat="49.21239" lon="0.5468">
        <ele>210.6</ele>
        <time>2011-07-02T15:19:10Z</time>
      </trkpt>
      <trkpt lat="49.21223" lon="0.5475">
        <ele>209.9</ele>
        <time>2011-07-02T15:19:18Z</time>
      </trkpt>
      <trkpt lat="49.21215" lon="0.54786">
        <ele>209.3</ele>
        <time>2011-07-02T15:19:22Z</time>
      </trkpt>
      <trkpt lat="49.21162" lon="0.55026">
        <ele>206.4</ele>
        <time>2011-07-02T15:19:47Z</time>
      </trkpt>
      <trkpt lat="49.21157" lon="0.55055">
        <ele>206.6</ele>
        <time>2011-07-02T15:19:50Z</time>
      </trkpt>
      <trkpt lat="49.21173" lon="0.55172">
        <ele>206.6</ele>
        <time>2011-07-02T15:20:03Z</time>
      </trkpt>
      <trkpt lat="49.21156" lon="0.55283">
        <ele>207.2</ele>
        <time>2011-07-02T15:20:13Z</time>
      </trkpt>
      <trkpt lat="49.21148" lon="0.55321">
        <ele>209.2</ele>
        <time>2011-07-02T15:20:18Z</time>
      </trkpt>
      <trkpt lat="49.21125" lon="0.55407">
        <ele>210</ele>
        <time>2011-07-02T15:20:26Z</time>
      </trkpt>
      <trkpt lat="49.21101" lon="0.5547">
        <ele>208.5</ele>
        <time>2011-07-02T15:20:34Z</time>
      </trkpt>
      <trkpt lat="49.2107" lon="0.55542">
        <ele>208.5</ele>
        <time>2011-07-02T15:20:42Z</time>
      </trkpt>
      <trkpt lat="49.21043" lon="0.55611">
        <ele>210.1</ele>
        <time>2011-07-02T15:20:51Z</time>
      </trkpt>
      <trkpt lat="49.21014" lon="0.55684">
        <ele>210.9</ele>
        <time>2011-07-02T15:20:58Z</time>
      </trkpt>
      <trkpt lat="49.20999" lon="0.55719">
        <ele>212.4</ele>
        <time>2011-07-02T15:21:02Z</time>
      </trkpt>
      <trkpt lat="49.20983" lon="0.55753">
        <ele>212.6</ele>
        <time>2011-07-02T15:21:06Z</time>
      </trkpt>
      <trkpt lat="49.20966" lon="0.55786">
        <ele>212.3</ele>
        <time>2011-07-02T15:21:10Z</time>
      </trkpt>
      <trkpt lat="49.20947" lon="0.55818">
        <ele>212.2</ele>
        <time>2011-07-02T15:21:14Z</time>
      </trkpt>
      <trkpt lat="49.20925" lon="0.5585">
        <ele>213.1</ele>
        <time>2011-07-02T15:21:18Z</time>
      </trkpt>
      <trkpt lat="49.20898" lon="0.55887">
        <ele>212.9</ele>
        <time>2011-07-02T15:21:23Z</time>
      </trkpt>
      <trkpt lat="49.20876" lon="0.55919">
        <ele>213</ele>
        <time>2011-07-02T15:21:27Z</time>
      </trkpt>
      <trkpt lat="49.20855" lon="0.5595">
        <ele>213</ele>
        <time>2011-07-02T15:21:31Z</time>
      </trkpt>
      <trkpt lat="49.20833" lon="0.55983">
        <ele>212.3</ele>
        <time>2011-07-02T15:21:35Z</time>
      </trkpt>
      <trkpt lat="49.20814" lon="0.56017">
        <ele>212.8</ele>
        <time>2011-07-02T15:21:39Z</time>
      </trkpt>
      <trkpt lat="49.20797" lon="0.56054">
        <ele>212.3</ele>
        <time>2011-07-02T15:21:43Z</time>
      </trkpt>
      <trkpt lat="49.20782" lon="0.56091">
        <ele>212.5</ele>
        <time>2011-07-02T15:21:47Z</time>
      </trkpt>
      <trkpt lat="49.2077" lon="0.5612">
        <ele>211.8</ele>
        <time>2011-07-02T15:21:50Z</time>
      </trkpt>
      <trkpt lat="49.20749" lon="0.56168">
        <ele>210.7</ele>
        <time>2011-07-02T15:21:55Z</time>
      </trkpt>
      <trkpt lat="49.20728" lon="0.56202">
        <ele>209.7</ele>
        <time>2011-07-02T15:21:59Z</time>
      </trkpt>
      <trkpt lat="49.20703" lon="0.56232">
        <ele>209.9</ele>
        <time>2011-07-02T15:22:03Z</time>
      </trkpt>
      <trkpt lat="49.20685" lon="0.56251">
        <ele>210.3</ele>
        <time>2011-07-02T15:22:06Z</time>
      </trkpt>
      <trkpt lat="49.20577" lon="0.56366">
        <ele>210.7</ele>
        <time>2011-07-02T15:22:23Z</time>
      </trkpt>
      <trkpt lat="49.20516" lon="0.5643">
        <ele>211.9</ele>
        <time>2011-07-02T15:22:34Z</time>
      </trkpt>
      <trkpt lat="49.20492" lon="0.56454">
        <ele>212.6</ele>
        <time>2011-07-02T15:22:38Z</time>
      </trkpt>
      <trkpt lat="49.20469" lon="0.56478">
        <ele>213.3</ele>
        <time>2011-07-02T15:22:42Z</time>
      </trkpt>
      <trkpt lat="49.20438" lon="0.56508">
        <ele>212.5</ele>
        <time>2011-07-02T15:22:46Z</time>
      </trkpt>
      <trkpt lat="49.20408" lon="0.56541">
        <ele>211.8</ele>
        <time>2011-07-02T15:22:51Z</time>
      </trkpt>
      <trkpt lat="49.2039" lon="0.5656">
        <ele>211.5</ele>
        <time>2011-07-02T15:22:54Z</time>
      </trkpt>
      <trkpt lat="49.2036" lon="0.5659">
        <ele>211</ele>
        <time>2011-07-02T15:22:59Z</time>
      </trkpt>
      <trkpt lat="49.20349" lon="0.56602">
        <ele>211.2</ele>
        <time>2011-07-02T15:23:01Z</time>
      </trkpt>
      <trkpt lat="49.20315" lon="0.56635">
        <ele>211.5</ele>
        <time>2011-07-02T15:23:05Z</time>
      </trkpt>
      <trkpt lat="49.20218" lon="0.56677">
        <ele>208.9</ele>
        <time>2011-07-02T15:23:19Z</time>
      </trkpt>
      <trkpt lat="49.20071" lon="0.56713">
        <ele>210</ele>
        <time>2011-07-02T15:23:38Z</time>
      </trkpt>
      <trkpt lat="49.20041" lon="0.56726">
        <ele>210.6</ele>
        <time>2011-07-02T15:23:42Z</time>
      </trkpt>
      <trkpt lat="49.2001" lon="0.56741">
        <ele>210.9</ele>
        <time>2011-07-02T15:23:46Z</time>
      </trkpt>
      <trkpt lat="49.19987" lon="0.56751">
        <ele>210.7</ele>
        <time>2011-07-02T15:23:49Z</time>
      </trkpt>
      <trkpt lat="49.19948" lon="0.56771">
        <ele>210.4</ele>
        <time>2011-07-02T15:23:54Z</time>
      </trkpt>
      <trkpt lat="49.19916" lon="0.56786">
        <ele>209.8</ele>
        <time>2011-07-02T15:23:58Z</time>
      </trkpt>
      <trkpt lat="49.19884" lon="0.56803">
        <ele>210</ele>
        <time>2011-07-02T15:24:02Z</time>
      </trkpt>
      <trkpt lat="49.19856" lon="0.56819">
        <ele>210.8</ele>
        <time>2011-07-02T15:24:06Z</time>
      </trkpt>
      <trkpt lat="49.19823" lon="0.56834">
        <ele>211</ele>
        <time>2011-07-02T15:24:10Z</time>
      </trkpt>
      <trkpt lat="49.19791" lon="0.5685">
        <ele>210.9</ele>
        <time>2011-07-02T15:24:14Z</time>
      </trkpt>
      <trkpt lat="49.1976" lon="0.56868">
        <ele>210.3</ele>
        <time>2011-07-02T15:24:18Z</time>
      </trkpt>
      <trkpt lat="49.19729" lon="0.5688">
        <ele>209.9</ele>
        <time>2011-07-02T15:24:22Z</time>
      </trkpt>
      <trkpt lat="49.19711" lon="0.56885">
        <ele>211.7</ele>
        <time>2011-07-02T15:24:25Z</time>
      </trkpt>
      <trkpt lat="49.19681" lon="0.56886">
        <ele>210.6</ele>
        <time>2011-07-02T15:24:30Z</time>
      </trkpt>
      <trkpt lat="49.19654" lon="0.56884">
        <ele>209.9</ele>
        <time>2011-07-02T15:24:34Z</time>
      </trkpt>
      <trkpt lat="49.19629" lon="0.5688">
        <ele>209.9</ele>
        <time>2011-07-02T15:24:38Z</time>
      </trkpt>
      <trkpt lat="49.19581" lon="0.56866">
        <ele>209.8</ele>
        <time>2011-07-02T15:24:48Z</time>
      </trkpt>
      <trkpt lat="49.19541" lon="0.56858">
        <ele>207.4</ele>
        <time>2011-07-02T15:24:57Z</time>
      </trkpt>
      <trkpt lat="49.19526" lon="0.56862">
        <ele>208.1</ele>
        <time>2011-07-02T15:25:04Z</time>
      </trkpt>
      <trkpt lat="49.19526" lon="0.56862">
        <ele>163</ele>
        <time>2011-07-02T15:25:53Z</time>
      </trkpt>
      <trkpt lat="49.19526" lon="0.56862">
        <ele>163</ele>
        <time>2011-07-02T15:26:02Z</time>
      </trkpt>
      <trkpt lat="49.19526" lon="0.56862">
        <ele>163</ele>
        <time>2011-07-02T15:26:32Z</time>
      </trkpt>
      <trkpt lat="49.19526" lon="0.56862">
        <ele>163</ele>
        <time>2011-07-02T15:43:59Z</time>
      </trkpt>
      <trkpt lat="49.19535" lon="0.56965">
        <ele>210.2</ele>
        <time>2011-07-02T15:44:21Z</time>
      </trkpt>
      <trkpt lat="49.19542" lon="0.57076">
        <ele>213.2</ele>
        <time>2011-07-02T15:44:34Z</time>
      </trkpt>
      <trkpt lat="49.19549" lon="0.57155">
        <ele>213.1</ele>
        <time>2011-07-02T15:44:43Z</time>
      </trkpt>
      <trkpt lat="49.1955" lon="0.57183">
        <ele>212.9</ele>
        <time>2011-07-02T15:44:46Z</time>
      </trkpt>
      <trkpt lat="49.1955" lon="0.57308">
        <ele>213.5</ele>
        <time>2011-07-02T15:45:02Z</time>
      </trkpt>
      <trkpt lat="49.19545" lon="0.5737">
        <ele>213.2</ele>
        <time>2011-07-02T15:45:10Z</time>
      </trkpt>
      <trkpt lat="49.19537" lon="0.57526">
        <ele>212</ele>
        <time>2011-07-02T15:45:30Z</time>
      </trkpt>
      <trkpt lat="49.19534" lon="0.57569">
        <ele>211.3</ele>
        <time>2011-07-02T15:45:34Z</time>
      </trkpt>
      <trkpt lat="49.19526" lon="0.57651">
        <ele>212</ele>
        <time>2011-07-02T15:45:44Z</time>
      </trkpt>
      <trkpt lat="49.19522" lon="0.57668">
        <ele>212</ele>
        <time>2011-07-02T15:45:46Z</time>
      </trkpt>
      <trkpt lat="49.19515" lon="0.57701">
        <ele>212.2</ele>
        <time>2011-07-02T15:45:50Z</time>
      </trkpt>
      <trkpt lat="49.19507" lon="0.57732">
        <ele>212.2</ele>
        <time>2011-07-02T15:45:55Z</time>
      </trkpt>
      <trkpt lat="49.19483" lon="0.57846">
        <ele>213.4</ele>
        <time>2011-07-02T15:46:07Z</time>
      </trkpt>
      <trkpt lat="49.19474" lon="0.5791">
        <ele>213.8</ele>
        <time>2011-07-02T15:46:14Z</time>
      </trkpt>
      <trkpt lat="49.19467" lon="0.57973">
        <ele>214.4</ele>
        <time>2011-07-02T15:46:21Z</time>
      </trkpt>
      <trkpt lat="49.19456" lon="0.58065">
        <ele>213.8</ele>
        <time>2011-07-02T15:46:31Z</time>
      </trkpt>
      <trkpt lat="49.1945" lon="0.58132">
        <ele>213.7</ele>
        <time>2011-07-02T15:46:39Z</time>
      </trkpt>
      <trkpt lat="49.1945" lon="0.58223">
        <ele>212.8</ele>
        <time>2011-07-02T15:46:47Z</time>
      </trkpt>
      <trkpt lat="49.1945" lon="0.58304">
        <ele>211.8</ele>
        <time>2011-07-02T15:46:55Z</time>
      </trkpt>
      <trkpt lat="49.19445" lon="0.58389">
        <ele>211.6</ele>
        <time>2011-07-02T15:47:03Z</time>
      </trkpt>
      <trkpt lat="49.19442" lon="0.58421">
        <ele>211.2</ele>
        <time>2011-07-02T15:47:06Z</time>
      </trkpt>
      <trkpt lat="49.19438" lon="0.58453">
        <ele>210.7</ele>
        <time>2011-07-02T15:47:09Z</time>
      </trkpt>
      <trkpt lat="49.19432" lon="0.58517">
        <ele>210.7</ele>
        <time>2011-07-02T15:47:16Z</time>
      </trkpt>
      <trkpt lat="49.1943" lon="0.58646">
        <ele>211.1</ele>
        <time>2011-07-02T15:47:28Z</time>
      </trkpt>
      <trkpt lat="49.19431" lon="0.58688">
        <ele>212.6</ele>
        <time>2011-07-02T15:47:32Z</time>
      </trkpt>
      <trkpt lat="49.19434" lon="0.5873">
        <ele>213.8</ele>
        <time>2011-07-02T15:47:36Z</time>
      </trkpt>
      <trkpt lat="49.19434" lon="0.58782">
        <ele>215</ele>
        <time>2011-07-02T15:47:40Z</time>
      </trkpt>
      <trkpt lat="49.19433" lon="0.58815">
        <ele>215.3</ele>
        <time>2011-07-02T15:47:43Z</time>
      </trkpt>
      <trkpt lat="49.1943" lon="0.58892">
        <ele>214.9</ele>
        <time>2011-07-02T15:47:51Z</time>
      </trkpt>
      <trkpt lat="49.19427" lon="0.58934">
        <ele>215.4</ele>
        <time>2011-07-02T15:47:55Z</time>
      </trkpt>
      <trkpt lat="49.19422" lon="0.59021">
        <ele>215.6</ele>
        <time>2011-07-02T15:48:03Z</time>
      </trkpt>
      <trkpt lat="49.19421" lon="0.59064">
        <ele>215.8</ele>
        <time>2011-07-02T15:48:07Z</time>
      </trkpt>
      <trkpt lat="49.19422" lon="0.59106">
        <ele>216.6</ele>
        <time>2011-07-02T15:48:11Z</time>
      </trkpt>
      <trkpt lat="49.19424" lon="0.5925">
        <ele>213.6</ele>
        <time>2011-07-02T15:48:24Z</time>
      </trkpt>
      <trkpt lat="49.19424" lon="0.59329">
        <ele>212.7</ele>
        <time>2011-07-02T15:48:29Z</time>
      </trkpt>
      <trkpt lat="49.19419" lon="0.59479">
        <ele>213.1</ele>
        <time>2011-07-02T15:48:43Z</time>
      </trkpt>
      <trkpt lat="49.19404" lon="0.59652">
        <ele>214.2</ele>
        <time>2011-07-02T15:48:59Z</time>
      </trkpt>
      <trkpt lat="49.19354" lon="0.60073">
        <ele>215.2</ele>
        <time>2011-07-02T15:49:35Z</time>
      </trkpt>
      <trkpt lat="49.19354" lon="0.60121">
        <ele>215.2</ele>
        <time>2011-07-02T15:49:40Z</time>
      </trkpt>
      <trkpt lat="49.19363" lon="0.60228">
        <ele>215.3</ele>
        <time>2011-07-02T15:49:47Z</time>
      </trkpt>
      <trkpt lat="49.19374" lon="0.60276">
        <ele>215.8</ele>
        <time>2011-07-02T15:49:51Z</time>
      </trkpt>
      <trkpt lat="49.19391" lon="0.60326">
        <ele>215.3</ele>
        <time>2011-07-02T15:49:55Z</time>
      </trkpt>
      <trkpt lat="49.1941" lon="0.60372">
        <ele>215.4</ele>
        <time>2011-07-02T15:49:59Z</time>
      </trkpt>
      <trkpt lat="49.19514" lon="0.60623">
        <ele>214.5</ele>
        <time>2011-07-02T15:50:23Z</time>
      </trkpt>
      <trkpt lat="49.19527" lon="0.60669">
        <ele>214.6</ele>
        <time>2011-07-02T15:50:27Z</time>
      </trkpt>
      <trkpt lat="49.19537" lon="0.6072">
        <ele>212.4</ele>
        <time>2011-07-02T15:50:31Z</time>
      </trkpt>
      <trkpt lat="49.19547" lon="0.60766">
        <ele>211.6</ele>
        <time>2011-07-02T15:50:35Z</time>
      </trkpt>
      <trkpt lat="49.19556" lon="0.60815">
        <ele>211.9</ele>
        <time>2011-07-02T15:50:39Z</time>
      </trkpt>
      <trkpt lat="49.19566" lon="0.60865">
        <ele>211.9</ele>
        <time>2011-07-02T15:50:43Z</time>
      </trkpt>
      <trkpt lat="49.19575" lon="0.60913">
        <ele>211.3</ele>
        <time>2011-07-02T15:50:47Z</time>
      </trkpt>
      <trkpt lat="49.19584" lon="0.60959">
        <ele>210.3</ele>
        <time>2011-07-02T15:50:51Z</time>
      </trkpt>
      <trkpt lat="49.19593" lon="0.6101">
        <ele>209.1</ele>
        <time>2011-07-02T15:50:55Z</time>
      </trkpt>
      <trkpt lat="49.19604" lon="0.61057">
        <ele>209.6</ele>
        <time>2011-07-02T15:50:59Z</time>
      </trkpt>
      <trkpt lat="49.19617" lon="0.61106">
        <ele>209.9</ele>
        <time>2011-07-02T15:51:03Z</time>
      </trkpt>
      <trkpt lat="49.19635" lon="0.61151">
        <ele>209.2</ele>
        <time>2011-07-02T15:51:07Z</time>
      </trkpt>
      <trkpt lat="49.19658" lon="0.61193">
        <ele>207.2</ele>
        <time>2011-07-02T15:51:11Z</time>
      </trkpt>
      <trkpt lat="49.19685" lon="0.61231">
        <ele>204.9</ele>
        <time>2011-07-02T15:51:15Z</time>
      </trkpt>
      <trkpt lat="49.19709" lon="0.61273">
        <ele>204.7</ele>
        <time>2011-07-02T15:51:19Z</time>
      </trkpt>
      <trkpt lat="49.1973" lon="0.61316">
        <ele>204.9</ele>
        <time>2011-07-02T15:51:23Z</time>
      </trkpt>
      <trkpt lat="49.19766" lon="0.61407">
        <ele>205.1</ele>
        <time>2011-07-02T15:51:30Z</time>
      </trkpt>
      <trkpt lat="49.19812" lon="0.61544">
        <ele>201.7</ele>
        <time>2011-07-02T15:51:43Z</time>
      </trkpt>
      <trkpt lat="49.19852" lon="0.61627">
        <ele>200.8</ele>
        <time>2011-07-02T15:51:50Z</time>
      </trkpt>
      <trkpt lat="49.19928" lon="0.6179">
        <ele>201.5</ele>
        <time>2011-07-02T15:52:07Z</time>
      </trkpt>
      <trkpt lat="49.19948" lon="0.61831">
        <ele>201.2</ele>
        <time>2011-07-02T15:52:11Z</time>
      </trkpt>
      <trkpt lat="49.19967" lon="0.61873">
        <ele>199.5</ele>
        <time>2011-07-02T15:52:15Z</time>
      </trkpt>
      <trkpt lat="49.19984" lon="0.61914">
        <ele>199.8</ele>
        <time>2011-07-02T15:52:19Z</time>
      </trkpt>
      <trkpt lat="49.20003" lon="0.61951">
        <ele>199.5</ele>
        <time>2011-07-02T15:52:23Z</time>
      </trkpt>
      <trkpt lat="49.20018" lon="0.61978">
        <ele>200</ele>
        <time>2011-07-02T15:52:26Z</time>
      </trkpt>
      <trkpt lat="49.20043" lon="0.62028">
        <ele>200.4</ele>
        <time>2011-07-02T15:52:31Z</time>
      </trkpt>
      <trkpt lat="49.20058" lon="0.62058">
        <ele>200.3</ele>
        <time>2011-07-02T15:52:32Z</time>
      </trkpt>
      <trkpt lat="49.20178" lon="0.62334">
        <ele>197.8</ele>
        <time>2011-07-02T15:52:59Z</time>
      </trkpt>
      <trkpt lat="49.20194" lon="0.62379">
        <ele>197.5</ele>
        <time>2011-07-02T15:53:03Z</time>
      </trkpt>
      <trkpt lat="49.20229" lon="0.62465">
        <ele>196.7</ele>
        <time>2011-07-02T15:53:11Z</time>
      </trkpt>
      <trkpt lat="49.20284" lon="0.62602">
        <ele>197.8</ele>
        <time>2011-07-02T15:53:23Z</time>
      </trkpt>
      <trkpt lat="49.2032" lon="0.62753">
        <ele>196.9</ele>
        <time>2011-07-02T15:53:40Z</time>
      </trkpt>
      <trkpt lat="49.20366" lon="0.62936">
        <ele>196.1</ele>
        <time>2011-07-02T15:53:55Z</time>
      </trkpt>
      <trkpt lat="49.20381" lon="0.62984">
        <ele>196.9</ele>
        <time>2011-07-02T15:53:59Z</time>
      </trkpt>
      <trkpt lat="49.20396" lon="0.6303">
        <ele>196.1</ele>
        <time>2011-07-02T15:54:03Z</time>
      </trkpt>
      <trkpt lat="49.20411" lon="0.63073">
        <ele>196.2</ele>
        <time>2011-07-02T15:54:07Z</time>
      </trkpt>
      <trkpt lat="49.20427" lon="0.63119">
        <ele>195.8</ele>
        <time>2011-07-02T15:54:11Z</time>
      </trkpt>
      <trkpt lat="49.20445" lon="0.6316">
        <ele>195.6</ele>
        <time>2011-07-02T15:54:15Z</time>
      </trkpt>
      <trkpt lat="49.20463" lon="0.632">
        <ele>196.3</ele>
        <time>2011-07-02T15:54:19Z</time>
      </trkpt>
      <trkpt lat="49.20484" lon="0.63242">
        <ele>195.7</ele>
        <time>2011-07-02T15:54:23Z</time>
      </trkpt>
      <trkpt lat="49.20508" lon="0.63281">
        <ele>195.9</ele>
        <time>2011-07-02T15:54:27Z</time>
      </trkpt>
      <trkpt lat="49.2053" lon="0.63321">
        <ele>195.4</ele>
        <time>2011-07-02T15:54:31Z</time>
      </trkpt>
      <trkpt lat="49.20554" lon="0.63358">
        <ele>193.9</ele>
        <time>2011-07-02T15:54:35Z</time>
      </trkpt>
      <trkpt lat="49.20573" lon="0.63401">
        <ele>193.4</ele>
        <time>2011-07-02T15:54:39Z</time>
      </trkpt>
      <trkpt lat="49.20631" lon="0.63934">
        <ele>188.1</ele>
        <time>2011-07-02T15:55:19Z</time>
      </trkpt>
      <trkpt lat="49.2063" lon="0.63984">
        <ele>187.1</ele>
        <time>2011-07-02T15:55:23Z</time>
      </trkpt>
      <trkpt lat="49.20639" lon="0.64173">
        <ele>184.9</ele>
        <time>2011-07-02T15:55:39Z</time>
      </trkpt>
      <trkpt lat="49.20639" lon="0.64399">
        <ele>185</ele>
        <time>2011-07-02T15:56:00Z</time>
      </trkpt>
      <trkpt lat="49.20687" lon="0.648">
        <ele>186.1</ele>
        <time>2011-07-02T15:56:40Z</time>
      </trkpt>
      <trkpt lat="49.20704" lon="0.64884">
        <ele>186.1</ele>
        <time>2011-07-02T15:56:47Z</time>
      </trkpt>
      <trkpt lat="49.2071" lon="0.64915">
        <ele>187</ele>
        <time>2011-07-02T15:56:50Z</time>
      </trkpt>
      <trkpt lat="49.20728" lon="0.65001">
        <ele>188.3</ele>
        <time>2011-07-02T15:56:59Z</time>
      </trkpt>
      <trkpt lat="49.20744" lon="0.65093">
        <ele>188.2</ele>
        <time>2011-07-02T15:57:07Z</time>
      </trkpt>
      <trkpt lat="49.20749" lon="0.65122">
        <ele>188.7</ele>
        <time>2011-07-02T15:57:10Z</time>
      </trkpt>
      <trkpt lat="49.20758" lon="0.65167">
        <ele>189.1</ele>
        <time>2011-07-02T15:57:15Z</time>
      </trkpt>
      <trkpt lat="49.20765" lon="0.65205">
        <ele>189.3</ele>
        <time>2011-07-02T15:57:19Z</time>
      </trkpt>
      <trkpt lat="49.20768" lon="0.65245">
        <ele>190.3</ele>
        <time>2011-07-02T15:57:23Z</time>
      </trkpt>
      <trkpt lat="49.20772" lon="0.65274">
        <ele>190.8</ele>
        <time>2011-07-02T15:57:26Z</time>
      </trkpt>
      <trkpt lat="49.20782" lon="0.6531">
        <ele>190.8</ele>
        <time>2011-07-02T15:57:30Z</time>
      </trkpt>
      <trkpt lat="49.20788" lon="0.65359">
        <ele>190.2</ele>
        <time>2011-07-02T15:57:35Z</time>
      </trkpt>
      <trkpt lat="49.20795" lon="0.65399">
        <ele>190.5</ele>
        <time>2011-07-02T15:57:39Z</time>
      </trkpt>
      <trkpt lat="49.208" lon="0.65441">
        <ele>190.9</ele>
        <time>2011-07-02T15:57:43Z</time>
      </trkpt>
      <trkpt lat="49.20809" lon="0.65479">
        <ele>190.5</ele>
        <time>2011-07-02T15:57:47Z</time>
      </trkpt>
      <trkpt lat="49.20819" lon="0.65515">
        <ele>189.9</ele>
        <time>2011-07-02T15:57:51Z</time>
      </trkpt>
      <trkpt lat="49.20831" lon="0.65555">
        <ele>191.1</ele>
        <time>2011-07-02T15:57:55Z</time>
      </trkpt>
      <trkpt lat="49.20843" lon="0.65592">
        <ele>190.5</ele>
        <time>2011-07-02T15:57:59Z</time>
      </trkpt>
      <trkpt lat="49.20851" lon="0.65634">
        <ele>191.3</ele>
        <time>2011-07-02T15:58:03Z</time>
      </trkpt>
      <trkpt lat="49.20851" lon="0.65677">
        <ele>191.4</ele>
        <time>2011-07-02T15:58:07Z</time>
      </trkpt>
      <trkpt lat="49.20849" lon="0.6572">
        <ele>192.6</ele>
        <time>2011-07-02T15:58:11Z</time>
      </trkpt>
      <trkpt lat="49.20849" lon="0.65762">
        <ele>193.6</ele>
        <time>2011-07-02T15:58:15Z</time>
      </trkpt>
      <trkpt lat="49.20848" lon="0.65948">
        <ele>195.2</ele>
        <time>2011-07-02T15:58:35Z</time>
      </trkpt>
      <trkpt lat="49.20847" lon="0.66027">
        <ele>195.5</ele>
        <time>2011-07-02T15:58:43Z</time>
      </trkpt>
      <trkpt lat="49.20845" lon="0.66101">
        <ele>194.7</ele>
        <time>2011-07-02T15:58:51Z</time>
      </trkpt>
      <trkpt lat="49.20844" lon="0.66137">
        <ele>194.6</ele>
        <time>2011-07-02T15:58:55Z</time>
      </trkpt>
      <trkpt lat="49.20843" lon="0.66155">
        <ele>194.8</ele>
        <time>2011-07-02T15:58:57Z</time>
      </trkpt>
      <trkpt lat="49.20839" lon="0.66212">
        <ele>194.8</ele>
        <time>2011-07-02T15:59:04Z</time>
      </trkpt>
      <trkpt lat="49.20837" lon="0.66336">
        <ele>193.9</ele>
        <time>2011-07-02T15:59:16Z</time>
      </trkpt>
      <trkpt lat="49.20845" lon="0.66512">
        <ele>192.3</ele>
        <time>2011-07-02T15:59:34Z</time>
      </trkpt>
      <trkpt lat="49.20854" lon="0.66585">
        <ele>192.9</ele>
        <time>2011-07-02T15:59:42Z</time>
      </trkpt>
      <trkpt lat="49.20857" lon="0.66614">
        <ele>193.1</ele>
        <time>2011-07-02T15:59:44Z</time>
      </trkpt>
      <trkpt lat="49.20907" lon="0.66831">
        <ele>193.9</ele>
        <time>2011-07-02T16:00:07Z</time>
      </trkpt>
      <trkpt lat="49.20917" lon="0.66869">
        <ele>192.9</ele>
        <time>2011-07-02T16:00:11Z</time>
      </trkpt>
      <trkpt lat="49.20927" lon="0.66917">
        <ele>192.3</ele>
        <time>2011-07-02T16:00:16Z</time>
      </trkpt>
      <trkpt lat="49.20935" lon="0.6696">
        <ele>192.6</ele>
        <time>2011-07-02T16:00:20Z</time>
      </trkpt>
      <trkpt lat="49.20943" lon="0.67004">
        <ele>190.6</ele>
        <time>2011-07-02T16:00:24Z</time>
      </trkpt>
      <trkpt lat="49.20954" lon="0.67044">
        <ele>190.5</ele>
        <time>2011-07-02T16:00:28Z</time>
      </trkpt>
      <trkpt lat="49.20962" lon="0.67085">
        <ele>190.5</ele>
        <time>2011-07-02T16:00:32Z</time>
      </trkpt>
      <trkpt lat="49.20969" lon="0.67127">
        <ele>189.7</ele>
        <time>2011-07-02T16:00:36Z</time>
      </trkpt>
      <trkpt lat="49.20979" lon="0.67167">
        <ele>189</ele>
        <time>2011-07-02T16:00:40Z</time>
      </trkpt>
      <trkpt lat="49.20989" lon="0.67212">
        <ele>188.5</ele>
        <time>2011-07-02T16:00:44Z</time>
      </trkpt>
      <trkpt lat="49.20992" lon="0.67257">
        <ele>188.6</ele>
        <time>2011-07-02T16:00:48Z</time>
      </trkpt>
      <trkpt lat="49.2099" lon="0.673">
        <ele>186.8</ele>
        <time>2011-07-02T16:00:52Z</time>
      </trkpt>
      <trkpt lat="49.20987" lon="0.67343">
        <ele>185.7</ele>
        <time>2011-07-02T16:00:56Z</time>
      </trkpt>
      <trkpt lat="49.20984" lon="0.67384">
        <ele>184.5</ele>
        <time>2011-07-02T16:01:00Z</time>
      </trkpt>
      <trkpt lat="49.20979" lon="0.67427">
        <ele>183.3</ele>
        <time>2011-07-02T16:01:04Z</time>
      </trkpt>
      <trkpt lat="49.20975" lon="0.67471">
        <ele>182.6</ele>
        <time>2011-07-02T16:01:08Z</time>
      </trkpt>
      <trkpt lat="49.20974" lon="0.67516">
        <ele>181.9</ele>
        <time>2011-07-02T16:01:12Z</time>
      </trkpt>
      <trkpt lat="49.20971" lon="0.67561">
        <ele>182</ele>
        <time>2011-07-02T16:01:16Z</time>
      </trkpt>
      <trkpt lat="49.20968" lon="0.67595">
        <ele>181.1</ele>
        <time>2011-07-02T16:01:19Z</time>
      </trkpt>
      <trkpt lat="49.20965" lon="0.67642">
        <ele>180.8</ele>
        <time>2011-07-02T16:01:23Z</time>
      </trkpt>
      <trkpt lat="49.20961" lon="0.67774">
        <ele>180.2</ele>
        <time>2011-07-02T16:01:34Z</time>
      </trkpt>
      <trkpt lat="49.20962" lon="0.67832">
        <ele>180.2</ele>
        <time>2011-07-02T16:01:40Z</time>
      </trkpt>
      <trkpt lat="49.20961" lon="0.67869">
        <ele>180.1</ele>
        <time>2011-07-02T16:01:43Z</time>
      </trkpt>
      <trkpt lat="49.20965" lon="0.67973">
        <ele>179.3</ele>
        <time>2011-07-02T16:01:51Z</time>
      </trkpt>
      <trkpt lat="49.20965" lon="0.68042">
        <ele>179.6</ele>
        <time>2011-07-02T16:01:58Z</time>
      </trkpt>
      <trkpt lat="49.20963" lon="0.6811">
        <ele>180.6</ele>
        <time>2011-07-02T16:02:03Z</time>
      </trkpt>
      <trkpt lat="49.20961" lon="0.68156">
        <ele>179.8</ele>
        <time>2011-07-02T16:02:07Z</time>
      </trkpt>
      <trkpt lat="49.20954" lon="0.682">
        <ele>178.8</ele>
        <time>2011-07-02T16:02:11Z</time>
      </trkpt>
      <trkpt lat="49.20944" lon="0.68232">
        <ele>178.2</ele>
        <time>2011-07-02T16:02:14Z</time>
      </trkpt>
      <trkpt lat="49.20934" lon="0.68263">
        <ele>177.9</ele>
        <time>2011-07-02T16:02:17Z</time>
      </trkpt>
      <trkpt lat="49.20917" lon="0.68316">
        <ele>177.6</ele>
        <time>2011-07-02T16:02:22Z</time>
      </trkpt>
      <trkpt lat="49.20904" lon="0.68358">
        <ele>177.3</ele>
        <time>2011-07-02T16:02:25Z</time>
      </trkpt>
      <trkpt lat="49.20858" lon="0.68572">
        <ele>176.4</ele>
        <time>2011-07-02T16:02:45Z</time>
      </trkpt>
      <trkpt lat="49.20747" lon="0.69072">
        <ele>174.1</ele>
        <time>2011-07-02T16:03:27Z</time>
      </trkpt>
      <trkpt lat="49.20774" lon="0.69363">
        <ele>172.1</ele>
        <time>2011-07-02T16:03:52Z</time>
      </trkpt>
      <trkpt lat="49.20756" lon="0.69503">
        <ele>170.9</ele>
        <time>2011-07-02T16:04:00Z</time>
      </trkpt>
      <trkpt lat="49.20702" lon="0.69603">
        <ele>169.1</ele>
        <time>2011-07-02T16:04:07Z</time>
      </trkpt>
      <trkpt lat="49.20671" lon="0.69625">
        <ele>168.3</ele>
        <time>2011-07-02T16:04:10Z</time>
      </trkpt>
      <trkpt lat="49.20562" lon="0.69638">
        <ele>160.3</ele>
        <time>2011-07-02T16:04:19Z</time>
      </trkpt>
      <trkpt lat="49.20519" lon="0.6962">
        <ele>159.8</ele>
        <time>2011-07-02T16:04:23Z</time>
      </trkpt>
      <trkpt lat="49.20481" lon="0.69587">
        <ele>159.3</ele>
        <time>2011-07-02T16:04:27Z</time>
      </trkpt>
      <trkpt lat="49.20438" lon="0.69588">
        <ele>158.2</ele>
        <time>2011-07-02T16:04:31Z</time>
      </trkpt>
      <trkpt lat="49.20392" lon="0.69619">
        <ele>157.9</ele>
        <time>2011-07-02T16:04:35Z</time>
      </trkpt>
      <trkpt lat="49.20346" lon="0.69647">
        <ele>156.5</ele>
        <time>2011-07-02T16:04:39Z</time>
      </trkpt>
      <trkpt lat="49.20298" lon="0.69669">
        <ele>156.3</ele>
        <time>2011-07-02T16:04:43Z</time>
      </trkpt>
      <trkpt lat="49.20267" lon="0.69694">
        <ele>155.8</ele>
        <time>2011-07-02T16:04:46Z</time>
      </trkpt>
      <trkpt lat="49.20215" lon="0.69741">
        <ele>156.4</ele>
        <time>2011-07-02T16:04:51Z</time>
      </trkpt>
      <trkpt lat="49.20184" lon="0.69755">
        <ele>156.1</ele>
        <time>2011-07-02T16:04:54Z</time>
      </trkpt>
      <trkpt lat="49.20132" lon="0.69768">
        <ele>154.8</ele>
        <time>2011-07-02T16:04:59Z</time>
      </trkpt>
      <trkpt lat="49.20085" lon="0.69803">
        <ele>155.2</ele>
        <time>2011-07-02T16:05:03Z</time>
      </trkpt>
      <trkpt lat="49.19974" lon="0.69979">
        <ele>150.1</ele>
        <time>2011-07-02T16:05:18Z</time>
      </trkpt>
      <trkpt lat="49.19828" lon="0.70137">
        <ele>145.1</ele>
        <time>2011-07-02T16:05:36Z</time>
      </trkpt>
      <trkpt lat="49.19781" lon="0.70199">
        <ele>143.7</ele>
        <time>2011-07-02T16:05:42Z</time>
      </trkpt>
      <trkpt lat="49.19729" lon="0.70314">
        <ele>133.5</ele>
        <time>2011-07-02T16:05:51Z</time>
      </trkpt>
      <trkpt lat="49.19654" lon="0.70502">
        <ele>124.7</ele>
        <time>2011-07-02T16:06:07Z</time>
      </trkpt>
      <trkpt lat="49.196" lon="0.70564">
        <ele>125.2</ele>
        <time>2011-07-02T16:06:15Z</time>
      </trkpt>
      <trkpt lat="49.19552" lon="0.70616">
        <ele>124</ele>
        <time>2011-07-02T16:06:22Z</time>
      </trkpt>
      <trkpt lat="49.19508" lon="0.70696">
        <ele>122.6</ele>
        <time>2011-07-02T16:06:31Z</time>
      </trkpt>
      <trkpt lat="49.19477" lon="0.70764">
        <ele>122.2</ele>
        <time>2011-07-02T16:06:39Z</time>
      </trkpt>
      <trkpt lat="49.19475" lon="0.70976">
        <ele>118.8</ele>
        <time>2011-07-02T16:06:59Z</time>
      </trkpt>
      <trkpt lat="49.19496" lon="0.71097">
        <ele>116.3</ele>
        <time>2011-07-02T16:07:21Z</time>
      </trkpt>
      <trkpt lat="49.19496" lon="0.71097">
        <ele>59.9</ele>
        <time>2011-07-02T16:07:52Z</time>
      </trkpt>
      <trkpt lat="49.19496" lon="0.71097">
        <ele>59.9</ele>
        <time>2011-07-02T16:07:59Z</time>
      </trkpt>
      <trkpt lat="49.19345" lon="0.7113">
        <ele>108.4</ele>
        <time>2011-07-02T16:08:33Z</time>
      </trkpt>
      <trkpt lat="49.19268" lon="0.71132">
        <ele>107.6</ele>
        <time>2011-07-02T16:08:48Z</time>
      </trkpt>
      <trkpt lat="49.19245" lon="0.7113">
        <ele>104.6</ele>
        <time>2011-07-02T16:08:55Z</time>
      </trkpt>
      <trkpt lat="49.19238" lon="0.71129">
        <ele>99.6</ele>
        <time>2011-07-02T16:08:56Z</time>
      </trkpt>
      <trkpt lat="49.19238" lon="0.71129">
        <ele>65.8</ele>
        <time>2011-07-02T16:09:28Z</time>
      </trkpt>
      <trkpt lat="49.19238" lon="0.71129">
        <ele>65.8</ele>
        <time>2011-07-02T16:09:32Z</time>
      </trkpt>
      <trkpt lat="49.19292" lon="0.71707">
        <ele>103.2</ele>
        <time>2011-07-02T16:10:33Z</time>
      </trkpt>
      <trkpt lat="49.19293" lon="0.71766">
        <ele>103.5</ele>
        <time>2011-07-02T16:10:40Z</time>
      </trkpt>
      <trkpt lat="49.19294" lon="0.71834">
        <ele>103.2</ele>
        <time>2011-07-02T16:10:47Z</time>
      </trkpt>
      <trkpt lat="49.19295" lon="0.71922">
        <ele>104.9</ele>
        <time>2011-07-02T16:10:56Z</time>
      </trkpt>
      <trkpt lat="49.19296" lon="0.71985">
        <ele>103.6</ele>
        <time>2011-07-02T16:11:04Z</time>
      </trkpt>
      <trkpt lat="49.19308" lon="0.72053">
        <ele>102.3</ele>
        <time>2011-07-02T16:11:15Z</time>
      </trkpt>
      <trkpt lat="49.19326" lon="0.72045">
        <ele>102.2</ele>
        <time>2011-07-02T16:11:19Z</time>
      </trkpt>
      <trkpt lat="49.19369" lon="0.72043">
        <ele>101.5</ele>
        <time>2011-07-02T16:11:27Z</time>
      </trkpt>
      <trkpt lat="49.19406" lon="0.72047">
        <ele>103.1</ele>
        <time>2011-07-02T16:11:35Z</time>
      </trkpt>
      <trkpt lat="49.19422" lon="0.72049">
        <ele>104.3</ele>
        <time>2011-07-02T16:11:39Z</time>
      </trkpt>
      <trkpt lat="49.19451" lon="0.72074">
        <ele>105.9</ele>
        <time>2011-07-02T16:11:46Z</time>
      </trkpt>
      <trkpt lat="49.1945" lon="0.72099">
        <ele>106.1</ele>
        <time>2011-07-02T16:11:51Z</time>
      </trkpt>
      <trkpt lat="49.19444" lon="0.72161">
        <ele>105.2</ele>
        <time>2011-07-02T16:12:00Z</time>
      </trkpt>
      <trkpt lat="49.19431" lon="0.72224">
        <ele>105.3</ele>
        <time>2011-07-02T16:12:06Z</time>
      </trkpt>
      <trkpt lat="49.19431" lon="0.72292">
        <ele>107.3</ele>
        <time>2011-07-02T16:12:14Z</time>
      </trkpt>
      <trkpt lat="49.19423" lon="0.72346">
        <ele>109.5</ele>
        <time>2011-07-02T16:12:19Z</time>
      </trkpt>
      <trkpt lat="49.19419" lon="0.72362">
        <ele>109.9</ele>
        <time>2011-07-02T16:12:22Z</time>
      </trkpt>
      <trkpt lat="49.19381" lon="0.72455">
        <ele>111.1</ele>
        <time>2011-07-02T16:12:36Z</time>
      </trkpt>
      <trkpt lat="49.19349" lon="0.72521">
        <ele>111.7</ele>
        <time>2011-07-02T16:12:47Z</time>
      </trkpt>
      <trkpt lat="49.19325" lon="0.7257">
        <ele>111</ele>
        <time>2011-07-02T16:12:54Z</time>
      </trkpt>
      <trkpt lat="49.19309" lon="0.72625">
        <ele>111.6</ele>
        <time>2011-07-02T16:13:02Z</time>
      </trkpt>
      <trkpt lat="49.19311" lon="0.72674">
        <ele>115.4</ele>
        <time>2011-07-02T16:13:11Z</time>
      </trkpt>
      <trkpt lat="49.19338" lon="0.72818">
        <ele>124.7</ele>
        <time>2011-07-02T16:13:34Z</time>
      </trkpt>
      <trkpt lat="49.1934" lon="0.72833">
        <ele>126.5</ele>
        <time>2011-07-02T16:13:36Z</time>
      </trkpt>
      <trkpt lat="49.19334" lon="0.72879">
        <ele>129.1</ele>
        <time>2011-07-02T16:13:41Z</time>
      </trkpt>
      <trkpt lat="49.1931" lon="0.72965">
        <ele>132.4</ele>
        <time>2011-07-02T16:13:53Z</time>
      </trkpt>
      <trkpt lat="49.19288" lon="0.73023">
        <ele>134.1</ele>
        <time>2011-07-02T16:14:01Z</time>
      </trkpt>
      <trkpt lat="49.19254" lon="0.73123">
        <ele>138.6</ele>
        <time>2011-07-02T16:14:19Z</time>
      </trkpt>
      <trkpt lat="49.1925" lon="0.73147">
        <ele>141.4</ele>
        <time>2011-07-02T16:14:23Z</time>
      </trkpt>
      <trkpt lat="49.19242" lon="0.7324">
        <ele>152</ele>
        <time>2011-07-02T16:14:35Z</time>
      </trkpt>
      <trkpt lat="49.19223" lon="0.7335">
        <ele>155.1</ele>
        <time>2011-07-02T16:14:51Z</time>
      </trkpt>
      <trkpt lat="49.19115" lon="0.73536">
        <ele>160.2</ele>
        <time>2011-07-02T16:15:26Z</time>
      </trkpt>
      <trkpt lat="49.19084" lon="0.73574">
        <ele>162.7</ele>
        <time>2011-07-02T16:15:33Z</time>
      </trkpt>
      <trkpt lat="49.19062" lon="0.73605">
        <ele>162.7</ele>
        <time>2011-07-02T16:15:39Z</time>
      </trkpt>
      <trkpt lat="49.19052" lon="0.73627">
        <ele>161.5</ele>
        <time>2011-07-02T16:15:43Z</time>
      </trkpt>
      <trkpt lat="49.19036" lon="0.73665">
        <ele>162.8</ele>
        <time>2011-07-02T16:15:49Z</time>
      </trkpt>
      <trkpt lat="49.19" lon="0.73768">
        <ele>162.1</ele>
        <time>2011-07-02T16:16:06Z</time>
      </trkpt>
      <trkpt lat="49.18948" lon="0.73868">
        <ele>166.1</ele>
        <time>2011-07-02T16:16:25Z</time>
      </trkpt>
      <trkpt lat="49.18934" lon="0.73901">
        <ele>167.9</ele>
        <time>2011-07-02T16:16:32Z</time>
      </trkpt>
      <trkpt lat="49.18919" lon="0.73989">
        <ele>170.1</ele>
        <time>2011-07-02T16:16:43Z</time>
      </trkpt>
      <trkpt lat="49.1892" lon="0.74021">
        <ele>170.2</ele>
        <time>2011-07-02T16:16:47Z</time>
      </trkpt>
      <trkpt lat="49.18921" lon="0.74086">
        <ele>168.7</ele>
        <time>2011-07-02T16:16:54Z</time>
      </trkpt>
      <trkpt lat="49.18953" lon="0.74257">
        <ele>170.3</ele>
        <time>2011-07-02T16:17:14Z</time>
      </trkpt>
      <trkpt lat="49.1897" lon="0.74338">
        <ele>169.9</ele>
        <time>2011-07-02T16:17:22Z</time>
      </trkpt>
      <trkpt lat="49.18986" lon="0.74438">
        <ele>168</ele>
        <time>2011-07-02T16:17:31Z</time>
      </trkpt>
      <trkpt lat="49.19007" lon="0.74531">
        <ele>164.5</ele>
        <time>2011-07-02T16:17:39Z</time>
      </trkpt>
      <trkpt lat="49.19017" lon="0.74607">
        <ele>161.6</ele>
        <time>2011-07-02T16:17:46Z</time>
      </trkpt>
      <trkpt lat="49.19009" lon="0.74649">
        <ele>162.5</ele>
        <time>2011-07-02T16:17:52Z</time>
      </trkpt>
      <trkpt lat="49.18972" lon="0.74711">
        <ele>162.8</ele>
        <time>2011-07-02T16:18:01Z</time>
      </trkpt>
      <trkpt lat="49.18935" lon="0.74777">
        <ele>163.5</ele>
        <time>2011-07-02T16:18:10Z</time>
      </trkpt>
      <trkpt lat="49.18902" lon="0.74867">
        <ele>165.1</ele>
        <time>2011-07-02T16:18:21Z</time>
      </trkpt>
      <trkpt lat="49.18871" lon="0.74945">
        <ele>166.5</ele>
        <time>2011-07-02T16:18:31Z</time>
      </trkpt>
      <trkpt lat="49.18812" lon="0.75065">
        <ele>166.5</ele>
        <time>2011-07-02T16:18:46Z</time>
      </trkpt>
      <trkpt lat="49.18787" lon="0.75118">
        <ele>165.7</ele>
        <time>2011-07-02T16:18:53Z</time>
      </trkpt>
      <trkpt lat="49.1876" lon="0.75181">
        <ele>167.7</ele>
        <time>2011-07-02T16:19:03Z</time>
      </trkpt>
      <trkpt lat="49.18714" lon="0.75282">
        <ele>171.8</ele>
        <time>2011-07-02T16:19:21Z</time>
      </trkpt>
      <trkpt lat="49.18664" lon="0.75368">
        <ele>175.1</ele>
        <time>2011-07-02T16:19:37Z</time>
      </trkpt>
      <trkpt lat="49.18643" lon="0.75392">
        <ele>175.9</ele>
        <time>2011-07-02T16:19:43Z</time>
      </trkpt>
      <trkpt lat="49.18635" lon="0.754">
        <ele>176.2</ele>
        <time>2011-07-02T16:19:44Z</time>
      </trkpt>
      <trkpt lat="49.1861" lon="0.75425">
        <ele>177.3</ele>
        <time>2011-07-02T16:19:51Z</time>
      </trkpt>
      <trkpt lat="49.18595" lon="0.7544">
        <ele>177.6</ele>
        <time>2011-07-02T16:19:55Z</time>
      </trkpt>
      <trkpt lat="49.18579" lon="0.75456">
        <ele>177.8</ele>
        <time>2011-07-02T16:19:59Z</time>
      </trkpt>
      <trkpt lat="49.1856" lon="0.75473">
        <ele>179.3</ele>
        <time>2011-07-02T16:20:03Z</time>
      </trkpt>
      <trkpt lat="49.18532" lon="0.75499">
        <ele>179.7</ele>
        <time>2011-07-02T16:20:08Z</time>
      </trkpt>
      <trkpt lat="49.18509" lon="0.75519">
        <ele>180.1</ele>
        <time>2011-07-02T16:20:12Z</time>
      </trkpt>
      <trkpt lat="49.18491" lon="0.75537">
        <ele>180.8</ele>
        <time>2011-07-02T16:20:16Z</time>
      </trkpt>
      <trkpt lat="49.18464" lon="0.7556">
        <ele>179.9</ele>
        <time>2011-07-02T16:20:23Z</time>
      </trkpt>
      <trkpt lat="49.18424" lon="0.75597">
        <ele>180.5</ele>
        <time>2011-07-02T16:20:34Z</time>
      </trkpt>
      <trkpt lat="49.18402" lon="0.75617">
        <ele>181.6</ele>
        <time>2011-07-02T16:20:40Z</time>
      </trkpt>
      <trkpt lat="49.18374" lon="0.75641">
        <ele>183.7</ele>
        <time>2011-07-02T16:20:47Z</time>
      </trkpt>
      <trkpt lat="49.18357" lon="0.75652">
        <ele>184.5</ele>
        <time>2011-07-02T16:20:51Z</time>
      </trkpt>
      <trkpt lat="49.18344" lon="0.75665">
        <ele>185.6</ele>
        <time>2011-07-02T16:20:55Z</time>
      </trkpt>
      <trkpt lat="49.18294" lon="0.75707">
        <ele>187.1</ele>
        <time>2011-07-02T16:21:07Z</time>
      </trkpt>
      <trkpt lat="49.18262" lon="0.75732">
        <ele>188.2</ele>
        <time>2011-07-02T16:21:15Z</time>
      </trkpt>
      <trkpt lat="49.18178" lon="0.75814">
        <ele>186.1</ele>
        <time>2011-07-02T16:21:33Z</time>
      </trkpt>
      <trkpt lat="49.18118" lon="0.75895">
        <ele>184.1</ele>
        <time>2011-07-02T16:21:45Z</time>
      </trkpt>
      <trkpt lat="49.18075" lon="0.75964">
        <ele>184.1</ele>
        <time>2011-07-02T16:21:55Z</time>
      </trkpt>
      <trkpt lat="49.18045" lon="0.76006">
        <ele>183.2</ele>
        <time>2011-07-02T16:21:59Z</time>
      </trkpt>
      <trkpt lat="49.18011" lon="0.76048">
        <ele>183.3</ele>
        <time>2011-07-02T16:22:07Z</time>
      </trkpt>
      <trkpt lat="49.17991" lon="0.7607">
        <ele>183.2</ele>
        <time>2011-07-02T16:22:11Z</time>
      </trkpt>
      <trkpt lat="49.17894" lon="0.76165">
        <ele>181</ele>
        <time>2011-07-02T16:22:32Z</time>
      </trkpt>
      <trkpt lat="49.17831" lon="0.76221">
        <ele>182.2</ele>
        <time>2011-07-02T16:22:46Z</time>
      </trkpt>
      <trkpt lat="49.17801" lon="0.76253">
        <ele>182.9</ele>
        <time>2011-07-02T16:22:51Z</time>
      </trkpt>
      <trkpt lat="49.17718" lon="0.7633">
        <ele>181</ele>
        <time>2011-07-02T16:23:07Z</time>
      </trkpt>
      <trkpt lat="49.17692" lon="0.76354">
        <ele>180.4</ele>
        <time>2011-07-02T16:23:11Z</time>
      </trkpt>
      <trkpt lat="49.1761" lon="0.76434">
        <ele>181.4</ele>
        <time>2011-07-02T16:23:23Z</time>
      </trkpt>
      <trkpt lat="49.17489" lon="0.76621">
        <ele>181.5</ele>
        <time>2011-07-02T16:23:47Z</time>
      </trkpt>
      <trkpt lat="49.17426" lon="0.76728">
        <ele>180.7</ele>
        <time>2011-07-02T16:23:59Z</time>
      </trkpt>
      <trkpt lat="49.17312" lon="0.76915">
        <ele>181.9</ele>
        <time>2011-07-02T16:24:23Z</time>
      </trkpt>
      <trkpt lat="49.17273" lon="0.76982">
        <ele>182</ele>
        <time>2011-07-02T16:24:31Z</time>
      </trkpt>
      <trkpt lat="49.17233" lon="0.77049">
        <ele>182.3</ele>
        <time>2011-07-02T16:24:39Z</time>
      </trkpt>
      <trkpt lat="49.17197" lon="0.77108">
        <ele>180.9</ele>
        <time>2011-07-02T16:24:46Z</time>
      </trkpt>
      <trkpt lat="49.17125" lon="0.77289">
        <ele>180.9</ele>
        <time>2011-07-02T16:25:02Z</time>
      </trkpt>
      <trkpt lat="49.1708" lon="0.774">
        <ele>181.3</ele>
        <time>2011-07-02T16:25:12Z</time>
      </trkpt>
      <trkpt lat="49.17033" lon="0.77494">
        <ele>181.6</ele>
        <time>2011-07-02T16:25:19Z</time>
      </trkpt>
      <trkpt lat="49.16942" lon="0.77656">
        <ele>179.1</ele>
        <time>2011-07-02T16:25:35Z</time>
      </trkpt>
      <trkpt lat="49.16906" lon="0.77752">
        <ele>179.8</ele>
        <time>2011-07-02T16:25:43Z</time>
      </trkpt>
      <trkpt lat="49.16873" lon="0.77843">
        <ele>179.4</ele>
        <time>2011-07-02T16:25:52Z</time>
      </trkpt>
      <trkpt lat="49.16846" lon="0.77942">
        <ele>178.1</ele>
        <time>2011-07-02T16:25:59Z</time>
      </trkpt>
      <trkpt lat="49.16822" lon="0.78073">
        <ele>175.1</ele>
        <time>2011-07-02T16:26:11Z</time>
      </trkpt>
      <trkpt lat="49.16819" lon="0.78115">
        <ele>174.2</ele>
        <time>2011-07-02T16:26:15Z</time>
      </trkpt>
      <trkpt lat="49.16815" lon="0.78154">
        <ele>173</ele>
        <time>2011-07-02T16:26:19Z</time>
      </trkpt>
      <trkpt lat="49.16766" lon="0.78352">
        <ele>173.3</ele>
        <time>2011-07-02T16:26:42Z</time>
      </trkpt>
      <trkpt lat="49.16748" lon="0.78392">
        <ele>172.8</ele>
        <time>2011-07-02T16:26:47Z</time>
      </trkpt>
      <trkpt lat="49.16677" lon="0.78554">
        <ele>174.9</ele>
        <time>2011-07-02T16:27:09Z</time>
      </trkpt>
      <trkpt lat="49.16647" lon="0.78647">
        <ele>177.1</ele>
        <time>2011-07-02T16:27:22Z</time>
      </trkpt>
      <trkpt lat="49.16625" lon="0.787">
        <ele>179.9</ele>
        <time>2011-07-02T16:27:29Z</time>
      </trkpt>
      <trkpt lat="49.16534" lon="0.78813">
        <ele>182.7</ele>
        <time>2011-07-02T16:27:51Z</time>
      </trkpt>
      <trkpt lat="49.16494" lon="0.78861">
        <ele>180.8</ele>
        <time>2011-07-02T16:27:57Z</time>
      </trkpt>
      <trkpt lat="49.1645" lon="0.78925">
        <ele>179.9</ele>
        <time>2011-07-02T16:28:07Z</time>
      </trkpt>
      <trkpt lat="49.16373" lon="0.79033">
        <ele>180.7</ele>
        <time>2011-07-02T16:28:23Z</time>
      </trkpt>
      <trkpt lat="49.16339" lon="0.79082">
        <ele>181.1</ele>
        <time>2011-07-02T16:28:30Z</time>
      </trkpt>
      <trkpt lat="49.16316" lon="0.79115">
        <ele>180.5</ele>
        <time>2011-07-02T16:28:35Z</time>
      </trkpt>
      <trkpt lat="49.16282" lon="0.79163">
        <ele>181.5</ele>
        <time>2011-07-02T16:28:42Z</time>
      </trkpt>
      <trkpt lat="49.16234" lon="0.79247">
        <ele>181.2</ele>
        <time>2011-07-02T16:28:55Z</time>
      </trkpt>
      <trkpt lat="49.16122" lon="0.79811">
        <ele>184.8</ele>
        <time>2011-07-02T16:29:49Z</time>
      </trkpt>
      <trkpt lat="49.16025" lon="0.80236">
        <ele>181.7</ele>
        <time>2011-07-02T16:30:31Z</time>
      </trkpt>
      <trkpt lat="49.15981" lon="0.80331">
        <ele>181.3</ele>
        <time>2011-07-02T16:30:42Z</time>
      </trkpt>
      <trkpt lat="49.15951" lon="0.80386">
        <ele>180.5</ele>
        <time>2011-07-02T16:30:48Z</time>
      </trkpt>
      <trkpt lat="49.15937" lon="0.80414">
        <ele>180.2</ele>
        <time>2011-07-02T16:30:50Z</time>
      </trkpt>
      <trkpt lat="49.15864" lon="0.80542">
        <ele>178.2</ele>
        <time>2011-07-02T16:31:04Z</time>
      </trkpt>
      <trkpt lat="49.1559" lon="0.8103">
        <ele>170</ele>
        <time>2011-07-02T16:31:57Z</time>
      </trkpt>
      <trkpt lat="49.15544" lon="0.8106">
        <ele>170.6</ele>
        <time>2011-07-02T16:32:07Z</time>
      </trkpt>
      <trkpt lat="49.15482" lon="0.81117">
        <ele>173</ele>
        <time>2011-07-02T16:32:19Z</time>
      </trkpt>
      <trkpt lat="49.15464" lon="0.81141">
        <ele>174.3</ele>
        <time>2011-07-02T16:32:23Z</time>
      </trkpt>
      <trkpt lat="49.15382" lon="0.81307">
        <ele>177.9</ele>
        <time>2011-07-02T16:32:43Z</time>
      </trkpt>
      <trkpt lat="49.15372" lon="0.81329">
        <ele>180.1</ele>
        <time>2011-07-02T16:32:48Z</time>
      </trkpt>
      <trkpt lat="49.1534" lon="0.81392">
        <ele>183.3</ele>
        <time>2011-07-02T16:32:58Z</time>
      </trkpt>
      <trkpt lat="49.15328" lon="0.81439">
        <ele>184.7</ele>
        <time>2011-07-02T16:33:03Z</time>
      </trkpt>
      <trkpt lat="49.15303" lon="0.81483">
        <ele>185.5</ele>
        <time>2011-07-02T16:33:07Z</time>
      </trkpt>
      <trkpt lat="49.15287" lon="0.81515">
        <ele>186.9</ele>
        <time>2011-07-02T16:33:12Z</time>
      </trkpt>
      <trkpt lat="49.15257" lon="0.81595">
        <ele>189.3</ele>
        <time>2011-07-02T16:33:19Z</time>
      </trkpt>
      <trkpt lat="49.15231" lon="0.8165">
        <ele>188.8</ele>
        <time>2011-07-02T16:33:24Z</time>
      </trkpt>
      <trkpt lat="49.15229" lon="0.81661">
        <ele>189</ele>
        <time>2011-07-02T16:33:25Z</time>
      </trkpt>
      <trkpt lat="49.15191" lon="0.81728">
        <ele>191.3</ele>
        <time>2011-07-02T16:33:32Z</time>
      </trkpt>
      <trkpt lat="49.15177" lon="0.81754">
        <ele>192.1</ele>
        <time>2011-07-02T16:33:35Z</time>
      </trkpt>
      <trkpt lat="49.15161" lon="0.81787">
        <ele>191.3</ele>
        <time>2011-07-02T16:33:39Z</time>
      </trkpt>
      <trkpt lat="49.15139" lon="0.81819">
        <ele>191.4</ele>
        <time>2011-07-02T16:33:43Z</time>
      </trkpt>
      <trkpt lat="49.1512" lon="0.81858">
        <ele>187.4</ele>
        <time>2011-07-02T16:33:46Z</time>
      </trkpt>
      <trkpt lat="49.15103" lon="0.81915">
        <ele>186.4</ele>
        <time>2011-07-02T16:33:52Z</time>
      </trkpt>
      <trkpt lat="49.15097" lon="0.81935">
        <ele>186.5</ele>
        <time>2011-07-02T16:33:53Z</time>
      </trkpt>
      <trkpt lat="49.1503" lon="0.82125">
        <ele>184.2</ele>
        <time>2011-07-02T16:34:11Z</time>
      </trkpt>
      <trkpt lat="49.1499" lon="0.82239">
        <ele>185</ele>
        <time>2011-07-02T16:34:22Z</time>
      </trkpt>
      <trkpt lat="49.1494" lon="0.82383">
        <ele>183</ele>
        <time>2011-07-02T16:34:35Z</time>
      </trkpt>
      <trkpt lat="49.14893" lon="0.82522">
        <ele>181.2</ele>
        <time>2011-07-02T16:34:47Z</time>
      </trkpt>
      <trkpt lat="49.14875" lon="0.82568">
        <ele>180.3</ele>
        <time>2011-07-02T16:34:51Z</time>
      </trkpt>
      <trkpt lat="49.14849" lon="0.82638">
        <ele>179.4</ele>
        <time>2011-07-02T16:34:57Z</time>
      </trkpt>
      <trkpt lat="49.14797" lon="0.82747">
        <ele>180.7</ele>
        <time>2011-07-02T16:35:07Z</time>
      </trkpt>
      <trkpt lat="49.14716" lon="0.8293">
        <ele>181.2</ele>
        <time>2011-07-02T16:35:23Z</time>
      </trkpt>
      <trkpt lat="49.14716" lon="0.83127">
        <ele>181.6</ele>
        <time>2011-07-02T16:35:38Z</time>
      </trkpt>
      <trkpt lat="49.14726" lon="0.83188">
        <ele>182.2</ele>
        <time>2011-07-02T16:35:43Z</time>
      </trkpt>
      <trkpt lat="49.14735" lon="0.83285">
        <ele>182.4</ele>
        <time>2011-07-02T16:35:51Z</time>
      </trkpt>
      <trkpt lat="49.14742" lon="0.83373">
        <ele>182.3</ele>
        <time>2011-07-02T16:35:59Z</time>
      </trkpt>
      <trkpt lat="49.14753" lon="0.83451">
        <ele>184.4</ele>
        <time>2011-07-02T16:36:07Z</time>
      </trkpt>
      <trkpt lat="49.14772" lon="0.83543">
        <ele>183.9</ele>
        <time>2011-07-02T16:36:15Z</time>
      </trkpt>
      <trkpt lat="49.1477" lon="0.83618">
        <ele>184.3</ele>
        <time>2011-07-02T16:36:21Z</time>
      </trkpt>
      <trkpt lat="49.14765" lon="0.83672">
        <ele>182.1</ele>
        <time>2011-07-02T16:36:28Z</time>
      </trkpt>
      <trkpt lat="49.14741" lon="0.83864">
        <ele>183.5</ele>
        <time>2011-07-02T16:36:50Z</time>
      </trkpt>
      <trkpt lat="49.14657" lon="0.84299">
        <ele>183</ele>
        <time>2011-07-02T16:37:38Z</time>
      </trkpt>
      <trkpt lat="49.14705" lon="0.84525">
        <ele>185.5</ele>
        <time>2011-07-02T16:38:03Z</time>
      </trkpt>
      <trkpt lat="49.14717" lon="0.84623">
        <ele>184.1</ele>
        <time>2011-07-02T16:38:13Z</time>
      </trkpt>
      <trkpt lat="49.14715" lon="0.84641">
        <ele>183.7</ele>
        <time>2011-07-02T16:38:16Z</time>
      </trkpt>
      <trkpt lat="49.1471" lon="0.8471">
        <ele>183.7</ele>
        <time>2011-07-02T16:38:22Z</time>
      </trkpt>
      <trkpt lat="49.14701" lon="0.84785">
        <ele>185.9</ele>
        <time>2011-07-02T16:38:31Z</time>
      </trkpt>
      <trkpt lat="49.14688" lon="0.84916">
        <ele>185.7</ele>
        <time>2011-07-02T16:38:43Z</time>
      </trkpt>
      <trkpt lat="49.14688" lon="0.85002">
        <ele>187</ele>
        <time>2011-07-02T16:38:51Z</time>
      </trkpt>
      <trkpt lat="49.1469" lon="0.85081">
        <ele>187.9</ele>
        <time>2011-07-02T16:38:59Z</time>
      </trkpt>
      <trkpt lat="49.14703" lon="0.85142">
        <ele>187.5</ele>
        <time>2011-07-02T16:39:06Z</time>
      </trkpt>
      <trkpt lat="49.1474" lon="0.85167">
        <ele>188</ele>
        <time>2011-07-02T16:39:13Z</time>
      </trkpt>
      <trkpt lat="49.14799" lon="0.85219">
        <ele>187.4</ele>
        <time>2011-07-02T16:39:23Z</time>
      </trkpt>
      <trkpt lat="49.14886" lon="0.85311">
        <ele>187</ele>
        <time>2011-07-02T16:39:39Z</time>
      </trkpt>
      <trkpt lat="49.14902" lon="0.85344">
        <ele>186.7</ele>
        <time>2011-07-02T16:39:43Z</time>
      </trkpt>
      <trkpt lat="49.14917" lon="0.85392">
        <ele>187</ele>
        <time>2011-07-02T16:39:48Z</time>
      </trkpt>
      <trkpt lat="49.14938" lon="0.85463">
        <ele>186.8</ele>
        <time>2011-07-02T16:39:56Z</time>
      </trkpt>
      <trkpt lat="49.14946" lon="0.85492">
        <ele>186.4</ele>
        <time>2011-07-02T16:39:59Z</time>
      </trkpt>
      <trkpt lat="49.14961" lon="0.85535">
        <ele>186.1</ele>
        <time>2011-07-02T16:40:03Z</time>
      </trkpt>
      <trkpt lat="49.14965" lon="0.85555">
        <ele>187.3</ele>
        <time>2011-07-02T16:40:04Z</time>
      </trkpt>
      <trkpt lat="49.14973" lon="0.85584">
        <ele>187.6</ele>
        <time>2011-07-02T16:40:08Z</time>
      </trkpt>
      <trkpt lat="49.14991" lon="0.85677">
        <ele>189.3</ele>
        <time>2011-07-02T16:40:19Z</time>
      </trkpt>
      <trkpt lat="49.15" lon="0.8572">
        <ele>189.8</ele>
        <time>2011-07-02T16:40:24Z</time>
      </trkpt>
      <trkpt lat="49.15007" lon="0.85769">
        <ele>189.3</ele>
        <time>2011-07-02T16:40:30Z</time>
      </trkpt>
      <trkpt lat="49.15012" lon="0.85807">
        <ele>190.6</ele>
        <time>2011-07-02T16:40:37Z</time>
      </trkpt>
      <trkpt lat="49.15009" lon="0.85816">
        <ele>190.3</ele>
        <time>2011-07-02T16:40:43Z</time>
      </trkpt>
      <trkpt lat="49.15009" lon="0.85816">
        <ele>139.9</ele>
        <time>2011-07-02T16:41:13Z</time>
      </trkpt>
      <trkpt lat="49.15009" lon="0.85816">
        <ele>139.9</ele>
        <time>2011-07-02T16:41:43Z</time>
      </trkpt>
      <trkpt lat="49.14992" lon="0.85906">
        <ele>189.3</ele>
        <time>2011-07-02T16:41:52Z</time>
      </trkpt>
      <trkpt lat="49.15005" lon="0.86032">
        <ele>190.7</ele>
        <time>2011-07-02T16:42:04Z</time>
      </trkpt>
      <trkpt lat="49.15007" lon="0.86103">
        <ele>190.4</ele>
        <time>2011-07-02T16:42:13Z</time>
      </trkpt>
      <trkpt lat="49.15008" lon="0.86246">
        <ele>191.1</ele>
        <time>2011-07-02T16:42:26Z</time>
      </trkpt>
      <trkpt lat="49.15019" lon="0.864">
        <ele>190.2</ele>
        <time>2011-07-02T16:42:42Z</time>
      </trkpt>
      <trkpt lat="49.14967" lon="0.86633">
        <ele>191.4</ele>
        <time>2011-07-02T16:43:05Z</time>
      </trkpt>
      <trkpt lat="49.14941" lon="0.8672">
        <ele>190.9</ele>
        <time>2011-07-02T16:43:14Z</time>
      </trkpt>
      <trkpt lat="49.14915" lon="0.86798">
        <ele>189.8</ele>
        <time>2011-07-02T16:43:22Z</time>
      </trkpt>
      <trkpt lat="49.14863" lon="0.86928">
        <ele>190.5</ele>
        <time>2011-07-02T16:43:40Z</time>
      </trkpt>
      <trkpt lat="49.14859" lon="0.86987">
        <ele>190.6</ele>
        <time>2011-07-02T16:43:46Z</time>
      </trkpt>
      <trkpt lat="49.1486" lon="0.87007">
        <ele>190.6</ele>
        <time>2011-07-02T16:43:48Z</time>
      </trkpt>
      <trkpt lat="49.14868" lon="0.87181">
        <ele>190</ele>
        <time>2011-07-02T16:44:05Z</time>
      </trkpt>
      <trkpt lat="49.14859" lon="0.87317">
        <ele>191.3</ele>
        <time>2011-07-02T16:44:18Z</time>
      </trkpt>
      <trkpt lat="49.14851" lon="0.87379">
        <ele>190.7</ele>
        <time>2011-07-02T16:44:25Z</time>
      </trkpt>
      <trkpt lat="49.14839" lon="0.8745">
        <ele>191.3</ele>
        <time>2011-07-02T16:44:30Z</time>
      </trkpt>
      <trkpt lat="49.14827" lon="0.87554">
        <ele>191.3</ele>
        <time>2011-07-02T16:44:41Z</time>
      </trkpt>
      <trkpt lat="49.14821" lon="0.87711">
        <ele>192.7</ele>
        <time>2011-07-02T16:44:54Z</time>
      </trkpt>
      <trkpt lat="49.14821" lon="0.8781">
        <ele>192.8</ele>
        <time>2011-07-02T16:45:02Z</time>
      </trkpt>
      <trkpt lat="49.14825" lon="0.87883">
        <ele>191.8</ele>
        <time>2011-07-02T16:45:10Z</time>
      </trkpt>
      <trkpt lat="49.14828" lon="0.8814">
        <ele>187.5</ele>
        <time>2011-07-02T16:45:30Z</time>
      </trkpt>
      <trkpt lat="49.1483" lon="0.88179">
        <ele>187</ele>
        <time>2011-07-02T16:45:33Z</time>
      </trkpt>
      <trkpt lat="49.1483" lon="0.88235">
        <ele>187.1</ele>
        <time>2011-07-02T16:45:38Z</time>
      </trkpt>
      <trkpt lat="49.14829" lon="0.88339">
        <ele>187.4</ele>
        <time>2011-07-02T16:45:45Z</time>
      </trkpt>
      <trkpt lat="49.14824" lon="0.88439">
        <ele>185.1</ele>
        <time>2011-07-02T16:45:54Z</time>
      </trkpt>
      <trkpt lat="49.14824" lon="0.88634">
        <ele>185.2</ele>
        <time>2011-07-02T16:46:09Z</time>
      </trkpt>
      <trkpt lat="49.14825" lon="0.88688">
        <ele>184.6</ele>
        <time>2011-07-02T16:46:14Z</time>
      </trkpt>
      <trkpt lat="49.14827" lon="0.88728">
        <ele>185.1</ele>
        <time>2011-07-02T16:46:16Z</time>
      </trkpt>
      <trkpt lat="49.14824" lon="0.88853">
        <ele>184.2</ele>
        <time>2011-07-02T16:46:25Z</time>
      </trkpt>
      <trkpt lat="49.1482" lon="0.88975">
        <ele>183.9</ele>
        <time>2011-07-02T16:46:35Z</time>
      </trkpt>
      <trkpt lat="49.14816" lon="0.89017">
        <ele>182.7</ele>
        <time>2011-07-02T16:46:38Z</time>
      </trkpt>
      <trkpt lat="49.1481" lon="0.891">
        <ele>183.2</ele>
        <time>2011-07-02T16:46:43Z</time>
      </trkpt>
      <trkpt lat="49.14801" lon="0.89235">
        <ele>181.6</ele>
        <time>2011-07-02T16:46:51Z</time>
      </trkpt>
      <trkpt lat="49.14779" lon="0.89347">
        <ele>179.8</ele>
        <time>2011-07-02T16:46:58Z</time>
      </trkpt>
      <trkpt lat="49.14769" lon="0.89394">
        <ele>179.3</ele>
        <time>2011-07-02T16:46:59Z</time>
      </trkpt>
      <trkpt lat="49.14749" lon="0.89475">
        <ele>178.2</ele>
        <time>2011-07-02T16:47:07Z</time>
      </trkpt>
      <trkpt lat="49.14729" lon="0.89539">
        <ele>177.6</ele>
        <time>2011-07-02T16:47:11Z</time>
      </trkpt>
      <trkpt lat="49.14704" lon="0.89607">
        <ele>178.3</ele>
        <time>2011-07-02T16:47:24Z</time>
      </trkpt>
      <trkpt lat="49.14766" lon="0.89813">
        <ele>180.4</ele>
        <time>2011-07-02T16:47:53Z</time>
      </trkpt>
      <trkpt lat="49.14777" lon="0.89879">
        <ele>180.8</ele>
        <time>2011-07-02T16:47:58Z</time>
      </trkpt>
      <trkpt lat="49.14802" lon="0.89992">
        <ele>182.8</ele>
        <time>2011-07-02T16:48:14Z</time>
      </trkpt>
      <trkpt lat="49.1482" lon="0.90006">
        <ele>189.7</ele>
        <time>2011-07-02T16:48:21Z</time>
      </trkpt>
      <trkpt lat="49.14826" lon="0.90008">
        <ele>189.7</ele>
        <time>2011-07-02T16:48:27Z</time>
      </trkpt>
      <trkpt lat="49.14826" lon="0.90008">
        <ele>133</ele>
        <time>2011-07-02T16:48:58Z</time>
      </trkpt>
      <trkpt lat="49.14826" lon="0.90008">
        <ele>133</ele>
        <time>2011-07-02T16:49:05Z</time>
      </trkpt>
      <trkpt lat="49.14841" lon="0.90007">
        <ele>189.6</ele>
        <time>2011-07-02T16:49:13Z</time>
      </trkpt>
      <trkpt lat="49.14841" lon="0.90007">
        <ele>132.8</ele>
        <time>2011-07-02T16:49:45Z</time>
      </trkpt>
      <trkpt lat="49.14841" lon="0.90007">
        <ele>132.8</ele>
        <time>2011-07-02T16:50:07Z</time>
      </trkpt>
      <trkpt lat="49.14841" lon="0.90007">
        <ele>132.8</ele>
        <time>2011-07-02T16:50:23Z</time>
      </trkpt>
    </trkseg>
  </trk>
</gpx>